<?xml version="1.0" encoding="utf-8"?>
<gpx xmlns:xsi="http://www.w3.org/2001/XMLSchema-instance" xmlns:xsd="http://www.w3.org/2001/XMLSchema" version="1.1" creator="Shapelink.com" xmlns="http://www.topografix.com/GPX/1/1" xmlns:gpxtpx="http://www.garmin.com/xmlschemas/TrackPointExtension/v1">
  <metadata>
    <name>Cykling 87.71 km, 2013-05-03</name>
    <desc></desc>
    <author><name>Alexander Engvall</name></author> 
    <time>2013-05-03T17:28:55Z</time>
  </metadata>
  <trk>
    <name>Cykling 87.71 km, 2013-05-03</name>
    <trkseg>
      <trkpt lat="59.3328267002" lon="18.0573611088">
        <ele>3</ele>
        <time>2013-05-03T17:28:55Z</time>
      </trkpt>
      <trkpt lat="59.3328182345" lon="18.0573277489">
        <ele>6</ele>
        <time>2013-05-03T17:28:56Z</time>
      </trkpt>
      <trkpt lat="59.3328040691" lon="18.0573002562">
        <ele>9</ele>
        <time>2013-05-03T17:28:57Z</time>
      </trkpt>
      <trkpt lat="59.3327798454" lon="18.0572769546">
        <ele>12</ele>
        <time>2013-05-03T17:28:58Z</time>
      </trkpt>
      <trkpt lat="59.3326775024" lon="18.0572698299">
        <ele>12</ele>
        <time>2013-05-03T17:29:01Z</time>
      </trkpt>
      <trkpt lat="59.3325825355" lon="18.057345267">
        <ele>12</ele>
        <time>2013-05-03T17:29:04Z</time>
      </trkpt>
      <trkpt lat="59.3325202579" lon="18.0574062873">
        <ele>12</ele>
        <time>2013-05-03T17:29:06Z</time>
      </trkpt>
      <trkpt lat="59.3323662824" lon="18.0575535573">
        <ele>12</ele>
        <time>2013-05-03T17:29:12Z</time>
      </trkpt>
      <trkpt lat="59.3322194315" lon="18.057622205">
        <ele>12</ele>
        <time>2013-05-03T17:29:18Z</time>
      </trkpt>
      <trkpt lat="59.3321892567" lon="18.0576225403">
        <ele>12</ele>
        <time>2013-05-03T17:29:19Z</time>
      </trkpt>
      <trkpt lat="59.332121531" lon="18.0576257254">
        <ele>10</ele>
        <time>2013-05-03T17:29:21Z</time>
      </trkpt>
      <trkpt lat="59.3320623547" lon="18.0576885897">
        <ele>8.2</ele>
        <time>2013-05-03T17:29:22Z</time>
      </trkpt>
      <trkpt lat="59.3319241372" lon="18.057792609">
        <ele>4.4</ele>
        <time>2013-05-03T17:29:23Z</time>
      </trkpt>
      <trkpt lat="59.3318674756" lon="18.0578373684">
        <ele>2.4</ele>
        <time>2013-05-03T17:29:26Z</time>
      </trkpt>
      <trkpt lat="59.3315922978" lon="18.0580965367">
        <ele>2.4</ele>
        <time>2013-05-03T17:29:31Z</time>
      </trkpt>
      <trkpt lat="59.3312121786" lon="18.0584530189">
        <ele>2.4</ele>
        <time>2013-05-03T17:29:37Z</time>
      </trkpt>
      <trkpt lat="59.3308906489" lon="18.0588012031">
        <ele>2.4</ele>
        <time>2013-05-03T17:29:43Z</time>
      </trkpt>
      <trkpt lat="59.3306888966" lon="18.0590377403">
        <ele>2.4</ele>
        <time>2013-05-03T17:29:48Z</time>
      </trkpt>
      <trkpt lat="59.330366864" lon="18.0593507204">
        <ele>2.4</ele>
        <time>2013-05-03T17:29:55Z</time>
      </trkpt>
      <trkpt lat="59.3300722402" lon="18.0596275746">
        <ele>2</ele>
        <time>2013-05-03T17:30:00Z</time>
      </trkpt>
      <trkpt lat="59.3300088731" lon="18.0596793747">
        <ele>1.6</ele>
        <time>2013-05-03T17:30:01Z</time>
      </trkpt>
      <trkpt lat="59.3299444162" lon="18.0597353658">
        <ele>1</ele>
        <time>2013-05-03T17:30:02Z</time>
      </trkpt>
      <trkpt lat="59.3298756847" lon="18.0597823045">
        <ele>0.6</ele>
        <time>2013-05-03T17:30:03Z</time>
      </trkpt>
      <trkpt lat="59.3298086295" lon="18.0598417321">
        <ele>0.2</ele>
        <time>2013-05-03T17:30:04Z</time>
      </trkpt>
      <trkpt lat="59.329565722" lon="18.0600647745">
        <ele>0.2</ele>
        <time>2013-05-03T17:30:08Z</time>
      </trkpt>
      <trkpt lat="59.3292768817" lon="18.0603449814">
        <ele>0.2</ele>
        <time>2013-05-03T17:30:13Z</time>
      </trkpt>
      <trkpt lat="59.3292178732" lon="18.0603917524">
        <ele>0.2</ele>
        <time>2013-05-03T17:30:14Z</time>
      </trkpt>
      <trkpt lat="59.3290219043" lon="18.0605588037">
        <ele>0.2</ele>
        <time>2013-05-03T17:30:18Z</time>
      </trkpt>
      <trkpt lat="59.3289898017" lon="18.0605924989">
        <ele>0.2</ele>
        <time>2013-05-03T17:30:19Z</time>
      </trkpt>
      <trkpt lat="59.3289578666" lon="18.0606183152">
        <ele>0</ele>
        <time>2013-05-03T17:30:20Z</time>
      </trkpt>
      <trkpt lat="59.3289254287" lon="18.0606365877">
        <ele>0</ele>
        <time>2013-05-03T17:30:21Z</time>
      </trkpt>
      <trkpt lat="59.3288956729" lon="18.0606461431">
        <ele>0</ele>
        <time>2013-05-03T17:30:22Z</time>
      </trkpt>
      <trkpt lat="59.3288660848" lon="18.0606544412">
        <ele>0</ele>
        <time>2013-05-03T17:30:23Z</time>
      </trkpt>
      <trkpt lat="59.3288281986" lon="18.0606485738">
        <ele>0</ele>
        <time>2013-05-03T17:30:24Z</time>
      </trkpt>
      <trkpt lat="59.3287852833" lon="18.0606136213">
        <ele>0</ele>
        <time>2013-05-03T17:30:25Z</time>
      </trkpt>
      <trkpt lat="59.3287357463" lon="18.0605387709">
        <ele>0</ele>
        <time>2013-05-03T17:30:26Z</time>
      </trkpt>
      <trkpt lat="59.3286554477" lon="18.0603276309">
        <ele>0</ele>
        <time>2013-05-03T17:30:28Z</time>
      </trkpt>
      <trkpt lat="59.3285741432" lon="18.0600971286">
        <ele>0</ele>
        <time>2013-05-03T17:30:30Z</time>
      </trkpt>
      <trkpt lat="59.3285398613" lon="18.0599623477">
        <ele>0</ele>
        <time>2013-05-03T17:30:31Z</time>
      </trkpt>
      <trkpt lat="59.3285093511" lon="18.0598134851">
        <ele>0</ele>
        <time>2013-05-03T17:30:32Z</time>
      </trkpt>
      <trkpt lat="59.3283395339" lon="18.0590211441">
        <ele>0</ele>
        <time>2013-05-03T17:30:37Z</time>
      </trkpt>
      <trkpt lat="59.3283012286" lon="18.0588483093">
        <ele>0</ele>
        <time>2013-05-03T17:30:38Z</time>
      </trkpt>
      <trkpt lat="59.3282516077" lon="18.0584027275">
        <ele>0</ele>
        <time>2013-05-03T17:30:41Z</time>
      </trkpt>
      <trkpt lat="59.3283142205" lon="18.0582967803">
        <ele>0</ele>
        <time>2013-05-03T17:30:42Z</time>
      </trkpt>
      <trkpt lat="59.3285558707" lon="18.0580687926">
        <ele>0</ele>
        <time>2013-05-03T17:30:45Z</time>
      </trkpt>
      <trkpt lat="59.3286836108" lon="18.057847259">
        <ele>0</ele>
        <time>2013-05-03T17:30:48Z</time>
      </trkpt>
      <trkpt lat="59.3287110197" lon="18.0576801239">
        <ele>0</ele>
        <time>2013-05-03T17:30:50Z</time>
      </trkpt>
      <trkpt lat="59.3286986144" lon="18.057448113">
        <ele>0</ele>
        <time>2013-05-03T17:30:53Z</time>
      </trkpt>
      <trkpt lat="59.3286825212" lon="18.0573810578">
        <ele>0</ele>
        <time>2013-05-03T17:30:54Z</time>
      </trkpt>
      <trkpt lat="59.3286561182" lon="18.0573280841">
        <ele>0</ele>
        <time>2013-05-03T17:30:55Z</time>
      </trkpt>
      <trkpt lat="59.3286240994" lon="18.0572903656">
        <ele>0</ele>
        <time>2013-05-03T17:30:56Z</time>
      </trkpt>
      <trkpt lat="59.328594176" lon="18.0572661419">
        <ele>0</ele>
        <time>2013-05-03T17:30:57Z</time>
      </trkpt>
      <trkpt lat="59.328576574" lon="18.0572574247">
        <ele>0</ele>
        <time>2013-05-03T17:30:58Z</time>
      </trkpt>
      <trkpt lat="59.3285324852" lon="18.0572139227">
        <ele>0</ele>
        <time>2013-05-03T17:31:01Z</time>
      </trkpt>
      <trkpt lat="59.3285011369" lon="18.057010494">
        <ele>0</ele>
        <time>2013-05-03T17:31:04Z</time>
      </trkpt>
      <trkpt lat="59.3284604008" lon="18.0565356593">
        <ele>0</ele>
        <time>2013-05-03T17:31:08Z</time>
      </trkpt>
      <trkpt lat="59.3284473251" lon="18.0563969389">
        <ele>0.4</ele>
        <time>2013-05-03T17:31:09Z</time>
      </trkpt>
      <trkpt lat="59.3284330759" lon="18.0562567097">
        <ele>0.8</ele>
        <time>2013-05-03T17:31:10Z</time>
      </trkpt>
      <trkpt lat="59.3284167311" lon="18.0561035724">
        <ele>1.4</ele>
        <time>2013-05-03T17:31:11Z</time>
      </trkpt>
      <trkpt lat="59.3283975366" lon="18.0559464117">
        <ele>1.8</ele>
        <time>2013-05-03T17:31:12Z</time>
      </trkpt>
      <trkpt lat="59.3283801022" lon="18.055782378">
        <ele>1.8</ele>
        <time>2013-05-03T17:31:13Z</time>
      </trkpt>
      <trkpt lat="59.3283217642" lon="18.0551751093">
        <ele>2.2</ele>
        <time>2013-05-03T17:31:17Z</time>
      </trkpt>
      <trkpt lat="59.3283049166" lon="18.0550461119">
        <ele>2.6</ele>
        <time>2013-05-03T17:31:18Z</time>
      </trkpt>
      <trkpt lat="59.3282870632" lon="18.0549441041">
        <ele>3</ele>
        <time>2013-05-03T17:31:19Z</time>
      </trkpt>
      <trkpt lat="59.3282664437" lon="18.0548547531">
        <ele>3.4</ele>
        <time>2013-05-03T17:31:20Z</time>
      </trkpt>
      <trkpt lat="59.3282419685" lon="18.0547763823">
        <ele>3.8</ele>
        <time>2013-05-03T17:31:21Z</time>
      </trkpt>
      <trkpt lat="59.3282174934" lon="18.0547138534">
        <ele>3.4</ele>
        <time>2013-05-03T17:31:22Z</time>
      </trkpt>
      <trkpt lat="59.328192683" lon="18.0546562697">
        <ele>2.8</ele>
        <time>2013-05-03T17:31:23Z</time>
      </trkpt>
      <trkpt lat="59.3281659447" lon="18.0546131029">
        <ele>1.8</ele>
        <time>2013-05-03T17:31:24Z</time>
      </trkpt>
      <trkpt lat="59.3281385359" lon="18.0545929864">
        <ele>1.2</ele>
        <time>2013-05-03T17:31:25Z</time>
      </trkpt>
      <trkpt lat="59.3281084449" lon="18.0543766495">
        <ele>1.2</ele>
        <time>2013-05-03T17:31:28Z</time>
      </trkpt>
      <trkpt lat="59.3280934413" lon="18.0541270365">
        <ele>1.2</ele>
        <time>2013-05-03T17:31:30Z</time>
      </trkpt>
      <trkpt lat="59.3280721512" lon="18.0538493442">
        <ele>1.2</ele>
        <time>2013-05-03T17:31:32Z</time>
      </trkpt>
      <trkpt lat="59.3280381207" lon="18.0534113061">
        <ele>1.2</ele>
        <time>2013-05-03T17:31:35Z</time>
      </trkpt>
      <trkpt lat="59.3280295712" lon="18.0532766928">
        <ele>1.8</ele>
        <time>2013-05-03T17:31:36Z</time>
      </trkpt>
      <trkpt lat="59.3280213569" lon="18.0531607711">
        <ele>2.4</ele>
        <time>2013-05-03T17:31:37Z</time>
      </trkpt>
      <trkpt lat="59.3280045931" lon="18.0530741023">
        <ele>2.4</ele>
        <time>2013-05-03T17:31:38Z</time>
      </trkpt>
      <trkpt lat="59.3279663717" lon="18.0530206257">
        <ele>2.4</ele>
        <time>2013-05-03T17:31:39Z</time>
      </trkpt>
      <trkpt lat="59.3279252165" lon="18.0530196199">
        <ele>2.2</ele>
        <time>2013-05-03T17:31:40Z</time>
      </trkpt>
      <trkpt lat="59.327874506" lon="18.0530306002">
        <ele>2.2</ele>
        <time>2013-05-03T17:31:41Z</time>
      </trkpt>
      <trkpt lat="59.3278139049" lon="18.0530565841">
        <ele>2.2</ele>
        <time>2013-05-03T17:31:42Z</time>
      </trkpt>
      <trkpt lat="59.3277471012" lon="18.0530882677">
        <ele>2.2</ele>
        <time>2013-05-03T17:31:43Z</time>
      </trkpt>
      <trkpt lat="59.3276739272" lon="18.0531035227">
        <ele>2.2</ele>
        <time>2013-05-03T17:31:44Z</time>
      </trkpt>
      <trkpt lat="59.3274635415" lon="18.0531681472">
        <ele>2.2</ele>
        <time>2013-05-03T17:31:47Z</time>
      </trkpt>
      <trkpt lat="59.3272893656" lon="18.0531999984">
        <ele>2.2</ele>
        <time>2013-05-03T17:31:50Z</time>
      </trkpt>
      <trkpt lat="59.3272517309" lon="18.0531340328">
        <ele>1.8</ele>
        <time>2013-05-03T17:31:51Z</time>
      </trkpt>
      <trkpt lat="59.3272352185" lon="18.0530388983">
        <ele>1.4</ele>
        <time>2013-05-03T17:31:52Z</time>
      </trkpt>
      <trkpt lat="59.3272280939" lon="18.0529300174">
        <ele>1</ele>
        <time>2013-05-03T17:31:53Z</time>
      </trkpt>
      <trkpt lat="59.3272177842" lon="18.0528067196">
        <ele>0.4</ele>
        <time>2013-05-03T17:31:54Z</time>
      </trkpt>
      <trkpt lat="59.3272086479" lon="18.052689373">
        <ele>0</ele>
        <time>2013-05-03T17:31:55Z</time>
      </trkpt>
      <trkpt lat="59.3271565963" lon="18.0521645823">
        <ele>0</ele>
        <time>2013-05-03T17:31:59Z</time>
      </trkpt>
      <trkpt lat="59.3271336299" lon="18.0518889854">
        <ele>0.4</ele>
        <time>2013-05-03T17:32:01Z</time>
      </trkpt>
      <trkpt lat="59.3271235716" lon="18.0517568029">
        <ele>1</ele>
        <time>2013-05-03T17:32:02Z</time>
      </trkpt>
      <trkpt lat="59.3271109988" lon="18.0516221057">
        <ele>1.4</ele>
        <time>2013-05-03T17:32:03Z</time>
      </trkpt>
      <trkpt lat="59.3270984259" lon="18.0514908452">
        <ele>1.8</ele>
        <time>2013-05-03T17:32:04Z</time>
      </trkpt>
      <trkpt lat="59.3270835061" lon="18.0513620154">
        <ele>2.2</ele>
        <time>2013-05-03T17:32:05Z</time>
      </trkpt>
      <trkpt lat="59.326999771" lon="18.0504609611">
        <ele>2.2</ele>
        <time>2013-05-03T17:32:12Z</time>
      </trkpt>
      <trkpt lat="59.3270410099" lon="18.0499629924">
        <ele>2.2</ele>
        <time>2013-05-03T17:32:16Z</time>
      </trkpt>
      <trkpt lat="59.3270197199" lon="18.0494087812">
        <ele>2.2</ele>
        <time>2013-05-03T17:32:20Z</time>
      </trkpt>
      <trkpt lat="59.3269716078" lon="18.0484992612">
        <ele>2.2</ele>
        <time>2013-05-03T17:32:26Z</time>
      </trkpt>
      <trkpt lat="59.326953419" lon="18.0482072358">
        <ele>1.8</ele>
        <time>2013-05-03T17:32:28Z</time>
      </trkpt>
      <trkpt lat="59.3269492281" lon="18.0480545176">
        <ele>1.4</ele>
        <time>2013-05-03T17:32:29Z</time>
      </trkpt>
      <trkpt lat="59.3269401756" lon="18.047892244">
        <ele>1</ele>
        <time>2013-05-03T17:32:30Z</time>
      </trkpt>
      <trkpt lat="59.3269335539" lon="18.0477344967">
        <ele>0.4</ele>
        <time>2013-05-03T17:32:31Z</time>
      </trkpt>
      <trkpt lat="59.3269286924" lon="18.0475762464">
        <ele>0</ele>
        <time>2013-05-03T17:32:32Z</time>
      </trkpt>
      <trkpt lat="59.3269150299" lon="18.0466555785">
        <ele>0</ele>
        <time>2013-05-03T17:32:38Z</time>
      </trkpt>
      <trkpt lat="59.3268924826" lon="18.046224665">
        <ele>0</ele>
        <time>2013-05-03T17:32:41Z</time>
      </trkpt>
      <trkpt lat="59.3268780658" lon="18.0460923148">
        <ele>0</ele>
        <time>2013-05-03T17:32:42Z</time>
      </trkpt>
      <trkpt lat="59.3268662473" lon="18.0459578692">
        <ele>0</ele>
        <time>2013-05-03T17:32:43Z</time>
      </trkpt>
      <trkpt lat="59.3268606314" lon="18.0458196516">
        <ele>0</ele>
        <time>2013-05-03T17:32:44Z</time>
      </trkpt>
      <trkpt lat="59.3268659958" lon="18.0456835296">
        <ele>0</ele>
        <time>2013-05-03T17:32:45Z</time>
      </trkpt>
      <trkpt lat="59.3268727014" lon="18.045532823">
        <ele>0</ele>
        <time>2013-05-03T17:32:46Z</time>
      </trkpt>
      <trkpt lat="59.3268764732" lon="18.0453899116">
        <ele>0</ele>
        <time>2013-05-03T17:32:47Z</time>
      </trkpt>
      <trkpt lat="59.326868678" lon="18.0442791422">
        <ele>0</ele>
        <time>2013-05-03T17:32:54Z</time>
      </trkpt>
      <trkpt lat="59.3268284449" lon="18.0433934269">
        <ele>0</ele>
        <time>2013-05-03T17:33:00Z</time>
      </trkpt>
      <trkpt lat="59.3268240025" lon="18.0431088613">
        <ele>0</ele>
        <time>2013-05-03T17:33:02Z</time>
      </trkpt>
      <trkpt lat="59.3268208174" lon="18.04296595">
        <ele>0</ele>
        <time>2013-05-03T17:33:03Z</time>
      </trkpt>
      <trkpt lat="59.3268190572" lon="18.0428258884">
        <ele>0</ele>
        <time>2013-05-03T17:33:04Z</time>
      </trkpt>
      <trkpt lat="59.3268162912" lon="18.0426873356">
        <ele>0</ele>
        <time>2013-05-03T17:33:05Z</time>
      </trkpt>
      <trkpt lat="59.3268132737" lon="18.0425500401">
        <ele>0</ele>
        <time>2013-05-03T17:33:06Z</time>
      </trkpt>
      <trkpt lat="59.3268049756" lon="18.0424178575">
        <ele>0</ele>
        <time>2013-05-03T17:33:07Z</time>
      </trkpt>
      <trkpt lat="59.3267910616" lon="18.0422897821">
        <ele>0</ele>
        <time>2013-05-03T17:33:08Z</time>
      </trkpt>
      <trkpt lat="59.3267789917" lon="18.0421617066">
        <ele>0</ele>
        <time>2013-05-03T17:33:09Z</time>
      </trkpt>
      <trkpt lat="59.3267609706" lon="18.0420505627">
        <ele>0</ele>
        <time>2013-05-03T17:33:10Z</time>
      </trkpt>
      <trkpt lat="59.3267386748" lon="18.041949896">
        <ele>0</ele>
        <time>2013-05-03T17:33:11Z</time>
      </trkpt>
      <trkpt lat="59.3266406904" lon="18.0416193977">
        <ele>0</ele>
        <time>2013-05-03T17:33:15Z</time>
      </trkpt>
      <trkpt lat="59.3266538499" lon="18.0412029011">
        <ele>0</ele>
        <time>2013-05-03T17:33:19Z</time>
      </trkpt>
      <trkpt lat="59.3266712005" lon="18.0410831238">
        <ele>0</ele>
        <time>2013-05-03T17:33:20Z</time>
      </trkpt>
      <trkpt lat="59.3267385071" lon="18.0405951295">
        <ele>0</ele>
        <time>2013-05-03T17:33:24Z</time>
      </trkpt>
      <trkpt lat="59.3268345637" lon="18.04023739">
        <ele>0</ele>
        <time>2013-05-03T17:33:27Z</time>
      </trkpt>
      <trkpt lat="59.3269835101" lon="18.0393068315">
        <ele>0</ele>
        <time>2013-05-03T17:33:34Z</time>
      </trkpt>
      <trkpt lat="59.3270957437" lon="18.0385407258">
        <ele>0</ele>
        <time>2013-05-03T17:33:40Z</time>
      </trkpt>
      <trkpt lat="59.3271596976" lon="18.0381317729">
        <ele>0</ele>
        <time>2013-05-03T17:33:43Z</time>
      </trkpt>
      <trkpt lat="59.3271797303" lon="18.0379896997">
        <ele>0</ele>
        <time>2013-05-03T17:33:44Z</time>
      </trkpt>
      <trkpt lat="59.3273474522" lon="18.0369012262">
        <ele>0</ele>
        <time>2013-05-03T17:33:52Z</time>
      </trkpt>
      <trkpt lat="59.3274598534" lon="18.0360502957">
        <ele>0</ele>
        <time>2013-05-03T17:33:58Z</time>
      </trkpt>
      <trkpt lat="59.3276266533" lon="18.0349361736">
        <ele>0</ele>
        <time>2013-05-03T17:34:06Z</time>
      </trkpt>
      <trkpt lat="59.3277526332" lon="18.0341828922">
        <ele>0</ele>
        <time>2013-05-03T17:34:12Z</time>
      </trkpt>
      <trkpt lat="59.3277699837" lon="18.0340677249">
        <ele>0</ele>
        <time>2013-05-03T17:34:13Z</time>
      </trkpt>
      <trkpt lat="59.3277876696" lon="18.0339515518">
        <ele>0</ele>
        <time>2013-05-03T17:34:14Z</time>
      </trkpt>
      <trkpt lat="59.3278067803" lon="18.0338301819">
        <ele>0</ele>
        <time>2013-05-03T17:34:15Z</time>
      </trkpt>
      <trkpt lat="59.3278261425" lon="18.0337013521">
        <ele>0</ele>
        <time>2013-05-03T17:34:16Z</time>
      </trkpt>
      <trkpt lat="59.3278887553" lon="18.0332927344">
        <ele>0</ele>
        <time>2013-05-03T17:34:19Z</time>
      </trkpt>
      <trkpt lat="59.3280211893" lon="18.0324947776">
        <ele>0</ele>
        <time>2013-05-03T17:34:25Z</time>
      </trkpt>
      <trkpt lat="59.3280983866" lon="18.0316136722">
        <ele>0</ele>
        <time>2013-05-03T17:34:31Z</time>
      </trkpt>
      <trkpt lat="59.3282133863" lon="18.030624608">
        <ele>0</ele>
        <time>2013-05-03T17:34:38Z</time>
      </trkpt>
      <trkpt lat="59.3282563016" lon="18.0303337561">
        <ele>0</ele>
        <time>2013-05-03T17:34:40Z</time>
      </trkpt>
      <trkpt lat="59.3282989655" lon="18.0300491068">
        <ele>0</ele>
        <time>2013-05-03T17:34:42Z</time>
      </trkpt>
      <trkpt lat="59.3283122089" lon="18.0297793772">
        <ele>0</ele>
        <time>2013-05-03T17:34:44Z</time>
      </trkpt>
      <trkpt lat="59.3283010609" lon="18.0295586818">
        <ele>0</ele>
        <time>2013-05-03T17:34:46Z</time>
      </trkpt>
      <trkpt lat="59.3283972013" lon="18.0292702606">
        <ele>0</ele>
        <time>2013-05-03T17:34:49Z</time>
      </trkpt>
      <trkpt lat="59.328471465" lon="18.0288945">
        <ele>0</ele>
        <time>2013-05-03T17:34:52Z</time>
      </trkpt>
      <trkpt lat="59.3284956048" lon="18.0287593838">
        <ele>0</ele>
        <time>2013-05-03T17:34:53Z</time>
      </trkpt>
      <trkpt lat="59.3287271967" lon="18.0276899372">
        <ele>0</ele>
        <time>2013-05-03T17:35:01Z</time>
      </trkpt>
      <trkpt lat="59.3288541825" lon="18.0273222232">
        <ele>0</ele>
        <time>2013-05-03T17:35:04Z</time>
      </trkpt>
      <trkpt lat="59.3290539232" lon="18.0267234203">
        <ele>0</ele>
        <time>2013-05-03T17:35:09Z</time>
      </trkpt>
      <trkpt lat="59.3293313641" lon="18.0258296583">
        <ele>0</ele>
        <time>2013-05-03T17:35:17Z</time>
      </trkpt>
      <trkpt lat="59.3295560828" lon="18.0251175321">
        <ele>0</ele>
        <time>2013-05-03T17:35:23Z</time>
      </trkpt>
      <trkpt lat="59.3295891913" lon="18.0250030353">
        <ele>0</ele>
        <time>2013-05-03T17:35:24Z</time>
      </trkpt>
      <trkpt lat="59.3296237248" lon="18.0248922266">
        <ele>0</ele>
        <time>2013-05-03T17:35:25Z</time>
      </trkpt>
      <trkpt lat="59.3296589287" lon="18.0247802444">
        <ele>0</ele>
        <time>2013-05-03T17:35:26Z</time>
      </trkpt>
      <trkpt lat="59.3296927078" lon="18.0246689328">
        <ele>0</ele>
        <time>2013-05-03T17:35:27Z</time>
      </trkpt>
      <trkpt lat="59.32973336" lon="18.0245515862">
        <ele>0</ele>
        <time>2013-05-03T17:35:28Z</time>
      </trkpt>
      <trkpt lat="59.3297714138" lon="18.0244407775">
        <ele>0</ele>
        <time>2013-05-03T17:35:29Z</time>
      </trkpt>
      <trkpt lat="59.329811144" lon="18.0243360037">
        <ele>0</ele>
        <time>2013-05-03T17:35:30Z</time>
      </trkpt>
      <trkpt lat="59.3298483597" lon="18.0242209202">
        <ele>0</ele>
        <time>2013-05-03T17:35:31Z</time>
      </trkpt>
      <trkpt lat="59.3298858268" lon="18.0240963652">
        <ele>0</ele>
        <time>2013-05-03T17:35:32Z</time>
      </trkpt>
      <trkpt lat="59.3300201886" lon="18.0236165014">
        <ele>0</ele>
        <time>2013-05-03T17:35:36Z</time>
      </trkpt>
      <trkpt lat="59.3301900059" lon="18.0229013577">
        <ele>0</ele>
        <time>2013-05-03T17:35:42Z</time>
      </trkpt>
      <trkpt lat="59.33036963" lon="18.0221713781">
        <ele>0</ele>
        <time>2013-05-03T17:35:48Z</time>
      </trkpt>
      <trkpt lat="59.3303708873" lon="18.0218334199">
        <ele>0</ele>
        <time>2013-05-03T17:35:51Z</time>
      </trkpt>
      <trkpt lat="59.3302480925" lon="18.0215222837">
        <ele>0</ele>
        <time>2013-05-03T17:35:54Z</time>
      </trkpt>
      <trkpt lat="59.3302056801" lon="18.0214243831">
        <ele>0</ele>
        <time>2013-05-03T17:35:55Z</time>
      </trkpt>
      <trkpt lat="59.3301609207" lon="18.0213320984">
        <ele>0</ele>
        <time>2013-05-03T17:35:56Z</time>
      </trkpt>
      <trkpt lat="59.3301151555" lon="18.0212428312">
        <ele>0</ele>
        <time>2013-05-03T17:35:57Z</time>
      </trkpt>
      <trkpt lat="59.3300632716" lon="18.0211665559">
        <ele>0</ele>
        <time>2013-05-03T17:35:58Z</time>
      </trkpt>
      <trkpt lat="59.3300194342" lon="18.0210812281">
        <ele>0</ele>
        <time>2013-05-03T17:35:59Z</time>
      </trkpt>
      <trkpt lat="59.3299474337" lon="18.0207865205">
        <ele>0</ele>
        <time>2013-05-03T17:36:02Z</time>
      </trkpt>
      <trkpt lat="59.3298942087" lon="18.0204805812">
        <ele>0</ele>
        <time>2013-05-03T17:36:05Z</time>
      </trkpt>
      <trkpt lat="59.3298839827" lon="18.0203641566">
        <ele>0</ele>
        <time>2013-05-03T17:36:06Z</time>
      </trkpt>
      <trkpt lat="59.3298756847" lon="18.020240775">
        <ele>0</ele>
        <time>2013-05-03T17:36:07Z</time>
      </trkpt>
      <trkpt lat="59.3299446677" lon="18.020135666">
        <ele>0</ele>
        <time>2013-05-03T17:36:08Z</time>
      </trkpt>
      <trkpt lat="59.3300244634" lon="18.0200274557">
        <ele>0</ele>
        <time>2013-05-03T17:36:09Z</time>
      </trkpt>
      <trkpt lat="59.3303671155" lon="18.0192737552">
        <ele>0</ele>
        <time>2013-05-03T17:36:16Z</time>
      </trkpt>
      <trkpt lat="59.3305734778" lon="18.0185686698">
        <ele>0</ele>
        <time>2013-05-03T17:36:22Z</time>
      </trkpt>
      <trkpt lat="59.33063081" lon="18.0183256785">
        <ele>0</ele>
        <time>2013-05-03T17:36:24Z</time>
      </trkpt>
      <trkpt lat="59.3306607334" lon="18.0182159594">
        <ele>0</ele>
        <time>2013-05-03T17:36:25Z</time>
      </trkpt>
      <trkpt lat="59.3306893995" lon="18.0181147899">
        <ele>0</ele>
        <time>2013-05-03T17:36:26Z</time>
      </trkpt>
      <trkpt lat="59.3307172274" lon="18.0180116087">
        <ele>0</ele>
        <time>2013-05-03T17:36:27Z</time>
      </trkpt>
      <trkpt lat="59.3307430437" lon="18.0179015544">
        <ele>0</ele>
        <time>2013-05-03T17:36:28Z</time>
      </trkpt>
      <trkpt lat="59.3308727955" lon="18.0173138156">
        <ele>0</ele>
        <time>2013-05-03T17:36:33Z</time>
      </trkpt>
      <trkpt lat="59.3309984402" lon="18.0168202055">
        <ele>0</ele>
        <time>2013-05-03T17:36:38Z</time>
      </trkpt>
      <trkpt lat="59.3310287826" lon="18.0167637115">
        <ele>0</ele>
        <time>2013-05-03T17:36:39Z</time>
      </trkpt>
      <trkpt lat="59.331099023" lon="18.0167130848">
        <ele>0</ele>
        <time>2013-05-03T17:36:41Z</time>
      </trkpt>
      <trkpt lat="59.331154595" lon="18.0166496338">
        <ele>0</ele>
        <time>2013-05-03T17:36:43Z</time>
      </trkpt>
      <trkpt lat="59.3311634798" lon="18.0165651442">
        <ele>0</ele>
        <time>2013-05-03T17:36:44Z</time>
      </trkpt>
      <trkpt lat="59.331144369" lon="18.016218888">
        <ele>0</ele>
        <time>2013-05-03T17:36:47Z</time>
      </trkpt>
      <trkpt lat="59.3311338917" lon="18.0160943329">
        <ele>0</ele>
        <time>2013-05-03T17:36:48Z</time>
      </trkpt>
      <trkpt lat="59.3311226599" lon="18.0158676025">
        <ele>0</ele>
        <time>2013-05-03T17:36:50Z</time>
      </trkpt>
      <trkpt lat="59.3311179661" lon="18.0157472384">
        <ele>0</ele>
        <time>2013-05-03T17:36:51Z</time>
      </trkpt>
      <trkpt lat="59.3311100871" lon="18.015627042">
        <ele>0</ele>
        <time>2013-05-03T17:36:52Z</time>
      </trkpt>
      <trkpt lat="59.3311042197" lon="18.0155138863">
        <ele>0</ele>
        <time>2013-05-03T17:36:53Z</time>
      </trkpt>
      <trkpt lat="59.3310956702" lon="18.0154039996">
        <ele>0</ele>
        <time>2013-05-03T17:36:54Z</time>
      </trkpt>
      <trkpt lat="59.3310783197" lon="18.015064365">
        <ele>0</ele>
        <time>2013-05-03T17:36:57Z</time>
      </trkpt>
      <trkpt lat="59.3310734582" lon="18.0149547298">
        <ele>0</ele>
        <time>2013-05-03T17:36:58Z</time>
      </trkpt>
      <trkpt lat="59.3310662497" lon="18.0148432505">
        <ele>0</ele>
        <time>2013-05-03T17:36:59Z</time>
      </trkpt>
      <trkpt lat="59.3310649925" lon="18.0147340344">
        <ele>0</ele>
        <time>2013-05-03T17:37:00Z</time>
      </trkpt>
      <trkpt lat="59.3310645734" lon="18.0146244829">
        <ele>0</ele>
        <time>2013-05-03T17:37:01Z</time>
      </trkpt>
      <trkpt lat="59.3310566944" lon="18.014309072">
        <ele>0.4</ele>
        <time>2013-05-03T17:37:04Z</time>
      </trkpt>
      <trkpt lat="59.3310518329" lon="18.0142026219">
        <ele>0.8</ele>
        <time>2013-05-03T17:37:05Z</time>
      </trkpt>
      <trkpt lat="59.3310477257" lon="18.014098854">
        <ele>1.2</ele>
        <time>2013-05-03T17:37:06Z</time>
      </trkpt>
      <trkpt lat="59.3310430319" lon="18.0139851954">
        <ele>1.6</ele>
        <time>2013-05-03T17:37:07Z</time>
      </trkpt>
      <trkpt lat="59.3310400982" lon="18.0138773204">
        <ele>2.2</ele>
        <time>2013-05-03T17:37:08Z</time>
      </trkpt>
      <trkpt lat="59.3310378351" lon="18.0136752328">
        <ele>2.6</ele>
        <time>2013-05-03T17:37:10Z</time>
      </trkpt>
      <trkpt lat="59.3310354043" lon="18.0135753205">
        <ele>3</ele>
        <time>2013-05-03T17:37:11Z</time>
      </trkpt>
      <trkpt lat="59.3310351529" lon="18.0134689542">
        <ele>3.4</ele>
        <time>2013-05-03T17:37:12Z</time>
      </trkpt>
      <trkpt lat="59.3310343147" lon="18.0133640966">
        <ele>3.8</ele>
        <time>2013-05-03T17:37:13Z</time>
      </trkpt>
      <trkpt lat="59.3310323869" lon="18.0132558025">
        <ele>4.2</ele>
        <time>2013-05-03T17:37:14Z</time>
      </trkpt>
      <trkpt lat="59.3310183891" lon="18.0128946264">
        <ele>4.2</ele>
        <time>2013-05-03T17:37:17Z</time>
      </trkpt>
      <trkpt lat="59.3310139467" lon="18.0127655452">
        <ele>4.2</ele>
        <time>2013-05-03T17:37:18Z</time>
      </trkpt>
      <trkpt lat="59.3309625656" lon="18.0121777225">
        <ele>4.2</ele>
        <time>2013-05-03T17:37:22Z</time>
      </trkpt>
      <trkpt lat="59.3309440416" lon="18.0116889739">
        <ele>3.8</ele>
        <time>2013-05-03T17:37:25Z</time>
      </trkpt>
      <trkpt lat="59.3309450475" lon="18.0115236829">
        <ele>3.4</ele>
        <time>2013-05-03T17:37:26Z</time>
      </trkpt>
      <trkpt lat="59.3309484002" lon="18.0113607387">
        <ele>3</ele>
        <time>2013-05-03T17:37:27Z</time>
      </trkpt>
      <trkpt lat="59.3309587938" lon="18.0112023208">
        <ele>2.4</ele>
        <time>2013-05-03T17:37:28Z</time>
      </trkpt>
      <trkpt lat="59.3309704446" lon="18.0110288155">
        <ele>2</ele>
        <time>2013-05-03T17:37:29Z</time>
      </trkpt>
      <trkpt lat="59.3309820955" lon="18.0108593335">
        <ele>1.6</ele>
        <time>2013-05-03T17:37:30Z</time>
      </trkpt>
      <trkpt lat="59.3309923214" lon="18.0106866663">
        <ele>1.2</ele>
        <time>2013-05-03T17:37:31Z</time>
      </trkpt>
      <trkpt lat="59.3310005356" lon="18.010516849">
        <ele>0.8</ele>
        <time>2013-05-03T17:37:32Z</time>
      </trkpt>
      <trkpt lat="59.3310080794" lon="18.0103496301">
        <ele>0.4</ele>
        <time>2013-05-03T17:37:33Z</time>
      </trkpt>
      <trkpt lat="59.3310168803" lon="18.0101811539">
        <ele>0</ele>
        <time>2013-05-03T17:37:34Z</time>
      </trkpt>
      <trkpt lat="59.3310457141" lon="18.0094085942">
        <ele>0</ele>
        <time>2013-05-03T17:37:39Z</time>
      </trkpt>
      <trkpt lat="59.3310500727" lon="18.0092598155">
        <ele>0</ele>
        <time>2013-05-03T17:37:40Z</time>
      </trkpt>
      <trkpt lat="59.3310663336" lon="18.0091162335">
        <ele>0</ele>
        <time>2013-05-03T17:37:41Z</time>
      </trkpt>
      <trkpt lat="59.3310973466" lon="18.008977094">
        <ele>0</ele>
        <time>2013-05-03T17:37:42Z</time>
      </trkpt>
      <trkpt lat="59.3311329697" lon="18.008842816">
        <ele>0</ele>
        <time>2013-05-03T17:37:43Z</time>
      </trkpt>
      <trkpt lat="59.3311710235" lon="18.00871407">
        <ele>0</ele>
        <time>2013-05-03T17:37:44Z</time>
      </trkpt>
      <trkpt lat="59.3312094964" lon="18.0085782832">
        <ele>0</ele>
        <time>2013-05-03T17:37:45Z</time>
      </trkpt>
      <trkpt lat="59.3312466282" lon="18.0084559075">
        <ele>0</ele>
        <time>2013-05-03T17:37:46Z</time>
      </trkpt>
      <trkpt lat="59.3313598677" lon="18.0081068851">
        <ele>0</ele>
        <time>2013-05-03T17:37:49Z</time>
      </trkpt>
      <trkpt lat="59.33150236" lon="18.0076159573">
        <ele>0</ele>
        <time>2013-05-03T17:37:53Z</time>
      </trkpt>
      <trkpt lat="59.3316923777" lon="18.0069832914">
        <ele>0</ele>
        <time>2013-05-03T17:37:58Z</time>
      </trkpt>
      <trkpt lat="59.3317322755" lon="18.0068499354">
        <ele>0</ele>
        <time>2013-05-03T17:37:59Z</time>
      </trkpt>
      <trkpt lat="59.3317715028" lon="18.0067154059">
        <ele>0</ele>
        <time>2013-05-03T17:38:00Z</time>
      </trkpt>
      <trkpt lat="59.3318026835" lon="18.0065884201">
        <ele>0</ele>
        <time>2013-05-03T17:38:01Z</time>
      </trkpt>
      <trkpt lat="59.3318322716" lon="18.0064600094">
        <ele>0</ele>
        <time>2013-05-03T17:38:02Z</time>
      </trkpt>
      <trkpt lat="59.3318585069" lon="18.0063263181">
        <ele>0</ele>
        <time>2013-05-03T17:38:03Z</time>
      </trkpt>
      <trkpt lat="59.3318833174" lon="18.0061969854">
        <ele>0</ele>
        <time>2013-05-03T17:38:04Z</time>
      </trkpt>
      <trkpt lat="59.331990438" lon="18.0055283612">
        <ele>0</ele>
        <time>2013-05-03T17:38:09Z</time>
      </trkpt>
      <trkpt lat="59.3320082915" lon="18.005400202">
        <ele>0</ele>
        <time>2013-05-03T17:38:10Z</time>
      </trkpt>
      <trkpt lat="59.3320310902" lon="18.0052740544">
        <ele>0</ele>
        <time>2013-05-03T17:38:11Z</time>
      </trkpt>
      <trkpt lat="59.332057158" lon="18.0051548638">
        <ele>0</ele>
        <time>2013-05-03T17:38:12Z</time>
      </trkpt>
      <trkpt lat="59.3320808787" lon="18.0050376848">
        <ele>0.4</ele>
        <time>2013-05-03T17:38:13Z</time>
      </trkpt>
      <trkpt lat="59.3321255543" lon="18.0047785165">
        <ele>0.4</ele>
        <time>2013-05-03T17:38:15Z</time>
      </trkpt>
      <trkpt lat="59.3322924379" lon="18.0038560884">
        <ele>0.4</ele>
        <time>2013-05-03T17:38:22Z</time>
      </trkpt>
      <trkpt lat="59.3324556335" lon="18.0029195787">
        <ele>0.4</ele>
        <time>2013-05-03T17:38:29Z</time>
      </trkpt>
      <trkpt lat="59.3325520253" lon="18.0023840591">
        <ele>0.8</ele>
        <time>2013-05-03T17:38:33Z</time>
      </trkpt>
      <trkpt lat="59.3325728124" lon="18.0022552293">
        <ele>1.4</ele>
        <time>2013-05-03T17:38:34Z</time>
      </trkpt>
      <trkpt lat="59.3325934319" lon="18.0021259804">
        <ele>1.8</ele>
        <time>2013-05-03T17:38:35Z</time>
      </trkpt>
      <trkpt lat="59.3326170689" lon="18.0020005872">
        <ele>2.2</ele>
        <time>2013-05-03T17:38:36Z</time>
      </trkpt>
      <trkpt lat="59.3326355091" lon="18.0018722603">
        <ele>2.6</ele>
        <time>2013-05-03T17:38:37Z</time>
      </trkpt>
      <trkpt lat="59.3326599842" lon="18.0017419217">
        <ele>2.6</ele>
        <time>2013-05-03T17:38:38Z</time>
      </trkpt>
      <trkpt lat="59.3327232676" lon="18.001366245">
        <ele>2.6</ele>
        <time>2013-05-03T17:38:41Z</time>
      </trkpt>
      <trkpt lat="59.3328691964" lon="18.0004909232">
        <ele>2.6</ele>
        <time>2013-05-03T17:38:48Z</time>
      </trkpt>
      <trkpt lat="59.3329320607" lon="18.0000906036">
        <ele>2.6</ele>
        <time>2013-05-03T17:38:51Z</time>
      </trkpt>
      <trkpt lat="59.332973132" lon="17.9998234725">
        <ele>2.6</ele>
        <time>2013-05-03T17:38:53Z</time>
      </trkpt>
      <trkpt lat="59.3330241778" lon="17.9995326205">
        <ele>2.6</ele>
        <time>2013-05-03T17:38:55Z</time>
      </trkpt>
      <trkpt lat="59.3330473956" lon="17.9993919722">
        <ele>3</ele>
        <time>2013-05-03T17:38:56Z</time>
      </trkpt>
      <trkpt lat="59.3330718708" lon="17.9992497314">
        <ele>3.6</ele>
        <time>2013-05-03T17:38:57Z</time>
      </trkpt>
      <trkpt lat="59.3330938314" lon="17.9991066524">
        <ele>4</ele>
        <time>2013-05-03T17:38:58Z</time>
      </trkpt>
      <trkpt lat="59.3331169654" lon="17.9989619808">
        <ele>4.6</ele>
        <time>2013-05-03T17:38:59Z</time>
      </trkpt>
      <trkpt lat="59.3331368305" lon="17.9988251044">
        <ele>5.2</ele>
        <time>2013-05-03T17:39:00Z</time>
      </trkpt>
      <trkpt lat="59.3331557736" lon="17.9986922512">
        <ele>5.8</ele>
        <time>2013-05-03T17:39:01Z</time>
      </trkpt>
      <trkpt lat="59.3331705257" lon="17.9985550395">
        <ele>6.4</ele>
        <time>2013-05-03T17:39:02Z</time>
      </trkpt>
      <trkpt lat="59.3331894688" lon="17.9984199233">
        <ele>7</ele>
        <time>2013-05-03T17:39:03Z</time>
      </trkpt>
      <trkpt lat="59.3332073223" lon="17.9982863996">
        <ele>7.4</ele>
        <time>2013-05-03T17:39:04Z</time>
      </trkpt>
      <trkpt lat="59.3332265168" lon="17.9981540494">
        <ele>7.8</ele>
        <time>2013-05-03T17:39:05Z</time>
      </trkpt>
      <trkpt lat="59.3332457114" lon="17.9980197714">
        <ele>8.2</ele>
        <time>2013-05-03T17:39:06Z</time>
      </trkpt>
      <trkpt lat="59.3332651574" lon="17.9978916121">
        <ele>8.6</ele>
        <time>2013-05-03T17:39:07Z</time>
      </trkpt>
      <trkpt lat="59.3332800772" lon="17.9977642911">
        <ele>9</ele>
        <time>2013-05-03T17:39:08Z</time>
      </trkpt>
      <trkpt lat="59.3333018701" lon="17.9974996745">
        <ele>9.6</ele>
        <time>2013-05-03T17:39:10Z</time>
      </trkpt>
      <trkpt lat="59.3333115093" lon="17.9973728564">
        <ele>10.2</ele>
        <time>2013-05-03T17:39:11Z</time>
      </trkpt>
      <trkpt lat="59.3333141077" lon="17.9973047953">
        <ele>11.2</ele>
        <time>2013-05-03T17:39:12Z</time>
      </trkpt>
      <trkpt lat="59.3333234116" lon="17.9971245007">
        <ele>11.6</ele>
        <time>2013-05-03T17:39:13Z</time>
      </trkpt>
      <trkpt lat="59.3333452045" lon="17.9966132048">
        <ele>11.6</ele>
        <time>2013-05-03T17:39:17Z</time>
      </trkpt>
      <trkpt lat="59.3333596214" lon="17.9962522801">
        <ele>12.2</ele>
        <time>2013-05-03T17:39:20Z</time>
      </trkpt>
      <trkpt lat="59.3333620522" lon="17.9961309941">
        <ele>12.8</ele>
        <time>2013-05-03T17:39:21Z</time>
      </trkpt>
      <trkpt lat="59.3333664107" lon="17.996009708">
        <ele>13.4</ele>
        <time>2013-05-03T17:39:22Z</time>
      </trkpt>
      <trkpt lat="59.333370015" lon="17.9958913555">
        <ele>13.8</ele>
        <time>2013-05-03T17:39:23Z</time>
      </trkpt>
      <trkpt lat="59.3333775587" lon="17.9957663814">
        <ele>14.4</ele>
        <time>2013-05-03T17:39:24Z</time>
      </trkpt>
      <trkpt lat="59.3334229886" lon="17.9948740443">
        <ele>14.4</ele>
        <time>2013-05-03T17:39:31Z</time>
      </trkpt>
      <trkpt lat="59.3334573544" lon="17.993709044">
        <ele>14.4</ele>
        <time>2013-05-03T17:39:39Z</time>
      </trkpt>
      <trkpt lat="59.3334872777" lon="17.9926688503">
        <ele>14.4</ele>
        <time>2013-05-03T17:39:46Z</time>
      </trkpt>
      <trkpt lat="59.3334667421" lon="17.9920292275">
        <ele>13.8</ele>
        <time>2013-05-03T17:39:50Z</time>
      </trkpt>
      <trkpt lat="59.3334550912" lon="17.9918691332">
        <ele>13</ele>
        <time>2013-05-03T17:39:51Z</time>
      </trkpt>
      <trkpt lat="59.333441764" lon="17.9917095418">
        <ele>12.4</ele>
        <time>2013-05-03T17:39:52Z</time>
      </trkpt>
      <trkpt lat="59.3334278501" lon="17.9915501181">
        <ele>11.6</ele>
        <time>2013-05-03T17:39:53Z</time>
      </trkpt>
      <trkpt lat="59.3334110863" lon="17.9913921193">
        <ele>11</ele>
        <time>2013-05-03T17:39:54Z</time>
      </trkpt>
      <trkpt lat="59.333392227" lon="17.9912324441">
        <ele>10.4</ele>
        <time>2013-05-03T17:39:55Z</time>
      </trkpt>
      <trkpt lat="59.3333670813" lon="17.9910667339">
        <ele>10</ele>
        <time>2013-05-03T17:39:56Z</time>
      </trkpt>
      <trkpt lat="59.3333390857" lon="17.9909221461">
        <ele>9.6</ele>
        <time>2013-05-03T17:39:57Z</time>
      </trkpt>
      <trkpt lat="59.3333113417" lon="17.9907942383">
        <ele>8.8</ele>
        <time>2013-05-03T17:39:58Z</time>
      </trkpt>
      <trkpt lat="59.3332846872" lon="17.9906835134">
        <ele>8.2</ele>
        <time>2013-05-03T17:39:59Z</time>
      </trkpt>
      <trkpt lat="59.3332578651" lon="17.990569771">
        <ele>7.6</ele>
        <time>2013-05-03T17:40:00Z</time>
      </trkpt>
      <trkpt lat="59.333218554" lon="17.9904678471">
        <ele>7</ele>
        <time>2013-05-03T17:40:01Z</time>
      </trkpt>
      <trkpt lat="59.333169939" lon="17.9903820165">
        <ele>5.6</ele>
        <time>2013-05-03T17:40:02Z</time>
      </trkpt>
      <trkpt lat="59.3331019618" lon="17.9903209124">
        <ele>5</ele>
        <time>2013-05-03T17:40:03Z</time>
      </trkpt>
      <trkpt lat="59.3330278658" lon="17.9902709563">
        <ele>4.4</ele>
        <time>2013-05-03T17:40:04Z</time>
      </trkpt>
      <trkpt lat="59.3329499141" lon="17.9902149652">
        <ele>4.4</ele>
        <time>2013-05-03T17:40:05Z</time>
      </trkpt>
      <trkpt lat="59.3328773269" lon="17.9901359239">
        <ele>4.4</ele>
        <time>2013-05-03T17:40:06Z</time>
      </trkpt>
      <trkpt lat="59.33276568" lon="17.9899114566">
        <ele>4.4</ele>
        <time>2013-05-03T17:40:08Z</time>
      </trkpt>
      <trkpt lat="59.3326986248" lon="17.9894553136">
        <ele>4.4</ele>
        <time>2013-05-03T17:40:11Z</time>
      </trkpt>
      <trkpt lat="59.3327139636" lon="17.9892916151">
        <ele>4</ele>
        <time>2013-05-03T17:40:12Z</time>
      </trkpt>
      <trkpt lat="59.3327340802" lon="17.9891352927">
        <ele>3.6</ele>
        <time>2013-05-03T17:40:13Z</time>
      </trkpt>
      <trkpt lat="59.3327785043" lon="17.9889848376">
        <ele>3</ele>
        <time>2013-05-03T17:40:14Z</time>
      </trkpt>
      <trkpt lat="59.3328205814" lon="17.9888320355">
        <ele>2.6</ele>
        <time>2013-05-03T17:40:15Z</time>
      </trkpt>
      <trkpt lat="59.3328581323" lon="17.9886747073">
        <ele>2.2</ele>
        <time>2013-05-03T17:40:16Z</time>
      </trkpt>
      <trkpt lat="59.3328783327" lon="17.9885093324">
        <ele>2.2</ele>
        <time>2013-05-03T17:40:17Z</time>
      </trkpt>
      <trkpt lat="59.3328812664" lon="17.9883438737">
        <ele>2.2</ele>
        <time>2013-05-03T17:40:18Z</time>
      </trkpt>
      <trkpt lat="59.3328229283" lon="17.9878427199">
        <ele>2.2</ele>
        <time>2013-05-03T17:40:21Z</time>
      </trkpt>
      <trkpt lat="59.3327417916" lon="17.987157751">
        <ele>1.8</ele>
        <time>2013-05-03T17:40:25Z</time>
      </trkpt>
      <trkpt lat="59.3327308951" lon="17.9869763667">
        <ele>1</ele>
        <time>2013-05-03T17:40:26Z</time>
      </trkpt>
      <trkpt lat="59.3327228485" lon="17.9867880254">
        <ele>0.6</ele>
        <time>2013-05-03T17:40:27Z</time>
      </trkpt>
      <trkpt lat="59.3327229323" lon="17.9866045456">
        <ele>0</ele>
        <time>2013-05-03T17:40:28Z</time>
      </trkpt>
      <trkpt lat="59.3327537777" lon="17.9855565567">
        <ele>0</ele>
        <time>2013-05-03T17:40:34Z</time>
      </trkpt>
      <trkpt lat="59.3327602317" lon="17.9853861526">
        <ele>0</ele>
        <time>2013-05-03T17:40:35Z</time>
      </trkpt>
      <trkpt lat="59.3327678593" lon="17.9852250525">
        <ele>0</ele>
        <time>2013-05-03T17:40:36Z</time>
      </trkpt>
      <trkpt lat="59.3327752353" lon="17.9850663831">
        <ele>0</ele>
        <time>2013-05-03T17:40:37Z</time>
      </trkpt>
      <trkpt lat="59.3327831981" lon="17.9849022655">
        <ele>0</ele>
        <time>2013-05-03T17:40:38Z</time>
      </trkpt>
      <trkpt lat="59.3327945137" lon="17.9847382318">
        <ele>0</ele>
        <time>2013-05-03T17:40:39Z</time>
      </trkpt>
      <trkpt lat="59.3328096011" lon="17.9845715158">
        <ele>0</ele>
        <time>2013-05-03T17:40:40Z</time>
      </trkpt>
      <trkpt lat="59.3328228445" lon="17.984404213">
        <ele>0</ele>
        <time>2013-05-03T17:40:41Z</time>
      </trkpt>
      <trkpt lat="59.3329123632" lon="17.9832468403">
        <ele>0</ele>
        <time>2013-05-03T17:40:48Z</time>
      </trkpt>
      <trkpt lat="59.332926361" lon="17.983083058">
        <ele>0</ele>
        <time>2013-05-03T17:40:49Z</time>
      </trkpt>
      <trkpt lat="59.3329420351" lon="17.9829243886">
        <ele>0</ele>
        <time>2013-05-03T17:40:50Z</time>
      </trkpt>
      <trkpt lat="59.3329605591" lon="17.9827688205">
        <ele>0</ele>
        <time>2013-05-03T17:40:51Z</time>
      </trkpt>
      <trkpt lat="59.3329959308" lon="17.9824503083">
        <ele>0</ele>
        <time>2013-05-03T17:40:53Z</time>
      </trkpt>
      <trkpt lat="59.3330126107" lon="17.9822933992">
        <ele>0</ele>
        <time>2013-05-03T17:40:54Z</time>
      </trkpt>
      <trkpt lat="59.3330276143" lon="17.9821343107">
        <ele>0</ele>
        <time>2013-05-03T17:40:55Z</time>
      </trkpt>
      <trkpt lat="59.3330437076" lon="17.9819748031">
        <ele>0</ele>
        <time>2013-05-03T17:40:56Z</time>
      </trkpt>
      <trkpt lat="59.3330603876" lon="17.9818086739">
        <ele>0</ele>
        <time>2013-05-03T17:40:57Z</time>
      </trkpt>
      <trkpt lat="59.3331136965" lon="17.9813832925">
        <ele>0</ele>
        <time>2013-05-03T17:41:00Z</time>
      </trkpt>
      <trkpt lat="59.333206987" lon="17.9805903647">
        <ele>0</ele>
        <time>2013-05-03T17:41:06Z</time>
      </trkpt>
      <trkpt lat="59.3332851901" lon="17.9797633226">
        <ele>0</ele>
        <time>2013-05-03T17:41:12Z</time>
      </trkpt>
      <trkpt lat="59.3333347272" lon="17.9791987179">
        <ele>0</ele>
        <time>2013-05-03T17:41:16Z</time>
      </trkpt>
      <trkpt lat="59.3333480544" lon="17.9790594107">
        <ele>0</ele>
        <time>2013-05-03T17:41:17Z</time>
      </trkpt>
      <trkpt lat="59.3333593699" lon="17.9789245459">
        <ele>0</ele>
        <time>2013-05-03T17:41:18Z</time>
      </trkpt>
      <trkpt lat="59.3333726972" lon="17.9787845682">
        <ele>0</ele>
        <time>2013-05-03T17:41:19Z</time>
      </trkpt>
      <trkpt lat="59.3334451168" lon="17.9780439435">
        <ele>0</ele>
        <time>2013-05-03T17:41:25Z</time>
      </trkpt>
      <trkpt lat="59.3334755431" lon="17.9775997028">
        <ele>0</ele>
        <time>2013-05-03T17:41:29Z</time>
      </trkpt>
      <trkpt lat="59.3334693405" lon="17.9774944261">
        <ele>0</ele>
        <time>2013-05-03T17:41:30Z</time>
      </trkpt>
      <trkpt lat="59.333443608" lon="17.9773952683">
        <ele>0</ele>
        <time>2013-05-03T17:41:31Z</time>
      </trkpt>
      <trkpt lat="59.3334141876" lon="17.9772974515">
        <ele>0</ele>
        <time>2013-05-03T17:41:32Z</time>
      </trkpt>
      <trkpt lat="59.3333634771" lon="17.9772208409">
        <ele>0</ele>
        <time>2013-05-03T17:41:33Z</time>
      </trkpt>
      <trkpt lat="59.3333035465" lon="17.9771485889">
        <ele>0</ele>
        <time>2013-05-03T17:41:34Z</time>
      </trkpt>
      <trkpt lat="59.3332496509" lon="17.9770814499">
        <ele>0</ele>
        <time>2013-05-03T17:41:35Z</time>
      </trkpt>
      <trkpt lat="59.3331199829" lon="17.9769064359">
        <ele>0</ele>
        <time>2013-05-03T17:41:38Z</time>
      </trkpt>
      <trkpt lat="59.3330939152" lon="17.9768300767">
        <ele>0</ele>
        <time>2013-05-03T17:41:39Z</time>
      </trkpt>
      <trkpt lat="59.3330416959" lon="17.9764245604">
        <ele>0</ele>
        <time>2013-05-03T17:41:43Z</time>
      </trkpt>
      <trkpt lat="59.333029626" lon="17.9762258256">
        <ele>0</ele>
        <time>2013-05-03T17:41:45Z</time>
      </trkpt>
      <trkpt lat="59.3330519219" lon="17.9760126739">
        <ele>0</ele>
        <time>2013-05-03T17:41:47Z</time>
      </trkpt>
      <trkpt lat="59.3331063204" lon="17.9757600434">
        <ele>0</ele>
        <time>2013-05-03T17:41:49Z</time>
      </trkpt>
      <trkpt lat="59.3331551869" lon="17.9755335645">
        <ele>0</ele>
        <time>2013-05-03T17:41:51Z</time>
      </trkpt>
      <trkpt lat="59.333232468" lon="17.9749214343">
        <ele>0</ele>
        <time>2013-05-03T17:41:56Z</time>
      </trkpt>
      <trkpt lat="59.333272282" lon="17.9746753417">
        <ele>0</ele>
        <time>2013-05-03T17:41:58Z</time>
      </trkpt>
      <trkpt lat="59.3333350624" lon="17.9743667202">
        <ele>0</ele>
        <time>2013-05-03T17:42:01Z</time>
      </trkpt>
      <trkpt lat="59.3333432767" lon="17.9742977371">
        <ele>0</ele>
        <time>2013-05-03T17:42:02Z</time>
      </trkpt>
      <trkpt lat="59.3333265129" lon="17.9742256528">
        <ele>0</ele>
        <time>2013-05-03T17:42:04Z</time>
      </trkpt>
      <trkpt lat="59.3332487289" lon="17.9742636228">
        <ele>0</ele>
        <time>2013-05-03T17:42:07Z</time>
      </trkpt>
      <trkpt lat="59.3331769798" lon="17.9743407363">
        <ele>0</ele>
        <time>2013-05-03T17:42:09Z</time>
      </trkpt>
      <trkpt lat="59.3331516665" lon="17.974450623">
        <ele>0</ele>
        <time>2013-05-03T17:42:10Z</time>
      </trkpt>
      <trkpt lat="59.3330929932" lon="17.9749392039">
        <ele>0</ele>
        <time>2013-05-03T17:42:14Z</time>
      </trkpt>
      <trkpt lat="59.3330432885" lon="17.9752555368">
        <ele>0</ele>
        <time>2013-05-03T17:42:17Z</time>
      </trkpt>
      <trkpt lat="59.3329835255" lon="17.9755323072">
        <ele>0</ele>
        <time>2013-05-03T17:42:20Z</time>
      </trkpt>
      <trkpt lat="59.3329152969" lon="17.9757581994">
        <ele>0</ele>
        <time>2013-05-03T17:42:23Z</time>
      </trkpt>
      <trkpt lat="59.3328784165" lon="17.9758175432">
        <ele>0</ele>
        <time>2013-05-03T17:42:24Z</time>
      </trkpt>
      <trkpt lat="59.3327098565" lon="17.9758075688">
        <ele>0</ele>
        <time>2013-05-03T17:42:28Z</time>
      </trkpt>
      <trkpt lat="59.3326118721" lon="17.9756676749">
        <ele>0</ele>
        <time>2013-05-03T17:42:30Z</time>
      </trkpt>
      <trkpt lat="59.3325040809" lon="17.9755366658">
        <ele>0</ele>
        <time>2013-05-03T17:42:32Z</time>
      </trkpt>
      <trkpt lat="59.3324490118" lon="17.9754755617">
        <ele>0</ele>
        <time>2013-05-03T17:42:33Z</time>
      </trkpt>
      <trkpt lat="59.3323957867" lon="17.9754132842">
        <ele>0</ele>
        <time>2013-05-03T17:42:34Z</time>
      </trkpt>
      <trkpt lat="59.3323413882" lon="17.9753515096">
        <ele>0</ele>
        <time>2013-05-03T17:42:35Z</time>
      </trkpt>
      <trkpt lat="59.3322817091" lon="17.9752971111">
        <ele>0</ele>
        <time>2013-05-03T17:42:36Z</time>
      </trkpt>
      <trkpt lat="59.3322255503" lon="17.9752481608">
        <ele>0</ele>
        <time>2013-05-03T17:42:37Z</time>
      </trkpt>
      <trkpt lat="59.3321092096" lon="17.9751496734">
        <ele>0</ele>
        <time>2013-05-03T17:42:39Z</time>
      </trkpt>
      <trkpt lat="59.3318703254" lon="17.9750403735">
        <ele>0</ele>
        <time>2013-05-03T17:42:43Z</time>
      </trkpt>
      <trkpt lat="59.3318029349" lon="17.9750394514">
        <ele>0</ele>
        <time>2013-05-03T17:42:44Z</time>
      </trkpt>
      <trkpt lat="59.3317392325" lon="17.9750433909">
        <ele>0</ele>
        <time>2013-05-03T17:42:45Z</time>
      </trkpt>
      <trkpt lat="59.3316788828" lon="17.9750482524">
        <ele>0</ele>
        <time>2013-05-03T17:42:46Z</time>
      </trkpt>
      <trkpt lat="59.3316166053" lon="17.9750551256">
        <ele>0</ele>
        <time>2013-05-03T17:42:47Z</time>
      </trkpt>
      <trkpt lat="59.3315516456" lon="17.975059568">
        <ele>0</ele>
        <time>2013-05-03T17:42:48Z</time>
      </trkpt>
      <trkpt lat="59.3314880269" lon="17.9750744878">
        <ele>0</ele>
        <time>2013-05-03T17:42:49Z</time>
      </trkpt>
      <trkpt lat="59.3313553415" lon="17.975091503">
        <ele>0</ele>
        <time>2013-05-03T17:42:51Z</time>
      </trkpt>
      <trkpt lat="59.3309310497" lon="17.9751389446">
        <ele>0</ele>
        <time>2013-05-03T17:42:57Z</time>
      </trkpt>
      <trkpt lat="59.3305043272" lon="17.9751990428">
        <ele>0</ele>
        <time>2013-05-03T17:43:03Z</time>
      </trkpt>
      <trkpt lat="59.3300623496" lon="17.9752502562">
        <ele>0</ele>
        <time>2013-05-03T17:43:10Z</time>
      </trkpt>
      <trkpt lat="59.3298846533" lon="17.9752274575">
        <ele>0</ele>
        <time>2013-05-03T17:43:13Z</time>
      </trkpt>
      <trkpt lat="59.3298244713" lon="17.9752069218">
        <ele>0</ele>
        <time>2013-05-03T17:43:14Z</time>
      </trkpt>
      <trkpt lat="59.3297679772" lon="17.9751723046">
        <ele>0</ele>
        <time>2013-05-03T17:43:15Z</time>
      </trkpt>
      <trkpt lat="59.3297145007" lon="17.9751249468">
        <ele>0</ele>
        <time>2013-05-03T17:43:16Z</time>
      </trkpt>
      <trkpt lat="59.3296627006" lon="17.975072057">
        <ele>0</ele>
        <time>2013-05-03T17:43:17Z</time>
      </trkpt>
      <trkpt lat="59.3295019357" lon="17.9748966239">
        <ele>0</ele>
        <time>2013-05-03T17:43:20Z</time>
      </trkpt>
      <trkpt lat="59.3292060547" lon="17.9745676343">
        <ele>0</ele>
        <time>2013-05-03T17:43:26Z</time>
      </trkpt>
      <trkpt lat="59.3288151229" lon="17.97423898">
        <ele>0</ele>
        <time>2013-05-03T17:43:33Z</time>
      </trkpt>
      <trkpt lat="59.3283421322" lon="17.9740432626">
        <ele>0</ele>
        <time>2013-05-03T17:43:40Z</time>
      </trkpt>
      <trkpt lat="59.3279372027" lon="17.9738871917">
        <ele>0</ele>
        <time>2013-05-03T17:43:46Z</time>
      </trkpt>
      <trkpt lat="59.3274089753" lon="17.9736782309">
        <ele>0</ele>
        <time>2013-05-03T17:43:54Z</time>
      </trkpt>
      <trkpt lat="59.3270087396" lon="17.9736618862">
        <ele>0</ele>
        <time>2013-05-03T17:44:00Z</time>
      </trkpt>
      <trkpt lat="59.3267851943" lon="17.9737612117">
        <ele>0</ele>
        <time>2013-05-03T17:44:03Z</time>
      </trkpt>
      <trkpt lat="59.3266464739" lon="17.9738361459">
        <ele>0</ele>
        <time>2013-05-03T17:44:05Z</time>
      </trkpt>
      <trkpt lat="59.3262919195" lon="17.9739647242">
        <ele>0</ele>
        <time>2013-05-03T17:44:10Z</time>
      </trkpt>
      <trkpt lat="59.3262207572" lon="17.9739643051">
        <ele>0</ele>
        <time>2013-05-03T17:44:11Z</time>
      </trkpt>
      <trkpt lat="59.3257172564" lon="17.9739352199">
        <ele>0</ele>
        <time>2013-05-03T17:44:18Z</time>
      </trkpt>
      <trkpt lat="59.3253690723" lon="17.9739202163">
        <ele>0</ele>
        <time>2013-05-03T17:44:23Z</time>
      </trkpt>
      <trkpt lat="59.324941344" lon="17.9739535763">
        <ele>0</ele>
        <time>2013-05-03T17:44:29Z</time>
      </trkpt>
      <trkpt lat="59.3245136994" lon="17.9740974935">
        <ele>0</ele>
        <time>2013-05-03T17:44:35Z</time>
      </trkpt>
      <trkpt lat="59.3241586421" lon="17.974210733">
        <ele>0</ele>
        <time>2013-05-03T17:44:40Z</time>
      </trkpt>
      <trkpt lat="59.3240277169" lon="17.9742549894">
        <ele>0</ele>
        <time>2013-05-03T17:44:42Z</time>
      </trkpt>
      <trkpt lat="59.3239639306" lon="17.97428156">
        <ele>0</ele>
        <time>2013-05-03T17:44:43Z</time>
      </trkpt>
      <trkpt lat="59.3238987194" lon="17.9742987429">
        <ele>0</ele>
        <time>2013-05-03T17:44:44Z</time>
      </trkpt>
      <trkpt lat="59.323833592" lon="17.9743257327">
        <ele>0</ele>
        <time>2013-05-03T17:44:45Z</time>
      </trkpt>
      <trkpt lat="59.3237656148" lon="17.9743543149">
        <ele>0</ele>
        <time>2013-05-03T17:44:46Z</time>
      </trkpt>
      <trkpt lat="59.3234588373" lon="17.9744442527">
        <ele>0</ele>
        <time>2013-05-03T17:44:51Z</time>
      </trkpt>
      <trkpt lat="59.3233973142" lon="17.9744520479">
        <ele>0</ele>
        <time>2013-05-03T17:44:52Z</time>
      </trkpt>
      <trkpt lat="59.3233380541" lon="17.9744545625">
        <ele>0</ele>
        <time>2013-05-03T17:44:53Z</time>
      </trkpt>
      <trkpt lat="59.3232708313" lon="17.9744533052">
        <ele>0</ele>
        <time>2013-05-03T17:44:54Z</time>
      </trkpt>
      <trkpt lat="59.3232029379" lon="17.9744537243">
        <ele>0</ele>
        <time>2013-05-03T17:44:55Z</time>
      </trkpt>
      <trkpt lat="59.3229876069" lon="17.9744168439">
        <ele>0</ele>
        <time>2013-05-03T17:44:58Z</time>
      </trkpt>
      <trkpt lat="59.3229082303" lon="17.9743887645">
        <ele>0</ele>
        <time>2013-05-03T17:44:59Z</time>
      </trkpt>
      <trkpt lat="59.3225900534" lon="17.9742696577">
        <ele>0</ele>
        <time>2013-05-03T17:45:03Z</time>
      </trkpt>
      <trkpt lat="59.3225081622" lon="17.9742331127">
        <ele>0</ele>
        <time>2013-05-03T17:45:04Z</time>
      </trkpt>
      <trkpt lat="59.3224223315" lon="17.9741879342">
        <ele>0</ele>
        <time>2013-05-03T17:45:05Z</time>
      </trkpt>
      <trkpt lat="59.3223373391" lon="17.9741307697">
        <ele>0</ele>
        <time>2013-05-03T17:45:06Z</time>
      </trkpt>
      <trkpt lat="59.3222529333" lon="17.9740592721">
        <ele>0</ele>
        <time>2013-05-03T17:45:07Z</time>
      </trkpt>
      <trkpt lat="59.3220977844" lon="17.9738889519">
        <ele>0</ele>
        <time>2013-05-03T17:45:09Z</time>
      </trkpt>
      <trkpt lat="59.3220327408" lon="17.9737822503">
        <ele>0</ele>
        <time>2013-05-03T17:45:10Z</time>
      </trkpt>
      <trkpt lat="59.3218327487" lon="17.9734565296">
        <ele>0</ele>
        <time>2013-05-03T17:45:13Z</time>
      </trkpt>
      <trkpt lat="59.321773321" lon="17.973328538">
        <ele>0</ele>
        <time>2013-05-03T17:45:14Z</time>
      </trkpt>
      <trkpt lat="59.3217123008" lon="17.9732038153">
        <ele>0</ele>
        <time>2013-05-03T17:45:15Z</time>
      </trkpt>
      <trkpt lat="59.3216521188" lon="17.9730788412">
        <ele>0</ele>
        <time>2013-05-03T17:45:16Z</time>
      </trkpt>
      <trkpt lat="59.3215884163" lon="17.9729416295">
        <ele>0</ele>
        <time>2013-05-03T17:45:17Z</time>
      </trkpt>
      <trkpt lat="59.3213354506" lon="17.9724192695">
        <ele>0</ele>
        <time>2013-05-03T17:45:21Z</time>
      </trkpt>
      <trkpt lat="59.3212093868" lon="17.972158341">
        <ele>0</ele>
        <time>2013-05-03T17:45:23Z</time>
      </trkpt>
      <trkpt lat="59.3211496239" lon="17.9720274157">
        <ele>0</ele>
        <time>2013-05-03T17:45:24Z</time>
      </trkpt>
      <trkpt lat="59.3210875978" lon="17.971896658">
        <ele>0</ele>
        <time>2013-05-03T17:45:25Z</time>
      </trkpt>
      <trkpt lat="59.3210295112" lon="17.9717747852">
        <ele>0</ele>
        <time>2013-05-03T17:45:26Z</time>
      </trkpt>
      <trkpt lat="59.3208551677" lon="17.9713969292">
        <ele>0</ele>
        <time>2013-05-03T17:45:29Z</time>
      </trkpt>
      <trkpt lat="59.3205388348" lon="17.9706504371">
        <ele>0</ele>
        <time>2013-05-03T17:45:35Z</time>
      </trkpt>
      <trkpt lat="59.3204870347" lon="17.9705312465">
        <ele>0</ele>
        <time>2013-05-03T17:45:36Z</time>
      </trkpt>
      <trkpt lat="59.3204328038" lon="17.9704164983">
        <ele>0</ele>
        <time>2013-05-03T17:45:37Z</time>
      </trkpt>
      <trkpt lat="59.3203787405" lon="17.9702965533">
        <ele>0</ele>
        <time>2013-05-03T17:45:38Z</time>
      </trkpt>
      <trkpt lat="59.3203273595" lon="17.9701727527">
        <ele>0</ele>
        <time>2013-05-03T17:45:39Z</time>
      </trkpt>
      <trkpt lat="59.3200503377" lon="17.969540925">
        <ele>0</ele>
        <time>2013-05-03T17:45:44Z</time>
      </trkpt>
      <trkpt lat="59.3199956039" lon="17.9694107541">
        <ele>0</ele>
        <time>2013-05-03T17:45:45Z</time>
      </trkpt>
      <trkpt lat="59.3199380202" lon="17.969276979">
        <ele>0</ele>
        <time>2013-05-03T17:45:46Z</time>
      </trkpt>
      <trkpt lat="59.319877" lon="17.9691336485">
        <ele>0</ele>
        <time>2013-05-03T17:45:47Z</time>
      </trkpt>
      <trkpt lat="59.3198063406" lon="17.9689841154">
        <ele>0</ele>
        <time>2013-05-03T17:45:48Z</time>
      </trkpt>
      <trkpt lat="59.3196775108" lon="17.9686925929">
        <ele>0</ele>
        <time>2013-05-03T17:45:50Z</time>
      </trkpt>
      <trkpt lat="59.3192662109" lon="17.9677111563">
        <ele>0</ele>
        <time>2013-05-03T17:45:56Z</time>
      </trkpt>
      <trkpt lat="59.3190037736" lon="17.9670939132">
        <ele>0</ele>
        <time>2013-05-03T17:46:00Z</time>
      </trkpt>
      <trkpt lat="59.3189519735" lon="17.9669456373">
        <ele>0</ele>
        <time>2013-05-03T17:46:01Z</time>
      </trkpt>
      <trkpt lat="59.3189037776" lon="17.9668011334">
        <ele>0</ele>
        <time>2013-05-03T17:46:02Z</time>
      </trkpt>
      <trkpt lat="59.3188525642" lon="17.966667945">
        <ele>0</ele>
        <time>2013-05-03T17:46:03Z</time>
      </trkpt>
      <trkpt lat="59.3188027757" lon="17.9665661049">
        <ele>0</ele>
        <time>2013-05-03T17:46:04Z</time>
      </trkpt>
      <trkpt lat="59.3187349661" lon="17.9663972935">
        <ele>0</ele>
        <time>2013-05-03T17:46:06Z</time>
      </trkpt>
      <trkpt lat="59.3187027796" lon="17.9663077748">
        <ele>0</ele>
        <time>2013-05-03T17:46:07Z</time>
      </trkpt>
      <trkpt lat="59.3186686653" lon="17.9662185913">
        <ele>0</ele>
        <time>2013-05-03T17:46:08Z</time>
      </trkpt>
      <trkpt lat="59.3186322878" lon="17.9661156616">
        <ele>0</ele>
        <time>2013-05-03T17:46:09Z</time>
      </trkpt>
      <trkpt lat="59.3185961618" lon="17.9660139892">
        <ele>0</ele>
        <time>2013-05-03T17:46:10Z</time>
      </trkpt>
      <trkpt lat="59.3185459543" lon="17.9658829801">
        <ele>0</ele>
        <time>2013-05-03T17:46:11Z</time>
      </trkpt>
      <trkpt lat="59.3183452077" lon="17.9652855182">
        <ele>0</ele>
        <time>2013-05-03T17:46:15Z</time>
      </trkpt>
      <trkpt lat="59.3182990235" lon="17.9651338897">
        <ele>0</ele>
        <time>2013-05-03T17:46:16Z</time>
      </trkpt>
      <trkpt lat="59.3182499055" lon="17.9649820096">
        <ele>0</ele>
        <time>2013-05-03T17:46:17Z</time>
      </trkpt>
      <trkpt lat="59.3182012905" lon="17.9648305487">
        <ele>0</ele>
        <time>2013-05-03T17:46:18Z</time>
      </trkpt>
      <trkpt lat="59.3181548548" lon="17.9646688619">
        <ele>0</ele>
        <time>2013-05-03T17:46:19Z</time>
      </trkpt>
      <trkpt lat="59.3181121071" lon="17.9645107792">
        <ele>0</ele>
        <time>2013-05-03T17:46:20Z</time>
      </trkpt>
      <trkpt lat="59.3180318923" lon="17.9642062648">
        <ele>0</ele>
        <time>2013-05-03T17:46:22Z</time>
      </trkpt>
      <trkpt lat="59.31779678" lon="17.9634033626">
        <ele>0</ele>
        <time>2013-05-03T17:46:27Z</time>
      </trkpt>
      <trkpt lat="59.3176029067" lon="17.9625775778">
        <ele>0</ele>
        <time>2013-05-03T17:46:32Z</time>
      </trkpt>
      <trkpt lat="59.3174296528" lon="17.9615709116">
        <ele>0</ele>
        <time>2013-05-03T17:46:38Z</time>
      </trkpt>
      <trkpt lat="59.3174058482" lon="17.9614041118">
        <ele>0</ele>
        <time>2013-05-03T17:46:39Z</time>
      </trkpt>
      <trkpt lat="59.3173364461" lon="17.9604120301">
        <ele>0</ele>
        <time>2013-05-03T17:46:45Z</time>
      </trkpt>
      <trkpt lat="59.3174369451" lon="17.9592701639">
        <ele>0</ele>
        <time>2013-05-03T17:46:52Z</time>
      </trkpt>
      <trkpt lat="59.3176165692" lon="17.958504142">
        <ele>0</ele>
        <time>2013-05-03T17:46:57Z</time>
      </trkpt>
      <trkpt lat="59.3178422937" lon="17.9575066959">
        <ele>0</ele>
        <time>2013-05-03T17:47:03Z</time>
      </trkpt>
      <trkpt lat="59.317878755" lon="17.9573092184">
        <ele>0</ele>
        <time>2013-05-03T17:47:04Z</time>
      </trkpt>
      <trkpt lat="59.3179137075" lon="17.9571113217">
        <ele>0</ele>
        <time>2013-05-03T17:47:05Z</time>
      </trkpt>
      <trkpt lat="59.3179459779" lon="17.9569125869">
        <ele>0</ele>
        <time>2013-05-03T17:47:06Z</time>
      </trkpt>
      <trkpt lat="59.3179772423" lon="17.956702285">
        <ele>0</ele>
        <time>2013-05-03T17:47:07Z</time>
      </trkpt>
      <trkpt lat="59.3180105185" lon="17.9564893009">
        <ele>0</ele>
        <time>2013-05-03T17:47:08Z</time>
      </trkpt>
      <trkpt lat="59.3180416153" lon="17.9562660071">
        <ele>0</ele>
        <time>2013-05-03T17:47:09Z</time>
      </trkpt>
      <trkpt lat="59.318070952" lon="17.9560293022">
        <ele>0</ele>
        <time>2013-05-03T17:47:10Z</time>
      </trkpt>
      <trkpt lat="59.3181003724" lon="17.9558021528">
        <ele>0</ele>
        <time>2013-05-03T17:47:11Z</time>
      </trkpt>
      <trkpt lat="59.3181331457" lon="17.9555811221">
        <ele>0</ele>
        <time>2013-05-03T17:47:12Z</time>
      </trkpt>
      <trkpt lat="59.3181666733" lon="17.9553659587">
        <ele>0</ele>
        <time>2013-05-03T17:47:13Z</time>
      </trkpt>
      <trkpt lat="59.3181909808" lon="17.9551580037">
        <ele>0</ele>
        <time>2013-05-03T17:47:14Z</time>
      </trkpt>
      <trkpt lat="59.318220066" lon="17.954951809">
        <ele>0</ele>
        <time>2013-05-03T17:47:15Z</time>
      </trkpt>
      <trkpt lat="59.3182458822" lon="17.9547488832">
        <ele>0</ele>
        <time>2013-05-03T17:47:16Z</time>
      </trkpt>
      <trkpt lat="59.3182726205" lon="17.9545490587">
        <ele>0</ele>
        <time>2013-05-03T17:47:17Z</time>
      </trkpt>
      <trkpt lat="59.318299694" lon="17.9543587058">
        <ele>0</ele>
        <time>2013-05-03T17:47:18Z</time>
      </trkpt>
      <trkpt lat="59.318374712" lon="17.9537708831">
        <ele>0</ele>
        <time>2013-05-03T17:47:21Z</time>
      </trkpt>
      <trkpt lat="59.3184253387" lon="17.9534259679">
        <ele>0</ele>
        <time>2013-05-03T17:47:23Z</time>
      </trkpt>
      <trkpt lat="59.3184750434" lon="17.9531021751">
        <ele>0</ele>
        <time>2013-05-03T17:47:25Z</time>
      </trkpt>
      <trkpt lat="59.3185033742" lon="17.9529271611">
        <ele>0</ele>
        <time>2013-05-03T17:47:26Z</time>
      </trkpt>
      <trkpt lat="59.3185274303" lon="17.952763714">
        <ele>0</ele>
        <time>2013-05-03T17:47:27Z</time>
      </trkpt>
      <trkpt lat="59.3185499776" lon="17.9526026139">
        <ele>0</ele>
        <time>2013-05-03T17:47:28Z</time>
      </trkpt>
      <trkpt lat="59.3186448607" lon="17.9519754801">
        <ele>0</ele>
        <time>2013-05-03T17:47:32Z</time>
      </trkpt>
      <trkpt lat="59.3187247402" lon="17.9511995676">
        <ele>0</ele>
        <time>2013-05-03T17:47:37Z</time>
      </trkpt>
      <trkpt lat="59.3187825753" lon="17.9504108309">
        <ele>0</ele>
        <time>2013-05-03T17:47:42Z</time>
      </trkpt>
      <trkpt lat="59.3187968245" lon="17.9502536702">
        <ele>0</ele>
        <time>2013-05-03T17:47:43Z</time>
      </trkpt>
      <trkpt lat="59.3189099802" lon="17.949176177">
        <ele>0</ele>
        <time>2013-05-03T17:47:50Z</time>
      </trkpt>
      <trkpt lat="59.3190356249" lon="17.9484413358">
        <ele>0</ele>
        <time>2013-05-03T17:47:55Z</time>
      </trkpt>
      <trkpt lat="59.3192232956" lon="17.9477888887">
        <ele>0</ele>
        <time>2013-05-03T17:48:00Z</time>
      </trkpt>
      <trkpt lat="59.319264786" lon="17.9476577958">
        <ele>0</ele>
        <time>2013-05-03T17:48:01Z</time>
      </trkpt>
      <trkpt lat="59.3193066955" lon="17.947527122">
        <ele>0</ele>
        <time>2013-05-03T17:48:02Z</time>
      </trkpt>
      <trkpt lat="59.3193511196" lon="17.9473939336">
        <ele>0</ele>
        <time>2013-05-03T17:48:03Z</time>
      </trkpt>
      <trkpt lat="59.3193929452" lon="17.9472588174">
        <ele>0</ele>
        <time>2013-05-03T17:48:04Z</time>
      </trkpt>
      <trkpt lat="59.319520853" lon="17.9468677179">
        <ele>0</ele>
        <time>2013-05-03T17:48:07Z</time>
      </trkpt>
      <trkpt lat="59.3198051671" lon="17.9460682523">
        <ele>0</ele>
        <time>2013-05-03T17:48:13Z</time>
      </trkpt>
      <trkpt lat="59.320098785" lon="17.9452433895">
        <ele>0</ele>
        <time>2013-05-03T17:48:19Z</time>
      </trkpt>
      <trkpt lat="59.320441018" lon="17.9443676486">
        <ele>0</ele>
        <time>2013-05-03T17:48:26Z</time>
      </trkpt>
      <trkpt lat="59.3206441115" lon="17.9438517426">
        <ele>0</ele>
        <time>2013-05-03T17:48:31Z</time>
      </trkpt>
      <trkpt lat="59.3208539104" lon="17.943475563">
        <ele>0</ele>
        <time>2013-05-03T17:48:36Z</time>
      </trkpt>
      <trkpt lat="59.3208988374" lon="17.9434142075">
        <ele>0</ele>
        <time>2013-05-03T17:48:37Z</time>
      </trkpt>
      <trkpt lat="59.320940244" lon="17.9433543607">
        <ele>0</ele>
        <time>2013-05-03T17:48:38Z</time>
      </trkpt>
      <trkpt lat="59.3209830755" lon="17.9432998784">
        <ele>0</ele>
        <time>2013-05-03T17:48:39Z</time>
      </trkpt>
      <trkpt lat="59.3210280025" lon="17.9432498384">
        <ele>0</ele>
        <time>2013-05-03T17:48:40Z</time>
      </trkpt>
      <trkpt lat="59.3210752764" lon="17.943200469">
        <ele>0</ele>
        <time>2013-05-03T17:48:41Z</time>
      </trkpt>
      <trkpt lat="59.3211190299" lon="17.9431506805">
        <ele>0</ele>
        <time>2013-05-03T17:48:42Z</time>
      </trkpt>
      <trkpt lat="59.3211606041" lon="17.9431044124">
        <ele>0</ele>
        <time>2013-05-03T17:48:43Z</time>
      </trkpt>
      <trkpt lat="59.3212021784" lon="17.9430609942">
        <ele>0</ele>
        <time>2013-05-03T17:48:44Z</time>
      </trkpt>
      <trkpt lat="59.3212419924" lon="17.9430192523">
        <ele>0</ele>
        <time>2013-05-03T17:48:45Z</time>
      </trkpt>
      <trkpt lat="59.321363027" lon="17.9429029954">
        <ele>0</ele>
        <time>2013-05-03T17:48:48Z</time>
      </trkpt>
      <trkpt lat="59.3214061938" lon="17.9428689649">
        <ele>0</ele>
        <time>2013-05-03T17:48:49Z</time>
      </trkpt>
      <trkpt lat="59.3214558985" lon="17.9428335933">
        <ele>0</ele>
        <time>2013-05-03T17:48:50Z</time>
      </trkpt>
      <trkpt lat="59.3215032562" lon="17.9428016582">
        <ele>0</ele>
        <time>2013-05-03T17:48:51Z</time>
      </trkpt>
      <trkpt lat="59.3215421482" lon="17.9427871575">
        <ele>0</ele>
        <time>2013-05-03T17:48:52Z</time>
      </trkpt>
      <trkpt lat="59.3216249614" lon="17.9427143188">
        <ele>0</ele>
        <time>2013-05-03T17:48:54Z</time>
      </trkpt>
      <trkpt lat="59.3216672062" lon="17.942683222">
        <ele>0</ele>
        <time>2013-05-03T17:48:55Z</time>
      </trkpt>
      <trkpt lat="59.3217101215" lon="17.9426402228">
        <ele>0</ele>
        <time>2013-05-03T17:48:56Z</time>
      </trkpt>
      <trkpt lat="59.3217418051" lon="17.942593368">
        <ele>0</ele>
        <time>2013-05-03T17:48:57Z</time>
      </trkpt>
      <trkpt lat="59.321774746" lon="17.9425283245">
        <ele>0</ele>
        <time>2013-05-03T17:48:58Z</time>
      </trkpt>
      <trkpt lat="59.321804837" lon="17.942462778">
        <ele>0</ele>
        <time>2013-05-03T17:48:59Z</time>
      </trkpt>
      <trkpt lat="59.3218265461" lon="17.9423943817">
        <ele>0</ele>
        <time>2013-05-03T17:49:00Z</time>
      </trkpt>
      <trkpt lat="59.3218452377" lon="17.9423310145">
        <ele>0</ele>
        <time>2013-05-03T17:49:01Z</time>
      </trkpt>
      <trkpt lat="59.321865941" lon="17.9422701619">
        <ele>0</ele>
        <time>2013-05-03T17:49:02Z</time>
      </trkpt>
      <trkpt lat="59.3218915058" lon="17.9422056213">
        <ele>0</ele>
        <time>2013-05-03T17:49:03Z</time>
      </trkpt>
      <trkpt lat="59.3219086049" lon="17.9421434276">
        <ele>0</ele>
        <time>2013-05-03T17:49:04Z</time>
      </trkpt>
      <trkpt lat="59.3219267098" lon="17.9420772944">
        <ele>0</ele>
        <time>2013-05-03T17:49:05Z</time>
      </trkpt>
      <trkpt lat="59.3219464073" lon="17.9420187888">
        <ele>0</ele>
        <time>2013-05-03T17:49:06Z</time>
      </trkpt>
      <trkpt lat="59.3219669429" lon="17.941965899">
        <ele>0</ele>
        <time>2013-05-03T17:49:07Z</time>
      </trkpt>
      <trkpt lat="59.3220370994" lon="17.94178946">
        <ele>0</ele>
        <time>2013-05-03T17:49:10Z</time>
      </trkpt>
      <trkpt lat="59.3220479121" lon="17.9417188844">
        <ele>0</ele>
        <time>2013-05-03T17:49:11Z</time>
      </trkpt>
      <trkpt lat="59.3220541985" lon="17.9416469677">
        <ele>0</ele>
        <time>2013-05-03T17:49:12Z</time>
      </trkpt>
      <trkpt lat="59.3220686992" lon="17.9415681778">
        <ele>0</ele>
        <time>2013-05-03T17:49:13Z</time>
      </trkpt>
      <trkpt lat="59.3220806015" lon="17.9414815928">
        <ele>0</ele>
        <time>2013-05-03T17:49:14Z</time>
      </trkpt>
      <trkpt lat="59.3220914141" lon="17.941392577">
        <ele>0</ele>
        <time>2013-05-03T17:49:15Z</time>
      </trkpt>
      <trkpt lat="59.3220995446" lon="17.9413244322">
        <ele>0</ele>
        <time>2013-05-03T17:49:16Z</time>
      </trkpt>
      <trkpt lat="59.3221026459" lon="17.9412437145">
        <ele>0</ele>
        <time>2013-05-03T17:49:17Z</time>
      </trkpt>
      <trkpt lat="59.3220977006" lon="17.9411565427">
        <ele>0</ele>
        <time>2013-05-03T17:49:18Z</time>
      </trkpt>
      <trkpt lat="59.3221034841" lon="17.9410751545">
        <ele>0</ele>
        <time>2013-05-03T17:49:19Z</time>
      </trkpt>
      <trkpt lat="59.3221147996" lon="17.9409858034">
        <ele>0</ele>
        <time>2013-05-03T17:49:20Z</time>
      </trkpt>
      <trkpt lat="59.3221740597" lon="17.9407135593">
        <ele>0</ele>
        <time>2013-05-03T17:49:23Z</time>
      </trkpt>
      <trkpt lat="59.3221968584" lon="17.9406237053">
        <ele>0</ele>
        <time>2013-05-03T17:49:24Z</time>
      </trkpt>
      <trkpt lat="59.3222301346" lon="17.9405464242">
        <ele>0</ele>
        <time>2013-05-03T17:49:25Z</time>
      </trkpt>
      <trkpt lat="59.3223601378" lon="17.9403139941">
        <ele>0</ele>
        <time>2013-05-03T17:49:28Z</time>
      </trkpt>
      <trkpt lat="59.3225887961" lon="17.9399243196">
        <ele>0</ele>
        <time>2013-05-03T17:49:33Z</time>
      </trkpt>
      <trkpt lat="59.3228758762" lon="17.9392629039">
        <ele>0</ele>
        <time>2013-05-03T17:49:40Z</time>
      </trkpt>
      <trkpt lat="59.3230591883" lon="17.9385865683">
        <ele>0</ele>
        <time>2013-05-03T17:49:46Z</time>
      </trkpt>
      <trkpt lat="59.3231091444" lon="17.9383709021">
        <ele>0</ele>
        <time>2013-05-03T17:49:48Z</time>
      </trkpt>
      <trkpt lat="59.3231335358" lon="17.9380498753">
        <ele>0</ele>
        <time>2013-05-03T17:49:51Z</time>
      </trkpt>
      <trkpt lat="59.3231414147" lon="17.9378699159">
        <ele>0</ele>
        <time>2013-05-03T17:49:53Z</time>
      </trkpt>
      <trkpt lat="59.323145019" lon="17.9377871865">
        <ele>0</ele>
        <time>2013-05-03T17:49:54Z</time>
      </trkpt>
      <trkpt lat="59.3231498805" lon="17.9377077261">
        <ele>0</ele>
        <time>2013-05-03T17:49:55Z</time>
      </trkpt>
      <trkpt lat="59.3231493776" lon="17.9376208058">
        <ele>0</ele>
        <time>2013-05-03T17:49:56Z</time>
      </trkpt>
      <trkpt lat="59.3231517245" lon="17.9375432733">
        <ele>0</ele>
        <time>2013-05-03T17:49:57Z</time>
      </trkpt>
      <trkpt lat="59.3231509701" lon="17.9373685106">
        <ele>0</ele>
        <time>2013-05-03T17:49:59Z</time>
      </trkpt>
      <trkpt lat="59.3231493776" lon="17.9372737952">
        <ele>0</ele>
        <time>2013-05-03T17:50:00Z</time>
      </trkpt>
      <trkpt lat="59.3231410795" lon="17.9371904791">
        <ele>0</ele>
        <time>2013-05-03T17:50:01Z</time>
      </trkpt>
      <trkpt lat="59.3231277523" lon="17.9371075821">
        <ele>0</ele>
        <time>2013-05-03T17:50:02Z</time>
      </trkpt>
      <trkpt lat="59.3231202085" lon="17.9370129504">
        <ele>0</ele>
        <time>2013-05-03T17:50:03Z</time>
      </trkpt>
      <trkpt lat="59.3231163529" lon="17.9368291354">
        <ele>0</ele>
        <time>2013-05-03T17:50:05Z</time>
      </trkpt>
      <trkpt lat="59.3231124972" lon="17.9367290555">
        <ele>0</ele>
        <time>2013-05-03T17:50:06Z</time>
      </trkpt>
      <trkpt lat="59.3231043667" lon="17.9366389501">
        <ele>0</ele>
        <time>2013-05-03T17:50:07Z</time>
      </trkpt>
      <trkpt lat="59.3231006787" lon="17.9365433964">
        <ele>0</ele>
        <time>2013-05-03T17:50:08Z</time>
      </trkpt>
      <trkpt lat="59.3230953981" lon="17.9364449091">
        <ele>0</ele>
        <time>2013-05-03T17:50:09Z</time>
      </trkpt>
      <trkpt lat="59.3231117428" lon="17.9358902788">
        <ele>0</ele>
        <time>2013-05-03T17:50:14Z</time>
      </trkpt>
      <trkpt lat="59.3231656384" lon="17.9351691839">
        <ele>0</ele>
        <time>2013-05-03T17:50:19Z</time>
      </trkpt>
      <trkpt lat="59.3232163489" lon="17.9348918268">
        <ele>0</ele>
        <time>2013-05-03T17:50:21Z</time>
      </trkpt>
      <trkpt lat="59.3232952226" lon="17.9346499252">
        <ele>0</ele>
        <time>2013-05-03T17:50:23Z</time>
      </trkpt>
      <trkpt lat="59.3235905169" lon="17.9339304229">
        <ele>0</ele>
        <time>2013-05-03T17:50:29Z</time>
      </trkpt>
      <trkpt lat="59.3236550576" lon="17.9337948876">
        <ele>0</ele>
        <time>2013-05-03T17:50:30Z</time>
      </trkpt>
      <trkpt lat="59.3237204364" lon="17.9336641299">
        <ele>0</ele>
        <time>2013-05-03T17:50:31Z</time>
      </trkpt>
      <trkpt lat="59.3237905091" lon="17.9335356354">
        <ele>0</ele>
        <time>2013-05-03T17:50:32Z</time>
      </trkpt>
      <trkpt lat="59.3238674549" lon="17.9334135111">
        <ele>0</ele>
        <time>2013-05-03T17:50:33Z</time>
      </trkpt>
      <trkpt lat="59.3239492623" lon="17.9332962483">
        <ele>0</ele>
        <time>2013-05-03T17:50:34Z</time>
      </trkpt>
      <trkpt lat="59.3240250346" lon="17.9331997727">
        <ele>0</ele>
        <time>2013-05-03T17:50:35Z</time>
      </trkpt>
      <trkpt lat="59.3240977057" lon="17.9331107569">
        <ele>0</ele>
        <time>2013-05-03T17:50:36Z</time>
      </trkpt>
      <trkpt lat="59.3241661858" lon="17.9330164605">
        <ele>0</ele>
        <time>2013-05-03T17:50:37Z</time>
      </trkpt>
      <trkpt lat="59.3242320676" lon="17.9329304622">
        <ele>0</ele>
        <time>2013-05-03T17:50:38Z</time>
      </trkpt>
      <trkpt lat="59.324299039" lon="17.9328418655">
        <ele>0</ele>
        <time>2013-05-03T17:50:39Z</time>
      </trkpt>
      <trkpt lat="59.3243620708" lon="17.9327597229">
        <ele>0</ele>
        <time>2013-05-03T17:50:40Z</time>
      </trkpt>
      <trkpt lat="59.3244262762" lon="17.9326821903">
        <ele>0</ele>
        <time>2013-05-03T17:50:41Z</time>
      </trkpt>
      <trkpt lat="59.3244889728" lon="17.9326126206">
        <ele>0</ele>
        <time>2013-05-03T17:50:42Z</time>
      </trkpt>
      <trkpt lat="59.3245477299" lon="17.9325434699">
        <ele>0</ele>
        <time>2013-05-03T17:50:43Z</time>
      </trkpt>
      <trkpt lat="59.3246048945" lon="17.9324818629">
        <ele>0</ele>
        <time>2013-05-03T17:50:44Z</time>
      </trkpt>
      <trkpt lat="59.324652336" lon="17.9324285541">
        <ele>0</ele>
        <time>2013-05-03T17:50:45Z</time>
      </trkpt>
      <trkpt lat="59.3247733707" lon="17.932297042">
        <ele>0</ele>
        <time>2013-05-03T17:50:48Z</time>
      </trkpt>
      <trkpt lat="59.3250592773" lon="17.9319860736">
        <ele>0</ele>
        <time>2013-05-03T17:50:54Z</time>
      </trkpt>
      <trkpt lat="59.3253170207" lon="17.9315869275">
        <ele>0</ele>
        <time>2013-05-03T17:50:59Z</time>
      </trkpt>
      <trkpt lat="59.3256435795" lon="17.931030956">
        <ele>0</ele>
        <time>2013-05-03T17:51:06Z</time>
      </trkpt>
      <trkpt lat="59.3257004088" lon="17.9309701873">
        <ele>0</ele>
        <time>2013-05-03T17:51:07Z</time>
      </trkpt>
      <trkpt lat="59.3258441584" lon="17.930741529">
        <ele>0</ele>
        <time>2013-05-03T17:51:10Z</time>
      </trkpt>
      <trkpt lat="59.3260091142" lon="17.9305152177">
        <ele>0</ele>
        <time>2013-05-03T17:51:13Z</time>
      </trkpt>
      <trkpt lat="59.3260713079" lon="17.9304464023">
        <ele>0</ele>
        <time>2013-05-03T17:51:14Z</time>
      </trkpt>
      <trkpt lat="59.3261369382" lon="17.9303787604">
        <ele>0</ele>
        <time>2013-05-03T17:51:15Z</time>
      </trkpt>
      <trkpt lat="59.3262081843" lon="17.9303142198">
        <ele>0</ele>
        <time>2013-05-03T17:51:16Z</time>
      </trkpt>
      <trkpt lat="59.3262785085" lon="17.9302590669">
        <ele>0</ele>
        <time>2013-05-03T17:51:17Z</time>
      </trkpt>
      <trkpt lat="59.3264831945" lon="17.9300938596">
        <ele>0</ele>
        <time>2013-05-03T17:51:20Z</time>
      </trkpt>
      <trkpt lat="59.3265506688" lon="17.9300372818">
        <ele>0</ele>
        <time>2013-05-03T17:51:21Z</time>
      </trkpt>
      <trkpt lat="59.3266187298" lon="17.9299853978">
        <ele>0</ele>
        <time>2013-05-03T17:51:22Z</time>
      </trkpt>
      <trkpt lat="59.3266844439" lon="17.9299338492">
        <ele>0</ele>
        <time>2013-05-03T17:51:23Z</time>
      </trkpt>
      <trkpt lat="59.3267503256" lon="17.9298846474">
        <ele>0</ele>
        <time>2013-05-03T17:51:24Z</time>
      </trkpt>
      <trkpt lat="59.3268688457" lon="17.9297881717">
        <ele>0</ele>
        <time>2013-05-03T17:51:26Z</time>
      </trkpt>
      <trkpt lat="59.3269954124" lon="17.9297226253">
        <ele>0</ele>
        <time>2013-05-03T17:51:28Z</time>
      </trkpt>
      <trkpt lat="59.3274547405" lon="17.9294508841">
        <ele>0</ele>
        <time>2013-05-03T17:51:35Z</time>
      </trkpt>
      <trkpt lat="59.3279202712" lon="17.9291400832">
        <ele>0</ele>
        <time>2013-05-03T17:51:42Z</time>
      </trkpt>
      <trkpt lat="59.3282552958" lon="17.9288741255">
        <ele>0</ele>
        <time>2013-05-03T17:51:48Z</time>
      </trkpt>
      <trkpt lat="59.3285735565" lon="17.9285586308">
        <ele>0</ele>
        <time>2013-05-03T17:51:54Z</time>
      </trkpt>
      <trkpt lat="59.328607587" lon="17.9284782484">
        <ele>0</ele>
        <time>2013-05-03T17:51:55Z</time>
      </trkpt>
      <trkpt lat="59.3286753966" lon="17.9282534458">
        <ele>0</ele>
        <time>2013-05-03T17:51:58Z</time>
      </trkpt>
      <trkpt lat="59.3286981115" lon="17.9282064234">
        <ele>0</ele>
        <time>2013-05-03T17:51:59Z</time>
      </trkpt>
      <trkpt lat="59.328744212" lon="17.928189911">
        <ele>0</ele>
        <time>2013-05-03T17:52:02Z</time>
      </trkpt>
      <trkpt lat="59.3288672583" lon="17.9282815252">
        <ele>0</ele>
        <time>2013-05-03T17:52:07Z</time>
      </trkpt>
      <trkpt lat="59.3288919011" lon="17.9282950201">
        <ele>0</ele>
        <time>2013-05-03T17:52:08Z</time>
      </trkpt>
      <trkpt lat="59.3290085771" lon="17.9284064993">
        <ele>0</ele>
        <time>2013-05-03T17:52:12Z</time>
      </trkpt>
      <trkpt lat="59.3290322979" lon="17.9283991233">
        <ele>0</ele>
        <time>2013-05-03T17:52:14Z</time>
      </trkpt>
      <trkpt lat="59.3290488102" lon="17.9284014702">
        <ele>0</ele>
        <time>2013-05-03T17:52:15Z</time>
      </trkpt>
      <trkpt lat="59.3291258399" lon="17.9282733109">
        <ele>0</ele>
        <time>2013-05-03T17:52:19Z</time>
      </trkpt>
      <trkpt lat="59.3291950744" lon="17.9279445728">
        <ele>0</ele>
        <time>2013-05-03T17:52:22Z</time>
      </trkpt>
      <trkpt lat="59.329226758" lon="17.927704599">
        <ele>0</ele>
        <time>2013-05-03T17:52:24Z</time>
      </trkpt>
      <trkpt lat="59.3293041229" lon="17.9271956501">
        <ele>0</ele>
        <time>2013-05-03T17:52:28Z</time>
      </trkpt>
      <trkpt lat="59.3294482916" lon="17.9264319752">
        <ele>0</ele>
        <time>2013-05-03T17:52:34Z</time>
      </trkpt>
      <trkpt lat="59.3294638819" lon="17.9263096832">
        <ele>0</ele>
        <time>2013-05-03T17:52:35Z</time>
      </trkpt>
      <trkpt lat="59.3294871836" lon="17.9261810211">
        <ele>0</ele>
        <time>2013-05-03T17:52:36Z</time>
      </trkpt>
      <trkpt lat="59.3295051209" lon="17.9260635068">
        <ele>0</ele>
        <time>2013-05-03T17:52:37Z</time>
      </trkpt>
      <trkpt lat="59.329529596" lon="17.9259378622">
        <ele>0</ele>
        <time>2013-05-03T17:52:38Z</time>
      </trkpt>
      <trkpt lat="59.3295467789" lon="17.9258134748">
        <ele>0</ele>
        <time>2013-05-03T17:52:39Z</time>
      </trkpt>
      <trkpt lat="59.3295644647" lon="17.9256812084">
        <ele>0</ele>
        <time>2013-05-03T17:52:40Z</time>
      </trkpt>
      <trkpt lat="59.3295831564" lon="17.9255685556">
        <ele>0</ele>
        <time>2013-05-03T17:52:41Z</time>
      </trkpt>
      <trkpt lat="59.3296025185" lon="17.9254463475">
        <ele>0</ele>
        <time>2013-05-03T17:52:42Z</time>
      </trkpt>
      <trkpt lat="59.3296243953" lon="17.9253138297">
        <ele>0</ele>
        <time>2013-05-03T17:52:43Z</time>
      </trkpt>
      <trkpt lat="59.3296451824" lon="17.9251718403">
        <ele>0</ele>
        <time>2013-05-03T17:52:44Z</time>
      </trkpt>
      <trkpt lat="59.3296675621" lon="17.9250232292">
        <ele>0</ele>
        <time>2013-05-03T17:52:45Z</time>
      </trkpt>
      <trkpt lat="59.329755572" lon="17.9240299741">
        <ele>0</ele>
        <time>2013-05-03T17:52:51Z</time>
      </trkpt>
      <trkpt lat="59.3297528898" lon="17.9238475839">
        <ele>0</ele>
        <time>2013-05-03T17:52:52Z</time>
      </trkpt>
      <trkpt lat="59.3297461005" lon="17.9236563928">
        <ele>0</ele>
        <time>2013-05-03T17:52:53Z</time>
      </trkpt>
      <trkpt lat="59.3297388921" lon="17.9234606754">
        <ele>0</ele>
        <time>2013-05-03T17:52:54Z</time>
      </trkpt>
      <trkpt lat="59.3297341144" lon="17.9232490324">
        <ele>0</ele>
        <time>2013-05-03T17:52:55Z</time>
      </trkpt>
      <trkpt lat="59.3297326056" lon="17.9230495432">
        <ele>0</ele>
        <time>2013-05-03T17:52:56Z</time>
      </trkpt>
      <trkpt lat="59.3297274927" lon="17.9228332902">
        <ele>0</ele>
        <time>2013-05-03T17:52:57Z</time>
      </trkpt>
      <trkpt lat="59.3297298396" lon="17.9226270117">
        <ele>0</ele>
        <time>2013-05-03T17:52:58Z</time>
      </trkpt>
      <trkpt lat="59.329758841" lon="17.9224282768">
        <ele>0</ele>
        <time>2013-05-03T17:52:59Z</time>
      </trkpt>
      <trkpt lat="59.3298139939" lon="17.9222569508">
        <ele>0</ele>
        <time>2013-05-03T17:53:00Z</time>
      </trkpt>
      <trkpt lat="59.3298880899" lon="17.9221132012">
        <ele>0</ele>
        <time>2013-05-03T17:53:01Z</time>
      </trkpt>
      <trkpt lat="59.3299605933" lon="17.9219794261">
        <ele>0</ele>
        <time>2013-05-03T17:53:02Z</time>
      </trkpt>
      <trkpt lat="59.3300444123" lon="17.9218516021">
        <ele>0</ele>
        <time>2013-05-03T17:53:03Z</time>
      </trkpt>
      <trkpt lat="59.3301480126" lon="17.9217311542">
        <ele>0</ele>
        <time>2013-05-03T17:53:04Z</time>
      </trkpt>
      <trkpt lat="59.3302377827" lon="17.9216150649">
        <ele>0</ele>
        <time>2013-05-03T17:53:05Z</time>
      </trkpt>
      <trkpt lat="59.3303278044" lon="17.9214996461">
        <ele>0</ele>
        <time>2013-05-03T17:53:06Z</time>
      </trkpt>
      <trkpt lat="59.3304104499" lon="17.9213569862">
        <ele>0</ele>
        <time>2013-05-03T17:53:07Z</time>
      </trkpt>
      <trkpt lat="59.3304430555" lon="17.9211568264">
        <ele>0</ele>
        <time>2013-05-03T17:53:08Z</time>
      </trkpt>
      <trkpt lat="59.3304571371" lon="17.9209538168">
        <ele>0</ele>
        <time>2013-05-03T17:53:09Z</time>
      </trkpt>
      <trkpt lat="59.3304449833" lon="17.9207467838">
        <ele>0</ele>
        <time>2013-05-03T17:53:10Z</time>
      </trkpt>
      <trkpt lat="59.3304331648" lon="17.9205434389">
        <ele>0</ele>
        <time>2013-05-03T17:53:11Z</time>
      </trkpt>
      <trkpt lat="59.3304161496" lon="17.9203301196">
        <ele>0</ele>
        <time>2013-05-03T17:53:12Z</time>
      </trkpt>
      <trkpt lat="59.3304302312" lon="17.9201546864">
        <ele>0</ele>
        <time>2013-05-03T17:53:13Z</time>
      </trkpt>
      <trkpt lat="59.3304636749" lon="17.9199681892">
        <ele>0</ele>
        <time>2013-05-03T17:53:14Z</time>
      </trkpt>
      <trkpt lat="59.3305078476" lon="17.9197925045">
        <ele>0</ele>
        <time>2013-05-03T17:53:15Z</time>
      </trkpt>
      <trkpt lat="59.3305859669" lon="17.919632997">
        <ele>0</ele>
        <time>2013-05-03T17:53:16Z</time>
      </trkpt>
      <trkpt lat="59.3306605658" lon="17.9194713101">
        <ele>0</ele>
        <time>2013-05-03T17:53:17Z</time>
      </trkpt>
      <trkpt lat="59.3307361705" lon="17.9193251298">
        <ele>0</ele>
        <time>2013-05-03T17:53:18Z</time>
      </trkpt>
      <trkpt lat="59.3308127811" lon="17.9191794524">
        <ele>0</ele>
        <time>2013-05-03T17:53:19Z</time>
      </trkpt>
      <trkpt lat="59.3308681016" lon="17.9190276562">
        <ele>0</ele>
        <time>2013-05-03T17:53:20Z</time>
      </trkpt>
      <trkpt lat="59.3309133639" lon="17.918882314">
        <ele>0</ele>
        <time>2013-05-03T17:53:21Z</time>
      </trkpt>
      <trkpt lat="59.3309302953" lon="17.9187334515">
        <ele>0</ele>
        <time>2013-05-03T17:53:22Z</time>
      </trkpt>
      <trkpt lat="59.3309152917" lon="17.9185980838">
        <ele>0</ele>
        <time>2013-05-03T17:53:23Z</time>
      </trkpt>
      <trkpt lat="59.3308069138" lon="17.9183952418">
        <ele>0</ele>
        <time>2013-05-03T17:53:25Z</time>
      </trkpt>
      <trkpt lat="59.3306781678" lon="17.9182590359">
        <ele>0</ele>
        <time>2013-05-03T17:53:27Z</time>
      </trkpt>
      <trkpt lat="59.3305504276" lon="17.9181175495">
        <ele>0</ele>
        <time>2013-05-03T17:53:29Z</time>
      </trkpt>
      <trkpt lat="59.3303247869" lon="17.9177512604">
        <ele>0</ele>
        <time>2013-05-03T17:53:33Z</time>
      </trkpt>
      <trkpt lat="59.3302729029" lon="17.9176464867">
        <ele>0</ele>
        <time>2013-05-03T17:53:34Z</time>
      </trkpt>
      <trkpt lat="59.3302262995" lon="17.9175506816">
        <ele>0</ele>
        <time>2013-05-03T17:53:35Z</time>
      </trkpt>
      <trkpt lat="59.3301821269" lon="17.9174581454">
        <ele>0</ele>
        <time>2013-05-03T17:53:36Z</time>
      </trkpt>
      <trkpt lat="59.3301048458" lon="17.9172920161">
        <ele>0</ele>
        <time>2013-05-03T17:53:38Z</time>
      </trkpt>
      <trkpt lat="59.3299790335" lon="17.9169952969">
        <ele>0</ele>
        <time>2013-05-03T17:53:42Z</time>
      </trkpt>
      <trkpt lat="59.3299627726" lon="17.9169336061">
        <ele>0</ele>
        <time>2013-05-03T17:53:43Z</time>
      </trkpt>
      <trkpt lat="59.3298374632" lon="17.9166476995">
        <ele>0</ele>
        <time>2013-05-03T17:53:47Z</time>
      </trkpt>
      <trkpt lat="59.3296480323" lon="17.9161795704">
        <ele>0</ele>
        <time>2013-05-03T17:53:53Z</time>
      </trkpt>
      <trkpt lat="59.3296159296" lon="17.9160966734">
        <ele>0</ele>
        <time>2013-05-03T17:53:54Z</time>
      </trkpt>
      <trkpt lat="59.3294858425" lon="17.9158750559">
        <ele>0</ele>
        <time>2013-05-03T17:53:57Z</time>
      </trkpt>
      <trkpt lat="59.3294473696" lon="17.915792578">
        <ele>0</ele>
        <time>2013-05-03T17:53:58Z</time>
      </trkpt>
      <trkpt lat="59.3293681606" lon="17.9156030633">
        <ele>0</ele>
        <time>2013-05-03T17:54:00Z</time>
      </trkpt>
      <trkpt lat="59.3293327052" lon="17.9155189928">
        <ele>0</ele>
        <time>2013-05-03T17:54:01Z</time>
      </trkpt>
      <trkpt lat="59.3292989261" lon="17.9154055857">
        <ele>0</ele>
        <time>2013-05-03T17:54:02Z</time>
      </trkpt>
      <trkpt lat="59.3292635545" lon="17.9152758339">
        <ele>0</ele>
        <time>2013-05-03T17:54:03Z</time>
      </trkpt>
      <trkpt lat="59.3292249139" lon="17.915148429">
        <ele>0</ele>
        <time>2013-05-03T17:54:04Z</time>
      </trkpt>
      <trkpt lat="59.3291861058" lon="17.9150078646">
        <ele>0</ele>
        <time>2013-05-03T17:54:05Z</time>
      </trkpt>
      <trkpt lat="59.3291462917" lon="17.9148647017">
        <ele>0</ele>
        <time>2013-05-03T17:54:06Z</time>
      </trkpt>
      <trkpt lat="59.3291055557" lon="17.9147183537">
        <ele>0</ele>
        <time>2013-05-03T17:54:07Z</time>
      </trkpt>
      <trkpt lat="59.3290636462" lon="17.9145701617">
        <ele>0</ele>
        <time>2013-05-03T17:54:08Z</time>
      </trkpt>
      <trkpt lat="59.3290200603" lon="17.9144206286">
        <ele>0</ele>
        <time>2013-05-03T17:54:09Z</time>
      </trkpt>
      <trkpt lat="59.3287978561" lon="17.913521586">
        <ele>0</ele>
        <time>2013-05-03T17:54:15Z</time>
      </trkpt>
      <trkpt lat="59.328511279" lon="17.912475944">
        <ele>0</ele>
        <time>2013-05-03T17:54:22Z</time>
      </trkpt>
      <trkpt lat="59.3282282222" lon="17.9114305534">
        <ele>0</ele>
        <time>2013-05-03T17:54:29Z</time>
      </trkpt>
      <trkpt lat="59.3281895817" lon="17.9112791763">
        <ele>0</ele>
        <time>2013-05-03T17:54:30Z</time>
      </trkpt>
      <trkpt lat="59.3281446547" lon="17.9111252847">
        <ele>0</ele>
        <time>2013-05-03T17:54:31Z</time>
      </trkpt>
      <trkpt lat="59.3281035834" lon="17.9109675373">
        <ele>0</ele>
        <time>2013-05-03T17:54:32Z</time>
      </trkpt>
      <trkpt lat="59.3280599975" lon="17.9108035035">
        <ele>0</ele>
        <time>2013-05-03T17:54:33Z</time>
      </trkpt>
      <trkpt lat="59.3280196805" lon="17.9106475164">
        <ele>0</ele>
        <time>2013-05-03T17:54:34Z</time>
      </trkpt>
      <trkpt lat="59.3279779387" lon="17.9104880088">
        <ele>0</ele>
        <time>2013-05-03T17:54:35Z</time>
      </trkpt>
      <trkpt lat="59.3279330955" lon="17.9103245617">
        <ele>0</ele>
        <time>2013-05-03T17:54:36Z</time>
      </trkpt>
      <trkpt lat="59.3276688142" lon="17.9093769879">
        <ele>0</ele>
        <time>2013-05-03T17:54:42Z</time>
      </trkpt>
      <trkpt lat="59.3276269885" lon="17.9092170613">
        <ele>0</ele>
        <time>2013-05-03T17:54:43Z</time>
      </trkpt>
      <trkpt lat="59.3275821454" lon="17.9090542848">
        <ele>0</ele>
        <time>2013-05-03T17:54:44Z</time>
      </trkpt>
      <trkpt lat="59.3275376375" lon="17.9088910054">
        <ele>0</ele>
        <time>2013-05-03T17:54:45Z</time>
      </trkpt>
      <trkpt lat="59.3274886872" lon="17.9087375328">
        <ele>0</ele>
        <time>2013-05-03T17:54:46Z</time>
      </trkpt>
      <trkpt lat="59.3274007611" lon="17.9084050228">
        <ele>0</ele>
        <time>2013-05-03T17:54:48Z</time>
      </trkpt>
      <trkpt lat="59.3273571752" lon="17.908244258">
        <ele>0</ele>
        <time>2013-05-03T17:54:49Z</time>
      </trkpt>
      <trkpt lat="59.3273124158" lon="17.9080861753">
        <ele>0</ele>
        <time>2013-05-03T17:54:50Z</time>
      </trkpt>
      <trkpt lat="59.3272657286" lon="17.9079292662">
        <ele>0</ele>
        <time>2013-05-03T17:54:51Z</time>
      </trkpt>
      <trkpt lat="59.3272183709" lon="17.907775626">
        <ele>0</ele>
        <time>2013-05-03T17:54:52Z</time>
      </trkpt>
      <trkpt lat="59.3271908783" lon="17.9076103349">
        <ele>0</ele>
        <time>2013-05-03T17:54:53Z</time>
      </trkpt>
      <trkpt lat="59.3271482144" lon="17.9074473908">
        <ele>0</ele>
        <time>2013-05-03T17:54:54Z</time>
      </trkpt>
      <trkpt lat="59.3271032036" lon="17.9072781602">
        <ele>0</ele>
        <time>2013-05-03T17:54:55Z</time>
      </trkpt>
      <trkpt lat="59.3270525769" lon="17.9070972788">
        <ele>0</ele>
        <time>2013-05-03T17:54:56Z</time>
      </trkpt>
      <trkpt lat="59.3270040457" lon="17.9069179899">
        <ele>0</ele>
        <time>2013-05-03T17:54:57Z</time>
      </trkpt>
      <trkpt lat="59.3269551792" lon="17.9067387011">
        <ele>0</ele>
        <time>2013-05-03T17:54:58Z</time>
      </trkpt>
      <trkpt lat="59.3268074063" lon="17.9062113958">
        <ele>0</ele>
        <time>2013-05-03T17:55:01Z</time>
      </trkpt>
      <trkpt lat="59.3267585399" lon="17.9060370523">
        <ele>0</ele>
        <time>2013-05-03T17:55:02Z</time>
      </trkpt>
      <trkpt lat="59.3267117689" lon="17.9058637984">
        <ele>0</ele>
        <time>2013-05-03T17:55:03Z</time>
      </trkpt>
      <trkpt lat="59.3266646626" lon="17.9056800671">
        <ele>0</ele>
        <time>2013-05-03T17:55:04Z</time>
      </trkpt>
      <trkpt lat="59.3266199871" lon="17.9055067294">
        <ele>0</ele>
        <time>2013-05-03T17:55:05Z</time>
      </trkpt>
      <trkpt lat="59.3265750601" lon="17.9053343976">
        <ele>0</ele>
        <time>2013-05-03T17:55:06Z</time>
      </trkpt>
      <trkpt lat="59.3265268642" lon="17.9051557793">
        <ele>0</ele>
        <time>2013-05-03T17:55:07Z</time>
      </trkpt>
      <trkpt lat="59.3264777462" lon="17.9049733053">
        <ele>0</ele>
        <time>2013-05-03T17:55:08Z</time>
      </trkpt>
      <trkpt lat="59.3264285445" lon="17.904794687">
        <ele>0</ele>
        <time>2013-05-03T17:55:09Z</time>
      </trkpt>
      <trkpt lat="59.3263749841" lon="17.9046183319">
        <ele>0</ele>
        <time>2013-05-03T17:55:10Z</time>
      </trkpt>
      <trkpt lat="59.3263251956" lon="17.9044348521">
        <ele>0</ele>
        <time>2013-05-03T17:55:11Z</time>
      </trkpt>
      <trkpt lat="59.3262786761" lon="17.9042653701">
        <ele>0</ele>
        <time>2013-05-03T17:55:12Z</time>
      </trkpt>
      <trkpt lat="59.3262318213" lon="17.9041018392">
        <ele>0</ele>
        <time>2013-05-03T17:55:13Z</time>
      </trkpt>
      <trkpt lat="59.3261918396" lon="17.9039263222">
        <ele>0</ele>
        <time>2013-05-03T17:55:14Z</time>
      </trkpt>
      <trkpt lat="59.326160156" lon="17.9037525654">
        <ele>0</ele>
        <time>2013-05-03T17:55:15Z</time>
      </trkpt>
      <trkpt lat="59.3261271313" lon="17.903573528">
        <ele>0</ele>
        <time>2013-05-03T17:55:16Z</time>
      </trkpt>
      <trkpt lat="59.3260867306" lon="17.9033912217">
        <ele>0</ele>
        <time>2013-05-03T17:55:17Z</time>
      </trkpt>
      <trkpt lat="59.3260367745" lon="17.9032298701">
        <ele>0</ele>
        <time>2013-05-03T17:55:18Z</time>
      </trkpt>
      <trkpt lat="59.3258762611" lon="17.9027563766">
        <ele>0</ele>
        <time>2013-05-03T17:55:21Z</time>
      </trkpt>
      <trkpt lat="59.3257842278" lon="17.9024222741">
        <ele>0</ele>
        <time>2013-05-03T17:55:23Z</time>
      </trkpt>
      <trkpt lat="59.3257381274" lon="17.9022567315">
        <ele>0</ele>
        <time>2013-05-03T17:55:24Z</time>
      </trkpt>
      <trkpt lat="59.325695212" lon="17.9020964696">
        <ele>0</ele>
        <time>2013-05-03T17:55:25Z</time>
      </trkpt>
      <trkpt lat="59.3256481896" lon="17.9019282449">
        <ele>0</ele>
        <time>2013-05-03T17:55:26Z</time>
      </trkpt>
      <trkpt lat="59.3256096328" lon="17.9017699946">
        <ele>0</ele>
        <time>2013-05-03T17:55:27Z</time>
      </trkpt>
      <trkpt lat="59.3254110656" lon="17.9009711157">
        <ele>0</ele>
        <time>2013-05-03T17:55:32Z</time>
      </trkpt>
      <trkpt lat="59.325396984" lon="17.9008008793">
        <ele>0</ele>
        <time>2013-05-03T17:55:33Z</time>
      </trkpt>
      <trkpt lat="59.325282152" lon="17.9003398748">
        <ele>0</ele>
        <time>2013-05-03T17:55:36Z</time>
      </trkpt>
      <trkpt lat="59.3251179506" lon="17.8999912716">
        <ele>0</ele>
        <time>2013-05-03T17:55:39Z</time>
      </trkpt>
      <trkpt lat="59.3250402504" lon="17.8997185246">
        <ele>0</ele>
        <time>2013-05-03T17:55:41Z</time>
      </trkpt>
      <trkpt lat="59.3249964969" lon="17.8995813129">
        <ele>0</ele>
        <time>2013-05-03T17:55:42Z</time>
      </trkpt>
      <trkpt lat="59.3247671681" lon="17.8987093438">
        <ele>0</ele>
        <time>2013-05-03T17:55:48Z</time>
      </trkpt>
      <trkpt lat="59.3244933314" lon="17.8976908591">
        <ele>0</ele>
        <time>2013-05-03T17:55:55Z</time>
      </trkpt>
      <trkpt lat="59.3244280364" lon="17.8973905357">
        <ele>0</ele>
        <time>2013-05-03T17:55:57Z</time>
      </trkpt>
      <trkpt lat="59.3242629968" lon="17.8967898049">
        <ele>0</ele>
        <time>2013-05-03T17:56:01Z</time>
      </trkpt>
      <trkpt lat="59.3242223446" lon="17.8966337339">
        <ele>0</ele>
        <time>2013-05-03T17:56:02Z</time>
      </trkpt>
      <trkpt lat="59.3241823629" lon="17.8964729691">
        <ele>0</ele>
        <time>2013-05-03T17:56:03Z</time>
      </trkpt>
      <trkpt lat="59.3241510984" lon="17.8963090191">
        <ele>0</ele>
        <time>2013-05-03T17:56:04Z</time>
      </trkpt>
      <trkpt lat="59.3240771701" lon="17.895799232">
        <ele>0</ele>
        <time>2013-05-03T17:56:07Z</time>
      </trkpt>
      <trkpt lat="59.3239477535" lon="17.8946611376">
        <ele>0</ele>
        <time>2013-05-03T17:56:14Z</time>
      </trkpt>
      <trkpt lat="59.3238869848" lon="17.8941757417">
        <ele>0</ele>
        <time>2013-05-03T17:56:17Z</time>
      </trkpt>
      <trkpt lat="59.3237581549" lon="17.8930584345">
        <ele>0</ele>
        <time>2013-05-03T17:56:24Z</time>
      </trkpt>
      <trkpt lat="59.323739128" lon="17.8929019444">
        <ele>0</ele>
        <time>2013-05-03T17:56:25Z</time>
      </trkpt>
      <trkpt lat="59.323635863" lon="17.8919683684">
        <ele>0</ele>
        <time>2013-05-03T17:56:31Z</time>
      </trkpt>
      <trkpt lat="59.3236236255" lon="17.8918120459">
        <ele>0</ele>
        <time>2013-05-03T17:56:32Z</time>
      </trkpt>
      <trkpt lat="59.3236247989" lon="17.8913326013">
        <ele>0</ele>
        <time>2013-05-03T17:56:35Z</time>
      </trkpt>
      <trkpt lat="59.3236322588" lon="17.8911670587">
        <ele>0</ele>
        <time>2013-05-03T17:56:36Z</time>
      </trkpt>
      <trkpt lat="59.3236420656" lon="17.8910109878">
        <ele>0</ele>
        <time>2013-05-03T17:56:37Z</time>
      </trkpt>
      <trkpt lat="59.3236617631" lon="17.8908591077">
        <ele>0</ele>
        <time>2013-05-03T17:56:38Z</time>
      </trkpt>
      <trkpt lat="59.3236859868" lon="17.8907115025">
        <ele>0</ele>
        <time>2013-05-03T17:56:39Z</time>
      </trkpt>
      <trkpt lat="59.3237460012" lon="17.8904384202">
        <ele>0</ele>
        <time>2013-05-03T17:56:41Z</time>
      </trkpt>
      <trkpt lat="59.323869718" lon="17.8898751565">
        <ele>0</ele>
        <time>2013-05-03T17:56:46Z</time>
      </trkpt>
      <trkpt lat="59.323918836" lon="17.8896610828">
        <ele>0</ele>
        <time>2013-05-03T17:56:49Z</time>
      </trkpt>
      <trkpt lat="59.3239408804" lon="17.8895503579">
        <ele>0</ele>
        <time>2013-05-03T17:56:51Z</time>
      </trkpt>
      <trkpt lat="59.3240040799" lon="17.8891418241">
        <ele>0</ele>
        <time>2013-05-03T17:56:56Z</time>
      </trkpt>
      <trkpt lat="59.3240982925" lon="17.8886391615">
        <ele>0</ele>
        <time>2013-05-03T17:57:00Z</time>
      </trkpt>
      <trkpt lat="59.3241433033" lon="17.8883858605">
        <ele>0</ele>
        <time>2013-05-03T17:57:02Z</time>
      </trkpt>
      <trkpt lat="59.3241718855" lon="17.8882602158">
        <ele>0</ele>
        <time>2013-05-03T17:57:03Z</time>
      </trkpt>
      <trkpt lat="59.3241902419" lon="17.8881407737">
        <ele>0</ele>
        <time>2013-05-03T17:57:04Z</time>
      </trkpt>
      <trkpt lat="59.3242164772" lon="17.8880147938">
        <ele>0</ele>
        <time>2013-05-03T17:57:05Z</time>
      </trkpt>
      <trkpt lat="59.3242446404" lon="17.8878873889">
        <ele>0</ele>
        <time>2013-05-03T17:57:06Z</time>
      </trkpt>
      <trkpt lat="59.3244436267" lon="17.8868474466">
        <ele>0</ele>
        <time>2013-05-03T17:57:14Z</time>
      </trkpt>
      <trkpt lat="59.3244725443" lon="17.8867070498">
        <ele>0</ele>
        <time>2013-05-03T17:57:15Z</time>
      </trkpt>
      <trkpt lat="59.3246092531" lon="17.8861401819">
        <ele>0</ele>
        <time>2013-05-03T17:57:19Z</time>
      </trkpt>
      <trkpt lat="59.3246472231" lon="17.8860091728">
        <ele>0</ele>
        <time>2013-05-03T17:57:20Z</time>
      </trkpt>
      <trkpt lat="59.3246903899" lon="17.8858823546">
        <ele>0</ele>
        <time>2013-05-03T17:57:21Z</time>
      </trkpt>
      <trkpt lat="59.3247395916" lon="17.8857523513">
        <ele>0</ele>
        <time>2013-05-03T17:57:22Z</time>
      </trkpt>
      <trkpt lat="59.3247887934" lon="17.8856402853">
        <ele>0</ele>
        <time>2013-05-03T17:57:23Z</time>
      </trkpt>
      <trkpt lat="59.3248988477" lon="17.8854415505">
        <ele>0</ele>
        <time>2013-05-03T17:57:25Z</time>
      </trkpt>
      <trkpt lat="59.3249596165" lon="17.8853392075">
        <ele>0</ele>
        <time>2013-05-03T17:57:26Z</time>
      </trkpt>
      <trkpt lat="59.3253559127" lon="17.8845618701">
        <ele>0</ele>
        <time>2013-05-03T17:57:33Z</time>
      </trkpt>
      <trkpt lat="59.3254456829" lon="17.8842934816">
        <ele>0</ele>
        <time>2013-05-03T17:57:35Z</time>
      </trkpt>
      <trkpt lat="59.325558168" lon="17.8839365803">
        <ele>0</ele>
        <time>2013-05-03T17:57:38Z</time>
      </trkpt>
      <trkpt lat="59.325743408" lon="17.8832900844">
        <ele>0</ele>
        <time>2013-05-03T17:57:43Z</time>
      </trkpt>
      <trkpt lat="59.3258754229" lon="17.8828458437">
        <ele>0</ele>
        <time>2013-05-03T17:57:46Z</time>
      </trkpt>
      <trkpt lat="59.3259205175" lon="17.882692874">
        <ele>0</ele>
        <time>2013-05-03T17:57:47Z</time>
      </trkpt>
      <trkpt lat="59.3259641872" lon="17.8825318577">
        <ele>0</ele>
        <time>2013-05-03T17:57:48Z</time>
      </trkpt>
      <trkpt lat="59.3260103715" lon="17.8823667343">
        <ele>0</ele>
        <time>2013-05-03T17:57:49Z</time>
      </trkpt>
      <trkpt lat="59.3260578969" lon="17.8822005212">
        <ele>0</ele>
        <time>2013-05-03T17:57:50Z</time>
      </trkpt>
      <trkpt lat="59.3263278779" lon="17.8811611656">
        <ele>0</ele>
        <time>2013-05-03T17:57:56Z</time>
      </trkpt>
      <trkpt lat="59.3263567954" lon="17.8809796975">
        <ele>0</ele>
        <time>2013-05-03T17:57:57Z</time>
      </trkpt>
      <trkpt lat="59.3264715436" lon="17.88007923">
        <ele>0</ele>
        <time>2013-05-03T17:58:02Z</time>
      </trkpt>
      <trkpt lat="59.3264821048" lon="17.8793837837">
        <ele>0</ele>
        <time>2013-05-03T17:58:06Z</time>
      </trkpt>
      <trkpt lat="59.3264734715" lon="17.8792151399">
        <ele>0</ele>
        <time>2013-05-03T17:58:07Z</time>
      </trkpt>
      <trkpt lat="59.326459809" lon="17.8790499326">
        <ele>0</ele>
        <time>2013-05-03T17:58:08Z</time>
      </trkpt>
      <trkpt lat="59.3264417041" lon="17.8788824623">
        <ele>0</ele>
        <time>2013-05-03T17:58:09Z</time>
      </trkpt>
      <trkpt lat="59.3264158878" lon="17.8787267266">
        <ele>0</ele>
        <time>2013-05-03T17:58:10Z</time>
      </trkpt>
      <trkpt lat="59.3263880599" lon="17.8783963959">
        <ele>0</ele>
        <time>2013-05-03T17:58:12Z</time>
      </trkpt>
      <trkpt lat="59.3262724735" lon="17.8776007021">
        <ele>0</ele>
        <time>2013-05-03T17:58:17Z</time>
      </trkpt>
      <trkpt lat="59.3261463259" lon="17.8768455768">
        <ele>0</ele>
        <time>2013-05-03T17:58:23Z</time>
      </trkpt>
      <trkpt lat="59.3260628422" lon="17.876463865">
        <ele>0</ele>
        <time>2013-05-03T17:58:26Z</time>
      </trkpt>
      <trkpt lat="59.3260404625" lon="17.8763194449">
        <ele>0</ele>
        <time>2013-05-03T17:58:27Z</time>
      </trkpt>
      <trkpt lat="59.3259441545" lon="17.8756744577">
        <ele>0</ele>
        <time>2013-05-03T17:58:31Z</time>
      </trkpt>
      <trkpt lat="59.3259191764" lon="17.8755079093">
        <ele>0</ele>
        <time>2013-05-03T17:58:32Z</time>
      </trkpt>
      <trkpt lat="59.3258920191" lon="17.8753294587">
        <ele>0</ele>
        <time>2013-05-03T17:58:33Z</time>
      </trkpt>
      <trkpt lat="59.3258694717" lon="17.8751684424">
        <ele>0</ele>
        <time>2013-05-03T17:58:34Z</time>
      </trkpt>
      <trkpt lat="59.3258439908" lon="17.8749964458">
        <ele>0</ele>
        <time>2013-05-03T17:58:35Z</time>
      </trkpt>
      <trkpt lat="59.3258206891" lon="17.8748243654">
        <ele>0</ele>
        <time>2013-05-03T17:58:36Z</time>
      </trkpt>
      <trkpt lat="59.325769308" lon="17.8744785282">
        <ele>0</ele>
        <time>2013-05-03T17:58:38Z</time>
      </trkpt>
      <trkpt lat="59.3255999098" lon="17.8733487319">
        <ele>0</ele>
        <time>2013-05-03T17:58:45Z</time>
      </trkpt>
      <trkpt lat="59.3254476107" lon="17.8722884216">
        <ele>0</ele>
        <time>2013-05-03T17:58:52Z</time>
      </trkpt>
      <trkpt lat="59.3254024323" lon="17.872002934">
        <ele>0</ele>
        <time>2013-05-03T17:58:54Z</time>
      </trkpt>
      <trkpt lat="59.3252179467" lon="17.870991574">
        <ele>0</ele>
        <time>2013-05-03T17:59:01Z</time>
      </trkpt>
      <trkpt lat="59.3251855925" lon="17.8708526021">
        <ele>0</ele>
        <time>2013-05-03T17:59:02Z</time>
      </trkpt>
      <trkpt lat="59.3249314533" lon="17.8700631947">
        <ele>0</ele>
        <time>2013-05-03T17:59:08Z</time>
      </trkpt>
      <trkpt lat="59.3245715345" lon="17.8693978395">
        <ele>0</ele>
        <time>2013-05-03T17:59:14Z</time>
      </trkpt>
      <trkpt lat="59.324224021" lon="17.8690097575">
        <ele>0</ele>
        <time>2013-05-03T17:59:19Z</time>
      </trkpt>
      <trkpt lat="59.3238610847" lon="17.8688056583">
        <ele>0</ele>
        <time>2013-05-03T17:59:24Z</time>
      </trkpt>
      <trkpt lat="59.3233388085" lon="17.8686957716">
        <ele>0</ele>
        <time>2013-05-03T17:59:31Z</time>
      </trkpt>
      <trkpt lat="59.3232651316" lon="17.8686794269">
        <ele>0</ele>
        <time>2013-05-03T17:59:32Z</time>
      </trkpt>
      <trkpt lat="59.3231888563" lon="17.8686645071">
        <ele>0</ele>
        <time>2013-05-03T17:59:33Z</time>
      </trkpt>
      <trkpt lat="59.3231126648" lon="17.8686436362">
        <ele>0</ele>
        <time>2013-05-03T17:59:34Z</time>
      </trkpt>
      <trkpt lat="59.3230398261" lon="17.8686277944">
        <ele>0</ele>
        <time>2013-05-03T17:59:35Z</time>
      </trkpt>
      <trkpt lat="59.322969502" lon="17.8686056661">
        <ele>0</ele>
        <time>2013-05-03T17:59:36Z</time>
      </trkpt>
      <trkpt lat="59.3227452862" lon="17.8685661036">
        <ele>0</ele>
        <time>2013-05-03T17:59:39Z</time>
      </trkpt>
      <trkpt lat="59.3221378499" lon="17.8684379443">
        <ele>0</ele>
        <time>2013-05-03T17:59:47Z</time>
      </trkpt>
      <trkpt lat="59.3220619098" lon="17.8684288081">
        <ele>0</ele>
        <time>2013-05-03T17:59:48Z</time>
      </trkpt>
      <trkpt lat="59.3219882329" lon="17.8684105355">
        <ele>0</ele>
        <time>2013-05-03T17:59:49Z</time>
      </trkpt>
      <trkpt lat="59.3219095269" lon="17.8683963701">
        <ele>0</ele>
        <time>2013-05-03T17:59:50Z</time>
      </trkpt>
      <trkpt lat="59.3218337545" lon="17.8683769241">
        <ele>0</ele>
        <time>2013-05-03T17:59:51Z</time>
      </trkpt>
      <trkpt lat="59.3217535397" lon="17.8683522813">
        <ele>0</ele>
        <time>2013-05-03T17:59:52Z</time>
      </trkpt>
      <trkpt lat="59.3216754204" lon="17.8683356852">
        <ele>0</ele>
        <time>2013-05-03T17:59:53Z</time>
      </trkpt>
      <trkpt lat="59.3215169187" lon="17.8682988886">
        <ele>0</ele>
        <time>2013-05-03T17:59:55Z</time>
      </trkpt>
      <trkpt lat="59.3210445986" lon="17.8680890897">
        <ele>0</ele>
        <time>2013-05-03T18:00:01Z</time>
      </trkpt>
      <trkpt lat="59.320964803" lon="17.8680352779">
        <ele>0</ele>
        <time>2013-05-03T18:00:02Z</time>
      </trkpt>
      <trkpt lat="59.3208817383" lon="17.8679717431">
        <ele>0</ele>
        <time>2013-05-03T18:00:03Z</time>
      </trkpt>
      <trkpt lat="59.3208033676" lon="17.8679024247">
        <ele>0</ele>
        <time>2013-05-03T18:00:04Z</time>
      </trkpt>
      <trkpt lat="59.3207315347" lon="17.8678041889">
        <ele>0</ele>
        <time>2013-05-03T18:00:05Z</time>
      </trkpt>
      <trkpt lat="59.3206641442" lon="17.8676907818">
        <ele>0</ele>
        <time>2013-05-03T18:00:06Z</time>
      </trkpt>
      <trkpt lat="59.3205381642" lon="17.8673845071">
        <ele>0</ele>
        <time>2013-05-03T18:00:09Z</time>
      </trkpt>
      <trkpt lat="59.3204370785" lon="17.867212762">
        <ele>0</ele>
        <time>2013-05-03T18:00:10Z</time>
      </trkpt>
      <trkpt lat="59.320231722" lon="17.867070605">
        <ele>0</ele>
        <time>2013-05-03T18:00:13Z</time>
      </trkpt>
      <trkpt lat="59.3201245175" lon="17.8669487322">
        <ele>0</ele>
        <time>2013-05-03T18:00:15Z</time>
      </trkpt>
      <trkpt lat="59.3200878886" lon="17.8668951718">
        <ele>0</ele>
        <time>2013-05-03T18:00:16Z</time>
      </trkpt>
      <trkpt lat="59.3200619885" lon="17.8668603869">
        <ele>0</ele>
        <time>2013-05-03T18:00:17Z</time>
      </trkpt>
      <trkpt lat="59.3200458114" lon="17.8668417791">
        <ele>0</ele>
        <time>2013-05-03T18:00:18Z</time>
      </trkpt>
      <trkpt lat="59.3200294667" lon="17.8668223331">
        <ele>0</ele>
        <time>2013-05-03T18:00:19Z</time>
      </trkpt>
      <trkpt lat="59.3200121162" lon="17.8667837764">
        <ele>0</ele>
        <time>2013-05-03T18:00:21Z</time>
      </trkpt>
      <trkpt lat="59.319892255" lon="17.8666461456">
        <ele>0</ele>
        <time>2013-05-03T18:00:27Z</time>
      </trkpt>
      <trkpt lat="59.3197129662" lon="17.8664093569">
        <ele>0</ele>
        <time>2013-05-03T18:00:31Z</time>
      </trkpt>
      <trkpt lat="59.3194418117" lon="17.8661157389">
        <ele>0</ele>
        <time>2013-05-03T18:00:36Z</time>
      </trkpt>
      <trkpt lat="59.3190663026" lon="17.8657175987">
        <ele>0</ele>
        <time>2013-05-03T18:00:42Z</time>
      </trkpt>
      <trkpt lat="59.3186555895" lon="17.8651800674">
        <ele>0</ele>
        <time>2013-05-03T18:00:49Z</time>
      </trkpt>
      <trkpt lat="59.3182534259" lon="17.8646292928">
        <ele>0</ele>
        <time>2013-05-03T18:00:56Z</time>
      </trkpt>
      <trkpt lat="59.3181911484" lon="17.8645428754">
        <ele>0</ele>
        <time>2013-05-03T18:00:57Z</time>
      </trkpt>
      <trkpt lat="59.3181314693" lon="17.8644690309">
        <ele>0</ele>
        <time>2013-05-03T18:00:58Z</time>
      </trkpt>
      <trkpt lat="59.3180731313" lon="17.864385128">
        <ele>0</ele>
        <time>2013-05-03T18:00:59Z</time>
      </trkpt>
      <trkpt lat="59.3178355882" lon="17.8640681246">
        <ele>0</ele>
        <time>2013-05-03T18:01:03Z</time>
      </trkpt>
      <trkpt lat="59.3174446564" lon="17.8635761909">
        <ele>0</ele>
        <time>2013-05-03T18:01:09Z</time>
      </trkpt>
      <trkpt lat="59.3169406528" lon="17.863063051">
        <ele>0</ele>
        <time>2013-05-03T18:01:16Z</time>
      </trkpt>
      <trkpt lat="59.3168697419" lon="17.863000522">
        <ele>0</ele>
        <time>2013-05-03T18:01:17Z</time>
      </trkpt>
      <trkpt lat="59.3163591165" lon="17.8625034753">
        <ele>0</ele>
        <time>2013-05-03T18:01:24Z</time>
      </trkpt>
      <trkpt lat="59.316213942" lon="17.8623592228">
        <ele>0</ele>
        <time>2013-05-03T18:01:26Z</time>
      </trkpt>
      <trkpt lat="59.3157681088" lon="17.861932165">
        <ele>0</ele>
        <time>2013-05-03T18:01:32Z</time>
      </trkpt>
      <trkpt lat="59.3156909953" lon="17.8618552192">
        <ele>0</ele>
        <time>2013-05-03T18:01:33Z</time>
      </trkpt>
      <trkpt lat="59.3156148876" lon="17.8617812908">
        <ele>0</ele>
        <time>2013-05-03T18:01:34Z</time>
      </trkpt>
      <trkpt lat="59.3155401211" lon="17.8617050155">
        <ele>0</ele>
        <time>2013-05-03T18:01:35Z</time>
      </trkpt>
      <trkpt lat="59.3154679529" lon="17.8616318415">
        <ele>0</ele>
        <time>2013-05-03T18:01:36Z</time>
      </trkpt>
      <trkpt lat="59.3149379654" lon="17.8611587671">
        <ele>0</ele>
        <time>2013-05-03T18:01:43Z</time>
      </trkpt>
      <trkpt lat="59.3144969936" lon="17.8607328828">
        <ele>0</ele>
        <time>2013-05-03T18:01:49Z</time>
      </trkpt>
      <trkpt lat="59.3142345564" lon="17.860384531">
        <ele>0</ele>
        <time>2013-05-03T18:01:53Z</time>
      </trkpt>
      <trkpt lat="59.3141811636" lon="17.8602695313">
        <ele>0</ele>
        <time>2013-05-03T18:01:54Z</time>
      </trkpt>
      <trkpt lat="59.3141419364" lon="17.8601447248">
        <ele>0</ele>
        <time>2013-05-03T18:01:55Z</time>
      </trkpt>
      <trkpt lat="59.3141115939" lon="17.8600206727">
        <ele>0</ele>
        <time>2013-05-03T18:01:56Z</time>
      </trkpt>
      <trkpt lat="59.3141102528" lon="17.8598722293">
        <ele>0</ele>
        <time>2013-05-03T18:01:57Z</time>
      </trkpt>
      <trkpt lat="59.3140932375" lon="17.8596220295">
        <ele>0</ele>
        <time>2013-05-03T18:01:59Z</time>
      </trkpt>
      <trkpt lat="59.314077731" lon="17.8595064431">
        <ele>0</ele>
        <time>2013-05-03T18:02:00Z</time>
      </trkpt>
      <trkpt lat="59.3140214046" lon="17.8593005837">
        <ele>0</ele>
        <time>2013-05-03T18:02:02Z</time>
      </trkpt>
      <trkpt lat="59.3139835184" lon="17.8592143339">
        <ele>0</ele>
        <time>2013-05-03T18:02:03Z</time>
      </trkpt>
      <trkpt lat="59.31393834" lon="17.8591456024">
        <ele>0</ele>
        <time>2013-05-03T18:02:04Z</time>
      </trkpt>
      <trkpt lat="59.313888803" lon="17.8590958977">
        <ele>0</ele>
        <time>2013-05-03T18:02:05Z</time>
      </trkpt>
      <trkpt lat="59.3138400203" lon="17.8590600232">
        <ele>0</ele>
        <time>2013-05-03T18:02:06Z</time>
      </trkpt>
      <trkpt lat="59.313793836" lon="17.8590362186">
        <ele>0</ele>
        <time>2013-05-03T18:02:07Z</time>
      </trkpt>
      <trkpt lat="59.313746646" lon="17.859012414">
        <ele>0</ele>
        <time>2013-05-03T18:02:08Z</time>
      </trkpt>
      <trkpt lat="59.3136988691" lon="17.8589875197">
        <ele>0</ele>
        <time>2013-05-03T18:02:09Z</time>
      </trkpt>
      <trkpt lat="59.3136495835" lon="17.8589664812">
        <ele>0</ele>
        <time>2013-05-03T18:02:10Z</time>
      </trkpt>
      <trkpt lat="59.3135962747" lon="17.8589610329">
        <ele>0</ele>
        <time>2013-05-03T18:02:11Z</time>
      </trkpt>
      <trkpt lat="59.313544726" lon="17.8589653077">
        <ele>0</ele>
        <time>2013-05-03T18:02:12Z</time>
      </trkpt>
      <trkpt lat="59.3134878967" lon="17.8590210473">
        <ele>0</ele>
        <time>2013-05-03T18:02:13Z</time>
      </trkpt>
      <trkpt lat="59.3134373538" lon="17.8590741886">
        <ele>0</ele>
        <time>2013-05-03T18:02:14Z</time>
      </trkpt>
      <trkpt lat="59.3133899123" lon="17.8591341191">
        <ele>0</ele>
        <time>2013-05-03T18:02:15Z</time>
      </trkpt>
      <trkpt lat="59.313343728" lon="17.8591989112">
        <ele>0</ele>
        <time>2013-05-03T18:02:16Z</time>
      </trkpt>
      <trkpt lat="59.3132995554" lon="17.8592637871">
        <ele>0</ele>
        <time>2013-05-03T18:02:17Z</time>
      </trkpt>
      <trkpt lat="59.3132591546" lon="17.859328663">
        <ele>0</ele>
        <time>2013-05-03T18:02:18Z</time>
      </trkpt>
      <trkpt lat="59.3132172451" lon="17.8593987357">
        <ele>0</ele>
        <time>2013-05-03T18:02:19Z</time>
      </trkpt>
      <trkpt lat="59.3131745813" lon="17.859475011">
        <ele>0</ele>
        <time>2013-05-03T18:02:20Z</time>
      </trkpt>
      <trkpt lat="59.3129600885" lon="17.8598501849">
        <ele>0</ele>
        <time>2013-05-03T18:02:25Z</time>
      </trkpt>
      <trkpt lat="59.3128618526" lon="17.8599764163">
        <ele>0</ele>
        <time>2013-05-03T18:02:27Z</time>
      </trkpt>
      <trkpt lat="59.31263244" lon="17.8601171484">
        <ele>0</ele>
        <time>2013-05-03T18:02:31Z</time>
      </trkpt>
      <trkpt lat="59.312391628" lon="17.8601931722">
        <ele>0</ele>
        <time>2013-05-03T18:02:35Z</time>
      </trkpt>
      <trkpt lat="59.3123289314" lon="17.8602078405">
        <ele>0</ele>
        <time>2013-05-03T18:02:36Z</time>
      </trkpt>
      <trkpt lat="59.312266151" lon="17.8602233471">
        <ele>0</ele>
        <time>2013-05-03T18:02:37Z</time>
      </trkpt>
      <trkpt lat="59.3122013589" lon="17.860241452">
        <ele>0</ele>
        <time>2013-05-03T18:02:38Z</time>
      </trkpt>
      <trkpt lat="59.3121418474" lon="17.8602597245">
        <ele>0</ele>
        <time>2013-05-03T18:02:39Z</time>
      </trkpt>
      <trkpt lat="59.3117537654" lon="17.860401211">
        <ele>0</ele>
        <time>2013-05-03T18:02:45Z</time>
      </trkpt>
      <trkpt lat="59.3114047431" lon="17.8605180547">
        <ele>0</ele>
        <time>2013-05-03T18:02:50Z</time>
      </trkpt>
      <trkpt lat="59.3109286512" lon="17.8606184698">
        <ele>0</ele>
        <time>2013-05-03T18:02:56Z</time>
      </trkpt>
      <trkpt lat="59.3105893519" lon="17.8606287796">
        <ele>0</ele>
        <time>2013-05-03T18:03:00Z</time>
      </trkpt>
      <trkpt lat="59.3105010905" lon="17.8606162905">
        <ele>0</ele>
        <time>2013-05-03T18:03:01Z</time>
      </trkpt>
      <trkpt lat="59.3104177744" lon="17.8606116805">
        <ele>0</ele>
        <time>2013-05-03T18:03:02Z</time>
      </trkpt>
      <trkpt lat="59.3103360508" lon="17.8606147818">
        <ele>0</ele>
        <time>2013-05-03T18:03:03Z</time>
      </trkpt>
      <trkpt lat="59.3102548302" lon="17.860622074">
        <ele>0</ele>
        <time>2013-05-03T18:03:04Z</time>
      </trkpt>
      <trkpt lat="59.3101726876" lon="17.8606285281">
        <ele>0</ele>
        <time>2013-05-03T18:03:05Z</time>
      </trkpt>
      <trkpt lat="59.3100887848" lon="17.8606291987">
        <ele>0</ele>
        <time>2013-05-03T18:03:06Z</time>
      </trkpt>
      <trkpt lat="59.3100003557" lon="17.860629953">
        <ele>0</ele>
        <time>2013-05-03T18:03:07Z</time>
      </trkpt>
      <trkpt lat="59.3099127649" lon="17.8606303721">
        <ele>0</ele>
        <time>2013-05-03T18:03:08Z</time>
      </trkpt>
      <trkpt lat="59.3098202287" lon="17.8606289472">
        <ele>0</ele>
        <time>2013-05-03T18:03:09Z</time>
      </trkpt>
      <trkpt lat="59.3097292851" lon="17.8606232475">
        <ele>0</ele>
        <time>2013-05-03T18:03:10Z</time>
      </trkpt>
      <trkpt lat="59.3096416942" lon="17.8606161229">
        <ele>0</ele>
        <time>2013-05-03T18:03:11Z</time>
      </trkpt>
      <trkpt lat="59.3095552769" lon="17.8606047235">
        <ele>0</ele>
        <time>2013-05-03T18:03:12Z</time>
      </trkpt>
      <trkpt lat="59.3094686918" lon="17.8605843555">
        <ele>0</ele>
        <time>2013-05-03T18:03:13Z</time>
      </trkpt>
      <trkpt lat="59.3093814362" lon="17.8605602994">
        <ele>0</ele>
        <time>2013-05-03T18:03:14Z</time>
      </trkpt>
      <trkpt lat="59.3092945159" lon="17.8605313819">
        <ele>0</ele>
        <time>2013-05-03T18:03:15Z</time>
      </trkpt>
      <trkpt lat="59.3092070927" lon="17.8604976028">
        <ele>0</ele>
        <time>2013-05-03T18:03:16Z</time>
      </trkpt>
      <trkpt lat="59.3091187475" lon="17.8604566992">
        <ele>0</ele>
        <time>2013-05-03T18:03:17Z</time>
      </trkpt>
      <trkpt lat="59.3090331683" lon="17.8604115207">
        <ele>0</ele>
        <time>2013-05-03T18:03:18Z</time>
      </trkpt>
      <trkpt lat="59.3088723196" lon="17.8603055735">
        <ele>0</ele>
        <time>2013-05-03T18:03:20Z</time>
      </trkpt>
      <trkpt lat="59.308566967" lon="17.8600699583">
        <ele>0</ele>
        <time>2013-05-03T18:03:24Z</time>
      </trkpt>
      <trkpt lat="59.3084942121" lon="17.8600111173">
        <ele>0</ele>
        <time>2013-05-03T18:03:25Z</time>
      </trkpt>
      <trkpt lat="59.3084190265" lon="17.8599454871">
        <ele>0</ele>
        <time>2013-05-03T18:03:26Z</time>
      </trkpt>
      <trkpt lat="59.3083483671" lon="17.8598814494">
        <ele>0</ele>
        <time>2013-05-03T18:03:27Z</time>
      </trkpt>
      <trkpt lat="59.3078841775" lon="17.8594542239">
        <ele>0</ele>
        <time>2013-05-03T18:03:34Z</time>
      </trkpt>
      <trkpt lat="59.3077457085" lon="17.8593320158">
        <ele>0</ele>
        <time>2013-05-03T18:03:36Z</time>
      </trkpt>
      <trkpt lat="59.3076758872" lon="17.8592695707">
        <ele>0</ele>
        <time>2013-05-03T18:03:37Z</time>
      </trkpt>
      <trkpt lat="59.3076030485" lon="17.8592061197">
        <ele>0</ele>
        <time>2013-05-03T18:03:38Z</time>
      </trkpt>
      <trkpt lat="59.3075318862" lon="17.8591434231">
        <ele>0</ele>
        <time>2013-05-03T18:03:39Z</time>
      </trkpt>
      <trkpt lat="59.3074633223" lon="17.8590787986">
        <ele>0</ele>
        <time>2013-05-03T18:03:40Z</time>
      </trkpt>
      <trkpt lat="59.3073938363" lon="17.859012414">
        <ele>0</ele>
        <time>2013-05-03T18:03:41Z</time>
      </trkpt>
      <trkpt lat="59.3073260267" lon="17.858949885">
        <ele>0</ele>
        <time>2013-05-03T18:03:42Z</time>
      </trkpt>
      <trkpt lat="59.3072527689" lon="17.8588872722">
        <ele>0</ele>
        <time>2013-05-03T18:03:43Z</time>
      </trkpt>
      <trkpt lat="59.3071800979" lon="17.8588239889">
        <ele>0</ele>
        <time>2013-05-03T18:03:44Z</time>
      </trkpt>
      <trkpt lat="59.307106421" lon="17.8587607893">
        <ele>0</ele>
        <time>2013-05-03T18:03:45Z</time>
      </trkpt>
      <trkpt lat="59.3070310677" lon="17.8586930636">
        <ele>0</ele>
        <time>2013-05-03T18:03:46Z</time>
      </trkpt>
      <trkpt lat="59.3069601568" lon="17.8586295288">
        <ele>0</ele>
        <time>2013-05-03T18:03:47Z</time>
      </trkpt>
      <trkpt lat="59.3068849712" lon="17.8585648205">
        <ele>0</ele>
        <time>2013-05-03T18:03:48Z</time>
      </trkpt>
      <trkpt lat="59.3068098693" lon="17.8585000284">
        <ele>0</ele>
        <time>2013-05-03T18:03:49Z</time>
      </trkpt>
      <trkpt lat="59.3067334264" lon="17.8584349011">
        <ele>0</ele>
        <time>2013-05-03T18:03:50Z</time>
      </trkpt>
      <trkpt lat="59.3066574026" lon="17.8583683488">
        <ele>0</ele>
        <time>2013-05-03T18:03:51Z</time>
      </trkpt>
      <trkpt lat="59.3063486972" lon="17.8580940092">
        <ele>0</ele>
        <time>2013-05-03T18:03:55Z</time>
      </trkpt>
      <trkpt lat="59.3062694044" lon="17.8580222601">
        <ele>0</ele>
        <time>2013-05-03T18:03:56Z</time>
      </trkpt>
      <trkpt lat="59.3061913689" lon="17.8579513492">
        <ele>0</ele>
        <time>2013-05-03T18:03:57Z</time>
      </trkpt>
      <trkpt lat="59.3061140878" lon="17.8578799355">
        <ele>0</ele>
        <time>2013-05-03T18:03:58Z</time>
      </trkpt>
      <trkpt lat="59.3060365552" lon="17.8578089408">
        <ele>0</ele>
        <time>2013-05-03T18:03:59Z</time>
      </trkpt>
      <trkpt lat="59.3055927336" lon="17.8574157458">
        <ele>0</ele>
        <time>2013-05-03T18:04:05Z</time>
      </trkpt>
      <trkpt lat="59.3052361676" lon="17.8570893546">
        <ele>0</ele>
        <time>2013-05-03T18:04:10Z</time>
      </trkpt>
      <trkpt lat="59.3051663464" lon="17.8570259875">
        <ele>0</ele>
        <time>2013-05-03T18:04:11Z</time>
      </trkpt>
      <trkpt lat="59.3050981177" lon="17.8569642129">
        <ele>0</ele>
        <time>2013-05-03T18:04:12Z</time>
      </trkpt>
      <trkpt lat="59.305030392" lon="17.856904869">
        <ele>0</ele>
        <time>2013-05-03T18:04:13Z</time>
      </trkpt>
      <trkpt lat="59.3049655999" lon="17.8568459443">
        <ele>0</ele>
        <time>2013-05-03T18:04:14Z</time>
      </trkpt>
      <trkpt lat="59.304595539" lon="17.8565193016">
        <ele>0</ele>
        <time>2013-05-03T18:04:20Z</time>
      </trkpt>
      <trkpt lat="59.3043036812" lon="17.8562527572">
        <ele>0</ele>
        <time>2013-05-03T18:04:25Z</time>
      </trkpt>
      <trkpt lat="59.304249618" lon="17.8562055671">
        <ele>0</ele>
        <time>2013-05-03T18:04:26Z</time>
      </trkpt>
      <trkpt lat="59.30419589" lon="17.8561603887">
        <ele>0</ele>
        <time>2013-05-03T18:04:27Z</time>
      </trkpt>
      <trkpt lat="59.3041383063" lon="17.8561130309">
        <ele>0</ele>
        <time>2013-05-03T18:04:28Z</time>
      </trkpt>
      <trkpt lat="59.3040779567" lon="17.8560646674">
        <ele>0</ele>
        <time>2013-05-03T18:04:29Z</time>
      </trkpt>
      <trkpt lat="59.3037156909" lon="17.8557437244">
        <ele>0</ele>
        <time>2013-05-03T18:04:35Z</time>
      </trkpt>
      <trkpt lat="59.3032589612" lon="17.8553495237">
        <ele>0</ele>
        <time>2013-05-03T18:04:42Z</time>
      </trkpt>
      <trkpt lat="59.3031953426" lon="17.8552902636">
        <ele>0</ele>
        <time>2013-05-03T18:04:43Z</time>
      </trkpt>
      <trkpt lat="59.3031336518" lon="17.8552343564">
        <ele>0</ele>
        <time>2013-05-03T18:04:44Z</time>
      </trkpt>
      <trkpt lat="59.3030730507" lon="17.8551766889">
        <ele>0</ele>
        <time>2013-05-03T18:04:45Z</time>
      </trkpt>
      <trkpt lat="59.3030112761" lon="17.8551290797">
        <ele>0</ele>
        <time>2013-05-03T18:04:46Z</time>
      </trkpt>
      <trkpt lat="59.3028914149" lon="17.8550424947">
        <ele>0</ele>
        <time>2013-05-03T18:04:48Z</time>
      </trkpt>
      <trkpt lat="59.3027966994" lon="17.8549189455">
        <ele>0</ele>
        <time>2013-05-03T18:04:50Z</time>
      </trkpt>
      <trkpt lat="59.3027770858" lon="17.8548225536">
        <ele>0</ele>
        <time>2013-05-03T18:04:51Z</time>
      </trkpt>
      <trkpt lat="59.3027601543" lon="17.8544938993">
        <ele>0</ele>
        <time>2013-05-03T18:04:54Z</time>
      </trkpt>
      <trkpt lat="59.3026286423" lon="17.854246298">
        <ele>0</ele>
        <time>2013-05-03T18:04:57Z</time>
      </trkpt>
      <trkpt lat="59.3024042589" lon="17.8541312145">
        <ele>0</ele>
        <time>2013-05-03T18:05:00Z</time>
      </trkpt>
      <trkpt lat="59.3023218648" lon="17.8541048953">
        <ele>0</ele>
        <time>2013-05-03T18:05:01Z</time>
      </trkpt>
      <trkpt lat="59.3022336872" lon="17.854070781">
        <ele>0</ele>
        <time>2013-05-03T18:05:02Z</time>
      </trkpt>
      <trkpt lat="59.3021493653" lon="17.854031889">
        <ele>0</ele>
        <time>2013-05-03T18:05:03Z</time>
      </trkpt>
      <trkpt lat="59.3020665521" lon="17.8539893089">
        <ele>0</ele>
        <time>2013-05-03T18:05:04Z</time>
      </trkpt>
      <trkpt lat="59.3019870917" lon="17.8539423703">
        <ele>0</ele>
        <time>2013-05-03T18:05:05Z</time>
      </trkpt>
      <trkpt lat="59.30190914" lon="17.8538816853">
        <ele>0</ele>
        <time>2013-05-03T18:05:06Z</time>
      </trkpt>
      <trkpt lat="59.3018263269" lon="17.8538127023">
        <ele>0</ele>
        <time>2013-05-03T18:05:07Z</time>
      </trkpt>
      <trkpt lat="59.3017384007" lon="17.85374154">
        <ele>0</ele>
        <time>2013-05-03T18:05:08Z</time>
      </trkpt>
      <trkpt lat="59.3016451102" lon="17.853666019">
        <ele>0</ele>
        <time>2013-05-03T18:05:09Z</time>
      </trkpt>
      <trkpt lat="59.3015542504" lon="17.8535941862">
        <ele>0</ele>
        <time>2013-05-03T18:05:10Z</time>
      </trkpt>
      <trkpt lat="59.3014577747" lon="17.8535167374">
        <ele>0</ele>
        <time>2013-05-03T18:05:11Z</time>
      </trkpt>
      <trkpt lat="59.3013609638" lon="17.8534387019">
        <ele>0</ele>
        <time>2013-05-03T18:05:12Z</time>
      </trkpt>
      <trkpt lat="59.3012658292" lon="17.8533628457">
        <ele>0</ele>
        <time>2013-05-03T18:05:13Z</time>
      </trkpt>
      <trkpt lat="59.3009888074" lon="17.8532026676">
        <ele>0</ele>
        <time>2013-05-03T18:05:16Z</time>
      </trkpt>
      <trkpt lat="59.3008028969" lon="17.8531252189">
        <ele>0</ele>
        <time>2013-05-03T18:05:18Z</time>
      </trkpt>
      <trkpt lat="59.300558313" lon="17.8529147494">
        <ele>0</ele>
        <time>2013-05-03T18:05:21Z</time>
      </trkpt>
      <trkpt lat="59.3004110431" lon="17.85272272">
        <ele>0</ele>
        <time>2013-05-03T18:05:23Z</time>
      </trkpt>
      <trkpt lat="59.3002698919" lon="17.8525100712">
        <ele>0</ele>
        <time>2013-05-03T18:05:25Z</time>
      </trkpt>
      <trkpt lat="59.299998905" lon="17.8521557683">
        <ele>0</ele>
        <time>2013-05-03T18:05:29Z</time>
      </trkpt>
      <trkpt lat="59.2999327718" lon="17.8520820076">
        <ele>0</ele>
        <time>2013-05-03T18:05:30Z</time>
      </trkpt>
      <trkpt lat="59.2998710811" lon="17.8520117673">
        <ele>0</ele>
        <time>2013-05-03T18:05:31Z</time>
      </trkpt>
      <trkpt lat="59.2998083006" lon="17.851946137">
        <ele>0</ele>
        <time>2013-05-03T18:05:32Z</time>
      </trkpt>
      <trkpt lat="59.2997537345" lon="17.8519124417">
        <ele>0</ele>
        <time>2013-05-03T18:05:33Z</time>
      </trkpt>
      <trkpt lat="59.2997079693" lon="17.8519298761">
        <ele>0</ele>
        <time>2013-05-03T18:05:34Z</time>
      </trkpt>
      <trkpt lat="59.2995967415" lon="17.8521990189">
        <ele>0</ele>
        <time>2013-05-03T18:05:37Z</time>
      </trkpt>
      <trkpt lat="59.2994208892" lon="17.8528790425">
        <ele>0</ele>
        <time>2013-05-03T18:05:42Z</time>
      </trkpt>
      <trkpt lat="59.2993605395" lon="17.8531437429">
        <ele>0</ele>
        <time>2013-05-03T18:05:44Z</time>
      </trkpt>
      <trkpt lat="59.2992397563" lon="17.8535004765">
        <ele>0</ele>
        <time>2013-05-03T18:05:47Z</time>
      </trkpt>
      <trkpt lat="59.2989354934" lon="17.8540367505">
        <ele>0</ele>
        <time>2013-05-03T18:05:52Z</time>
      </trkpt>
      <trkpt lat="59.2987862117" lon="17.8541860321">
        <ele>0</ele>
        <time>2013-05-03T18:05:54Z</time>
      </trkpt>
      <trkpt lat="59.2987029795" lon="17.8542218228">
        <ele>0</ele>
        <time>2013-05-03T18:05:55Z</time>
      </trkpt>
      <trkpt lat="59.2986171488" lon="17.8542353177">
        <ele>0</ele>
        <time>2013-05-03T18:05:56Z</time>
      </trkpt>
      <trkpt lat="59.2985350062" lon="17.8542224934">
        <ele>0</ele>
        <time>2013-05-03T18:05:57Z</time>
      </trkpt>
      <trkpt lat="59.2984559649" lon="17.8541908098">
        <ele>0</ele>
        <time>2013-05-03T18:05:58Z</time>
      </trkpt>
      <trkpt lat="59.298250776" lon="17.8540102637">
        <ele>0</ele>
        <time>2013-05-03T18:06:01Z</time>
      </trkpt>
      <trkpt lat="59.2981517857" lon="17.8538278735">
        <ele>0</ele>
        <time>2013-05-03T18:06:03Z</time>
      </trkpt>
      <trkpt lat="59.2980680505" lon="17.8536317371">
        <ele>0</ele>
        <time>2013-05-03T18:06:05Z</time>
      </trkpt>
      <trkpt lat="59.2979383826" lon="17.8532045116">
        <ele>0</ele>
        <time>2013-05-03T18:06:09Z</time>
      </trkpt>
      <trkpt lat="59.2979134045" lon="17.8530952955">
        <ele>0</ele>
        <time>2013-05-03T18:06:10Z</time>
      </trkpt>
      <trkpt lat="59.2978869177" lon="17.8529847382">
        <ele>0</ele>
        <time>2013-05-03T18:06:11Z</time>
      </trkpt>
      <trkpt lat="59.2978609338" lon="17.8528685651">
        <ele>0</ele>
        <time>2013-05-03T18:06:12Z</time>
      </trkpt>
      <trkpt lat="59.2978375483" lon="17.8527617797">
        <ele>0</ele>
        <time>2013-05-03T18:06:13Z</time>
      </trkpt>
      <trkpt lat="59.2978151686" lon="17.8526554972">
        <ele>0</ele>
        <time>2013-05-03T18:06:14Z</time>
      </trkpt>
      <trkpt lat="59.2977923699" lon="17.8525496338">
        <ele>0</ele>
        <time>2013-05-03T18:06:15Z</time>
      </trkpt>
      <trkpt lat="59.297726069" lon="17.8522335523">
        <ele>0</ele>
        <time>2013-05-03T18:06:18Z</time>
      </trkpt>
      <trkpt lat="59.2976781246" lon="17.8520232505">
        <ele>0</ele>
        <time>2013-05-03T18:06:20Z</time>
      </trkpt>
      <trkpt lat="59.2976571698" lon="17.85191789">
        <ele>0</ele>
        <time>2013-05-03T18:06:21Z</time>
      </trkpt>
      <trkpt lat="59.2976358798" lon="17.851812278">
        <ele>0</ele>
        <time>2013-05-03T18:06:22Z</time>
      </trkpt>
      <trkpt lat="59.29761635" lon="17.8517085101">
        <ele>0</ele>
        <time>2013-05-03T18:06:23Z</time>
      </trkpt>
      <trkpt lat="59.2975968201" lon="17.8516009703">
        <ele>0</ele>
        <time>2013-05-03T18:06:24Z</time>
      </trkpt>
      <trkpt lat="59.2975772903" lon="17.8514880662">
        <ele>0</ele>
        <time>2013-05-03T18:06:25Z</time>
      </trkpt>
      <trkpt lat="59.2974674036" lon="17.8506947193">
        <ele>0</ele>
        <time>2013-05-03T18:06:32Z</time>
      </trkpt>
      <trkpt lat="59.2974314452" lon="17.8504606967">
        <ele>0</ele>
        <time>2013-05-03T18:06:34Z</time>
      </trkpt>
      <trkpt lat="59.2974124183" lon="17.8503501394">
        <ele>0</ele>
        <time>2013-05-03T18:06:35Z</time>
      </trkpt>
      <trkpt lat="59.2973936429" lon="17.8502401689">
        <ele>0</ele>
        <time>2013-05-03T18:06:36Z</time>
      </trkpt>
      <trkpt lat="59.2973741969" lon="17.8501281867">
        <ele>0</ele>
        <time>2013-05-03T18:06:37Z</time>
      </trkpt>
      <trkpt lat="59.2973519848" lon="17.8500172103">
        <ele>0</ele>
        <time>2013-05-03T18:06:38Z</time>
      </trkpt>
      <trkpt lat="59.2972479654" lon="17.84957649">
        <ele>0</ele>
        <time>2013-05-03T18:06:42Z</time>
      </trkpt>
      <trkpt lat="59.2971715225" lon="17.8493504302">
        <ele>0</ele>
        <time>2013-05-03T18:06:44Z</time>
      </trkpt>
      <trkpt lat="59.2970452073" lon="17.8489828839">
        <ele>0</ele>
        <time>2013-05-03T18:06:47Z</time>
      </trkpt>
      <trkpt lat="59.2969993583" lon="17.8488538864">
        <ele>0</ele>
        <time>2013-05-03T18:06:48Z</time>
      </trkpt>
      <trkpt lat="59.2969527549" lon="17.8487112265">
        <ele>0</ele>
        <time>2013-05-03T18:06:49Z</time>
      </trkpt>
      <trkpt lat="59.2969095881" lon="17.8485709135">
        <ele>0</ele>
        <time>2013-05-03T18:06:50Z</time>
      </trkpt>
      <trkpt lat="59.2968689359" lon="17.8484282536">
        <ele>0</ele>
        <time>2013-05-03T18:06:51Z</time>
      </trkpt>
      <trkpt lat="59.2966893956" lon="17.8478721983">
        <ele>0</ele>
        <time>2013-05-03T18:06:55Z</time>
      </trkpt>
      <trkpt lat="59.2966479052" lon="17.8477319691">
        <ele>0</ele>
        <time>2013-05-03T18:06:56Z</time>
      </trkpt>
      <trkpt lat="59.2966162216" lon="17.847588471">
        <ele>0</ele>
        <time>2013-05-03T18:06:57Z</time>
      </trkpt>
      <trkpt lat="59.2966064148" lon="17.8474450567">
        <ele>0</ele>
        <time>2013-05-03T18:06:58Z</time>
      </trkpt>
      <trkpt lat="59.296623011" lon="17.8472967809">
        <ele>0</ele>
        <time>2013-05-03T18:06:59Z</time>
      </trkpt>
      <trkpt lat="59.2966709555" lon="17.8471725611">
        <ele>0</ele>
        <time>2013-05-03T18:07:00Z</time>
      </trkpt>
      <trkpt lat="59.2967304669" lon="17.8470687094">
        <ele>0</ele>
        <time>2013-05-03T18:07:01Z</time>
      </trkpt>
      <trkpt lat="59.2967900623" lon="17.8469721499">
        <ele>0</ele>
        <time>2013-05-03T18:07:02Z</time>
      </trkpt>
      <trkpt lat="59.2968444608" lon="17.846879027">
        <ele>0</ele>
        <time>2013-05-03T18:07:03Z</time>
      </trkpt>
      <trkpt lat="59.2968932434" lon="17.8467641949">
        <ele>0</ele>
        <time>2013-05-03T18:07:04Z</time>
      </trkpt>
      <trkpt lat="59.2969286151" lon="17.8464082157">
        <ele>0</ele>
        <time>2013-05-03T18:07:07Z</time>
      </trkpt>
      <trkpt lat="59.296917551" lon="17.8462973231">
        <ele>0</ele>
        <time>2013-05-03T18:07:08Z</time>
      </trkpt>
      <trkpt lat="59.2969009548" lon="17.8461960698">
        <ele>0</ele>
        <time>2013-05-03T18:07:09Z</time>
      </trkpt>
      <trkpt lat="59.2968841072" lon="17.8460919666">
        <ele>0</ele>
        <time>2013-05-03T18:07:10Z</time>
      </trkpt>
      <trkpt lat="59.2968697741" lon="17.8459779727">
        <ele>0</ele>
        <time>2013-05-03T18:07:11Z</time>
      </trkpt>
      <trkpt lat="59.2968204885" lon="17.8455011264">
        <ele>0</ele>
        <time>2013-05-03T18:07:15Z</time>
      </trkpt>
      <trkpt lat="59.2968136154" lon="17.8453774096">
        <ele>0</ele>
        <time>2013-05-03T18:07:16Z</time>
      </trkpt>
      <trkpt lat="59.2968018807" lon="17.8452543633">
        <ele>0</ele>
        <time>2013-05-03T18:07:17Z</time>
      </trkpt>
      <trkpt lat="59.2967902299" lon="17.8451334963">
        <ele>0</ele>
        <time>2013-05-03T18:07:18Z</time>
      </trkpt>
      <trkpt lat="59.2967777409" lon="17.8450105338">
        <ele>0</ele>
        <time>2013-05-03T18:07:19Z</time>
      </trkpt>
      <trkpt lat="59.2967639107" lon="17.8448777645">
        <ele>0</ele>
        <time>2013-05-03T18:07:20Z</time>
      </trkpt>
      <trkpt lat="59.2967500806" lon="17.8447501082">
        <ele>0</ele>
        <time>2013-05-03T18:07:21Z</time>
      </trkpt>
      <trkpt lat="59.2967385974" lon="17.8446184285">
        <ele>0</ele>
        <time>2013-05-03T18:07:22Z</time>
      </trkpt>
      <trkpt lat="59.2967283715" lon="17.8444844858">
        <ele>0</ele>
        <time>2013-05-03T18:07:23Z</time>
      </trkpt>
      <trkpt lat="59.2967167206" lon="17.844347777">
        <ele>0</ele>
        <time>2013-05-03T18:07:24Z</time>
      </trkpt>
      <trkpt lat="59.2967016332" lon="17.8442117388">
        <ele>0</ele>
        <time>2013-05-03T18:07:25Z</time>
      </trkpt>
      <trkpt lat="59.2966872163" lon="17.8440771254">
        <ele>0</ele>
        <time>2013-05-03T18:07:26Z</time>
      </trkpt>
      <trkpt lat="59.2966467318" lon="17.843653588">
        <ele>0</ele>
        <time>2013-05-03T18:07:29Z</time>
      </trkpt>
      <trkpt lat="59.2965606496" lon="17.8427680403">
        <ele>0</ele>
        <time>2013-05-03T18:07:35Z</time>
      </trkpt>
      <trkpt lat="59.2964752381" lon="17.8418354701">
        <ele>0</ele>
        <time>2013-05-03T18:07:41Z</time>
      </trkpt>
      <trkpt lat="59.2964096078" lon="17.8411684385">
        <ele>0</ele>
        <time>2013-05-03T18:07:45Z</time>
      </trkpt>
      <trkpt lat="59.2963857194" lon="17.8409928377">
        <ele>0</ele>
        <time>2013-05-03T18:07:46Z</time>
      </trkpt>
      <trkpt lat="59.2963609928" lon="17.840807933">
        <ele>0</ele>
        <time>2013-05-03T18:07:47Z</time>
      </trkpt>
      <trkpt lat="59.2963332487" lon="17.8406204299">
        <ele>0</ele>
        <time>2013-05-03T18:07:48Z</time>
      </trkpt>
      <trkpt lat="59.2963051693" lon="17.8404341003">
        <ele>0</ele>
        <time>2013-05-03T18:07:49Z</time>
      </trkpt>
      <trkpt lat="59.2961563068" lon="17.8396985047">
        <ele>0</ele>
        <time>2013-05-03T18:07:53Z</time>
      </trkpt>
      <trkpt lat="59.29605388" lon="17.839379322">
        <ele>0</ele>
        <time>2013-05-03T18:07:55Z</time>
      </trkpt>
      <trkpt lat="59.2959971345" lon="17.8392380031">
        <ele>0</ele>
        <time>2013-05-03T18:07:56Z</time>
      </trkpt>
      <trkpt lat="59.2959382098" lon="17.8390988636">
        <ele>0</ele>
        <time>2013-05-03T18:07:57Z</time>
      </trkpt>
      <trkpt lat="59.2958754293" lon="17.8389661781">
        <ele>0</ele>
        <time>2013-05-03T18:07:58Z</time>
      </trkpt>
      <trkpt lat="59.2958123974" lon="17.8388464846">
        <ele>0</ele>
        <time>2013-05-03T18:07:59Z</time>
      </trkpt>
      <trkpt lat="59.2957507905" lon="17.8387361788">
        <ele>0</ele>
        <time>2013-05-03T18:08:00Z</time>
      </trkpt>
      <trkpt lat="59.2956885968" lon="17.8386325785">
        <ele>0</ele>
        <time>2013-05-03T18:08:01Z</time>
      </trkpt>
      <trkpt lat="59.2956249782" lon="17.8385339235">
        <ele>0</ele>
        <time>2013-05-03T18:08:02Z</time>
      </trkpt>
      <trkpt lat="59.2955035244" lon="17.8383369489">
        <ele>0</ele>
        <time>2013-05-03T18:08:04Z</time>
      </trkpt>
      <trkpt lat="59.2954445997" lon="17.8382390483">
        <ele>0</ele>
        <time>2013-05-03T18:08:05Z</time>
      </trkpt>
      <trkpt lat="59.29538425" lon="17.8381396389">
        <ele>0</ele>
        <time>2013-05-03T18:08:06Z</time>
      </trkpt>
      <trkpt lat="59.2953239003" lon="17.8380379665">
        <ele>0</ele>
        <time>2013-05-03T18:08:07Z</time>
      </trkpt>
      <trkpt lat="59.2952650594" lon="17.8379325222">
        <ele>0</ele>
        <time>2013-05-03T18:08:08Z</time>
      </trkpt>
      <trkpt lat="59.2950676656" lon="17.8374729426">
        <ele>0</ele>
        <time>2013-05-03T18:08:12Z</time>
      </trkpt>
      <trkpt lat="59.2950279354" lon="17.8373446157">
        <ele>0</ele>
        <time>2013-05-03T18:08:13Z</time>
      </trkpt>
      <trkpt lat="59.2949310407" lon="17.8369209945">
        <ele>0</ele>
        <time>2013-05-03T18:08:16Z</time>
      </trkpt>
      <trkpt lat="59.2949013687" lon="17.8366241076">
        <ele>0</ele>
        <time>2013-05-03T18:08:18Z</time>
      </trkpt>
      <trkpt lat="59.2948982674" lon="17.8363180006">
        <ele>0</ele>
        <time>2013-05-03T18:08:20Z</time>
      </trkpt>
      <trkpt lat="59.2949063979" lon="17.8359854906">
        <ele>0</ele>
        <time>2013-05-03T18:08:22Z</time>
      </trkpt>
      <trkpt lat="59.2949232455" lon="17.8349895533">
        <ele>0</ele>
        <time>2013-05-03T18:08:28Z</time>
      </trkpt>
      <trkpt lat="59.2949254248" lon="17.8348228373">
        <ele>0</ele>
        <time>2013-05-03T18:08:29Z</time>
      </trkpt>
      <trkpt lat="59.2949264306" lon="17.8346478232">
        <ele>0</ele>
        <time>2013-05-03T18:08:30Z</time>
      </trkpt>
      <trkpt lat="59.2949269335" lon="17.8344806881">
        <ele>0</ele>
        <time>2013-05-03T18:08:31Z</time>
      </trkpt>
      <trkpt lat="59.2949225749" lon="17.8343164867">
        <ele>0</ele>
        <time>2013-05-03T18:08:32Z</time>
      </trkpt>
      <trkpt lat="59.2948875386" lon="17.8338438314">
        <ele>0</ele>
        <time>2013-05-03T18:08:35Z</time>
      </trkpt>
      <trkpt lat="59.2947875425" lon="17.8329890452">
        <ele>0</ele>
        <time>2013-05-03T18:08:41Z</time>
      </trkpt>
      <trkpt lat="59.2946808409" lon="17.8321205127">
        <ele>0</ele>
        <time>2013-05-03T18:08:47Z</time>
      </trkpt>
      <trkpt lat="59.2946640771" lon="17.831978691">
        <ele>0</ele>
        <time>2013-05-03T18:08:48Z</time>
      </trkpt>
      <trkpt lat="59.2946515881" lon="17.8318349414">
        <ele>0</ele>
        <time>2013-05-03T18:08:49Z</time>
      </trkpt>
      <trkpt lat="59.2946408593" lon="17.8316878391">
        <ele>0</ele>
        <time>2013-05-03T18:08:50Z</time>
      </trkpt>
      <trkpt lat="59.2946086728" lon="17.8311021957">
        <ele>0</ele>
        <time>2013-05-03T18:08:54Z</time>
      </trkpt>
      <trkpt lat="59.2945573755" lon="17.8303909915">
        <ele>0</ele>
        <time>2013-05-03T18:08:59Z</time>
      </trkpt>
      <trkpt lat="59.294449752" lon="17.8297185955">
        <ele>0</ele>
        <time>2013-05-03T18:09:04Z</time>
      </trkpt>
      <trkpt lat="59.2944150509" lon="17.8295878378">
        <ele>0</ele>
        <time>2013-05-03T18:09:05Z</time>
      </trkpt>
      <trkpt lat="59.2943438047" lon="17.829351133">
        <ele>0</ele>
        <time>2013-05-03T18:09:07Z</time>
      </trkpt>
      <trkpt lat="59.294308014" lon="17.8292345407">
        <ele>0</ele>
        <time>2013-05-03T18:09:08Z</time>
      </trkpt>
      <trkpt lat="59.2942715528" lon="17.8291216366">
        <ele>0</ele>
        <time>2013-05-03T18:09:09Z</time>
      </trkpt>
      <trkpt lat="59.2942361811" lon="17.8290065531">
        <ele>0</ele>
        <time>2013-05-03T18:09:10Z</time>
      </trkpt>
      <trkpt lat="59.2941997199" lon="17.8288882006">
        <ele>0</ele>
        <time>2013-05-03T18:09:11Z</time>
      </trkpt>
      <trkpt lat="59.2940257955" lon="17.8282795909">
        <ele>0</ele>
        <time>2013-05-03T18:09:16Z</time>
      </trkpt>
      <trkpt lat="59.2938531283" lon="17.8276666225">
        <ele>0</ele>
        <time>2013-05-03T18:09:21Z</time>
      </trkpt>
      <trkpt lat="59.2937258072" lon="17.8271409098">
        <ele>0</ele>
        <time>2013-05-03T18:09:25Z</time>
      </trkpt>
      <trkpt lat="59.2936521303" lon="17.8267097448">
        <ele>0</ele>
        <time>2013-05-03T18:09:28Z</time>
      </trkpt>
      <trkpt lat="59.2936336902" lon="17.8265709406">
        <ele>0</ele>
        <time>2013-05-03T18:09:29Z</time>
      </trkpt>
      <trkpt lat="59.2936185189" lon="17.8264344832">
        <ele>0</ele>
        <time>2013-05-03T18:09:30Z</time>
      </trkpt>
      <trkpt lat="59.2936114781" lon="17.8262853692">
        <ele>0</ele>
        <time>2013-05-03T18:09:31Z</time>
      </trkpt>
      <trkpt lat="59.2936081254" lon="17.8261435475">
        <ele>0</ele>
        <time>2013-05-03T18:09:32Z</time>
      </trkpt>
      <trkpt lat="59.2936054432" lon="17.8260013066">
        <ele>0</ele>
        <time>2013-05-03T18:09:33Z</time>
      </trkpt>
      <trkpt lat="59.2936008331" lon="17.8254372886">
        <ele>0</ele>
        <time>2013-05-03T18:09:37Z</time>
      </trkpt>
      <trkpt lat="59.2936011684" lon="17.8252891804">
        <ele>0</ele>
        <time>2013-05-03T18:09:38Z</time>
      </trkpt>
      <trkpt lat="59.2936024257" lon="17.8251460176">
        <ele>0</ele>
        <time>2013-05-03T18:09:39Z</time>
      </trkpt>
      <trkpt lat="59.2936030962" lon="17.8249963168">
        <ele>0</ele>
        <time>2013-05-03T18:09:40Z</time>
      </trkpt>
      <trkpt lat="59.2936029286" lon="17.8248377313">
        <ele>0</ele>
        <time>2013-05-03T18:09:41Z</time>
      </trkpt>
      <trkpt lat="59.2935954687" lon="17.8246679978">
        <ele>0</ele>
        <time>2013-05-03T18:09:42Z</time>
      </trkpt>
      <trkpt lat="59.2935780344" lon="17.8243172991">
        <ele>0</ele>
        <time>2013-05-03T18:09:44Z</time>
      </trkpt>
      <trkpt lat="59.2935410702" lon="17.8238219288">
        <ele>0</ele>
        <time>2013-05-03T18:09:47Z</time>
      </trkpt>
      <trkpt lat="59.2935260666" lon="17.8236636785">
        <ele>0</ele>
        <time>2013-05-03T18:09:48Z</time>
      </trkpt>
      <trkpt lat="59.2935104762" lon="17.8235070208">
        <ele>0</ele>
        <time>2013-05-03T18:09:49Z</time>
      </trkpt>
      <trkpt lat="59.2934941315" lon="17.8233518719">
        <ele>0</ele>
        <time>2013-05-03T18:09:50Z</time>
      </trkpt>
      <trkpt lat="59.2934763619" lon="17.8231992375">
        <ele>0</ele>
        <time>2013-05-03T18:09:51Z</time>
      </trkpt>
      <trkpt lat="59.2933362165" lon="17.8221107639">
        <ele>0</ele>
        <time>2013-05-03T18:09:58Z</time>
      </trkpt>
      <trkpt lat="59.2932277548" lon="17.8210145791">
        <ele>0</ele>
        <time>2013-05-03T18:10:05Z</time>
      </trkpt>
      <trkpt lat="59.2932245696" lon="17.8208508805">
        <ele>0</ele>
        <time>2013-05-03T18:10:06Z</time>
      </trkpt>
      <trkpt lat="59.2932385674" lon="17.8203200548">
        <ele>0</ele>
        <time>2013-05-03T18:10:09Z</time>
      </trkpt>
      <trkpt lat="59.2932477875" lon="17.8201242536">
        <ele>0</ele>
        <time>2013-05-03T18:10:10Z</time>
      </trkpt>
      <trkpt lat="59.2932562532" lon="17.8199359123">
        <ele>0</ele>
        <time>2013-05-03T18:10:11Z</time>
      </trkpt>
      <trkpt lat="59.2932679041" lon="17.8197469005">
        <ele>0</ele>
        <time>2013-05-03T18:10:12Z</time>
      </trkpt>
      <trkpt lat="59.2932792196" lon="17.8195650133">
        <ele>0</ele>
        <time>2013-05-03T18:10:13Z</time>
      </trkpt>
      <trkpt lat="59.2932907028" lon="17.8193802762">
        <ele>0</ele>
        <time>2013-05-03T18:10:14Z</time>
      </trkpt>
      <trkpt lat="59.2933008449" lon="17.8191953715">
        <ele>0</ele>
        <time>2013-05-03T18:10:15Z</time>
      </trkpt>
      <trkpt lat="59.2933141721" lon="17.8190162503">
        <ele>0</ele>
        <time>2013-05-03T18:10:16Z</time>
      </trkpt>
      <trkpt lat="59.2933262421" lon="17.8188387216">
        <ele>0</ele>
        <time>2013-05-03T18:10:17Z</time>
      </trkpt>
      <trkpt lat="59.2933378929" lon="17.8186597681">
        <ele>0</ele>
        <time>2013-05-03T18:10:18Z</time>
      </trkpt>
      <trkpt lat="59.2934150064" lon="17.8174868888">
        <ele>0</ele>
        <time>2013-05-03T18:10:25Z</time>
      </trkpt>
      <trkpt lat="59.2934238912" lon="17.8173302311">
        <ele>0</ele>
        <time>2013-05-03T18:10:26Z</time>
      </trkpt>
      <trkpt lat="59.2934323569" lon="17.8171723999">
        <ele>0</ele>
        <time>2013-05-03T18:10:27Z</time>
      </trkpt>
      <trkpt lat="59.2934400683" lon="17.8170175024">
        <ele>0</ele>
        <time>2013-05-03T18:10:28Z</time>
      </trkpt>
      <trkpt lat="59.2934465223" lon="17.8168585816">
        <ele>0</ele>
        <time>2013-05-03T18:10:29Z</time>
      </trkpt>
      <trkpt lat="59.2934551557" lon="17.8167043546">
        <ele>0</ele>
        <time>2013-05-03T18:10:30Z</time>
      </trkpt>
      <trkpt lat="59.2934646272" lon="17.8165519717">
        <ele>0</ele>
        <time>2013-05-03T18:10:31Z</time>
      </trkpt>
      <trkpt lat="59.2934760266" lon="17.8164051208">
        <ele>0</ele>
        <time>2013-05-03T18:10:32Z</time>
      </trkpt>
      <trkpt lat="59.2934909464" lon="17.8162515644">
        <ele>0</ele>
        <time>2013-05-03T18:10:33Z</time>
      </trkpt>
      <trkpt lat="59.2935064529" lon="17.8161025342">
        <ele>0</ele>
        <time>2013-05-03T18:10:34Z</time>
      </trkpt>
      <trkpt lat="59.2935202831" lon="17.8159514924">
        <ele>0</ele>
        <time>2013-05-03T18:10:35Z</time>
      </trkpt>
      <trkpt lat="59.2935370469" lon="17.8158059826">
        <ele>0</ele>
        <time>2013-05-03T18:10:36Z</time>
      </trkpt>
      <trkpt lat="59.293576358" lon="17.8155211656">
        <ele>0</ele>
        <time>2013-05-03T18:10:38Z</time>
      </trkpt>
      <trkpt lat="59.2936992366" lon="17.8145805488">
        <ele>0</ele>
        <time>2013-05-03T18:10:44Z</time>
      </trkpt>
      <trkpt lat="59.2937776074" lon="17.8137599608">
        <ele>0</ele>
        <time>2013-05-03T18:10:49Z</time>
      </trkpt>
      <trkpt lat="59.2937913537" lon="17.8135984416">
        <ele>0</ele>
        <time>2013-05-03T18:10:50Z</time>
      </trkpt>
      <trkpt lat="59.2938036751" lon="17.8134325638">
        <ele>0</ele>
        <time>2013-05-03T18:10:51Z</time>
      </trkpt>
      <trkpt lat="59.2938141525" lon="17.8132727209">
        <ele>0</ele>
        <time>2013-05-03T18:10:52Z</time>
      </trkpt>
      <trkpt lat="59.2938441597" lon="17.8126772708">
        <ele>0</ele>
        <time>2013-05-03T18:10:56Z</time>
      </trkpt>
      <trkpt lat="59.2938488535" lon="17.8125406458">
        <ele>0</ele>
        <time>2013-05-03T18:10:57Z</time>
      </trkpt>
      <trkpt lat="59.2938543018" lon="17.812409972">
        <ele>0</ele>
        <time>2013-05-03T18:10:58Z</time>
      </trkpt>
      <trkpt lat="59.2938611749" lon="17.8122844949">
        <ele>0</ele>
        <time>2013-05-03T18:10:59Z</time>
      </trkpt>
      <trkpt lat="59.2938758433" lon="17.812166394">
        <ele>0</ele>
        <time>2013-05-03T18:11:00Z</time>
      </trkpt>
      <trkpt lat="59.2939017433" lon="17.8120759533">
        <ele>0</ele>
        <time>2013-05-03T18:11:01Z</time>
      </trkpt>
      <trkpt lat="59.2939702235" lon="17.8119016097">
        <ele>0</ele>
        <time>2013-05-03T18:11:04Z</time>
      </trkpt>
      <trkpt lat="59.2939761746" lon="17.8116237498">
        <ele>0</ele>
        <time>2013-05-03T18:11:08Z</time>
      </trkpt>
      <trkpt lat="59.2941233608" lon="17.8115051459">
        <ele>0</ele>
        <time>2013-05-03T18:11:11Z</time>
      </trkpt>
      <trkpt lat="59.2942044976" lon="17.8114911481">
        <ele>0</ele>
        <time>2013-05-03T18:11:12Z</time>
      </trkpt>
      <trkpt lat="59.2944490814" lon="17.8114297926">
        <ele>0</ele>
        <time>2013-05-03T18:11:15Z</time>
      </trkpt>
      <trkpt lat="59.2950335513" lon="17.8112786669">
        <ele>0</ele>
        <time>2013-05-03T18:11:22Z</time>
      </trkpt>
      <trkpt lat="59.295657919" lon="17.8110967797">
        <ele>0</ele>
        <time>2013-05-03T18:11:29Z</time>
      </trkpt>
      <trkpt lat="59.2962490944" lon="17.8109192511">
        <ele>0</ele>
        <time>2013-05-03T18:11:35Z</time>
      </trkpt>
      <trkpt lat="59.2964545348" lon="17.8108606616">
        <ele>0</ele>
        <time>2013-05-03T18:11:37Z</time>
      </trkpt>
      <trkpt lat="59.2969898867" lon="17.8107630963">
        <ele>0</ele>
        <time>2013-05-03T18:11:42Z</time>
      </trkpt>
      <trkpt lat="59.2970963369" lon="17.8107426444">
        <ele>0</ele>
        <time>2013-05-03T18:11:43Z</time>
      </trkpt>
      <trkpt lat="59.2972005239" lon="17.8107135592">
        <ele>0</ele>
        <time>2013-05-03T18:11:44Z</time>
      </trkpt>
      <trkpt lat="59.2973012743" lon="17.8106812051">
        <ele>0</ele>
        <time>2013-05-03T18:11:45Z</time>
      </trkpt>
      <trkpt lat="59.2974011028" lon="17.810650695">
        <ele>0</ele>
        <time>2013-05-03T18:11:46Z</time>
      </trkpt>
      <trkpt lat="59.2974975784" lon="17.8106216098">
        <ele>0</ele>
        <time>2013-05-03T18:11:47Z</time>
      </trkpt>
      <trkpt lat="59.2975918748" lon="17.8105922731">
        <ele>0</ele>
        <time>2013-05-03T18:11:48Z</time>
      </trkpt>
      <trkpt lat="59.2976915356" lon="17.8105634394">
        <ele>0</ele>
        <time>2013-05-03T18:11:49Z</time>
      </trkpt>
      <trkpt lat="59.2977831498" lon="17.8105378746">
        <ele>0</ele>
        <time>2013-05-03T18:11:50Z</time>
      </trkpt>
      <trkpt lat="59.297872417" lon="17.8105134833">
        <ele>0</ele>
        <time>2013-05-03T18:11:51Z</time>
      </trkpt>
      <trkpt lat="59.2984196712" lon="17.810358921">
        <ele>0</ele>
        <time>2013-05-03T18:11:57Z</time>
      </trkpt>
      <trkpt lat="59.2989485691" lon="17.8102040235">
        <ele>0</ele>
        <time>2013-05-03T18:12:03Z</time>
      </trkpt>
      <trkpt lat="59.299037082" lon="17.810178794">
        <ele>0</ele>
        <time>2013-05-03T18:12:04Z</time>
      </trkpt>
      <trkpt lat="59.2994436042" lon="17.8100532331">
        <ele>0</ele>
        <time>2013-05-03T18:12:09Z</time>
      </trkpt>
      <trkpt lat="59.2998130783" lon="17.8098625449">
        <ele>0</ele>
        <time>2013-05-03T18:12:14Z</time>
      </trkpt>
      <trkpt lat="59.2998908623" lon="17.8098393271">
        <ele>0</ele>
        <time>2013-05-03T18:12:15Z</time>
      </trkpt>
      <trkpt lat="59.3003412218" lon="17.8097027859">
        <ele>0</ele>
        <time>2013-05-03T18:12:21Z</time>
      </trkpt>
      <trkpt lat="59.3004845523" lon="17.8096084895">
        <ele>0</ele>
        <time>2013-05-03T18:12:23Z</time>
      </trkpt>
      <trkpt lat="59.3005512722" lon="17.8095511573">
        <ele>0</ele>
        <time>2013-05-03T18:12:24Z</time>
      </trkpt>
      <trkpt lat="59.3006161481" lon="17.8094928193">
        <ele>0</ele>
        <time>2013-05-03T18:12:25Z</time>
      </trkpt>
      <trkpt lat="59.300681527" lon="17.8094302903">
        <ele>0</ele>
        <time>2013-05-03T18:12:26Z</time>
      </trkpt>
      <trkpt lat="59.3007536951" lon="17.8093648277">
        <ele>0</ele>
        <time>2013-05-03T18:12:27Z</time>
      </trkpt>
      <trkpt lat="59.3008232649" lon="17.8092903126">
        <ele>0</ele>
        <time>2013-05-03T18:12:28Z</time>
      </trkpt>
      <trkpt lat="59.3008949301" lon="17.8092076671">
        <ele>0</ele>
        <time>2013-05-03T18:12:29Z</time>
      </trkpt>
      <trkpt lat="59.3009660087" lon="17.8091283743">
        <ele>0</ele>
        <time>2013-05-03T18:12:30Z</time>
      </trkpt>
      <trkpt lat="59.301034824" lon="17.8090532725">
        <ele>0</ele>
        <time>2013-05-03T18:12:31Z</time>
      </trkpt>
      <trkpt lat="59.3011010411" lon="17.8089744826">
        <ele>0</ele>
        <time>2013-05-03T18:12:32Z</time>
      </trkpt>
      <trkpt lat="59.3011655817" lon="17.8088920885">
        <ele>0</ele>
        <time>2013-05-03T18:12:33Z</time>
      </trkpt>
      <trkpt lat="59.3012291165" lon="17.8088102812">
        <ele>0</ele>
        <time>2013-05-03T18:12:34Z</time>
      </trkpt>
      <trkpt lat="59.3012945791" lon="17.8087288091">
        <ele>0</ele>
        <time>2013-05-03T18:12:35Z</time>
      </trkpt>
      <trkpt lat="59.3013554317" lon="17.8086463312">
        <ele>0</ele>
        <time>2013-05-03T18:12:36Z</time>
      </trkpt>
      <trkpt lat="59.3014144403" lon="17.8085563096">
        <ele>0</ele>
        <time>2013-05-03T18:12:37Z</time>
      </trkpt>
      <trkpt lat="59.301809144" lon="17.8078294313">
        <ele>0</ele>
        <time>2013-05-03T18:12:44Z</time>
      </trkpt>
      <trkpt lat="59.3018521431" lon="17.8076974163">
        <ele>0</ele>
        <time>2013-05-03T18:12:45Z</time>
      </trkpt>
      <trkpt lat="59.3018891911" lon="17.8075607914">
        <ele>0</ele>
        <time>2013-05-03T18:12:46Z</time>
      </trkpt>
      <trkpt lat="59.3019181087" lon="17.8074153654">
        <ele>0</ele>
        <time>2013-05-03T18:12:47Z</time>
      </trkpt>
      <trkpt lat="59.3019417456" lon="17.8072699394">
        <ele>0</ele>
        <time>2013-05-03T18:12:48Z</time>
      </trkpt>
      <trkpt lat="59.3020372993" lon="17.8064203501">
        <ele>0</ele>
        <time>2013-05-03T18:12:54Z</time>
      </trkpt>
      <trkpt lat="59.302107372" lon="17.8056305236">
        <ele>0</ele>
        <time>2013-05-03T18:13:00Z</time>
      </trkpt>
      <trkpt lat="59.3021648718" lon="17.8050075808">
        <ele>0</ele>
        <time>2013-05-03T18:13:05Z</time>
      </trkpt>
      <trkpt lat="59.302175433" lon="17.8048929164">
        <ele>0</ele>
        <time>2013-05-03T18:13:06Z</time>
      </trkpt>
      <trkpt lat="59.3021883411" lon="17.8047893161">
        <ele>0</ele>
        <time>2013-05-03T18:13:07Z</time>
      </trkpt>
      <trkpt lat="59.3022051887" lon="17.8046852968">
        <ele>0</ele>
        <time>2013-05-03T18:13:08Z</time>
      </trkpt>
      <trkpt lat="59.3022207791" lon="17.8045732307">
        <ele>0</ele>
        <time>2013-05-03T18:13:09Z</time>
      </trkpt>
      <trkpt lat="59.30225833" lon="17.8041999009">
        <ele>0</ele>
        <time>2013-05-03T18:13:12Z</time>
      </trkpt>
      <trkpt lat="59.3023112198" lon="17.8036139223">
        <ele>0</ele>
        <time>2013-05-03T18:13:17Z</time>
      </trkpt>
      <trkpt lat="59.3023613435" lon="17.8031105892">
        <ele>0</ele>
        <time>2013-05-03T18:13:21Z</time>
      </trkpt>
      <trkpt lat="59.302368552" lon="17.8029812565">
        <ele>0</ele>
        <time>2013-05-03T18:13:22Z</time>
      </trkpt>
      <trkpt lat="59.3023716533" lon="17.8028508341">
        <ele>0</ele>
        <time>2013-05-03T18:13:23Z</time>
      </trkpt>
      <trkpt lat="59.3023739164" lon="17.8027158855">
        <ele>0</ele>
        <time>2013-05-03T18:13:24Z</time>
      </trkpt>
      <trkpt lat="59.3023741679" lon="17.8025789253">
        <ele>0</ele>
        <time>2013-05-03T18:13:25Z</time>
      </trkpt>
      <trkpt lat="59.3023684682" lon="17.8019917732">
        <ele>0</ele>
        <time>2013-05-03T18:13:29Z</time>
      </trkpt>
      <trkpt lat="59.3023056877" lon="17.8010764697">
        <ele>0</ele>
        <time>2013-05-03T18:13:35Z</time>
      </trkpt>
      <trkpt lat="59.302200914" lon="17.7999776864">
        <ele>0</ele>
        <time>2013-05-03T18:13:42Z</time>
      </trkpt>
      <trkpt lat="59.3021045221" lon="17.7988783164">
        <ele>0</ele>
        <time>2013-05-03T18:13:49Z</time>
      </trkpt>
      <trkpt lat="59.3020908596" lon="17.7987196471">
        <ele>0</ele>
        <time>2013-05-03T18:13:50Z</time>
      </trkpt>
      <trkpt lat="59.3020792926" lon="17.7985642466">
        <ele>0</ele>
        <time>2013-05-03T18:13:51Z</time>
      </trkpt>
      <trkpt lat="59.3020660492" lon="17.798410774">
        <ele>0</ele>
        <time>2013-05-03T18:13:52Z</time>
      </trkpt>
      <trkpt lat="59.3020528896" lon="17.7982550383">
        <ele>0</ele>
        <time>2013-05-03T18:13:53Z</time>
      </trkpt>
      <trkpt lat="59.3020419932" lon="17.7981019849">
        <ele>0</ele>
        <time>2013-05-03T18:13:54Z</time>
      </trkpt>
      <trkpt lat="59.3020329407" lon="17.7979476741">
        <ele>0</ele>
        <time>2013-05-03T18:13:55Z</time>
      </trkpt>
      <trkpt lat="59.3020191106" lon="17.7976416509">
        <ele>0</ele>
        <time>2013-05-03T18:13:57Z</time>
      </trkpt>
      <trkpt lat="59.3020239721" lon="17.7969097434">
        <ele>0</ele>
        <time>2013-05-03T18:14:02Z</time>
      </trkpt>
      <trkpt lat="59.3020621097" lon="17.7965468071">
        <ele>0</ele>
        <time>2013-05-03T18:14:05Z</time>
      </trkpt>
      <trkpt lat="59.302074934" lon="17.7964793328">
        <ele>0</ele>
        <time>2013-05-03T18:14:06Z</time>
      </trkpt>
      <trkpt lat="59.3020889318" lon="17.7964304664">
        <ele>0</ele>
        <time>2013-05-03T18:14:07Z</time>
      </trkpt>
      <trkpt lat="59.3021014208" lon="17.7963856232">
        <ele>0</ele>
        <time>2013-05-03T18:14:08Z</time>
      </trkpt>
      <trkpt lat="59.3021202801" lon="17.7963161372">
        <ele>0</ele>
        <time>2013-05-03T18:14:09Z</time>
      </trkpt>
      <trkpt lat="59.3021414863" lon="17.7962200807">
        <ele>0</ele>
        <time>2013-05-03T18:14:10Z</time>
      </trkpt>
      <trkpt lat="59.3021548135" lon="17.7961057515">
        <ele>0</ele>
        <time>2013-05-03T18:14:11Z</time>
      </trkpt>
      <trkpt lat="59.3021562385" lon="17.7958260475">
        <ele>0</ele>
        <time>2013-05-03T18:14:13Z</time>
      </trkpt>
      <trkpt lat="59.3021583339" lon="17.7949068884">
        <ele>0</ele>
        <time>2013-05-03T18:14:19Z</time>
      </trkpt>
      <trkpt lat="59.3021606809" lon="17.7937802772">
        <ele>0</ele>
        <time>2013-05-03T18:14:26Z</time>
      </trkpt>
      <trkpt lat="59.3021603456" lon="17.7936194286">
        <ele>0</ele>
        <time>2013-05-03T18:14:27Z</time>
      </trkpt>
      <trkpt lat="59.3021648718" lon="17.7926209766">
        <ele>0</ele>
        <time>2013-05-03T18:14:33Z</time>
      </trkpt>
      <trkpt lat="59.3021680569" lon="17.7924533386">
        <ele>0</ele>
        <time>2013-05-03T18:14:34Z</time>
      </trkpt>
      <trkpt lat="59.3021699848" lon="17.7922775702">
        <ele>0</ele>
        <time>2013-05-03T18:14:35Z</time>
      </trkpt>
      <trkpt lat="59.3021716611" lon="17.7921106027">
        <ele>0</ele>
        <time>2013-05-03T18:14:36Z</time>
      </trkpt>
      <trkpt lat="59.3021731699" lon="17.7919422942">
        <ele>0</ele>
        <time>2013-05-03T18:14:37Z</time>
      </trkpt>
      <trkpt lat="59.3021771094" lon="17.7910682296">
        <ele>0</ele>
        <time>2013-05-03T18:14:42Z</time>
      </trkpt>
      <trkpt lat="59.3021954657" lon="17.7903354001">
        <ele>0</ele>
        <time>2013-05-03T18:14:46Z</time>
      </trkpt>
      <trkpt lat="59.3022017522" lon="17.7901530938">
        <ele>0</ele>
        <time>2013-05-03T18:14:47Z</time>
      </trkpt>
      <trkpt lat="59.3022103017" lon="17.7899709551">
        <ele>0</ele>
        <time>2013-05-03T18:14:48Z</time>
      </trkpt>
      <trkpt lat="59.302221282" lon="17.7897923368">
        <ele>0</ele>
        <time>2013-05-03T18:14:49Z</time>
      </trkpt>
      <trkpt lat="59.302232849" lon="17.789612126">
        <ele>0</ele>
        <time>2013-05-03T18:14:50Z</time>
      </trkpt>
      <trkpt lat="59.3022730821" lon="17.7890656261">
        <ele>0</ele>
        <time>2013-05-03T18:14:53Z</time>
      </trkpt>
      <trkpt lat="59.3022889239" lon="17.7888911988">
        <ele>0</ele>
        <time>2013-05-03T18:14:54Z</time>
      </trkpt>
      <trkpt lat="59.3023072803" lon="17.7887161009">
        <ele>0</ele>
        <time>2013-05-03T18:14:55Z</time>
      </trkpt>
      <trkpt lat="59.3023278159" lon="17.7885440205">
        <ele>0</ele>
        <time>2013-05-03T18:14:56Z</time>
      </trkpt>
      <trkpt lat="59.3024836355" lon="17.7873837979">
        <ele>0</ele>
        <time>2013-05-03T18:15:03Z</time>
      </trkpt>
      <trkpt lat="59.3025093679" lon="17.7872241227">
        <ele>0</ele>
        <time>2013-05-03T18:15:04Z</time>
      </trkpt>
      <trkpt lat="59.3026390359" lon="17.7865784649">
        <ele>0</ele>
        <time>2013-05-03T18:15:08Z</time>
      </trkpt>
      <trkpt lat="59.3026754972" lon="17.786420969">
        <ele>0</ele>
        <time>2013-05-03T18:15:09Z</time>
      </trkpt>
      <trkpt lat="59.302710785" lon="17.7862619644">
        <ele>0</ele>
        <time>2013-05-03T18:15:10Z</time>
      </trkpt>
      <trkpt lat="59.3027459889" lon="17.7861058934">
        <ele>0</ele>
        <time>2013-05-03T18:15:11Z</time>
      </trkpt>
      <trkpt lat="59.3027828693" lon="17.7859558574">
        <ele>0</ele>
        <time>2013-05-03T18:15:12Z</time>
      </trkpt>
      <trkpt lat="59.3029889802" lon="17.7852003967">
        <ele>0</ele>
        <time>2013-05-03T18:15:17Z</time>
      </trkpt>
      <trkpt lat="59.3032582068" lon="17.784320884">
        <ele>0</ele>
        <time>2013-05-03T18:15:23Z</time>
      </trkpt>
      <trkpt lat="59.3033077439" lon="17.7841868574">
        <ele>0</ele>
        <time>2013-05-03T18:15:24Z</time>
      </trkpt>
      <trkpt lat="59.3033561074" lon="17.7840481369">
        <ele>0</ele>
        <time>2013-05-03T18:15:25Z</time>
      </trkpt>
      <trkpt lat="59.3034043034" lon="17.7839119311">
        <ele>0</ele>
        <time>2013-05-03T18:15:26Z</time>
      </trkpt>
      <trkpt lat="59.303453086" lon="17.78378">
        <ele>0</ele>
        <time>2013-05-03T18:15:27Z</time>
      </trkpt>
      <trkpt lat="59.303608235" lon="17.7833802671">
        <ele>0</ele>
        <time>2013-05-03T18:15:30Z</time>
      </trkpt>
      <trkpt lat="59.3037118353" lon="17.7831153153">
        <ele>0</ele>
        <time>2013-05-03T18:15:32Z</time>
      </trkpt>
      <trkpt lat="59.303763384" lon="17.782981624">
        <ele>0</ele>
        <time>2013-05-03T18:15:33Z</time>
      </trkpt>
      <trkpt lat="59.3038169443" lon="17.7828506987">
        <ele>0</ele>
        <time>2013-05-03T18:15:34Z</time>
      </trkpt>
      <trkpt lat="59.3038728516" lon="17.7827191867">
        <ele>0</ele>
        <time>2013-05-03T18:15:35Z</time>
      </trkpt>
      <trkpt lat="59.3039309381" lon="17.7825823941">
        <ele>0</ele>
        <time>2013-05-03T18:15:36Z</time>
      </trkpt>
      <trkpt lat="59.3040442614" lon="17.7823330326">
        <ele>0</ele>
        <time>2013-05-03T18:15:38Z</time>
      </trkpt>
      <trkpt lat="59.3044475985" lon="17.7814944235">
        <ele>0</ele>
        <time>2013-05-03T18:15:45Z</time>
      </trkpt>
      <trkpt lat="59.30488681" lon="17.7806836423">
        <ele>0</ele>
        <time>2013-05-03T18:15:52Z</time>
      </trkpt>
      <trkpt lat="59.304950261" lon="17.780575432">
        <ele>0</ele>
        <time>2013-05-03T18:15:53Z</time>
      </trkpt>
      <trkpt lat="59.3053910651" lon="17.7798604559">
        <ele>0</ele>
        <time>2013-05-03T18:16:00Z</time>
      </trkpt>
      <trkpt lat="59.305877383" lon="17.7791724695">
        <ele>0</ele>
        <time>2013-05-03T18:16:07Z</time>
      </trkpt>
      <trkpt lat="59.3060140079" lon="17.7789862237">
        <ele>0</ele>
        <time>2013-05-03T18:16:09Z</time>
      </trkpt>
      <trkpt lat="59.3060829071" lon="17.7789010636">
        <ele>0</ele>
        <time>2013-05-03T18:16:10Z</time>
      </trkpt>
      <trkpt lat="59.3061544048" lon="17.7788185857">
        <ele>0</ele>
        <time>2013-05-03T18:16:11Z</time>
      </trkpt>
      <trkpt lat="59.3062245613" lon="17.7787311625">
        <ele>0</ele>
        <time>2013-05-03T18:16:12Z</time>
      </trkpt>
      <trkpt lat="59.3062961427" lon="17.7786493552">
        <ele>0</ele>
        <time>2013-05-03T18:16:13Z</time>
      </trkpt>
      <trkpt lat="59.3068286448" lon="17.7780787992">
        <ele>0</ele>
        <time>2013-05-03T18:16:20Z</time>
      </trkpt>
      <trkpt lat="59.3069056744" lon="17.7779995064">
        <ele>0</ele>
        <time>2013-05-03T18:16:21Z</time>
      </trkpt>
      <trkpt lat="59.3074486539" lon="17.777427777">
        <ele>0</ele>
        <time>2013-05-03T18:16:28Z</time>
      </trkpt>
      <trkpt lat="59.3076050602" lon="17.7772609772">
        <ele>0</ele>
        <time>2013-05-03T18:16:30Z</time>
      </trkpt>
      <trkpt lat="59.308121469" lon="17.7767161537">
        <ele>0</ele>
        <time>2013-05-03T18:16:37Z</time>
      </trkpt>
      <trkpt lat="59.3081870155" lon="17.7766472545">
        <ele>0</ele>
        <time>2013-05-03T18:16:38Z</time>
      </trkpt>
      <trkpt lat="59.3086371235" lon="17.7761749345">
        <ele>0</ele>
        <time>2013-05-03T18:16:45Z</time>
      </trkpt>
      <trkpt lat="59.3090001436" lon="17.7758316118">
        <ele>0</ele>
        <time>2013-05-03T18:16:50Z</time>
      </trkpt>
      <trkpt lat="59.3094374273" lon="17.7753944119">
        <ele>0</ele>
        <time>2013-05-03T18:16:56Z</time>
      </trkpt>
      <trkpt lat="59.3099620505" lon="17.774966935">
        <ele>0</ele>
        <time>2013-05-03T18:17:03Z</time>
      </trkpt>
      <trkpt lat="59.3105170999" lon="17.7745782663">
        <ele>0</ele>
        <time>2013-05-03T18:17:10Z</time>
      </trkpt>
      <trkpt lat="59.31068281" lon="17.774472822">
        <ele>0</ele>
        <time>2013-05-03T18:17:12Z</time>
      </trkpt>
      <trkpt lat="59.3112802719" lon="17.7740951336">
        <ele>0</ele>
        <time>2013-05-03T18:17:19Z</time>
      </trkpt>
      <trkpt lat="59.3113642585" lon="17.774044004">
        <ele>0</ele>
        <time>2013-05-03T18:17:20Z</time>
      </trkpt>
      <trkpt lat="59.3119447889" lon="17.7736759548">
        <ele>0</ele>
        <time>2013-05-03T18:17:27Z</time>
      </trkpt>
      <trkpt lat="59.3121140195" lon="17.773569337">
        <ele>0</ele>
        <time>2013-05-03T18:17:29Z</time>
      </trkpt>
      <trkpt lat="59.3121970841" lon="17.7735157767">
        <ele>0</ele>
        <time>2013-05-03T18:17:30Z</time>
      </trkpt>
      <trkpt lat="59.3122791429" lon="17.7734616296">
        <ele>0</ele>
        <time>2013-05-03T18:17:31Z</time>
      </trkpt>
      <trkpt lat="59.312363381" lon="17.7734088236">
        <ele>0</ele>
        <time>2013-05-03T18:17:32Z</time>
      </trkpt>
      <trkpt lat="59.3124476191" lon="17.773354928">
        <ele>0</ele>
        <time>2013-05-03T18:17:33Z</time>
      </trkpt>
      <trkpt lat="59.3130337654" lon="17.772966846">
        <ele>0</ele>
        <time>2013-05-03T18:17:40Z</time>
      </trkpt>
      <trkpt lat="59.3131185064" lon="17.7729132857">
        <ele>0</ele>
        <time>2013-05-03T18:17:41Z</time>
      </trkpt>
      <trkpt lat="59.3137045688" lon="17.7725418837">
        <ele>0</ele>
        <time>2013-05-03T18:17:48Z</time>
      </trkpt>
      <trkpt lat="59.3138675968" lon="17.7724429773">
        <ele>0</ele>
        <time>2013-05-03T18:17:50Z</time>
      </trkpt>
      <trkpt lat="59.314392639" lon="17.7721136524">
        <ele>0</ele>
        <time>2013-05-03T18:17:57Z</time>
      </trkpt>
      <trkpt lat="59.3147752727" lon="17.7718749359">
        <ele>0</ele>
        <time>2013-05-03T18:18:03Z</time>
      </trkpt>
      <trkpt lat="59.3148817228" lon="17.7718026001">
        <ele>0</ele>
        <time>2013-05-03T18:18:05Z</time>
      </trkpt>
      <trkpt lat="59.3149314275" lon="17.7717734311">
        <ele>0</ele>
        <time>2013-05-03T18:18:06Z</time>
      </trkpt>
      <trkpt lat="59.31497845" lon="17.7717383948">
        <ele>0</ele>
        <time>2013-05-03T18:18:07Z</time>
      </trkpt>
      <trkpt lat="59.3150299987" lon="17.7717047834">
        <ele>0</ele>
        <time>2013-05-03T18:18:08Z</time>
      </trkpt>
      <trkpt lat="59.3150833914" lon="17.7716682383">
        <ele>0</ele>
        <time>2013-05-03T18:18:09Z</time>
      </trkpt>
      <trkpt lat="59.3151336828" lon="17.7716171925">
        <ele>0</ele>
        <time>2013-05-03T18:18:10Z</time>
      </trkpt>
      <trkpt lat="59.3152855628" lon="17.7714529911">
        <ele>0</ele>
        <time>2013-05-03T18:18:13Z</time>
      </trkpt>
      <trkpt lat="59.3153732375" lon="17.7713111693">
        <ele>0</ele>
        <time>2013-05-03T18:18:15Z</time>
      </trkpt>
      <trkpt lat="59.3153941922" lon="17.771219639">
        <ele>0</ele>
        <time>2013-05-03T18:18:16Z</time>
      </trkpt>
      <trkpt lat="59.3154266302" lon="17.7711535058">
        <ele>0</ele>
        <time>2013-05-03T18:18:17Z</time>
      </trkpt>
      <trkpt lat="59.3154713895" lon="17.7711309585">
        <ele>0</ele>
        <time>2013-05-03T18:18:18Z</time>
      </trkpt>
      <trkpt lat="59.3155251175" lon="17.7711243368">
        <ele>0</ele>
        <time>2013-05-03T18:18:19Z</time>
      </trkpt>
      <trkpt lat="59.3155920051" lon="17.7711060642">
        <ele>0</ele>
        <time>2013-05-03T18:18:20Z</time>
      </trkpt>
      <trkpt lat="59.3156616586" lon="17.7710823435">
        <ele>0</ele>
        <time>2013-05-03T18:18:21Z</time>
      </trkpt>
      <trkpt lat="59.3159649996" lon="17.7709083352">
        <ele>0</ele>
        <time>2013-05-03T18:18:25Z</time>
      </trkpt>
      <trkpt lat="59.3160456335" lon="17.7708525956">
        <ele>0</ele>
        <time>2013-05-03T18:18:26Z</time>
      </trkpt>
      <trkpt lat="59.316125513" lon="17.770801466">
        <ele>0</ele>
        <time>2013-05-03T18:18:27Z</time>
      </trkpt>
      <trkpt lat="59.316206063" lon="17.7707483248">
        <ele>0</ele>
        <time>2013-05-03T18:18:28Z</time>
      </trkpt>
      <trkpt lat="59.3162865293" lon="17.7706967761">
        <ele>0</ele>
        <time>2013-05-03T18:18:29Z</time>
      </trkpt>
      <trkpt lat="59.3163710188" lon="17.7706452274">
        <ele>0</ele>
        <time>2013-05-03T18:18:30Z</time>
      </trkpt>
      <trkpt lat="59.3166093163" lon="17.7704952752">
        <ele>0</ele>
        <time>2013-05-03T18:18:33Z</time>
      </trkpt>
      <trkpt lat="59.3166882738" lon="17.7704454029">
        <ele>0</ele>
        <time>2013-05-03T18:18:34Z</time>
      </trkpt>
      <trkpt lat="59.3167690753" lon="17.7703891603">
        <ele>0</ele>
        <time>2013-05-03T18:18:35Z</time>
      </trkpt>
      <trkpt lat="59.3168451829" lon="17.7703318281">
        <ele>0</ele>
        <time>2013-05-03T18:18:36Z</time>
      </trkpt>
      <trkpt lat="59.3169211229" lon="17.7702755856">
        <ele>0</ele>
        <time>2013-05-03T18:18:37Z</time>
      </trkpt>
      <trkpt lat="59.3172325943" lon="17.7700340192">
        <ele>0</ele>
        <time>2013-05-03T18:18:41Z</time>
      </trkpt>
      <trkpt lat="59.3177404537" lon="17.7695928798">
        <ele>0</ele>
        <time>2013-05-03T18:18:47Z</time>
      </trkpt>
      <trkpt lat="59.317825949" lon="17.7695173589">
        <ele>0</ele>
        <time>2013-05-03T18:18:48Z</time>
      </trkpt>
      <trkpt lat="59.3183369097" lon="17.7690231621">
        <ele>0</ele>
        <time>2013-05-03T18:18:54Z</time>
      </trkpt>
      <trkpt lat="59.3184957467" lon="17.7688318033">
        <ele>0</ele>
        <time>2013-05-03T18:18:56Z</time>
      </trkpt>
      <trkpt lat="59.3188446852" lon="17.7682793523">
        <ele>0</ele>
        <time>2013-05-03T18:19:01Z</time>
      </trkpt>
      <trkpt lat="59.3192303364" lon="17.7675954731">
        <ele>0</ele>
        <time>2013-05-03T18:19:07Z</time>
      </trkpt>
      <trkpt lat="59.3196364394" lon="17.76681428">
        <ele>0</ele>
        <time>2013-05-03T18:19:14Z</time>
      </trkpt>
      <trkpt lat="59.3200194923" lon="17.7660806961">
        <ele>0</ele>
        <time>2013-05-03T18:19:21Z</time>
      </trkpt>
      <trkpt lat="59.3202875454" lon="17.765556073">
        <ele>0</ele>
        <time>2013-05-03T18:19:26Z</time>
      </trkpt>
      <trkpt lat="59.3204866156" lon="17.765161034">
        <ele>0</ele>
        <time>2013-05-03T18:19:30Z</time>
      </trkpt>
      <trkpt lat="59.3205364879" lon="17.7650632173">
        <ele>0</ele>
        <time>2013-05-03T18:19:31Z</time>
      </trkpt>
      <trkpt lat="59.320587366" lon="17.7649616286">
        <ele>0</ele>
        <time>2013-05-03T18:19:32Z</time>
      </trkpt>
      <trkpt lat="59.3206377412" lon="17.7648550947">
        <ele>0</ele>
        <time>2013-05-03T18:19:33Z</time>
      </trkpt>
      <trkpt lat="59.3206880326" lon="17.7647500695">
        <ele>0</ele>
        <time>2013-05-03T18:19:34Z</time>
      </trkpt>
      <trkpt lat="59.3208424272" lon="17.764446058">
        <ele>0</ele>
        <time>2013-05-03T18:19:37Z</time>
      </trkpt>
      <trkpt lat="59.3208942274" lon="17.7643391049">
        <ele>0</ele>
        <time>2013-05-03T18:19:38Z</time>
      </trkpt>
      <trkpt lat="59.3209445188" lon="17.7642383545">
        <ele>0</ele>
        <time>2013-05-03T18:19:39Z</time>
      </trkpt>
      <trkpt lat="59.3209954807" lon="17.764133916">
        <ele>0</ele>
        <time>2013-05-03T18:19:40Z</time>
      </trkpt>
      <trkpt lat="59.3210468618" lon="17.7640283041">
        <ele>0</ele>
        <time>2013-05-03T18:19:41Z</time>
      </trkpt>
      <trkpt lat="59.3210954768" lon="17.763923195">
        <ele>0</ele>
        <time>2013-05-03T18:19:42Z</time>
      </trkpt>
      <trkpt lat="59.3212497876" lon="17.7636703131">
        <ele>0</ele>
        <time>2013-05-03T18:19:45Z</time>
      </trkpt>
      <trkpt lat="59.3214274" lon="17.7633121545">
        <ele>0</ele>
        <time>2013-05-03T18:19:49Z</time>
      </trkpt>
      <trkpt lat="59.3215132307" lon="17.7631127491">
        <ele>0</ele>
        <time>2013-05-03T18:19:51Z</time>
      </trkpt>
      <trkpt lat="59.321558912" lon="17.7630240686">
        <ele>0</ele>
        <time>2013-05-03T18:19:52Z</time>
      </trkpt>
      <trkpt lat="59.3216049287" lon="17.7629353043">
        <ele>0</ele>
        <time>2013-05-03T18:19:53Z</time>
      </trkpt>
      <trkpt lat="59.3216491851" lon="17.7628486355">
        <ele>0</ele>
        <time>2013-05-03T18:19:54Z</time>
      </trkpt>
      <trkpt lat="59.3216924357" lon="17.7627639783">
        <ele>0</ele>
        <time>2013-05-03T18:19:55Z</time>
      </trkpt>
      <trkpt lat="59.3218262108" lon="17.7625082465">
        <ele>0</ele>
        <time>2013-05-03T18:19:58Z</time>
      </trkpt>
      <trkpt lat="59.3218696291" lon="17.7624160456">
        <ele>0</ele>
        <time>2013-05-03T18:19:59Z</time>
      </trkpt>
      <trkpt lat="59.3219144722" lon="17.7623201567">
        <ele>0</ele>
        <time>2013-05-03T18:20:00Z</time>
      </trkpt>
      <trkpt lat="59.3219596507" lon="17.762228291">
        <ele>0</ele>
        <time>2013-05-03T18:20:01Z</time>
      </trkpt>
      <trkpt lat="59.3220091877" lon="17.762136174">
        <ele>0</ele>
        <time>2013-05-03T18:20:02Z</time>
      </trkpt>
      <trkpt lat="59.322200295" lon="17.7617488464">
        <ele>0</ele>
        <time>2013-05-03T18:20:06Z</time>
      </trkpt>
      <trkpt lat="59.3225533406" lon="17.76102289">
        <ele>0</ele>
        <time>2013-05-03T18:20:13Z</time>
      </trkpt>
      <trkpt lat="59.3228025345" lon="17.7604287809">
        <ele>0</ele>
        <time>2013-05-03T18:20:18Z</time>
      </trkpt>
      <trkpt lat="59.3228431029" lon="17.7602874621">
        <ele>0</ele>
        <time>2013-05-03T18:20:19Z</time>
      </trkpt>
      <trkpt lat="59.322966233" lon="17.7596308241">
        <ele>0</ele>
        <time>2013-05-03T18:20:23Z</time>
      </trkpt>
      <trkpt lat="59.322997749" lon="17.7594473443">
        <ele>0</ele>
        <time>2013-05-03T18:20:24Z</time>
      </trkpt>
      <trkpt lat="59.3230274209" lon="17.7592546444">
        <ele>0</ele>
        <time>2013-05-03T18:20:25Z</time>
      </trkpt>
      <trkpt lat="59.3230527342" lon="17.7590663869">
        <ele>0</ele>
        <time>2013-05-03T18:20:26Z</time>
      </trkpt>
      <trkpt lat="59.3230772932" lon="17.758874609">
        <ele>0</ele>
        <time>2013-05-03T18:20:27Z</time>
      </trkpt>
      <trkpt lat="59.3230962363" lon="17.7586854296">
        <ele>0</ele>
        <time>2013-05-03T18:20:28Z</time>
      </trkpt>
      <trkpt lat="59.32311585" lon="17.7583038016">
        <ele>0</ele>
        <time>2013-05-03T18:20:30Z</time>
      </trkpt>
      <trkpt lat="59.3231140059" lon="17.7581238423">
        <ele>0</ele>
        <time>2013-05-03T18:20:31Z</time>
      </trkpt>
      <trkpt lat="59.3231120781" lon="17.7579438829">
        <ele>0</ele>
        <time>2013-05-03T18:20:32Z</time>
      </trkpt>
      <trkpt lat="59.3231130839" lon="17.7577663542">
        <ele>0</ele>
        <time>2013-05-03T18:20:33Z</time>
      </trkpt>
      <trkpt lat="59.3231140059" lon="17.7575885741">
        <ele>0</ele>
        <time>2013-05-03T18:20:34Z</time>
      </trkpt>
      <trkpt lat="59.3231130001" lon="17.7574112969">
        <ele>0</ele>
        <time>2013-05-03T18:20:35Z</time>
      </trkpt>
      <trkpt lat="59.3230961525" lon="17.7566993383">
        <ele>0</ele>
        <time>2013-05-03T18:20:39Z</time>
      </trkpt>
      <trkpt lat="59.3230674026" lon="17.7555390319">
        <ele>0</ele>
        <time>2013-05-03T18:20:46Z</time>
      </trkpt>
      <trkpt lat="59.3230507226" lon="17.7545907876">
        <ele>0</ele>
        <time>2013-05-03T18:20:52Z</time>
      </trkpt>
      <trkpt lat="59.3230544106" lon="17.7544164441">
        <ele>0</ele>
        <time>2013-05-03T18:20:53Z</time>
      </trkpt>
      <trkpt lat="59.3230573443" lon="17.7542491413">
        <ele>0</ele>
        <time>2013-05-03T18:20:54Z</time>
      </trkpt>
      <trkpt lat="59.323056087" lon="17.7540823415">
        <ele>0</ele>
        <time>2013-05-03T18:20:55Z</time>
      </trkpt>
      <trkpt lat="59.3230538239" lon="17.7539138653">
        <ele>0</ele>
        <time>2013-05-03T18:20:56Z</time>
      </trkpt>
      <trkpt lat="59.3230406643" lon="17.7534158128">
        <ele>0</ele>
        <time>2013-05-03T18:20:59Z</time>
      </trkpt>
      <trkpt lat="59.3230327853" lon="17.753259658">
        <ele>0</ele>
        <time>2013-05-03T18:21:00Z</time>
      </trkpt>
      <trkpt lat="59.3230340426" lon="17.7530916848">
        <ele>0</ele>
        <time>2013-05-03T18:21:01Z</time>
      </trkpt>
      <trkpt lat="59.3230379821" lon="17.7529360329">
        <ele>0</ele>
        <time>2013-05-03T18:21:02Z</time>
      </trkpt>
      <trkpt lat="59.3230415863" lon="17.7527863321">
        <ele>0</ele>
        <time>2013-05-03T18:21:03Z</time>
      </trkpt>
      <trkpt lat="59.3230470346" lon="17.7526397327">
        <ele>0</ele>
        <time>2013-05-03T18:21:04Z</time>
      </trkpt>
      <trkpt lat="59.3230606132" lon="17.7525037783">
        <ele>0</ele>
        <time>2013-05-03T18:21:05Z</time>
      </trkpt>
      <trkpt lat="59.3231290934" lon="17.7519442865">
        <ele>0</ele>
        <time>2013-05-03T18:21:09Z</time>
      </trkpt>
      <trkpt lat="59.3231554963" lon="17.7518024647">
        <ele>0</ele>
        <time>2013-05-03T18:21:10Z</time>
      </trkpt>
      <trkpt lat="59.3231828213" lon="17.7516679352">
        <ele>0</ele>
        <time>2013-05-03T18:21:11Z</time>
      </trkpt>
      <trkpt lat="59.3232075479" lon="17.7515365909">
        <ele>0</ele>
        <time>2013-05-03T18:21:12Z</time>
      </trkpt>
      <trkpt lat="59.3232305143" lon="17.7514063361">
        <ele>0</ele>
        <time>2013-05-03T18:21:13Z</time>
      </trkpt>
      <trkpt lat="59.3232570011" lon="17.751283206">
        <ele>0</ele>
        <time>2013-05-03T18:21:14Z</time>
      </trkpt>
      <trkpt lat="59.3234944604" lon="17.7503911204">
        <ele>0</ele>
        <time>2013-05-03T18:21:22Z</time>
      </trkpt>
      <trkpt lat="59.3236274811" lon="17.7500367337">
        <ele>0</ele>
        <time>2013-05-03T18:21:26Z</time>
      </trkpt>
      <trkpt lat="59.323655309" lon="17.7499794015">
        <ele>0</ele>
        <time>2013-05-03T18:21:27Z</time>
      </trkpt>
      <trkpt lat="59.3236775211" lon="17.749931457">
        <ele>0</ele>
        <time>2013-05-03T18:21:28Z</time>
      </trkpt>
      <trkpt lat="59.3236973862" lon="17.7498965883">
        <ele>0</ele>
        <time>2013-05-03T18:21:29Z</time>
      </trkpt>
      <trkpt lat="59.3237148205" lon="17.749859205">
        <ele>0</ele>
        <time>2013-05-03T18:21:30Z</time>
      </trkpt>
      <trkpt lat="59.323787324" lon="17.7497566944">
        <ele>0</ele>
        <time>2013-05-03T18:21:33Z</time>
      </trkpt>
      <trkpt lat="59.3238795249" lon="17.7496190636">
        <ele>0</ele>
        <time>2013-05-03T18:21:35Z</time>
      </trkpt>
      <trkpt lat="59.3239292295" lon="17.7495155471">
        <ele>0</ele>
        <time>2013-05-03T18:21:36Z</time>
      </trkpt>
      <trkpt lat="59.3240845461" lon="17.7491588973">
        <ele>0</ele>
        <time>2013-05-03T18:21:39Z</time>
      </trkpt>
      <trkpt lat="59.3241424651" lon="17.749029816">
        <ele>0</ele>
        <time>2013-05-03T18:21:40Z</time>
      </trkpt>
      <trkpt lat="59.324551418" lon="17.7481321984">
        <ele>0</ele>
        <time>2013-05-03T18:21:47Z</time>
      </trkpt>
      <trkpt lat="59.3246183893" lon="17.7479905442">
        <ele>0</ele>
        <time>2013-05-03T18:21:48Z</time>
      </trkpt>
      <trkpt lat="59.3249786434" lon="17.7474283702">
        <ele>0</ele>
        <time>2013-05-03T18:21:53Z</time>
      </trkpt>
      <trkpt lat="59.3250639712" lon="17.7473639972">
        <ele>0</ele>
        <time>2013-05-03T18:21:54Z</time>
      </trkpt>
      <trkpt lat="59.3251513944" lon="17.7473231774">
        <ele>0</ele>
        <time>2013-05-03T18:21:55Z</time>
      </trkpt>
      <trkpt lat="59.3252426733" lon="17.7472949304">
        <ele>0</ele>
        <time>2013-05-03T18:21:56Z</time>
      </trkpt>
      <trkpt lat="59.3253317729" lon="17.7472664319">
        <ele>0</ele>
        <time>2013-05-03T18:21:57Z</time>
      </trkpt>
      <trkpt lat="59.3258793624" lon="17.7471359257">
        <ele>0</ele>
        <time>2013-05-03T18:22:03Z</time>
      </trkpt>
      <trkpt lat="59.3264886427" lon="17.7469817826">
        <ele>0</ele>
        <time>2013-05-03T18:22:10Z</time>
      </trkpt>
      <trkpt lat="59.3267469729" lon="17.7469145597">
        <ele>0</ele>
        <time>2013-05-03T18:22:13Z</time>
      </trkpt>
      <trkpt lat="59.3268295346" lon="17.7468904199">
        <ele>0</ele>
        <time>2013-05-03T18:22:14Z</time>
      </trkpt>
      <trkpt lat="59.3269122639" lon="17.7468697166">
        <ele>0</ele>
        <time>2013-05-03T18:22:15Z</time>
      </trkpt>
      <trkpt lat="59.3269967535" lon="17.7468463311">
        <ele>0</ele>
        <time>2013-05-03T18:22:16Z</time>
      </trkpt>
      <trkpt lat="59.3270788123" lon="17.7468284776">
        <ele>0</ele>
        <time>2013-05-03T18:22:17Z</time>
      </trkpt>
      <trkpt lat="59.3271690015" lon="17.7468014879">
        <ele>0</ele>
        <time>2013-05-03T18:22:18Z</time>
      </trkpt>
      <trkpt lat="59.3273492962" lon="17.7467529567">
        <ele>0</ele>
        <time>2013-05-03T18:22:20Z</time>
      </trkpt>
      <trkpt lat="59.3274388987" lon="17.7467313314">
        <ele>0</ele>
        <time>2013-05-03T18:22:21Z</time>
      </trkpt>
      <trkpt lat="59.3275287527" lon="17.7467118854">
        <ele>0</ele>
        <time>2013-05-03T18:22:22Z</time>
      </trkpt>
      <trkpt lat="59.3276178523" lon="17.7466904277">
        <ele>0</ele>
        <time>2013-05-03T18:22:23Z</time>
      </trkpt>
      <trkpt lat="59.3277051917" lon="17.7466718199">
        <ele>0</ele>
        <time>2013-05-03T18:22:24Z</time>
      </trkpt>
      <trkpt lat="59.3277941236" lon="17.7466524577">
        <ele>0</ele>
        <time>2013-05-03T18:22:25Z</time>
      </trkpt>
      <trkpt lat="59.3280513641" lon="17.746591689">
        <ele>0</ele>
        <time>2013-05-03T18:22:28Z</time>
      </trkpt>
      <trkpt lat="59.3286533522" lon="17.7464838139">
        <ele>0</ele>
        <time>2013-05-03T18:22:35Z</time>
      </trkpt>
      <trkpt lat="59.3287416974" lon="17.7464721631">
        <ele>0</ele>
        <time>2013-05-03T18:22:36Z</time>
      </trkpt>
      <trkpt lat="59.3293051287" lon="17.7464112266">
        <ele>0</ele>
        <time>2013-05-03T18:22:42Z</time>
      </trkpt>
      <trkpt lat="59.3293996766" lon="17.7463988214">
        <ele>0</ele>
        <time>2013-05-03T18:22:43Z</time>
      </trkpt>
      <trkpt lat="59.3294931347" lon="17.7463892661">
        <ele>0</ele>
        <time>2013-05-03T18:22:44Z</time>
      </trkpt>
      <trkpt lat="59.3295881017" lon="17.7463778667">
        <ele>0</ele>
        <time>2013-05-03T18:22:45Z</time>
      </trkpt>
      <trkpt lat="59.3301491861" lon="17.7463218756">
        <ele>0</ele>
        <time>2013-05-03T18:22:51Z</time>
      </trkpt>
      <trkpt lat="59.3307199935" lon="17.7462608554">
        <ele>0</ele>
        <time>2013-05-03T18:22:57Z</time>
      </trkpt>
      <trkpt lat="59.3309090053" lon="17.7462413255">
        <ele>0</ele>
        <time>2013-05-03T18:22:59Z</time>
      </trkpt>
      <trkpt lat="59.3314715984" lon="17.74617536">
        <ele>0</ele>
        <time>2013-05-03T18:23:05Z</time>
      </trkpt>
      <trkpt lat="59.3315591893" lon="17.7461629548">
        <ele>0</ele>
        <time>2013-05-03T18:23:06Z</time>
      </trkpt>
      <trkpt lat="59.3316466125" lon="17.7461515554">
        <ele>0</ele>
        <time>2013-05-03T18:23:07Z</time>
      </trkpt>
      <trkpt lat="59.3317342034" lon="17.7461399884">
        <ele>0</ele>
        <time>2013-05-03T18:23:08Z</time>
      </trkpt>
      <trkpt lat="59.3318238897" lon="17.7461271641">
        <ele>0</ele>
        <time>2013-05-03T18:23:09Z</time>
      </trkpt>
      <trkpt lat="59.3319118996" lon="17.7461116575">
        <ele>0</ele>
        <time>2013-05-03T18:23:10Z</time>
      </trkpt>
      <trkpt lat="59.3322501093" lon="17.7460385674">
        <ele>0</ele>
        <time>2013-05-03T18:23:14Z</time>
      </trkpt>
      <trkpt lat="59.3326418793" lon="17.7458126752">
        <ele>0</ele>
        <time>2013-05-03T18:23:19Z</time>
      </trkpt>
      <trkpt lat="59.3327829467" lon="17.7457408423">
        <ele>0</ele>
        <time>2013-05-03T18:23:21Z</time>
      </trkpt>
      <trkpt lat="59.3328499181" lon="17.7457778903">
        <ele>0</ele>
        <time>2013-05-03T18:23:22Z</time>
      </trkpt>
      <trkpt lat="59.332943041" lon="17.7460050398">
        <ele>0</ele>
        <time>2013-05-03T18:23:24Z</time>
      </trkpt>
      <trkpt lat="59.3330044803" lon="17.7464248891">
        <ele>0</ele>
        <time>2013-05-03T18:23:27Z</time>
      </trkpt>
      <trkpt lat="59.3331925701" lon="17.7466679642">
        <ele>0</ele>
        <time>2013-05-03T18:23:30Z</time>
      </trkpt>
      <trkpt lat="59.3333747088" lon="17.7467703911">
        <ele>0</ele>
        <time>2013-05-03T18:23:32Z</time>
      </trkpt>
      <trkpt lat="59.3334763813" lon="17.7468254601">
        <ele>0</ele>
        <time>2013-05-03T18:23:33Z</time>
      </trkpt>
      <trkpt lat="59.3335809036" lon="17.7468831276">
        <ele>0</ele>
        <time>2013-05-03T18:23:34Z</time>
      </trkpt>
      <trkpt lat="59.3336926343" lon="17.7469443993">
        <ele>0</ele>
        <time>2013-05-03T18:23:35Z</time>
      </trkpt>
      <trkpt lat="59.3337944744" lon="17.7470042461">
        <ele>0</ele>
        <time>2013-05-03T18:23:36Z</time>
      </trkpt>
      <trkpt lat="59.3338964821" lon="17.7470653501">
        <ele>0</ele>
        <time>2013-05-03T18:23:37Z</time>
      </trkpt>
      <trkpt lat="59.3339981545" lon="17.7471264542">
        <ele>0</ele>
        <time>2013-05-03T18:23:38Z</time>
      </trkpt>
      <trkpt lat="59.3342050198" lon="17.7472609837">
        <ele>0</ele>
        <time>2013-05-03T18:23:40Z</time>
      </trkpt>
      <trkpt lat="59.3347251167" lon="17.7476249258">
        <ele>0</ele>
        <time>2013-05-03T18:23:45Z</time>
      </trkpt>
      <trkpt lat="59.3348204189" lon="17.7477221558">
        <ele>0</ele>
        <time>2013-05-03T18:23:46Z</time>
      </trkpt>
      <trkpt lat="59.3349051599" lon="17.7478319587">
        <ele>0</ele>
        <time>2013-05-03T18:23:47Z</time>
      </trkpt>
      <trkpt lat="59.3351306331" lon="17.7482129999">
        <ele>0</ele>
        <time>2013-05-03T18:23:50Z</time>
      </trkpt>
      <trkpt lat="59.3355426034" lon="17.7489490145">
        <ele>0</ele>
        <time>2013-05-03T18:23:56Z</time>
      </trkpt>
      <trkpt lat="59.3356106645" lon="17.7490723961">
        <ele>0</ele>
        <time>2013-05-03T18:23:57Z</time>
      </trkpt>
      <trkpt lat="59.3356741993" lon="17.7491847974">
        <ele>0</ele>
        <time>2013-05-03T18:23:58Z</time>
      </trkpt>
      <trkpt lat="59.3357343813" lon="17.7492971148">
        <ele>0</ele>
        <time>2013-05-03T18:23:59Z</time>
      </trkpt>
      <trkpt lat="59.335795653" lon="17.7493913274">
        <ele>0</ele>
        <time>2013-05-03T18:24:00Z</time>
      </trkpt>
      <trkpt lat="59.3358533205" lon="17.7494898985">
        <ele>0</ele>
        <time>2013-05-03T18:24:01Z</time>
      </trkpt>
      <trkpt lat="59.3359052044" lon="17.749588302">
        <ele>0</ele>
        <time>2013-05-03T18:24:02Z</time>
      </trkpt>
      <trkpt lat="59.3360510495" lon="17.7498544273">
        <ele>0</ele>
        <time>2013-05-03T18:24:05Z</time>
      </trkpt>
      <trkpt lat="59.3360984072" lon="17.7499437784">
        <ele>0</ele>
        <time>2013-05-03T18:24:06Z</time>
      </trkpt>
      <trkpt lat="59.3362931188" lon="17.750426492">
        <ele>0</ele>
        <time>2013-05-03T18:24:11Z</time>
      </trkpt>
      <trkpt lat="59.3364295761" lon="17.7509177552">
        <ele>0</ele>
        <time>2013-05-03T18:24:16Z</time>
      </trkpt>
      <trkpt lat="59.336466205" lon="17.7510028315">
        <ele>0</ele>
        <time>2013-05-03T18:24:17Z</time>
      </trkpt>
      <trkpt lat="59.3365990581" lon="17.7512522768">
        <ele>0</ele>
        <time>2013-05-03T18:24:20Z</time>
      </trkpt>
      <trkpt lat="59.3367201766" lon="17.7517168855">
        <ele>0</ele>
        <time>2013-05-03T18:24:24Z</time>
      </trkpt>
      <trkpt lat="59.3367663608" lon="17.7521296103">
        <ele>0</ele>
        <time>2013-05-03T18:24:27Z</time>
      </trkpt>
      <trkpt lat="59.3367940211" lon="17.7523894492">
        <ele>0</ele>
        <time>2013-05-03T18:24:29Z</time>
      </trkpt>
      <trkpt lat="59.3368277163" lon="17.7529279863">
        <ele>0</ele>
        <time>2013-05-03T18:24:33Z</time>
      </trkpt>
      <trkpt lat="59.3368388643" lon="17.7530517869">
        <ele>0</ele>
        <time>2013-05-03T18:24:34Z</time>
      </trkpt>
      <trkpt lat="59.3368495931" lon="17.753176342">
        <ele>0</ele>
        <time>2013-05-03T18:24:35Z</time>
      </trkpt>
      <trkpt lat="59.3368582265" lon="17.7533023219">
        <ele>0</ele>
        <time>2013-05-03T18:24:36Z</time>
      </trkpt>
      <trkpt lat="59.3368717213" lon="17.7534223507">
        <ele>0</ele>
        <time>2013-05-03T18:24:37Z</time>
      </trkpt>
      <trkpt lat="59.3368979567" lon="17.7535326565">
        <ele>0</ele>
        <time>2013-05-03T18:24:38Z</time>
      </trkpt>
      <trkpt lat="59.3369371001" lon="17.7536339099">
        <ele>0</ele>
        <time>2013-05-03T18:24:39Z</time>
      </trkpt>
      <trkpt lat="59.3371560354" lon="17.7540166274">
        <ele>0</ele>
        <time>2013-05-03T18:24:43Z</time>
      </trkpt>
      <trkpt lat="59.3372160498" lon="17.7541069843">
        <ele>0</ele>
        <time>2013-05-03T18:24:44Z</time>
      </trkpt>
      <trkpt lat="59.3372759804" lon="17.7541866962">
        <ele>0</ele>
        <time>2013-05-03T18:24:45Z</time>
      </trkpt>
      <trkpt lat="59.3373323905" lon="17.7542624686">
        <ele>0</ele>
        <time>2013-05-03T18:24:46Z</time>
      </trkpt>
      <trkpt lat="59.337493323" lon="17.7545353832">
        <ele>0</ele>
        <time>2013-05-03T18:24:49Z</time>
      </trkpt>
      <trkpt lat="59.3376059758" lon="17.7548307614">
        <ele>0</ele>
        <time>2013-05-03T18:24:52Z</time>
      </trkpt>
      <trkpt lat="59.337635983" lon="17.7549390555">
        <ele>0</ele>
        <time>2013-05-03T18:24:53Z</time>
      </trkpt>
      <trkpt lat="59.3377135994" lon="17.7552537121">
        <ele>0</ele>
        <time>2013-05-03T18:24:56Z</time>
      </trkpt>
      <trkpt lat="59.3377422655" lon="17.7553526185">
        <ele>0</ele>
        <time>2013-05-03T18:24:57Z</time>
      </trkpt>
      <trkpt lat="59.3377770503" lon="17.7554557158">
        <ele>0</ele>
        <time>2013-05-03T18:24:58Z</time>
      </trkpt>
      <trkpt lat="59.3378114161" lon="17.7555636747">
        <ele>0</ele>
        <time>2013-05-03T18:24:59Z</time>
      </trkpt>
      <trkpt lat="59.3378478774" lon="17.7556636708">
        <ele>0</ele>
        <time>2013-05-03T18:25:00Z</time>
      </trkpt>
      <trkpt lat="59.3379176986" lon="17.7558753138">
        <ele>0</ele>
        <time>2013-05-03T18:25:02Z</time>
      </trkpt>
      <trkpt lat="59.3379549981" lon="17.7559792493">
        <ele>0</ele>
        <time>2013-05-03T18:25:03Z</time>
      </trkpt>
      <trkpt lat="59.3379983325" lon="17.7560899742">
        <ele>0</ele>
        <time>2013-05-03T18:25:04Z</time>
      </trkpt>
      <trkpt lat="59.3380407449" lon="17.7561920658">
        <ele>0</ele>
        <time>2013-05-03T18:25:05Z</time>
      </trkpt>
      <trkpt lat="59.3380844984" lon="17.7562933191">
        <ele>0</ele>
        <time>2013-05-03T18:25:06Z</time>
      </trkpt>
      <trkpt lat="59.3384364544" lon="17.7569925372">
        <ele>0</ele>
        <time>2013-05-03T18:25:13Z</time>
      </trkpt>
      <trkpt lat="59.3386624304" lon="17.7573255501">
        <ele>0</ele>
        <time>2013-05-03T18:25:17Z</time>
      </trkpt>
      <trkpt lat="59.3387937748" lon="17.7574723172">
        <ele>0</ele>
        <time>2013-05-03T18:25:19Z</time>
      </trkpt>
      <trkpt lat="59.3390696231" lon="17.7578307272">
        <ele>0</ele>
        <time>2013-05-03T18:25:23Z</time>
      </trkpt>
      <trkpt lat="59.3394373371" lon="17.7584613814">
        <ele>0</ele>
        <time>2013-05-03T18:25:29Z</time>
      </trkpt>
      <trkpt lat="59.3397862756" lon="17.7591294188">
        <ele>0</ele>
        <time>2013-05-03T18:25:35Z</time>
      </trkpt>
      <trkpt lat="59.3398310349" lon="17.7592701509">
        <ele>0</ele>
        <time>2013-05-03T18:25:36Z</time>
      </trkpt>
      <trkpt lat="59.3399420951" lon="17.7597193369">
        <ele>0</ele>
        <time>2013-05-03T18:25:39Z</time>
      </trkpt>
      <trkpt lat="59.3401545763" lon="17.7603940799">
        <ele>0</ele>
        <time>2013-05-03T18:25:44Z</time>
      </trkpt>
      <trkpt lat="59.3404952167" lon="17.7610097304">
        <ele>0</ele>
        <time>2013-05-03T18:25:49Z</time>
      </trkpt>
      <trkpt lat="59.3405831428" lon="17.7611228861">
        <ele>0</ele>
        <time>2013-05-03T18:25:50Z</time>
      </trkpt>
      <trkpt lat="59.3407797822" lon="17.7612817231">
        <ele>0</ele>
        <time>2013-05-03T18:25:52Z</time>
      </trkpt>
      <trkpt lat="59.3408806165" lon="17.7613392229">
        <ele>0</ele>
        <time>2013-05-03T18:25:53Z</time>
      </trkpt>
      <trkpt lat="59.340984552" lon="17.7613943758">
        <ele>0</ele>
        <time>2013-05-03T18:25:54Z</time>
      </trkpt>
      <trkpt lat="59.341087817" lon="17.761457743">
        <ele>0</ele>
        <time>2013-05-03T18:25:55Z</time>
      </trkpt>
      <trkpt lat="59.3411870587" lon="17.7615260555">
        <ele>0</ele>
        <time>2013-05-03T18:25:56Z</time>
      </trkpt>
      <trkpt lat="59.3412920001" lon="17.761595709">
        <ele>0</ele>
        <time>2013-05-03T18:25:57Z</time>
      </trkpt>
      <trkpt lat="59.3413863803" lon="17.7616683801">
        <ele>0</ele>
        <time>2013-05-03T18:25:58Z</time>
      </trkpt>
      <trkpt lat="59.3414801738" lon="17.7617445716">
        <ele>0</ele>
        <time>2013-05-03T18:25:59Z</time>
      </trkpt>
      <trkpt lat="59.3417621409" lon="17.7619915862">
        <ele>0</ele>
        <time>2013-05-03T18:26:02Z</time>
      </trkpt>
      <trkpt lat="59.3418534198" lon="17.7620753214">
        <ele>0</ele>
        <time>2013-05-03T18:26:03Z</time>
      </trkpt>
      <trkpt lat="59.3419402562" lon="17.7621624093">
        <ele>0</ele>
        <time>2013-05-03T18:26:04Z</time>
      </trkpt>
      <trkpt lat="59.3420275956" lon="17.7622483238">
        <ele>0</ele>
        <time>2013-05-03T18:26:05Z</time>
      </trkpt>
      <trkpt lat="59.342114935" lon="17.7623334839">
        <ele>0</ele>
        <time>2013-05-03T18:26:06Z</time>
      </trkpt>
      <trkpt lat="59.3422031126" lon="17.7624183087">
        <ele>0</ele>
        <time>2013-05-03T18:26:07Z</time>
      </trkpt>
      <trkpt lat="59.3422915417" lon="17.7625001999">
        <ele>0</ele>
        <time>2013-05-03T18:26:08Z</time>
      </trkpt>
      <trkpt lat="59.3423809766" lon="17.7625808338">
        <ele>0</ele>
        <time>2013-05-03T18:26:09Z</time>
      </trkpt>
      <trkpt lat="59.3424665557" lon="17.7626611324">
        <ele>0</ele>
        <time>2013-05-03T18:26:10Z</time>
      </trkpt>
      <trkpt lat="59.3425517997" lon="17.7627362342">
        <ele>0</ele>
        <time>2013-05-03T18:26:11Z</time>
      </trkpt>
      <trkpt lat="59.342981372" lon="17.7631176106">
        <ele>0</ele>
        <time>2013-05-03T18:26:16Z</time>
      </trkpt>
      <trkpt lat="59.3430659454" lon="17.7631945565">
        <ele>0</ele>
        <time>2013-05-03T18:26:17Z</time>
      </trkpt>
      <trkpt lat="59.3431533686" lon="17.7632747713">
        <ele>0</ele>
        <time>2013-05-03T18:26:18Z</time>
      </trkpt>
      <trkpt lat="59.3432408757" lon="17.7633512142">
        <ele>0</ele>
        <time>2013-05-03T18:26:19Z</time>
      </trkpt>
      <trkpt lat="59.3433341662" lon="17.7634366257">
        <ele>0</ele>
        <time>2013-05-03T18:26:20Z</time>
      </trkpt>
      <trkpt lat="59.3435986152" lon="17.7636822154">
        <ele>0</ele>
        <time>2013-05-03T18:26:23Z</time>
      </trkpt>
      <trkpt lat="59.3436873795" lon="17.7637642742">
        <ele>0</ele>
        <time>2013-05-03T18:26:24Z</time>
      </trkpt>
      <trkpt lat="59.3437768144" lon="17.7638386217">
        <ele>0</ele>
        <time>2013-05-03T18:26:25Z</time>
      </trkpt>
      <trkpt lat="59.3438647405" lon="17.7639147293">
        <ele>0</ele>
        <time>2013-05-03T18:26:26Z</time>
      </trkpt>
      <trkpt lat="59.3440447837" lon="17.7640765">
        <ele>0</ele>
        <time>2013-05-03T18:26:28Z</time>
      </trkpt>
      <trkpt lat="59.344212757" lon="17.7642294697">
        <ele>0</ele>
        <time>2013-05-03T18:26:30Z</time>
      </trkpt>
      <trkpt lat="59.3442954863" lon="17.7642973631">
        <ele>0</ele>
        <time>2013-05-03T18:26:31Z</time>
      </trkpt>
      <trkpt lat="59.3443748629" lon="17.7643602273">
        <ele>0</ele>
        <time>2013-05-03T18:26:32Z</time>
      </trkpt>
      <trkpt lat="59.3444490427" lon="17.7644183977">
        <ele>0</ele>
        <time>2013-05-03T18:26:33Z</time>
      </trkpt>
      <trkpt lat="59.3445202051" lon="17.7644665098">
        <ele>0</ele>
        <time>2013-05-03T18:26:34Z</time>
      </trkpt>
      <trkpt lat="59.3448414833" lon="17.7646647417">
        <ele>0</ele>
        <time>2013-05-03T18:26:39Z</time>
      </trkpt>
      <trkpt lat="59.3449025035" lon="17.7646891331">
        <ele>0</ele>
        <time>2013-05-03T18:26:40Z</time>
      </trkpt>
      <trkpt lat="59.3449693911" lon="17.7647168772">
        <ele>0</ele>
        <time>2013-05-03T18:26:41Z</time>
      </trkpt>
      <trkpt lat="59.3450351052" lon="17.7647369099">
        <ele>0</ele>
        <time>2013-05-03T18:26:42Z</time>
      </trkpt>
      <trkpt lat="59.345104675" lon="17.7647514944">
        <ele>0</ele>
        <time>2013-05-03T18:26:43Z</time>
      </trkpt>
      <trkpt lat="59.3451701376" lon="17.7647611336">
        <ele>0</ele>
        <time>2013-05-03T18:26:44Z</time>
      </trkpt>
      <trkpt lat="59.3452330857" lon="17.764764654">
        <ele>0</ele>
        <time>2013-05-03T18:26:45Z</time>
      </trkpt>
      <trkpt lat="59.3452979616" lon="17.7647594572">
        <ele>0</ele>
        <time>2013-05-03T18:26:46Z</time>
      </trkpt>
      <trkpt lat="59.3453583112" lon="17.7647575294">
        <ele>0</ele>
        <time>2013-05-03T18:26:47Z</time>
      </trkpt>
      <trkpt lat="59.3454176551" lon="17.7647483093">
        <ele>0</ele>
        <time>2013-05-03T18:26:48Z</time>
      </trkpt>
      <trkpt lat="59.3454782562" lon="17.7647420229">
        <ele>0</ele>
        <time>2013-05-03T18:26:49Z</time>
      </trkpt>
      <trkpt lat="59.3455446409" lon="17.7647327189">
        <ele>0</ele>
        <time>2013-05-03T18:26:50Z</time>
      </trkpt>
      <trkpt lat="59.345818729" lon="17.7646442899">
        <ele>0</ele>
        <time>2013-05-03T18:26:54Z</time>
      </trkpt>
      <trkpt lat="59.3462493072" lon="17.7644169728">
        <ele>0</ele>
        <time>2013-05-03T18:27:00Z</time>
      </trkpt>
      <trkpt lat="59.3466973198" lon="17.7641419626">
        <ele>0</ele>
        <time>2013-05-03T18:27:06Z</time>
      </trkpt>
      <trkpt lat="59.3467732598" lon="17.7640965327">
        <ele>0</ele>
        <time>2013-05-03T18:27:07Z</time>
      </trkpt>
      <trkpt lat="59.3468504571" lon="17.7640547909">
        <ele>0</ele>
        <time>2013-05-03T18:27:08Z</time>
      </trkpt>
      <trkpt lat="59.3469305042" lon="17.7640126299">
        <ele>0</ele>
        <time>2013-05-03T18:27:09Z</time>
      </trkpt>
      <trkpt lat="59.3470094617" lon="17.7639744923">
        <ele>0</ele>
        <time>2013-05-03T18:27:10Z</time>
      </trkpt>
      <trkpt lat="59.3472421433" lon="17.7638404657">
        <ele>0</ele>
        <time>2013-05-03T18:27:13Z</time>
      </trkpt>
      <trkpt lat="59.3477344961" lon="17.7635036809">
        <ele>0</ele>
        <time>2013-05-03T18:27:20Z</time>
      </trkpt>
      <trkpt lat="59.3482245858" lon="17.7630270023">
        <ele>0</ele>
        <time>2013-05-03T18:27:27Z</time>
      </trkpt>
      <trkpt lat="59.3484350553" lon="17.7627744556">
        <ele>0</ele>
        <time>2013-05-03T18:27:30Z</time>
      </trkpt>
      <trkpt lat="59.3484747017" lon="17.7626429436">
        <ele>0</ele>
        <time>2013-05-03T18:27:31Z</time>
      </trkpt>
      <trkpt lat="59.3484669903" lon="17.7623489066">
        <ele>0</ele>
        <time>2013-05-03T18:27:33Z</time>
      </trkpt>
      <trkpt lat="59.3484411741" lon="17.7622002955">
        <ele>0</ele>
        <time>2013-05-03T18:27:34Z</time>
      </trkpt>
      <trkpt lat="59.3484135976" lon="17.7620440569">
        <ele>0</ele>
        <time>2013-05-03T18:27:35Z</time>
      </trkpt>
      <trkpt lat="59.3483884519" lon="17.7618951943">
        <ele>0</ele>
        <time>2013-05-03T18:27:36Z</time>
      </trkpt>
      <trkpt lat="59.3483641444" lon="17.7617469185">
        <ele>0</ele>
        <time>2013-05-03T18:27:37Z</time>
      </trkpt>
      <trkpt lat="59.3483128472" lon="17.7614548093">
        <ele>0</ele>
        <time>2013-05-03T18:27:39Z</time>
      </trkpt>
      <trkpt lat="59.3481494839" lon="17.7604246738">
        <ele>0</ele>
        <time>2013-05-03T18:27:46Z</time>
      </trkpt>
      <trkpt lat="59.3480584565" lon="17.7598074307">
        <ele>0</ele>
        <time>2013-05-03T18:27:50Z</time>
      </trkpt>
      <trkpt lat="59.3480373341" lon="17.7596435645">
        <ele>0</ele>
        <time>2013-05-03T18:27:51Z</time>
      </trkpt>
      <trkpt lat="59.3480173852" lon="17.7594827159">
        <ele>0</ele>
        <time>2013-05-03T18:27:52Z</time>
      </trkpt>
      <trkpt lat="59.3479978554" lon="17.7593229569">
        <ele>0</ele>
        <time>2013-05-03T18:27:53Z</time>
      </trkpt>
      <trkpt lat="59.3479792476" lon="17.7591597613">
        <ele>0</ele>
        <time>2013-05-03T18:27:54Z</time>
      </trkpt>
      <trkpt lat="59.3479261063" lon="17.7580006283">
        <ele>0</ele>
        <time>2013-05-03T18:28:01Z</time>
      </trkpt>
      <trkpt lat="59.3479784932" lon="17.7569925372">
        <ele>0</ele>
        <time>2013-05-03T18:28:07Z</time>
      </trkpt>
      <trkpt lat="59.347989222" lon="17.7568266594">
        <ele>0</ele>
        <time>2013-05-03T18:28:08Z</time>
      </trkpt>
      <trkpt lat="59.3479988612" lon="17.7566611169">
        <ele>0</ele>
        <time>2013-05-03T18:28:09Z</time>
      </trkpt>
      <trkpt lat="59.3480064887" lon="17.7564951553">
        <ele>0</ele>
        <time>2013-05-03T18:28:10Z</time>
      </trkpt>
      <trkpt lat="59.3480122722" lon="17.7563325464">
        <ele>0</ele>
        <time>2013-05-03T18:28:11Z</time>
      </trkpt>
      <trkpt lat="59.3480527568" lon="17.7556775847">
        <ele>0</ele>
        <time>2013-05-03T18:28:15Z</time>
      </trkpt>
      <trkpt lat="59.3481075744" lon="17.7548440048">
        <ele>0</ele>
        <time>2013-05-03T18:28:20Z</time>
      </trkpt>
      <trkpt lat="59.3481671698" lon="17.7538513364">
        <ele>0</ele>
        <time>2013-05-03T18:28:26Z</time>
      </trkpt>
      <trkpt lat="59.3481749649" lon="17.753686632">
        <ele>0</ele>
        <time>2013-05-03T18:28:27Z</time>
      </trkpt>
      <trkpt lat="59.3481829277" lon="17.7535240232">
        <ele>0</ele>
        <time>2013-05-03T18:28:28Z</time>
      </trkpt>
      <trkpt lat="59.348195752" lon="17.7533544573">
        <ele>0</ele>
        <time>2013-05-03T18:28:29Z</time>
      </trkpt>
      <trkpt lat="59.3481973446" lon="17.75236313">
        <ele>0</ele>
        <time>2013-05-03T18:28:35Z</time>
      </trkpt>
      <trkpt lat="59.3480920679" lon="17.7515536061">
        <ele>0</ele>
        <time>2013-05-03T18:28:40Z</time>
      </trkpt>
      <trkpt lat="59.3479041457" lon="17.7507910209">
        <ele>0</ele>
        <time>2013-05-03T18:28:45Z</time>
      </trkpt>
      <trkpt lat="59.3478354142" lon="17.7504885181">
        <ele>0</ele>
        <time>2013-05-03T18:28:47Z</time>
      </trkpt>
      <trkpt lat="59.3478092626" lon="17.7503324471">
        <ele>0</ele>
        <time>2013-05-03T18:28:48Z</time>
      </trkpt>
      <trkpt lat="59.3477908224" lon="17.7501774658">
        <ele>0</ele>
        <time>2013-05-03T18:28:49Z</time>
      </trkpt>
      <trkpt lat="59.3477748968" lon="17.7500226521">
        <ele>0</ele>
        <time>2013-05-03T18:28:50Z</time>
      </trkpt>
      <trkpt lat="59.3477659282" lon="17.7498691795">
        <ele>0</ele>
        <time>2013-05-03T18:28:51Z</time>
      </trkpt>
      <trkpt lat="59.3477481586" lon="17.7492437221">
        <ele>0</ele>
        <time>2013-05-03T18:28:55Z</time>
      </trkpt>
      <trkpt lat="59.3478142918" lon="17.7482885208">
        <ele>0</ele>
        <time>2013-05-03T18:29:01Z</time>
      </trkpt>
      <trkpt lat="59.3479513358" lon="17.7471951019">
        <ele>0</ele>
        <time>2013-05-03T18:29:08Z</time>
      </trkpt>
      <trkpt lat="59.3479741346" lon="17.7470401206">
        <ele>0</ele>
        <time>2013-05-03T18:29:09Z</time>
      </trkpt>
      <trkpt lat="59.3480962589" lon="17.7461321094">
        <ele>0</ele>
        <time>2013-05-03T18:29:15Z</time>
      </trkpt>
      <trkpt lat="59.3481301218" lon="17.745689126">
        <ele>0</ele>
        <time>2013-05-03T18:29:18Z</time>
      </trkpt>
      <trkpt lat="59.3481381684" lon="17.7454045605">
        <ele>0</ele>
        <time>2013-05-03T18:29:20Z</time>
      </trkpt>
      <trkpt lat="59.3481359053" lon="17.7445149894">
        <ele>0</ele>
        <time>2013-05-03T18:29:26Z</time>
      </trkpt>
      <trkpt lat="59.3481539264" lon="17.7433678426">
        <ele>0</ele>
        <time>2013-05-03T18:29:33Z</time>
      </trkpt>
      <trkpt lat="59.3482035472" lon="17.7422657904">
        <ele>0</ele>
        <time>2013-05-03T18:29:40Z</time>
      </trkpt>
      <trkpt lat="59.3482120967" lon="17.7421102223">
        <ele>0</ele>
        <time>2013-05-03T18:29:41Z</time>
      </trkpt>
      <trkpt lat="59.3482933174" lon="17.7410325614">
        <ele>0</ele>
        <time>2013-05-03T18:29:48Z</time>
      </trkpt>
      <trkpt lat="59.3483519068" lon="17.7403340977">
        <ele>0</ele>
        <time>2013-05-03T18:29:53Z</time>
      </trkpt>
      <trkpt lat="59.3483904636" lon="17.7402426512">
        <ele>0</ele>
        <time>2013-05-03T18:29:54Z</time>
      </trkpt>
      <trkpt lat="59.3484498074" lon="17.740175093">
        <ele>0</ele>
        <time>2013-05-03T18:29:55Z</time>
      </trkpt>
      <trkpt lat="59.3485192934" lon="17.7401419845">
        <ele>0</ele>
        <time>2013-05-03T18:29:56Z</time>
      </trkpt>
      <trkpt lat="59.3485987538" lon="17.7401577425">
        <ele>0</ele>
        <time>2013-05-03T18:29:57Z</time>
      </trkpt>
      <trkpt lat="59.3486785495" lon="17.7401824691">
        <ele>0</ele>
        <time>2013-05-03T18:29:58Z</time>
      </trkpt>
      <trkpt lat="59.3487578423" lon="17.7402062737">
        <ele>0</ele>
        <time>2013-05-03T18:29:59Z</time>
      </trkpt>
      <trkpt lat="59.349350694" lon="17.7403337624">
        <ele>0</ele>
        <time>2013-05-03T18:30:06Z</time>
      </trkpt>
      <trkpt lat="59.3495311563" lon="17.7403724868">
        <ele>0</ele>
        <time>2013-05-03T18:30:08Z</time>
      </trkpt>
      <trkpt lat="59.3496209265" lon="17.7403858978">
        <ele>0</ele>
        <time>2013-05-03T18:30:09Z</time>
      </trkpt>
      <trkpt lat="59.3497111157" lon="17.7403969619">
        <ele>0</ele>
        <time>2013-05-03T18:30:10Z</time>
      </trkpt>
      <trkpt lat="59.3498020594" lon="17.740409451">
        <ele>0</ele>
        <time>2013-05-03T18:30:11Z</time>
      </trkpt>
      <trkpt lat="59.3498928353" lon="17.7404190902">
        <ele>0</ele>
        <time>2013-05-03T18:30:12Z</time>
      </trkpt>
      <trkpt lat="59.3499845333" lon="17.7404242031">
        <ele>0</ele>
        <time>2013-05-03T18:30:13Z</time>
      </trkpt>
      <trkpt lat="59.3505485514" lon="17.7403721515">
        <ele>0</ele>
        <time>2013-05-03T18:30:19Z</time>
      </trkpt>
      <trkpt lat="59.3511015891" lon="17.7401848999">
        <ele>0</ele>
        <time>2013-05-03T18:30:25Z</time>
      </trkpt>
      <trkpt lat="59.3511894314" lon="17.7401507017">
        <ele>0</ele>
        <time>2013-05-03T18:30:26Z</time>
      </trkpt>
      <trkpt lat="59.3517539524" lon="17.7399237199">
        <ele>0</ele>
        <time>2013-05-03T18:30:32Z</time>
      </trkpt>
      <trkpt lat="59.3518488355" lon="17.7398842411">
        <ele>0</ele>
        <time>2013-05-03T18:30:33Z</time>
      </trkpt>
      <trkpt lat="59.3524137756" lon="17.7396557505">
        <ele>0</ele>
        <time>2013-05-03T18:30:39Z</time>
      </trkpt>
      <trkpt lat="59.3526911326" lon="17.7395451094">
        <ele>0</ele>
        <time>2013-05-03T18:30:42Z</time>
      </trkpt>
      <trkpt lat="59.353270741" lon="17.7393083208">
        <ele>0</ele>
        <time>2013-05-03T18:30:48Z</time>
      </trkpt>
      <trkpt lat="59.3535567315" lon="17.7391933211">
        <ele>0</ele>
        <time>2013-05-03T18:30:51Z</time>
      </trkpt>
      <trkpt lat="59.3541224259" lon="17.7389626512">
        <ele>0</ele>
        <time>2013-05-03T18:30:57Z</time>
      </trkpt>
      <trkpt lat="59.3542128666" lon="17.7389250165">
        <ele>0</ele>
        <time>2013-05-03T18:30:58Z</time>
      </trkpt>
      <trkpt lat="59.3547523257" lon="17.7387170615">
        <ele>0</ele>
        <time>2013-05-03T18:31:04Z</time>
      </trkpt>
      <trkpt lat="59.3549303572" lon="17.7386479109">
        <ele>0</ele>
        <time>2013-05-03T18:31:06Z</time>
      </trkpt>
      <trkpt lat="59.3554763542" lon="17.7384293947">
        <ele>0</ele>
        <time>2013-05-03T18:31:12Z</time>
      </trkpt>
      <trkpt lat="59.3556563136" lon="17.7383572266">
        <ele>0</ele>
        <time>2013-05-03T18:31:14Z</time>
      </trkpt>
      <trkpt lat="59.3562090999" lon="17.7381255509">
        <ele>0</ele>
        <time>2013-05-03T18:31:20Z</time>
      </trkpt>
      <trkpt lat="59.3565787417" lon="17.7379770236">
        <ele>0</ele>
        <time>2013-05-03T18:31:24Z</time>
      </trkpt>
      <trkpt lat="59.3571271694" lon="17.7377710803">
        <ele>0</ele>
        <time>2013-05-03T18:31:30Z</time>
      </trkpt>
      <trkpt lat="59.3574025986" lon="17.7376572541">
        <ele>0</ele>
        <time>2013-05-03T18:31:33Z</time>
      </trkpt>
      <trkpt lat="59.357682135" lon="17.7375483732">
        <ele>0</ele>
        <time>2013-05-03T18:31:36Z</time>
      </trkpt>
      <trkpt lat="59.3577741683" lon="17.7375124987">
        <ele>0</ele>
        <time>2013-05-03T18:31:37Z</time>
      </trkpt>
      <trkpt lat="59.3578644413" lon="17.7374780491">
        <ele>0</ele>
        <time>2013-05-03T18:31:38Z</time>
      </trkpt>
      <trkpt lat="59.3579605817" lon="17.7374400791">
        <ele>0</ele>
        <time>2013-05-03T18:31:39Z</time>
      </trkpt>
      <trkpt lat="59.3580517768" lon="17.7374017738">
        <ele>0</ele>
        <time>2013-05-03T18:31:40Z</time>
      </trkpt>
      <trkpt lat="59.3582315685" lon="17.7373277616">
        <ele>0</ele>
        <time>2013-05-03T18:31:42Z</time>
      </trkpt>
      <trkpt lat="59.3587618075" lon="17.7371186332">
        <ele>0</ele>
        <time>2013-05-03T18:31:48Z</time>
      </trkpt>
      <trkpt lat="59.3588471353" lon="17.7370880393">
        <ele>0</ele>
        <time>2013-05-03T18:31:49Z</time>
      </trkpt>
      <trkpt lat="59.3589318763" lon="17.7370531706">
        <ele>0</ele>
        <time>2013-05-03T18:31:50Z</time>
      </trkpt>
      <trkpt lat="59.3590168688" lon="17.7370134404">
        <ele>0</ele>
        <time>2013-05-03T18:31:51Z</time>
      </trkpt>
      <trkpt lat="59.3590975026" lon="17.7369804995">
        <ele>0</ele>
        <time>2013-05-03T18:31:52Z</time>
      </trkpt>
      <trkpt lat="59.3591814893" lon="17.736946469">
        <ele>0</ele>
        <time>2013-05-03T18:31:53Z</time>
      </trkpt>
      <trkpt lat="59.3594355447" lon="17.7368378396">
        <ele>0</ele>
        <time>2013-05-03T18:31:56Z</time>
      </trkpt>
      <trkpt lat="59.3599820445" lon="17.7366083431">
        <ele>0</ele>
        <time>2013-05-03T18:32:03Z</time>
      </trkpt>
      <trkpt lat="59.3605195758" lon="17.7364141345">
        <ele>0</ele>
        <time>2013-05-03T18:32:10Z</time>
      </trkpt>
      <trkpt lat="59.3606739704" lon="17.7363521923">
        <ele>0</ele>
        <time>2013-05-03T18:32:12Z</time>
      </trkpt>
      <trkpt lat="59.3607494075" lon="17.7363210954">
        <ele>0</ele>
        <time>2013-05-03T18:32:13Z</time>
      </trkpt>
      <trkpt lat="59.3608252637" lon="17.7362915073">
        <ele>0</ele>
        <time>2013-05-03T18:32:14Z</time>
      </trkpt>
      <trkpt lat="59.3608997788" lon="17.7362532859">
        <ele>0</ele>
        <time>2013-05-03T18:32:15Z</time>
      </trkpt>
      <trkpt lat="59.3611290237" lon="17.7361667008">
        <ele>0</ele>
        <time>2013-05-03T18:32:18Z</time>
      </trkpt>
      <trkpt lat="59.3615823169" lon="17.7359321753">
        <ele>0</ele>
        <time>2013-05-03T18:32:24Z</time>
      </trkpt>
      <trkpt lat="59.3617761064" lon="17.7357031818">
        <ele>0</ele>
        <time>2013-05-03T18:32:28Z</time>
      </trkpt>
      <trkpt lat="59.3619021702" lon="17.7354098153">
        <ele>0</ele>
        <time>2013-05-03T18:32:32Z</time>
      </trkpt>
      <trkpt lat="59.3620923555" lon="17.7349851882">
        <ele>0</ele>
        <time>2013-05-03T18:32:36Z</time>
      </trkpt>
      <trkpt lat="59.3622335067" lon="17.7345920771">
        <ele>0</ele>
        <time>2013-05-03T18:32:39Z</time>
      </trkpt>
      <trkpt lat="59.3622803615" lon="17.7344696175">
        <ele>0</ele>
        <time>2013-05-03T18:32:40Z</time>
      </trkpt>
      <trkpt lat="59.3623244503" lon="17.7343454816">
        <ele>0</ele>
        <time>2013-05-03T18:32:41Z</time>
      </trkpt>
      <trkpt lat="59.3623654378" lon="17.7342212618">
        <ele>0</ele>
        <time>2013-05-03T18:32:42Z</time>
      </trkpt>
      <trkpt lat="59.3624090237" lon="17.7341001434">
        <ele>0</ele>
        <time>2013-05-03T18:32:43Z</time>
      </trkpt>
      <trkpt lat="59.3626348321" lon="17.7333290086">
        <ele>0</ele>
        <time>2013-05-03T18:32:49Z</time>
      </trkpt>
      <trkpt lat="59.3628808408" lon="17.7322996274">
        <ele>0</ele>
        <time>2013-05-03T18:32:56Z</time>
      </trkpt>
      <trkpt lat="59.3631141091" lon="17.7311820687">
        <ele>0</ele>
        <time>2013-05-03T18:33:03Z</time>
      </trkpt>
      <trkpt lat="59.3631371593" lon="17.7310270874">
        <ele>0</ele>
        <time>2013-05-03T18:33:04Z</time>
      </trkpt>
      <trkpt lat="59.3631649872" lon="17.7308721061">
        <ele>0</ele>
        <time>2013-05-03T18:33:05Z</time>
      </trkpt>
      <trkpt lat="59.3631874507" lon="17.7307208966">
        <ele>0</ele>
        <time>2013-05-03T18:33:06Z</time>
      </trkpt>
      <trkpt lat="59.3632116744" lon="17.7305738781">
        <ele>0</ele>
        <time>2013-05-03T18:33:07Z</time>
      </trkpt>
      <trkpt lat="59.3632355628" lon="17.7304219142">
        <ele>0</ele>
        <time>2013-05-03T18:33:08Z</time>
      </trkpt>
      <trkpt lat="59.3632815795" lon="17.7301097723">
        <ele>0</ele>
        <time>2013-05-03T18:33:10Z</time>
      </trkpt>
      <trkpt lat="59.3634109122" lon="17.7289879388">
        <ele>0</ele>
        <time>2013-05-03T18:33:17Z</time>
      </trkpt>
      <trkpt lat="59.3635083937" lon="17.728136673">
        <ele>0</ele>
        <time>2013-05-03T18:33:22Z</time>
      </trkpt>
      <trkpt lat="59.3635244031" lon="17.727950511">
        <ele>0</ele>
        <time>2013-05-03T18:33:23Z</time>
      </trkpt>
      <trkpt lat="59.3635473695" lon="17.7277523629">
        <ele>0</ele>
        <time>2013-05-03T18:33:24Z</time>
      </trkpt>
      <trkpt lat="59.3635705874" lon="17.7275566455">
        <ele>0</ele>
        <time>2013-05-03T18:33:25Z</time>
      </trkpt>
      <trkpt lat="59.3635886085" lon="17.7273588327">
        <ele>0</ele>
        <time>2013-05-03T18:33:26Z</time>
      </trkpt>
      <trkpt lat="59.3636670631" lon="17.7265573554">
        <ele>0</ele>
        <time>2013-05-03T18:33:30Z</time>
      </trkpt>
      <trkpt lat="59.3636814799" lon="17.7263635659">
        <ele>0</ele>
        <time>2013-05-03T18:33:31Z</time>
      </trkpt>
      <trkpt lat="59.3636943042" lon="17.7261572035">
        <ele>0</ele>
        <time>2013-05-03T18:33:32Z</time>
      </trkpt>
      <trkpt lat="59.3637079667" lon="17.7259695327">
        <ele>0</ele>
        <time>2013-05-03T18:33:33Z</time>
      </trkpt>
      <trkpt lat="59.363720791" lon="17.7257914174">
        <ele>0</ele>
        <time>2013-05-03T18:33:34Z</time>
      </trkpt>
      <trkpt lat="59.3637350403" lon="17.7256254558">
        <ele>0</ele>
        <time>2013-05-03T18:33:35Z</time>
      </trkpt>
      <trkpt lat="59.3637515526" lon="17.7254594103">
        <ele>0</ele>
        <time>2013-05-03T18:33:36Z</time>
      </trkpt>
      <trkpt lat="59.3637742676" lon="17.725283139">
        <ele>0</ele>
        <time>2013-05-03T18:33:37Z</time>
      </trkpt>
      <trkpt lat="59.36383797" lon="17.7245615412">
        <ele>0</ele>
        <time>2013-05-03T18:33:41Z</time>
      </trkpt>
      <trkpt lat="59.3639293327" lon="17.7233798609">
        <ele>0</ele>
        <time>2013-05-03T18:33:48Z</time>
      </trkpt>
      <trkpt lat="59.363945426" lon="17.7232159948">
        <ele>0</ele>
        <time>2013-05-03T18:33:49Z</time>
      </trkpt>
      <trkpt lat="59.3639701526" lon="17.72289589">
        <ele>0</ele>
        <time>2013-05-03T18:33:51Z</time>
      </trkpt>
      <trkpt lat="59.3639828092" lon="17.7227522243">
        <ele>0</ele>
        <time>2013-05-03T18:33:52Z</time>
      </trkpt>
      <trkpt lat="59.363997729" lon="17.7226091452">
        <ele>0</ele>
        <time>2013-05-03T18:33:53Z</time>
      </trkpt>
      <trkpt lat="59.3640092122" lon="17.7224620429">
        <ele>0</ele>
        <time>2013-05-03T18:33:54Z</time>
      </trkpt>
      <trkpt lat="59.364019941" lon="17.7223154434">
        <ele>0</ele>
        <time>2013-05-03T18:33:55Z</time>
      </trkpt>
      <trkpt lat="59.36409915" lon="17.7212560551">
        <ele>0</ele>
        <time>2013-05-03T18:34:02Z</time>
      </trkpt>
      <trkpt lat="59.3641618466" lon="17.7203778834">
        <ele>0</ele>
        <time>2013-05-03T18:34:08Z</time>
      </trkpt>
      <trkpt lat="59.3641731622" lon="17.720247042">
        <ele>0</ele>
        <time>2013-05-03T18:34:09Z</time>
      </trkpt>
      <trkpt lat="59.3641791971" lon="17.7201153623">
        <ele>0</ele>
        <time>2013-05-03T18:34:10Z</time>
      </trkpt>
      <trkpt lat="59.3641890878" lon="17.7199814196">
        <ele>0</ele>
        <time>2013-05-03T18:34:11Z</time>
      </trkpt>
      <trkpt lat="59.3641952904" lon="17.7198479797">
        <ele>0</ele>
        <time>2013-05-03T18:34:12Z</time>
      </trkpt>
      <trkpt lat="59.3642245432" lon="17.7197306331">
        <ele>0</ele>
        <time>2013-05-03T18:34:13Z</time>
      </trkpt>
      <trkpt lat="59.3642790256" lon="17.7196387675">
        <ele>0</ele>
        <time>2013-05-03T18:34:14Z</time>
      </trkpt>
      <trkpt lat="59.3643465837" lon="17.71959317">
        <ele>0</ele>
        <time>2013-05-03T18:34:15Z</time>
      </trkpt>
      <trkpt lat="59.3644241163" lon="17.719586213">
        <ele>0</ele>
        <time>2013-05-03T18:34:16Z</time>
      </trkpt>
      <trkpt lat="59.3645001401" lon="17.7195812677">
        <ele>0</ele>
        <time>2013-05-03T18:34:17Z</time>
      </trkpt>
      <trkpt lat="59.3645884853" lon="17.7195580498">
        <ele>0</ele>
        <time>2013-05-03T18:34:18Z</time>
      </trkpt>
      <trkpt lat="59.3646687839" lon="17.7195324012">
        <ele>0</ele>
        <time>2013-05-03T18:34:19Z</time>
      </trkpt>
      <trkpt lat="59.3648259446" lon="17.719465346">
        <ele>0</ele>
        <time>2013-05-03T18:34:21Z</time>
      </trkpt>
      <trkpt lat="59.365287452" lon="17.7191269687">
        <ele>0</ele>
        <time>2013-05-03T18:34:27Z</time>
      </trkpt>
      <trkpt lat="59.365713001" lon="17.7186351188">
        <ele>0</ele>
        <time>2013-05-03T18:34:33Z</time>
      </trkpt>
      <trkpt lat="59.3660628615" lon="17.7180337175">
        <ele>0</ele>
        <time>2013-05-03T18:34:39Z</time>
      </trkpt>
      <trkpt lat="59.3661592534" lon="17.7178175483">
        <ele>0</ele>
        <time>2013-05-03T18:34:41Z</time>
      </trkpt>
      <trkpt lat="59.3663427332" lon="17.7174013869">
        <ele>0</ele>
        <time>2013-05-03T18:34:45Z</time>
      </trkpt>
      <trkpt lat="59.3663850618" lon="17.7172967808">
        <ele>0</ele>
        <time>2013-05-03T18:34:46Z</time>
      </trkpt>
      <trkpt lat="59.3664299049" lon="17.7171931805">
        <ele>0</ele>
        <time>2013-05-03T18:34:47Z</time>
      </trkpt>
      <trkpt lat="59.3664713115" lon="17.7170930168">
        <ele>0</ele>
        <time>2013-05-03T18:34:48Z</time>
      </trkpt>
      <trkpt lat="59.3665135563" lon="17.7169985528">
        <ele>0</ele>
        <time>2013-05-03T18:34:49Z</time>
      </trkpt>
      <trkpt lat="59.3666723095" lon="17.7166149133">
        <ele>0</ele>
        <time>2013-05-03T18:34:53Z</time>
      </trkpt>
      <trkpt lat="59.3667126264" lon="17.7165189405">
        <ele>0</ele>
        <time>2013-05-03T18:34:54Z</time>
      </trkpt>
      <trkpt lat="59.3667554579" lon="17.7164202017">
        <ele>0</ele>
        <time>2013-05-03T18:34:55Z</time>
      </trkpt>
      <trkpt lat="59.3667991276" lon="17.7163236422">
        <ele>0</ele>
        <time>2013-05-03T18:34:56Z</time>
      </trkpt>
      <trkpt lat="59.3668427973" lon="17.7162206287">
        <ele>0</ele>
        <time>2013-05-03T18:34:57Z</time>
      </trkpt>
      <trkpt lat="59.3668831981" lon="17.7161249912">
        <ele>0</ele>
        <time>2013-05-03T18:34:58Z</time>
      </trkpt>
      <trkpt lat="59.3670453879" lon="17.7157260966">
        <ele>0</ele>
        <time>2013-05-03T18:35:02Z</time>
      </trkpt>
      <trkpt lat="59.3673882076" lon="17.7149199254">
        <ele>0</ele>
        <time>2013-05-03T18:35:10Z</time>
      </trkpt>
      <trkpt lat="59.3676571827" lon="17.7142769499">
        <ele>0</ele>
        <time>2013-05-03T18:35:16Z</time>
      </trkpt>
      <trkpt lat="59.3678398243" lon="17.7138347208">
        <ele>0</ele>
        <time>2013-05-03T18:35:20Z</time>
      </trkpt>
      <trkpt lat="59.367886763" lon="17.7137249179">
        <ele>0</ele>
        <time>2013-05-03T18:35:21Z</time>
      </trkpt>
      <trkpt lat="59.3679318576" lon="17.7136143607">
        <ele>0</ele>
        <time>2013-05-03T18:35:22Z</time>
      </trkpt>
      <trkpt lat="59.3679804726" lon="17.7135053122">
        <ele>0</ele>
        <time>2013-05-03T18:35:23Z</time>
      </trkpt>
      <trkpt lat="59.3680251481" lon="17.713390061">
        <ele>0</ele>
        <time>2013-05-03T18:35:24Z</time>
      </trkpt>
      <trkpt lat="59.3683409781" lon="17.7126445749">
        <ele>0</ele>
        <time>2013-05-03T18:35:31Z</time>
      </trkpt>
      <trkpt lat="59.368727719" lon="17.7118268367">
        <ele>0</ele>
        <time>2013-05-03T18:35:39Z</time>
      </trkpt>
      <trkpt lat="59.369134325" lon="17.7111738029">
        <ele>0</ele>
        <time>2013-05-03T18:35:46Z</time>
      </trkpt>
      <trkpt lat="59.3693178048" lon="17.7109184064">
        <ele>0</ele>
        <time>2013-05-03T18:35:49Z</time>
      </trkpt>
      <trkpt lat="59.3693767295" lon="17.7108385269">
        <ele>0</ele>
        <time>2013-05-03T18:35:50Z</time>
      </trkpt>
      <trkpt lat="59.3694400967" lon="17.7107542888">
        <ele>0</ele>
        <time>2013-05-03T18:35:51Z</time>
      </trkpt>
      <trkpt lat="59.3694980156" lon="17.7106712241">
        <ele>0</ele>
        <time>2013-05-03T18:35:52Z</time>
      </trkpt>
      <trkpt lat="59.3696130153" lon="17.7105118842">
        <ele>0</ele>
        <time>2013-05-03T18:35:54Z</time>
      </trkpt>
      <trkpt lat="59.3700165199" lon="17.709999834">
        <ele>0</ele>
        <time>2013-05-03T18:36:01Z</time>
      </trkpt>
      <trkpt lat="59.3702026819" lon="17.7097170286">
        <ele>0</ele>
        <time>2013-05-03T18:36:05Z</time>
      </trkpt>
      <trkpt lat="59.3704503671" lon="17.7093422739">
        <ele>0</ele>
        <time>2013-05-03T18:36:10Z</time>
      </trkpt>
      <trkpt lat="59.3705490221" lon="17.7091642423">
        <ele>0</ele>
        <time>2013-05-03T18:36:12Z</time>
      </trkpt>
      <trkpt lat="59.3705971342" lon="17.7090807586">
        <ele>0</ele>
        <time>2013-05-03T18:36:13Z</time>
      </trkpt>
      <trkpt lat="59.3706447434" lon="17.7089867975">
        <ele>0</ele>
        <time>2013-05-03T18:36:14Z</time>
      </trkpt>
      <trkpt lat="59.3706927716" lon="17.7088912439">
        <ele>0</ele>
        <time>2013-05-03T18:36:15Z</time>
      </trkpt>
      <trkpt lat="59.3707425601" lon="17.7087981209">
        <ele>0</ele>
        <time>2013-05-03T18:36:16Z</time>
      </trkpt>
      <trkpt lat="59.3707891635" lon="17.7087037408">
        <ele>0</ele>
        <time>2013-05-03T18:36:17Z</time>
      </trkpt>
      <trkpt lat="59.370838952" lon="17.708609612">
        <ele>0</ele>
        <time>2013-05-03T18:36:18Z</time>
      </trkpt>
      <trkpt lat="59.3708870641" lon="17.7085130525">
        <ele>0</ele>
        <time>2013-05-03T18:36:19Z</time>
      </trkpt>
      <trkpt lat="59.3709320749" lon="17.7084126374">
        <ele>0</ele>
        <time>2013-05-03T18:36:20Z</time>
      </trkpt>
      <trkpt lat="59.3710769141" lon="17.7080968912">
        <ele>0</ele>
        <time>2013-05-03T18:36:23Z</time>
      </trkpt>
      <trkpt lat="59.3714510821" lon="17.7073528299">
        <ele>0</ele>
        <time>2013-05-03T18:36:30Z</time>
      </trkpt>
      <trkpt lat="59.3718690037" lon="17.7067556196">
        <ele>0</ele>
        <time>2013-05-03T18:36:37Z</time>
      </trkpt>
      <trkpt lat="59.372269407" lon="17.7062605007">
        <ele>0</ele>
        <time>2013-05-03T18:36:44Z</time>
      </trkpt>
      <trkpt lat="59.3726557288" lon="17.7055907031">
        <ele>0</ele>
        <time>2013-05-03T18:36:51Z</time>
      </trkpt>
      <trkpt lat="59.3729744925" lon="17.704945213">
        <ele>0</ele>
        <time>2013-05-03T18:36:57Z</time>
      </trkpt>
      <trkpt lat="59.3730262088" lon="17.7048375056">
        <ele>0</ele>
        <time>2013-05-03T18:36:58Z</time>
      </trkpt>
      <trkpt lat="59.3730808588" lon="17.7047318098">
        <ele>0</ele>
        <time>2013-05-03T18:36:59Z</time>
      </trkpt>
      <trkpt lat="59.3731355088" lon="17.7046310594">
        <ele>0</ele>
        <time>2013-05-03T18:37:00Z</time>
      </trkpt>
      <trkpt lat="59.3731821959" lon="17.7045278782">
        <ele>0</ele>
        <time>2013-05-03T18:37:01Z</time>
      </trkpt>
      <trkpt lat="59.3733320643" lon="17.7042488447">
        <ele>0</ele>
        <time>2013-05-03T18:37:04Z</time>
      </trkpt>
      <trkpt lat="59.3737092498" lon="17.7036001695">
        <ele>0</ele>
        <time>2013-05-03T18:37:11Z</time>
      </trkpt>
      <trkpt lat="59.373990714" lon="17.7031350579">
        <ele>0</ele>
        <time>2013-05-03T18:37:16Z</time>
      </trkpt>
      <trkpt lat="59.3740418436" lon="17.7030426055">
        <ele>0</ele>
        <time>2013-05-03T18:37:17Z</time>
      </trkpt>
      <trkpt lat="59.3740956554" lon="17.7029495664">
        <ele>0</ele>
        <time>2013-05-03T18:37:18Z</time>
      </trkpt>
      <trkpt lat="59.3741474555" lon="17.7028571979">
        <ele>0</ele>
        <time>2013-05-03T18:37:19Z</time>
      </trkpt>
      <trkpt lat="59.3741996748" lon="17.7027623148">
        <ele>0</ele>
        <time>2013-05-03T18:37:20Z</time>
      </trkpt>
      <trkpt lat="59.374482983" lon="17.7021366897">
        <ele>0</ele>
        <time>2013-05-03T18:37:26Z</time>
      </trkpt>
      <trkpt lat="59.3747036784" lon="17.7013948078">
        <ele>0</ele>
        <time>2013-05-03T18:37:32Z</time>
      </trkpt>
      <trkpt lat="59.3748248807" lon="17.7008995213">
        <ele>0</ele>
        <time>2013-05-03T18:37:36Z</time>
      </trkpt>
      <trkpt lat="59.3748522895" lon="17.7007735413">
        <ele>0</ele>
        <time>2013-05-03T18:37:37Z</time>
      </trkpt>
      <trkpt lat="59.3748870744" lon="17.7006375031">
        <ele>0</ele>
        <time>2013-05-03T18:37:38Z</time>
      </trkpt>
      <trkpt lat="59.3749113819" lon="17.7004982798">
        <ele>0</ele>
        <time>2013-05-03T18:37:39Z</time>
      </trkpt>
      <trkpt lat="59.3749335939" lon="17.7003614033">
        <ele>0</ele>
        <time>2013-05-03T18:37:40Z</time>
      </trkpt>
      <trkpt lat="59.3750112942" lon="17.6995065333">
        <ele>0</ele>
        <time>2013-05-03T18:37:46Z</time>
      </trkpt>
      <trkpt lat="59.3750912575" lon="17.6984858694">
        <ele>0</ele>
        <time>2013-05-03T18:37:53Z</time>
      </trkpt>
      <trkpt lat="59.3752290559" lon="17.6976192647">
        <ele>0</ele>
        <time>2013-05-03T18:37:59Z</time>
      </trkpt>
      <trkpt lat="59.3754166428" lon="17.6966296976">
        <ele>0</ele>
        <time>2013-05-03T18:38:06Z</time>
      </trkpt>
      <trkpt lat="59.3754733045" lon="17.6963592975">
        <ele>0</ele>
        <time>2013-05-03T18:38:08Z</time>
      </trkpt>
      <trkpt lat="59.3756841093" lon="17.6954087901">
        <ele>0</ele>
        <time>2013-05-03T18:38:15Z</time>
      </trkpt>
      <trkpt lat="59.3759683395" lon="17.6945100828">
        <ele>0</ele>
        <time>2013-05-03T18:38:22Z</time>
      </trkpt>
      <trkpt lat="59.3762550843" lon="17.6939867169">
        <ele>0</ele>
        <time>2013-05-03T18:38:27Z</time>
      </trkpt>
      <trkpt lat="59.376319122" lon="17.6938932587">
        <ele>0</ele>
        <time>2013-05-03T18:38:28Z</time>
      </trkpt>
      <trkpt lat="59.3763887756" lon="17.6938065061">
        <ele>0</ele>
        <time>2013-05-03T18:38:29Z</time>
      </trkpt>
      <trkpt lat="59.3764622849" lon="17.6937337512">
        <ele>0</ele>
        <time>2013-05-03T18:38:30Z</time>
      </trkpt>
      <trkpt lat="59.3765398174" lon="17.693659739">
        <ele>0</ele>
        <time>2013-05-03T18:38:31Z</time>
      </trkpt>
      <trkpt lat="59.3766214571" lon="17.6935855592">
        <ele>0</ele>
        <time>2013-05-03T18:38:32Z</time>
      </trkpt>
      <trkpt lat="59.3771139776" lon="17.6932183481">
        <ele>0</ele>
        <time>2013-05-03T18:38:38Z</time>
      </trkpt>
      <trkpt lat="59.3776776604" lon="17.6926856784">
        <ele>0</ele>
        <time>2013-05-03T18:38:45Z</time>
      </trkpt>
      <trkpt lat="59.3777536842" lon="17.6925935613">
        <ele>0</ele>
        <time>2013-05-03T18:38:46Z</time>
      </trkpt>
      <trkpt lat="59.3778351563" lon="17.6925200521">
        <ele>0</ele>
        <time>2013-05-03T18:38:47Z</time>
      </trkpt>
      <trkpt lat="59.3779245911" lon="17.692432545">
        <ele>0</ele>
        <time>2013-05-03T18:38:48Z</time>
      </trkpt>
      <trkpt lat="59.3780064823" lon="17.6923410985">
        <ele>0</ele>
        <time>2013-05-03T18:38:49Z</time>
      </trkpt>
      <trkpt lat="59.3780870324" lon="17.6922475565">
        <ele>0</ele>
        <time>2013-05-03T18:38:50Z</time>
      </trkpt>
      <trkpt lat="59.3785603583" lon="17.6917034874">
        <ele>0</ele>
        <time>2013-05-03T18:38:56Z</time>
      </trkpt>
      <trkpt lat="59.3786362144" lon="17.6916174052">
        <ele>0</ele>
        <time>2013-05-03T18:38:57Z</time>
      </trkpt>
      <trkpt lat="59.3791710635" lon="17.6910088793">
        <ele>0</ele>
        <time>2013-05-03T18:39:04Z</time>
      </trkpt>
      <trkpt lat="59.3793167409" lon="17.6908470248">
        <ele>0</ele>
        <time>2013-05-03T18:39:06Z</time>
      </trkpt>
      <trkpt lat="59.3797426252" lon="17.6903332982">
        <ele>0</ele>
        <time>2013-05-03T18:39:12Z</time>
      </trkpt>
      <trkpt lat="59.3798795017" lon="17.6901566077">
        <ele>0</ele>
        <time>2013-05-03T18:39:14Z</time>
      </trkpt>
      <trkpt lat="59.3799438747" lon="17.6900718667">
        <ele>0</ele>
        <time>2013-05-03T18:39:15Z</time>
      </trkpt>
      <trkpt lat="59.3800126062" lon="17.6899859522">
        <ele>0</ele>
        <time>2013-05-03T18:39:16Z</time>
      </trkpt>
      <trkpt lat="59.3800799129" lon="17.6898953439">
        <ele>0</ele>
        <time>2013-05-03T18:39:17Z</time>
      </trkpt>
      <trkpt lat="59.3801513267" lon="17.689806831">
        <ele>0</ele>
        <time>2013-05-03T18:39:18Z</time>
      </trkpt>
      <trkpt lat="59.3806307714" lon="17.6891739138">
        <ele>0</ele>
        <time>2013-05-03T18:39:25Z</time>
      </trkpt>
      <trkpt lat="59.3810629421" lon="17.6885431758">
        <ele>0</ele>
        <time>2013-05-03T18:39:31Z</time>
      </trkpt>
      <trkpt lat="59.3814410496" lon="17.688001705">
        <ele>0</ele>
        <time>2013-05-03T18:39:36Z</time>
      </trkpt>
      <trkpt lat="59.3815123796" lon="17.6879005355">
        <ele>0</ele>
        <time>2013-05-03T18:39:37Z</time>
      </trkpt>
      <trkpt lat="59.38159184" lon="17.6877978572">
        <ele>0</ele>
        <time>2013-05-03T18:39:38Z</time>
      </trkpt>
      <trkpt lat="59.3816767487" lon="17.6876912395">
        <ele>0</ele>
        <time>2013-05-03T18:39:39Z</time>
      </trkpt>
      <trkpt lat="59.3820995317" lon="17.6872054245">
        <ele>0</ele>
        <time>2013-05-03T18:39:44Z</time>
      </trkpt>
      <trkpt lat="59.3821917326" lon="17.6871309933">
        <ele>0</ele>
        <time>2013-05-03T18:39:45Z</time>
      </trkpt>
      <trkpt lat="59.3823812474" lon="17.6870032531">
        <ele>0</ele>
        <time>2013-05-03T18:39:47Z</time>
      </trkpt>
      <trkpt lat="59.3824814949" lon="17.6869243794">
        <ele>0</ele>
        <time>2013-05-03T18:39:48Z</time>
      </trkpt>
      <trkpt lat="59.3825725223" lon="17.6868514569">
        <ele>0</ele>
        <time>2013-05-03T18:39:49Z</time>
      </trkpt>
      <trkpt lat="59.382659275" lon="17.6867793726">
        <ele>0</ele>
        <time>2013-05-03T18:39:50Z</time>
      </trkpt>
      <trkpt lat="59.3827481231" lon="17.6867029296">
        <ele>0</ele>
        <time>2013-05-03T18:39:51Z</time>
      </trkpt>
      <trkpt lat="59.3830084649" lon="17.6864731818">
        <ele>0</ele>
        <time>2013-05-03T18:39:54Z</time>
      </trkpt>
      <trkpt lat="59.3834648594" lon="17.6859616344">
        <ele>0</ele>
        <time>2013-05-03T18:40:00Z</time>
      </trkpt>
      <trkpt lat="59.3837386961" lon="17.6855658411">
        <ele>0</ele>
        <time>2013-05-03T18:40:04Z</time>
      </trkpt>
      <trkpt lat="59.3838009736" lon="17.6854597262">
        <ele>0</ele>
        <time>2013-05-03T18:40:05Z</time>
      </trkpt>
      <trkpt lat="59.3838663524" lon="17.6853563774">
        <ele>0</ele>
        <time>2013-05-03T18:40:06Z</time>
      </trkpt>
      <trkpt lat="59.3839326532" lon="17.6852469936">
        <ele>0</ele>
        <time>2013-05-03T18:40:07Z</time>
      </trkpt>
      <trkpt lat="59.3839972777" lon="17.6851355982">
        <ele>0</ele>
        <time>2013-05-03T18:40:08Z</time>
      </trkpt>
      <trkpt lat="59.3844673346" lon="17.6843812272">
        <ele>0</ele>
        <time>2013-05-03T18:40:15Z</time>
      </trkpt>
      <trkpt lat="59.3845422688" lon="17.6842722625">
        <ele>0</ele>
        <time>2013-05-03T18:40:16Z</time>
      </trkpt>
      <trkpt lat="59.3846120062" lon="17.6841684945">
        <ele>0</ele>
        <time>2013-05-03T18:40:17Z</time>
      </trkpt>
      <trkpt lat="59.3846862699" lon="17.6840698396">
        <ele>0</ele>
        <time>2013-05-03T18:40:18Z</time>
      </trkpt>
      <trkpt lat="59.3847588571" lon="17.6839776387">
        <ele>0</ele>
        <time>2013-05-03T18:40:19Z</time>
      </trkpt>
      <trkpt lat="59.3849094799" lon="17.6838043848">
        <ele>0</ele>
        <time>2013-05-03T18:40:21Z</time>
      </trkpt>
      <trkpt lat="59.3853400581" lon="17.6834872975">
        <ele>0</ele>
        <time>2013-05-03T18:40:26Z</time>
      </trkpt>
      <trkpt lat="59.3858580595" lon="17.6831801847">
        <ele>0</ele>
        <time>2013-05-03T18:40:32Z</time>
      </trkpt>
      <trkpt lat="59.3859435549" lon="17.6831303962">
        <ele>0</ele>
        <time>2013-05-03T18:40:33Z</time>
      </trkpt>
      <trkpt lat="59.3860257813" lon="17.6830889058">
        <ele>0</ele>
        <time>2013-05-03T18:40:34Z</time>
      </trkpt>
      <trkpt lat="59.3861094327" lon="17.6830484212">
        <ele>0</ele>
        <time>2013-05-03T18:40:35Z</time>
      </trkpt>
      <trkpt lat="59.3861905695" lon="17.6830034104">
        <ele>0</ele>
        <time>2013-05-03T18:40:36Z</time>
      </trkpt>
      <trkpt lat="59.3862746399" lon="17.6829520294">
        <ele>0</ele>
        <time>2013-05-03T18:40:37Z</time>
      </trkpt>
      <trkpt lat="59.3865269351" lon="17.6827883309">
        <ele>0</ele>
        <time>2013-05-03T18:40:40Z</time>
      </trkpt>
      <trkpt lat="59.3869119158" lon="17.6823456827">
        <ele>0</ele>
        <time>2013-05-03T18:40:45Z</time>
      </trkpt>
      <trkpt lat="59.387139652" lon="17.681823658">
        <ele>0</ele>
        <time>2013-05-03T18:40:49Z</time>
      </trkpt>
      <trkpt lat="59.3871892728" lon="17.681681501">
        <ele>0</ele>
        <time>2013-05-03T18:40:50Z</time>
      </trkpt>
      <trkpt lat="59.3874979782" lon="17.6806725717">
        <ele>0</ele>
        <time>2013-05-03T18:40:57Z</time>
      </trkpt>
      <trkpt lat="59.3875433243" lon="17.6805291574">
        <ele>0</ele>
        <time>2013-05-03T18:40:58Z</time>
      </trkpt>
      <trkpt lat="59.3875890895" lon="17.6803850725">
        <ele>0</ele>
        <time>2013-05-03T18:40:59Z</time>
      </trkpt>
      <trkpt lat="59.3876322563" lon="17.6802396465">
        <ele>0</ele>
        <time>2013-05-03T18:41:00Z</time>
      </trkpt>
      <trkpt lat="59.3876796978" lon="17.6800934662">
        <ele>0</ele>
        <time>2013-05-03T18:41:01Z</time>
      </trkpt>
      <trkpt lat="59.3877263012" lon="17.6799483755">
        <ele>0</ele>
        <time>2013-05-03T18:41:02Z</time>
      </trkpt>
      <trkpt lat="59.3878654407" lon="17.6795034643">
        <ele>0</ele>
        <time>2013-05-03T18:41:05Z</time>
      </trkpt>
      <trkpt lat="59.3881674406" lon="17.678527392">
        <ele>0</ele>
        <time>2013-05-03T18:41:12Z</time>
      </trkpt>
      <trkpt lat="59.3884341526" lon="17.6776422634">
        <ele>0</ele>
        <time>2013-05-03T18:41:19Z</time>
      </trkpt>
      <trkpt lat="59.3886357373" lon="17.6767997148">
        <ele>0</ele>
        <time>2013-05-03T18:41:25Z</time>
      </trkpt>
      <trkpt lat="59.3888370706" lon="17.6757667294">
        <ele>0</ele>
        <time>2013-05-03T18:41:32Z</time>
      </trkpt>
      <trkpt lat="59.3890630466" lon="17.6746269587">
        <ele>0</ele>
        <time>2013-05-03T18:41:39Z</time>
      </trkpt>
      <trkpt lat="59.3892949738" lon="17.6736864257">
        <ele>0</ele>
        <time>2013-05-03T18:41:45Z</time>
      </trkpt>
      <trkpt lat="59.3894848238" lon="17.672932809">
        <ele>0</ele>
        <time>2013-05-03T18:41:50Z</time>
      </trkpt>
      <trkpt lat="59.3895218718" lon="17.6727821025">
        <ele>0</ele>
        <time>2013-05-03T18:41:51Z</time>
      </trkpt>
      <trkpt lat="59.3895583331" lon="17.6726306415">
        <ele>0</ele>
        <time>2013-05-03T18:41:52Z</time>
      </trkpt>
      <trkpt lat="59.3895973089" lon="17.6724798512">
        <ele>0</ele>
        <time>2013-05-03T18:41:53Z</time>
      </trkpt>
      <trkpt lat="59.3896344407" lon="17.6723283064">
        <ele>0</ele>
        <time>2013-05-03T18:41:54Z</time>
      </trkpt>
      <trkpt lat="59.3897127277" lon="17.6720251331">
        <ele>0</ele>
        <time>2013-05-03T18:41:56Z</time>
      </trkpt>
      <trkpt lat="59.3897498595" lon="17.6718637815">
        <ele>0</ele>
        <time>2013-05-03T18:41:57Z</time>
      </trkpt>
      <trkpt lat="59.3897862369" lon="17.6717129911">
        <ele>0</ele>
        <time>2013-05-03T18:41:58Z</time>
      </trkpt>
      <trkpt lat="59.3898207704" lon="17.6715658888">
        <ele>0</ele>
        <time>2013-05-03T18:41:59Z</time>
      </trkpt>
      <trkpt lat="59.3898542141" lon="17.6714223907">
        <ele>0</ele>
        <time>2013-05-03T18:42:00Z</time>
      </trkpt>
      <trkpt lat="59.3899827087" lon="17.6708395133">
        <ele>0</ele>
        <time>2013-05-03T18:42:04Z</time>
      </trkpt>
      <trkpt lat="59.3900103689" lon="17.6706829394">
        <ele>0</ele>
        <time>2013-05-03T18:42:05Z</time>
      </trkpt>
      <trkpt lat="59.390036269" lon="17.6705344122">
        <ele>0</ele>
        <time>2013-05-03T18:42:06Z</time>
      </trkpt>
      <trkpt lat="59.3900614147" lon="17.6703833703">
        <ele>0</ele>
        <time>2013-05-03T18:42:07Z</time>
      </trkpt>
      <trkpt lat="59.3900836267" lon="17.670232077">
        <ele>0</ele>
        <time>2013-05-03T18:42:08Z</time>
      </trkpt>
      <trkpt lat="59.3901391987" lon="17.6697699829">
        <ele>0</ele>
        <time>2013-05-03T18:42:11Z</time>
      </trkpt>
      <trkpt lat="59.3901527774" lon="17.6696100562">
        <ele>0</ele>
        <time>2013-05-03T18:42:12Z</time>
      </trkpt>
      <trkpt lat="59.3901664399" lon="17.6694516383">
        <ele>0</ele>
        <time>2013-05-03T18:42:13Z</time>
      </trkpt>
      <trkpt lat="59.390179348" lon="17.6692941424">
        <ele>0</ele>
        <time>2013-05-03T18:42:14Z</time>
      </trkpt>
      <trkpt lat="59.3901897416" lon="17.6691230679">
        <ele>0</ele>
        <time>2013-05-03T18:42:15Z</time>
      </trkpt>
      <trkpt lat="59.3902478282" lon="17.6681348418">
        <ele>0</ele>
        <time>2013-05-03T18:42:21Z</time>
      </trkpt>
      <trkpt lat="59.3903468184" lon="17.6671637987">
        <ele>0</ele>
        <time>2013-05-03T18:42:27Z</time>
      </trkpt>
      <trkpt lat="59.3904990337" lon="17.6663243514">
        <ele>0</ele>
        <time>2013-05-03T18:42:33Z</time>
      </trkpt>
      <trkpt lat="59.3906976009" lon="17.6654979799">
        <ele>0</ele>
        <time>2013-05-03T18:42:40Z</time>
      </trkpt>
      <trkpt lat="59.3909251695" lon="17.6645713609">
        <ele>0</ele>
        <time>2013-05-03T18:42:48Z</time>
      </trkpt>
      <trkpt lat="59.391130107" lon="17.6637347634">
        <ele>0</ele>
        <time>2013-05-03T18:42:56Z</time>
      </trkpt>
      <trkpt lat="59.3913015168" lon="17.6630418318">
        <ele>0</ele>
        <time>2013-05-03T18:43:03Z</time>
      </trkpt>
      <trkpt lat="59.3914310172" lon="17.6623649095">
        <ele>0</ele>
        <time>2013-05-03T18:43:09Z</time>
      </trkpt>
      <trkpt lat="59.3914432547" lon="17.6622376723">
        <ele>0</ele>
        <time>2013-05-03T18:43:10Z</time>
      </trkpt>
      <trkpt lat="59.3914575878" lon="17.6621100159">
        <ele>0</ele>
        <time>2013-05-03T18:43:11Z</time>
      </trkpt>
      <trkpt lat="59.3914652991" lon="17.6619759894">
        <ele>0</ele>
        <time>2013-05-03T18:43:12Z</time>
      </trkpt>
      <trkpt lat="59.3914747707" lon="17.6618391968">
        <ele>0</ele>
        <time>2013-05-03T18:43:13Z</time>
      </trkpt>
      <trkpt lat="59.3914988267" lon="17.6613702294">
        <ele>0</ele>
        <time>2013-05-03T18:43:16Z</time>
      </trkpt>
      <trkpt lat="59.3915594279" lon="17.6605111685">
        <ele>0</ele>
        <time>2013-05-03T18:43:21Z</time>
      </trkpt>
      <trkpt lat="59.3915753535" lon="17.6603213185">
        <ele>0</ele>
        <time>2013-05-03T18:43:22Z</time>
      </trkpt>
      <trkpt lat="59.3915891836" lon="17.6601294568">
        <ele>0</ele>
        <time>2013-05-03T18:43:23Z</time>
      </trkpt>
      <trkpt lat="59.3916023432" lon="17.6599318116">
        <ele>0</ele>
        <time>2013-05-03T18:43:24Z</time>
      </trkpt>
      <trkpt lat="59.3916177659" lon="17.6597372677">
        <ele>0</ele>
        <time>2013-05-03T18:43:25Z</time>
      </trkpt>
      <trkpt lat="59.3916320989" lon="17.6595434782">
        <ele>0</ele>
        <time>2013-05-03T18:43:26Z</time>
      </trkpt>
      <trkpt lat="59.3916401456" lon="17.6593494372">
        <ele>0</ele>
        <time>2013-05-03T18:43:27Z</time>
      </trkpt>
      <trkpt lat="59.3916585857" lon="17.6591634428">
        <ele>0</ele>
        <time>2013-05-03T18:43:28Z</time>
      </trkpt>
      <trkpt lat="59.3917267306" lon="17.6581271885">
        <ele>0</ele>
        <time>2013-05-03T18:43:34Z</time>
      </trkpt>
      <trkpt lat="59.3918180933" lon="17.6572768448">
        <ele>0</ele>
        <time>2013-05-03T18:43:40Z</time>
      </trkpt>
      <trkpt lat="59.3919135631" lon="17.6564754513">
        <ele>0</ele>
        <time>2013-05-03T18:43:46Z</time>
      </trkpt>
      <trkpt lat="59.3919792772" lon="17.6557622354">
        <ele>0</ele>
        <time>2013-05-03T18:43:51Z</time>
      </trkpt>
      <trkpt lat="59.3920328376" lon="17.655051618">
        <ele>0</ele>
        <time>2013-05-03T18:43:56Z</time>
      </trkpt>
      <trkpt lat="59.3920468354" lon="17.6549161664">
        <ele>0</ele>
        <time>2013-05-03T18:43:57Z</time>
      </trkpt>
      <trkpt lat="59.3920543791" lon="17.6547784518">
        <ele>0</ele>
        <time>2013-05-03T18:43:58Z</time>
      </trkpt>
      <trkpt lat="59.3920691312" lon="17.6546433356">
        <ele>0</ele>
        <time>2013-05-03T18:43:59Z</time>
      </trkpt>
      <trkpt lat="59.3920824584" lon="17.6545064592">
        <ele>0</ele>
        <time>2013-05-03T18:44:00Z</time>
      </trkpt>
      <trkpt lat="59.392090086" lon="17.6543764559">
        <ele>0</ele>
        <time>2013-05-03T18:44:01Z</time>
      </trkpt>
      <trkpt lat="59.3921026588" lon="17.6542555889">
        <ele>0</ele>
        <time>2013-05-03T18:44:02Z</time>
      </trkpt>
      <trkpt lat="59.3921248708" lon="17.6538968436">
        <ele>0</ele>
        <time>2013-05-03T18:44:05Z</time>
      </trkpt>
      <trkpt lat="59.3920818717" lon="17.6536525112">
        <ele>0</ele>
        <time>2013-05-03T18:44:07Z</time>
      </trkpt>
      <trkpt lat="59.3920349331" lon="17.6535425407">
        <ele>0</ele>
        <time>2013-05-03T18:44:08Z</time>
      </trkpt>
      <trkpt lat="59.3919841387" lon="17.6534582188">
        <ele>0</ele>
        <time>2013-05-03T18:44:09Z</time>
      </trkpt>
      <trkpt lat="59.391924292" lon="17.6534024791">
        <ele>0</ele>
        <time>2013-05-03T18:44:10Z</time>
      </trkpt>
      <trkpt lat="59.3918611763" lon="17.6533651797">
        <ele>0</ele>
        <time>2013-05-03T18:44:11Z</time>
      </trkpt>
      <trkpt lat="59.3917982282" lon="17.6533289699">
        <ele>0</ele>
        <time>2013-05-03T18:44:12Z</time>
      </trkpt>
      <trkpt lat="59.3917385491" lon="17.6532876471">
        <ele>0</ele>
        <time>2013-05-03T18:44:13Z</time>
      </trkpt>
      <trkpt lat="59.391679792" lon="17.6532498447">
        <ele>0</ele>
        <time>2013-05-03T18:44:14Z</time>
      </trkpt>
      <trkpt lat="59.3912860941" lon="17.6530207674">
        <ele>0</ele>
        <time>2013-05-03T18:44:21Z</time>
      </trkpt>
      <trkpt lat="59.3909202242" lon="17.652817674">
        <ele>0</ele>
        <time>2013-05-03T18:44:27Z</time>
      </trkpt>
      <trkpt lat="59.3904513407" lon="17.6525315997">
        <ele>0</ele>
        <time>2013-05-03T18:44:34Z</time>
      </trkpt>
      <trkpt lat="59.3903864648" lon="17.6524813083">
        <ele>0</ele>
        <time>2013-05-03T18:44:35Z</time>
      </trkpt>
      <trkpt lat="59.3903194934" lon="17.6524302625">
        <ele>0</ele>
        <time>2013-05-03T18:44:36Z</time>
      </trkpt>
      <trkpt lat="59.3902518515" lon="17.6523843297">
        <ele>0</ele>
        <time>2013-05-03T18:44:37Z</time>
      </trkpt>
      <trkpt lat="59.3901847124" lon="17.6523394027">
        <ele>0</ele>
        <time>2013-05-03T18:44:38Z</time>
      </trkpt>
      <trkpt lat="59.3899818705" lon="17.6522259118">
        <ele>0</ele>
        <time>2013-05-03T18:44:41Z</time>
      </trkpt>
      <trkpt lat="59.3898535436" lon="17.652193893">
        <ele>0</ele>
        <time>2013-05-03T18:44:43Z</time>
      </trkpt>
      <trkpt lat="59.3897220316" lon="17.6521881933">
        <ele>0</ele>
        <time>2013-05-03T18:44:45Z</time>
      </trkpt>
      <trkpt lat="59.3896520427" lon="17.6521889476">
        <ele>0</ele>
        <time>2013-05-03T18:44:46Z</time>
      </trkpt>
      <trkpt lat="59.389584736" lon="17.6521980839">
        <ele>0</ele>
        <time>2013-05-03T18:44:47Z</time>
      </trkpt>
      <trkpt lat="59.3895233805" lon="17.6521986706">
        <ele>0</ele>
        <time>2013-05-03T18:44:48Z</time>
      </trkpt>
      <trkpt lat="59.3894596781" lon="17.6522202959">
        <ele>0</ele>
        <time>2013-05-03T18:44:49Z</time>
      </trkpt>
      <trkpt lat="59.3892761983" lon="17.6522214694">
        <ele>0</ele>
        <time>2013-05-03T18:44:52Z</time>
      </trkpt>
      <trkpt lat="59.3890937243" lon="17.6522380656">
        <ele>0</ele>
        <time>2013-05-03T18:44:55Z</time>
      </trkpt>
      <trkpt lat="59.3890399964" lon="17.6522426756">
        <ele>0</ele>
        <time>2013-05-03T18:44:56Z</time>
      </trkpt>
      <trkpt lat="59.3889861007" lon="17.6522463637">
        <ele>0</ele>
        <time>2013-05-03T18:44:57Z</time>
      </trkpt>
      <trkpt lat="59.3889363123" lon="17.652272599">
        <ele>0</ele>
        <time>2013-05-03T18:44:58Z</time>
      </trkpt>
      <trkpt lat="59.3888851827" lon="17.6522865968">
        <ele>0</ele>
        <time>2013-05-03T18:44:59Z</time>
      </trkpt>
      <trkpt lat="59.3888343045" lon="17.652292045">
        <ele>0</ele>
        <time>2013-05-03T18:45:00Z</time>
      </trkpt>
      <trkpt lat="59.3887829235" lon="17.6522887761">
        <ele>0</ele>
        <time>2013-05-03T18:45:01Z</time>
      </trkpt>
      <trkpt lat="59.3887256751" lon="17.6523056237">
        <ele>0</ele>
        <time>2013-05-03T18:45:02Z</time>
      </trkpt>
      <trkpt lat="59.3886694326" lon="17.6523292606">
        <ele>0</ele>
        <time>2013-05-03T18:45:03Z</time>
      </trkpt>
      <trkpt lat="59.3886183868" lon="17.6523618662">
        <ele>0</ele>
        <time>2013-05-03T18:45:04Z</time>
      </trkpt>
      <trkpt lat="59.3881731403" lon="17.6526796241">
        <ele>0</ele>
        <time>2013-05-03T18:45:12Z</time>
      </trkpt>
      <trkpt lat="59.3879853019" lon="17.6528471782">
        <ele>0</ele>
        <time>2013-05-03T18:45:15Z</time>
      </trkpt>
      <trkpt lat="59.3879205098" lon="17.6529137305">
        <ele>0</ele>
        <time>2013-05-03T18:45:16Z</time>
      </trkpt>
      <trkpt lat="59.3878533708" lon="17.6529773492">
        <ele>0</ele>
        <time>2013-05-03T18:45:17Z</time>
      </trkpt>
      <trkpt lat="59.3877836334" lon="17.653049685">
        <ele>0</ele>
        <time>2013-05-03T18:45:18Z</time>
      </trkpt>
      <trkpt lat="59.3877136445" lon="17.65311959">
        <ele>0</ele>
        <time>2013-05-03T18:45:19Z</time>
      </trkpt>
      <trkpt lat="59.3876393809" lon="17.653181197">
        <ele>0</ele>
        <time>2013-05-03T18:45:20Z</time>
      </trkpt>
      <trkpt lat="59.387569392" lon="17.6532431392">
        <ele>0</ele>
        <time>2013-05-03T18:45:21Z</time>
      </trkpt>
      <trkpt lat="59.3875005766" lon="17.65330483">
        <ele>0</ele>
        <time>2013-05-03T18:45:22Z</time>
      </trkpt>
      <trkpt lat="59.3874305039" lon="17.6533703764">
        <ele>0</ele>
        <time>2013-05-03T18:45:23Z</time>
      </trkpt>
      <trkpt lat="59.3873589225" lon="17.6534349171">
        <ele>0</ele>
        <time>2013-05-03T18:45:24Z</time>
      </trkpt>
      <trkpt lat="59.3870786318" lon="17.6536713705">
        <ele>0</ele>
        <time>2013-05-03T18:45:28Z</time>
      </trkpt>
      <trkpt lat="59.3870098164" lon="17.6537270263">
        <ele>0</ele>
        <time>2013-05-03T18:45:29Z</time>
      </trkpt>
      <trkpt lat="59.3869427612" lon="17.6537908964">
        <ele>0</ele>
        <time>2013-05-03T18:45:30Z</time>
      </trkpt>
      <trkpt lat="59.3868740296" lon="17.6538478095">
        <ele>0</ele>
        <time>2013-05-03T18:45:31Z</time>
      </trkpt>
      <trkpt lat="59.3868087346" lon="17.6539047226">
        <ele>0</ele>
        <time>2013-05-03T18:45:32Z</time>
      </trkpt>
      <trkpt lat="59.3866708523" lon="17.6539978455">
        <ele>0</ele>
        <time>2013-05-03T18:45:34Z</time>
      </trkpt>
      <trkpt lat="59.3865326348" lon="17.6540293614">
        <ele>0</ele>
        <time>2013-05-03T18:45:36Z</time>
      </trkpt>
      <trkpt lat="59.3864641547" lon="17.6539980969">
        <ele>0</ele>
        <time>2013-05-03T18:45:37Z</time>
      </trkpt>
      <trkpt lat="59.3862776574" lon="17.6537698578">
        <ele>0</ele>
        <time>2013-05-03T18:45:40Z</time>
      </trkpt>
      <trkpt lat="59.3861316447" lon="17.6534651757">
        <ele>0</ele>
        <time>2013-05-03T18:45:43Z</time>
      </trkpt>
      <trkpt lat="59.386037516" lon="17.6532744875">
        <ele>0</ele>
        <time>2013-05-03T18:45:45Z</time>
      </trkpt>
      <trkpt lat="59.3859454827" lon="17.6530760041">
        <ele>0</ele>
        <time>2013-05-03T18:45:47Z</time>
      </trkpt>
      <trkpt lat="59.3859028188" lon="17.6529748346">
        <ele>0</ele>
        <time>2013-05-03T18:45:48Z</time>
      </trkpt>
      <trkpt lat="59.3858607417" lon="17.6528736651">
        <ele>0</ele>
        <time>2013-05-03T18:45:49Z</time>
      </trkpt>
      <trkpt lat="59.3858226879" lon="17.6527693942">
        <ele>0</ele>
        <time>2013-05-03T18:45:50Z</time>
      </trkpt>
      <trkpt lat="59.3857838797" lon="17.6526642852">
        <ele>0</ele>
        <time>2013-05-03T18:45:51Z</time>
      </trkpt>
      <trkpt lat="59.3857169921" lon="17.6524434221">
        <ele>0</ele>
        <time>2013-05-03T18:45:53Z</time>
      </trkpt>
      <trkpt lat="59.3854381263" lon="17.6517290328">
        <ele>0</ele>
        <time>2013-05-03T18:46:00Z</time>
      </trkpt>
      <trkpt lat="59.3853819676" lon="17.6516750534">
        <ele>0</ele>
        <time>2013-05-03T18:46:01Z</time>
      </trkpt>
      <trkpt lat="59.3852690634" lon="17.6515995324">
        <ele>0</ele>
        <time>2013-05-03T18:46:03Z</time>
      </trkpt>
      <trkpt lat="59.3850124096" lon="17.6515581258">
        <ele>0</ele>
        <time>2013-05-03T18:46:07Z</time>
      </trkpt>
      <trkpt lat="59.3849477013" lon="17.6515385122">
        <ele>0</ele>
        <time>2013-05-03T18:46:08Z</time>
      </trkpt>
      <trkpt lat="59.3846962443" lon="17.6514937529">
        <ele>0</ele>
        <time>2013-05-03T18:46:12Z</time>
      </trkpt>
      <trkpt lat="59.3846369843" lon="17.651480258">
        <ele>0</ele>
        <time>2013-05-03T18:46:13Z</time>
      </trkpt>
      <trkpt lat="59.384577389" lon="17.6514729657">
        <ele>0</ele>
        <time>2013-05-03T18:46:14Z</time>
      </trkpt>
      <trkpt lat="59.3845179613" lon="17.6514541903">
        <ele>0</ele>
        <time>2013-05-03T18:46:15Z</time>
      </trkpt>
      <trkpt lat="59.3844555162" lon="17.6514369236">
        <ele>0</ele>
        <time>2013-05-03T18:46:16Z</time>
      </trkpt>
      <trkpt lat="59.3843927357" lon="17.6514040665">
        <ele>0</ele>
        <time>2013-05-03T18:46:17Z</time>
      </trkpt>
      <trkpt lat="59.3843302906" lon="17.6513694493">
        <ele>0</ele>
        <time>2013-05-03T18:46:18Z</time>
      </trkpt>
      <trkpt lat="59.3842649118" lon="17.6513280427">
        <ele>0</ele>
        <time>2013-05-03T18:46:19Z</time>
      </trkpt>
      <trkpt lat="59.384203221" lon="17.6512888992">
        <ele>0</ele>
        <time>2013-05-03T18:46:20Z</time>
      </trkpt>
      <trkpt lat="59.38414438" lon="17.6512320699">
        <ele>0</ele>
        <time>2013-05-03T18:46:21Z</time>
      </trkpt>
      <trkpt lat="59.3838490857" lon="17.6509336743">
        <ele>0</ele>
        <time>2013-05-03T18:46:26Z</time>
      </trkpt>
      <trkpt lat="59.3834299907" lon="17.650427659">
        <ele>0</ele>
        <time>2013-05-03T18:46:33Z</time>
      </trkpt>
      <trkpt lat="59.3831786175" lon="17.6501027766">
        <ele>0</ele>
        <time>2013-05-03T18:46:37Z</time>
      </trkpt>
      <trkpt lat="59.3831139092" lon="17.6500234838">
        <ele>0</ele>
        <time>2013-05-03T18:46:38Z</time>
      </trkpt>
      <trkpt lat="59.3830520508" lon="17.6499328754">
        <ele>0</ele>
        <time>2013-05-03T18:46:39Z</time>
      </trkpt>
      <trkpt lat="59.3829890189" lon="17.6498440273">
        <ele>0</ele>
        <time>2013-05-03T18:46:40Z</time>
      </trkpt>
      <trkpt lat="59.3829229696" lon="17.6497476354">
        <ele>0</ele>
        <time>2013-05-03T18:46:41Z</time>
      </trkpt>
      <trkpt lat="59.3827979116" lon="17.6495432009">
        <ele>0</ele>
        <time>2013-05-03T18:46:43Z</time>
      </trkpt>
      <trkpt lat="59.3827381487" lon="17.6494465576">
        <ele>0</ele>
        <time>2013-05-03T18:46:44Z</time>
      </trkpt>
      <trkpt lat="59.3826788886" lon="17.649354692">
        <ele>0</ele>
        <time>2013-05-03T18:46:45Z</time>
      </trkpt>
      <trkpt lat="59.3826208021" lon="17.6492546121">
        <ele>0</ele>
        <time>2013-05-03T18:46:46Z</time>
      </trkpt>
      <trkpt lat="59.3825601171" lon="17.6491547837">
        <ele>0</ele>
        <time>2013-05-03T18:46:47Z</time>
      </trkpt>
      <trkpt lat="59.3824994322" lon="17.6490600682">
        <ele>0</ele>
        <time>2013-05-03T18:46:48Z</time>
      </trkpt>
      <trkpt lat="59.3824367355" lon="17.6489472478">
        <ele>0</ele>
        <time>2013-05-03T18:46:49Z</time>
      </trkpt>
      <trkpt lat="59.3823798224" lon="17.6488456592">
        <ele>0</ele>
        <time>2013-05-03T18:46:50Z</time>
      </trkpt>
      <trkpt lat="59.382322155" lon="17.6487450764">
        <ele>0</ele>
        <time>2013-05-03T18:46:51Z</time>
      </trkpt>
      <trkpt lat="59.3821570315" lon="17.6484408972">
        <ele>0</ele>
        <time>2013-05-03T18:46:54Z</time>
      </trkpt>
      <trkpt lat="59.3818787525" lon="17.6479289308">
        <ele>0</ele>
        <time>2013-05-03T18:47:00Z</time>
      </trkpt>
      <trkpt lat="59.381720586" lon="17.6477488038">
        <ele>0</ele>
        <time>2013-05-03T18:47:04Z</time>
      </trkpt>
      <trkpt lat="59.3815644312" lon="17.6476970874">
        <ele>0</ele>
        <time>2013-05-03T18:47:08Z</time>
      </trkpt>
      <trkpt lat="59.3815252039" lon="17.6476835088">
        <ele>0</ele>
        <time>2013-05-03T18:47:09Z</time>
      </trkpt>
      <trkpt lat="59.3814849708" lon="17.6476809104">
        <ele>0</ele>
        <time>2013-05-03T18:47:10Z</time>
      </trkpt>
      <trkpt lat="59.3814443186" lon="17.6476779767">
        <ele>0</ele>
        <time>2013-05-03T18:47:11Z</time>
      </trkpt>
      <trkpt lat="59.381397799" lon="17.6476848499">
        <ele>0</ele>
        <time>2013-05-03T18:47:12Z</time>
      </trkpt>
      <trkpt lat="59.3813547999" lon="17.6476909686">
        <ele>0</ele>
        <time>2013-05-03T18:47:13Z</time>
      </trkpt>
      <trkpt lat="59.3812236232" lon="17.6477187127">
        <ele>0</ele>
        <time>2013-05-03T18:47:16Z</time>
      </trkpt>
      <trkpt lat="59.3811910176" lon="17.6477249992">
        <ele>0</ele>
        <time>2013-05-03T18:47:17Z</time>
      </trkpt>
      <trkpt lat="59.381151455" lon="17.6477141027">
        <ele>0</ele>
        <time>2013-05-03T18:47:18Z</time>
      </trkpt>
      <trkpt lat="59.3811108028" lon="17.6477195509">
        <ele>0</ele>
        <time>2013-05-03T18:47:19Z</time>
      </trkpt>
      <trkpt lat="59.3810619363" lon="17.6477204729">
        <ele>0</ele>
        <time>2013-05-03T18:47:20Z</time>
      </trkpt>
      <trkpt lat="59.3809716632" lon="17.6477277652">
        <ele>0</ele>
        <time>2013-05-03T18:47:22Z</time>
      </trkpt>
      <trkpt lat="59.3809263172" lon="17.64773665">
        <ele>0</ele>
        <time>2013-05-03T18:47:23Z</time>
      </trkpt>
      <trkpt lat="59.3808777021" lon="17.6477711834">
        <ele>0</ele>
        <time>2013-05-03T18:47:24Z</time>
      </trkpt>
      <trkpt lat="59.3808336972" lon="17.6478099916">
        <ele>0</ele>
        <time>2013-05-03T18:47:25Z</time>
      </trkpt>
      <trkpt lat="59.3807869262" lon="17.6478582714">
        <ele>0</ele>
        <time>2013-05-03T18:47:26Z</time>
      </trkpt>
      <trkpt lat="59.3806470323" lon="17.6480435114">
        <ele>0</ele>
        <time>2013-05-03T18:47:29Z</time>
      </trkpt>
      <trkpt lat="59.3805210523" lon="17.6482248119">
        <ele>0</ele>
        <time>2013-05-03T18:47:32Z</time>
      </trkpt>
      <trkpt lat="59.3804066394" lon="17.6484261451">
        <ele>0</ele>
        <time>2013-05-03T18:47:35Z</time>
      </trkpt>
      <trkpt lat="59.3802980938" lon="17.6486241256">
        <ele>0</ele>
        <time>2013-05-03T18:47:38Z</time>
      </trkpt>
      <trkpt lat="59.3801836808" lon="17.6488199268">
        <ele>0</ele>
        <time>2013-05-03T18:47:41Z</time>
      </trkpt>
      <trkpt lat="59.3801472196" lon="17.6488901671">
        <ele>0</ele>
        <time>2013-05-03T18:47:42Z</time>
      </trkpt>
      <trkpt lat="59.3801061483" lon="17.6489609941">
        <ele>0</ele>
        <time>2013-05-03T18:47:43Z</time>
      </trkpt>
      <trkpt lat="59.3800686812" lon="17.649029139">
        <ele>0</ele>
        <time>2013-05-03T18:47:44Z</time>
      </trkpt>
      <trkpt lat="59.380033561" lon="17.6491006366">
        <ele>0</ele>
        <time>2013-05-03T18:47:45Z</time>
      </trkpt>
      <trkpt lat="59.3797492469" lon="17.6497970048">
        <ele>0</ele>
        <time>2013-05-03T18:47:53Z</time>
      </trkpt>
      <trkpt lat="59.3796785037" lon="17.6499596975">
        <ele>0</ele>
        <time>2013-05-03T18:47:55Z</time>
      </trkpt>
      <trkpt lat="59.3795845426" lon="17.6500602803">
        <ele>0</ele>
        <time>2013-05-03T18:47:57Z</time>
      </trkpt>
      <trkpt lat="59.3795256179" lon="17.6500438518">
        <ele>0</ele>
        <time>2013-05-03T18:47:58Z</time>
      </trkpt>
      <trkpt lat="59.3792988036" lon="17.6498562649">
        <ele>0</ele>
        <time>2013-05-03T18:48:02Z</time>
      </trkpt>
      <trkpt lat="59.3788616876" lon="17.6494515029">
        <ele>0</ele>
        <time>2013-05-03T18:48:08Z</time>
      </trkpt>
      <trkpt lat="59.3783686642" lon="17.6490171529">
        <ele>0</ele>
        <time>2013-05-03T18:48:14Z</time>
      </trkpt>
      <trkpt lat="59.3782959093" lon="17.6489533666">
        <ele>0</ele>
        <time>2013-05-03T18:48:15Z</time>
      </trkpt>
      <trkpt lat="59.3782218133" lon="17.6488863952">
        <ele>0</ele>
        <time>2013-05-03T18:48:16Z</time>
      </trkpt>
      <trkpt lat="59.3781494775" lon="17.6488256264">
        <ele>0</ele>
        <time>2013-05-03T18:48:17Z</time>
      </trkpt>
      <trkpt lat="59.3778841066" lon="17.6485910171">
        <ele>0</ele>
        <time>2013-05-03T18:48:21Z</time>
      </trkpt>
      <trkpt lat="59.377542125" lon="17.6482732592">
        <ele>0</ele>
        <time>2013-05-03T18:48:27Z</time>
      </trkpt>
      <trkpt lat="59.3773221002" lon="17.6480917911">
        <ele>0</ele>
        <time>2013-05-03T18:48:30Z</time>
      </trkpt>
      <trkpt lat="59.3772451543" lon="17.6480273343">
        <ele>0</ele>
        <time>2013-05-03T18:48:31Z</time>
      </trkpt>
      <trkpt lat="59.3771661968" lon="17.6479608658">
        <ele>0</ele>
        <time>2013-05-03T18:48:32Z</time>
      </trkpt>
      <trkpt lat="59.3770839704" lon="17.6478935592">
        <ele>0</ele>
        <time>2013-05-03T18:48:33Z</time>
      </trkpt>
      <trkpt lat="59.3770016601" lon="17.6478226483">
        <ele>0</ele>
        <time>2013-05-03T18:48:34Z</time>
      </trkpt>
      <trkpt lat="59.3768354471" lon="17.6476783958">
        <ele>0</ele>
        <time>2013-05-03T18:48:36Z</time>
      </trkpt>
      <trkpt lat="59.3767552323" lon="17.6476074011">
        <ele>0</ele>
        <time>2013-05-03T18:48:37Z</time>
      </trkpt>
      <trkpt lat="59.3766768615" lon="17.6475384181">
        <ele>0</ele>
        <time>2013-05-03T18:48:38Z</time>
      </trkpt>
      <trkpt lat="59.3765995804" lon="17.6474724525">
        <ele>0</ele>
        <time>2013-05-03T18:48:39Z</time>
      </trkpt>
      <trkpt lat="59.3765212096" lon="17.6474064031">
        <ele>0</ele>
        <time>2013-05-03T18:48:40Z</time>
      </trkpt>
      <trkpt lat="59.3764422521" lon="17.6473385098">
        <ele>0</ele>
        <time>2013-05-03T18:48:41Z</time>
      </trkpt>
      <trkpt lat="59.3763647195" lon="17.6472703649">
        <ele>0</ele>
        <time>2013-05-03T18:48:42Z</time>
      </trkpt>
      <trkpt lat="59.3762096544" lon="17.64713835">
        <ele>0</ele>
        <time>2013-05-03T18:48:44Z</time>
      </trkpt>
      <trkpt lat="59.3757942474" lon="17.6467120465">
        <ele>0</ele>
        <time>2013-05-03T18:48:50Z</time>
      </trkpt>
      <trkpt lat="59.3757266055" lon="17.6466435664">
        <ele>0</ele>
        <time>2013-05-03T18:48:51Z</time>
      </trkpt>
      <trkpt lat="59.3756624001" lon="17.6465742481">
        <ele>0</ele>
        <time>2013-05-03T18:48:52Z</time>
      </trkpt>
      <trkpt lat="59.3755960993" lon="17.6465076958">
        <ele>0</ele>
        <time>2013-05-03T18:48:53Z</time>
      </trkpt>
      <trkpt lat="59.3755256075" lon="17.6464440772">
        <ele>0</ele>
        <time>2013-05-03T18:48:54Z</time>
      </trkpt>
      <trkpt lat="59.3754536908" lon="17.6463794528">
        <ele>0</ele>
        <time>2013-05-03T18:48:55Z</time>
      </trkpt>
      <trkpt lat="59.3753762421" lon="17.6463164209">
        <ele>0</ele>
        <time>2013-05-03T18:48:56Z</time>
      </trkpt>
      <trkpt lat="59.3748858171" lon="17.6459974896">
        <ele>0</ele>
        <time>2013-05-03T18:49:02Z</time>
      </trkpt>
      <trkpt lat="59.3748077816" lon="17.645938481">
        <ele>0</ele>
        <time>2013-05-03T18:49:03Z</time>
      </trkpt>
      <trkpt lat="59.3747284888" lon="17.6458826575">
        <ele>0</ele>
        <time>2013-05-03T18:49:04Z</time>
      </trkpt>
      <trkpt lat="59.374649699" lon="17.6458281752">
        <ele>0</ele>
        <time>2013-05-03T18:49:05Z</time>
      </trkpt>
      <trkpt lat="59.37457049" lon="17.6457736928">
        <ele>0</ele>
        <time>2013-05-03T18:49:06Z</time>
      </trkpt>
      <trkpt lat="59.3744121559" lon="17.6456674103">
        <ele>0</ele>
        <time>2013-05-03T18:49:08Z</time>
      </trkpt>
      <trkpt lat="59.3739887862" lon="17.6453780672">
        <ele>0</ele>
        <time>2013-05-03T18:49:14Z</time>
      </trkpt>
      <trkpt lat="59.3736060686" lon="17.6451217487">
        <ele>0</ele>
        <time>2013-05-03T18:49:20Z</time>
      </trkpt>
      <trkpt lat="59.3734220859" lon="17.644970623">
        <ele>0</ele>
        <time>2013-05-03T18:49:23Z</time>
      </trkpt>
      <trkpt lat="59.3733627421" lon="17.6449309766">
        <ele>0</ele>
        <time>2013-05-03T18:49:24Z</time>
      </trkpt>
      <trkpt lat="59.3733013027" lon="17.6448926713">
        <ele>0</ele>
        <time>2013-05-03T18:49:25Z</time>
      </trkpt>
      <trkpt lat="59.3732362592" lon="17.6448499236">
        <ele>0</ele>
        <time>2013-05-03T18:49:26Z</time>
      </trkpt>
      <trkpt lat="59.3731692878" lon="17.6448018954">
        <ele>0</ele>
        <time>2013-05-03T18:49:27Z</time>
      </trkpt>
      <trkpt lat="59.3728249594" lon="17.6445681242">
        <ele>0</ele>
        <time>2013-05-03T18:49:32Z</time>
      </trkpt>
      <trkpt lat="59.3726214468" lon="17.644685806">
        <ele>0</ele>
        <time>2013-05-03T18:49:35Z</time>
      </trkpt>
      <trkpt lat="59.3725175951" lon="17.6449103571">
        <ele>0</ele>
        <time>2013-05-03T18:49:37Z</time>
      </trkpt>
      <trkpt lat="59.3724709079" lon="17.6450315594">
        <ele>0</ele>
        <time>2013-05-03T18:49:38Z</time>
      </trkpt>
      <trkpt lat="59.3722495419" lon="17.6457255807">
        <ele>0</ele>
        <time>2013-05-03T18:49:43Z</time>
      </trkpt>
      <trkpt lat="59.3721983285" lon="17.6458908718">
        <ele>0</ele>
        <time>2013-05-03T18:49:44Z</time>
      </trkpt>
      <trkpt lat="59.3721442653" lon="17.646063958">
        <ele>0</ele>
        <time>2013-05-03T18:49:45Z</time>
      </trkpt>
      <trkpt lat="59.3720894476" lon="17.646227908">
        <ele>0</ele>
        <time>2013-05-03T18:49:46Z</time>
      </trkpt>
      <trkpt lat="59.3720352167" lon="17.6463873317">
        <ele>0</ele>
        <time>2013-05-03T18:49:47Z</time>
      </trkpt>
      <trkpt lat="59.3719826622" lon="17.6465418102">
        <ele>0</ele>
        <time>2013-05-03T18:49:48Z</time>
      </trkpt>
      <trkpt lat="59.3719306944" lon="17.6466959533">
        <ele>0</ele>
        <time>2013-05-03T18:49:49Z</time>
      </trkpt>
      <trkpt lat="59.3718822471" lon="17.6468509346">
        <ele>0</ele>
        <time>2013-05-03T18:49:50Z</time>
      </trkpt>
      <trkpt lat="59.3718408405" lon="17.6470115318">
        <ele>0</ele>
        <time>2013-05-03T18:49:51Z</time>
      </trkpt>
      <trkpt lat="59.3717709354" lon="17.6473428683">
        <ele>0</ele>
        <time>2013-05-03T18:49:53Z</time>
      </trkpt>
      <trkpt lat="59.3716048062" lon="17.648025155">
        <ele>0</ele>
        <time>2013-05-03T18:49:58Z</time>
      </trkpt>
      <trkpt lat="59.3714665886" lon="17.6485357803">
        <ele>0</ele>
        <time>2013-05-03T18:50:03Z</time>
      </trkpt>
      <trkpt lat="59.3714364976" lon="17.6486178391">
        <ele>0</ele>
        <time>2013-05-03T18:50:04Z</time>
      </trkpt>
      <trkpt lat="59.3712991183" lon="17.6488882392">
        <ele>0</ele>
        <time>2013-05-03T18:50:08Z</time>
      </trkpt>
      <trkpt lat="59.3712671832" lon="17.6489380277">
        <ele>0</ele>
        <time>2013-05-03T18:50:09Z</time>
      </trkpt>
      <trkpt lat="59.3712332365" lon="17.6489831223">
        <ele>0</ele>
        <time>2013-05-03T18:50:10Z</time>
      </trkpt>
      <trkpt lat="59.3711959371" lon="17.6490264568">
        <ele>0</ele>
        <time>2013-05-03T18:50:11Z</time>
      </trkpt>
      <trkpt lat="59.3711581347" lon="17.6490709647">
        <ele>0</ele>
        <time>2013-05-03T18:50:12Z</time>
      </trkpt>
      <trkpt lat="59.3710805183" lon="17.6491516824">
        <ele>0</ele>
        <time>2013-05-03T18:50:14Z</time>
      </trkpt>
      <trkpt lat="59.3710386088" lon="17.649190742">
        <ele>0</ele>
        <time>2013-05-03T18:50:15Z</time>
      </trkpt>
      <trkpt lat="59.3709976213" lon="17.6492264489">
        <ele>0</ele>
        <time>2013-05-03T18:50:16Z</time>
      </trkpt>
      <trkpt lat="59.3709545384" lon="17.649257881">
        <ele>0</ele>
        <time>2013-05-03T18:50:17Z</time>
      </trkpt>
      <trkpt lat="59.3709125451" lon="17.649294007">
        <ele>0</ele>
        <time>2013-05-03T18:50:18Z</time>
      </trkpt>
      <trkpt lat="59.3708306539" lon="17.6493660075">
        <ele>0</ele>
        <time>2013-05-03T18:50:20Z</time>
      </trkpt>
      <trkpt lat="59.3707475054" lon="17.6494362479">
        <ele>0</ele>
        <time>2013-05-03T18:50:22Z</time>
      </trkpt>
      <trkpt lat="59.3707061827" lon="17.6494717033">
        <ele>0</ele>
        <time>2013-05-03T18:50:23Z</time>
      </trkpt>
      <trkpt lat="59.3706647761" lon="17.6495066558">
        <ele>0</ele>
        <time>2013-05-03T18:50:24Z</time>
      </trkpt>
      <trkpt lat="59.3706238724" lon="17.6495459669">
        <ele>0</ele>
        <time>2013-05-03T18:50:25Z</time>
      </trkpt>
      <trkpt lat="59.3705807056" lon="17.6495791593">
        <ele>0</ele>
        <time>2013-05-03T18:50:26Z</time>
      </trkpt>
      <trkpt lat="59.3705376227" lon="17.6496074063">
        <ele>0</ele>
        <time>2013-05-03T18:50:27Z</time>
      </trkpt>
      <trkpt lat="59.3703214535" lon="17.6497687578">
        <ele>0</ele>
        <time>2013-05-03T18:50:32Z</time>
      </trkpt>
      <trkpt lat="59.3702791249" lon="17.6498045486">
        <ele>0</ele>
        <time>2013-05-03T18:50:33Z</time>
      </trkpt>
      <trkpt lat="59.3702362934" lon="17.6498366512">
        <ele>0</ele>
        <time>2013-05-03T18:50:34Z</time>
      </trkpt>
      <trkpt lat="59.3701941324" lon="17.6498679995">
        <ele>0</ele>
        <time>2013-05-03T18:50:35Z</time>
      </trkpt>
      <trkpt lat="59.3701516362" lon="17.6499002698">
        <ele>0</ele>
        <time>2013-05-03T18:50:36Z</time>
      </trkpt>
      <trkpt lat="59.3699064656" lon="17.6500751163">
        <ele>0</ele>
        <time>2013-05-03T18:50:42Z</time>
      </trkpt>
      <trkpt lat="59.3698684956" lon="17.650097496">
        <ele>0</ele>
        <time>2013-05-03T18:50:43Z</time>
      </trkpt>
      <trkpt lat="59.3698301065" lon="17.6501213844">
        <ele>0</ele>
        <time>2013-05-03T18:50:44Z</time>
      </trkpt>
      <trkpt lat="59.3697901248" lon="17.6501482903">
        <ele>0</ele>
        <time>2013-05-03T18:50:45Z</time>
      </trkpt>
      <trkpt lat="59.3697120055" lon="17.650206293">
        <ele>0</ele>
        <time>2013-05-03T18:50:47Z</time>
      </trkpt>
      <trkpt lat="59.3696342215" lon="17.6502696602">
        <ele>0</ele>
        <time>2013-05-03T18:50:49Z</time>
      </trkpt>
      <trkpt lat="59.3695959162" lon="17.6502977395">
        <ele>0</ele>
        <time>2013-05-03T18:50:50Z</time>
      </trkpt>
      <trkpt lat="59.3695566889" lon="17.6503218794">
        <ele>0</ele>
        <time>2013-05-03T18:50:51Z</time>
      </trkpt>
      <trkpt lat="59.3695137736" lon="17.6503397329">
        <ele>0</ele>
        <time>2013-05-03T18:50:52Z</time>
      </trkpt>
      <trkpt lat="59.3694716126" lon="17.6503500426">
        <ele>0</ele>
        <time>2013-05-03T18:50:53Z</time>
      </trkpt>
      <trkpt lat="59.3693430343" lon="17.6503559938">
        <ele>0</ele>
        <time>2013-05-03T18:50:56Z</time>
      </trkpt>
      <trkpt lat="59.3693007057" lon="17.6503456002">
        <ele>0</ele>
        <time>2013-05-03T18:50:57Z</time>
      </trkpt>
      <trkpt lat="59.3692168867" lon="17.6503108991">
        <ele>0</ele>
        <time>2013-05-03T18:50:59Z</time>
      </trkpt>
      <trkpt lat="59.3690524338" lon="17.6501876852">
        <ele>0</ele>
        <time>2013-05-03T18:51:03Z</time>
      </trkpt>
      <trkpt lat="59.3690135418" lon="17.6501458595">
        <ele>0</ele>
        <time>2013-05-03T18:51:04Z</time>
      </trkpt>
      <trkpt lat="59.3689750689" lon="17.6500988371">
        <ele>0</ele>
        <time>2013-05-03T18:51:05Z</time>
      </trkpt>
      <trkpt lat="59.3689335785" lon="17.6500472884">
        <ele>0</ele>
        <time>2013-05-03T18:51:06Z</time>
      </trkpt>
      <trkpt lat="59.368890747" lon="17.6499953206">
        <ele>0</ele>
        <time>2013-05-03T18:51:07Z</time>
      </trkpt>
      <trkpt lat="59.3688482507" lon="17.6499526567">
        <ele>0</ele>
        <time>2013-05-03T18:51:08Z</time>
      </trkpt>
      <trkpt lat="59.3687630068" lon="17.6498831708">
        <ele>0</ele>
        <time>2013-05-03T18:51:10Z</time>
      </trkpt>
      <trkpt lat="59.3687200915" lon="17.6498581089">
        <ele>0</ele>
        <time>2013-05-03T18:51:11Z</time>
      </trkpt>
      <trkpt lat="59.3685754199" lon="17.6498208094">
        <ele>0</ele>
        <time>2013-05-03T18:51:14Z</time>
      </trkpt>
      <trkpt lat="59.3685197641" lon="17.6498229049">
        <ele>0</ele>
        <time>2013-05-03T18:51:15Z</time>
      </trkpt>
      <trkpt lat="59.3681422433" lon="17.6498910498">
        <ele>0</ele>
        <time>2013-05-03T18:51:21Z</time>
      </trkpt>
      <trkpt lat="59.3677174486" lon="17.6499539978">
        <ele>0</ele>
        <time>2013-05-03T18:51:27Z</time>
      </trkpt>
      <trkpt lat="59.3675170374" lon="17.6499847594">
        <ele>0</ele>
        <time>2013-05-03T18:51:30Z</time>
      </trkpt>
      <trkpt lat="59.3673177158" lon="17.6499938119">
        <ele>0</ele>
        <time>2013-05-03T18:51:33Z</time>
      </trkpt>
      <trkpt lat="59.3669635805" lon="17.6500287644">
        <ele>0</ele>
        <time>2013-05-03T18:51:38Z</time>
      </trkpt>
      <trkpt lat="59.3668251115" lon="17.6500728532">
        <ele>0</ele>
        <time>2013-05-03T18:51:40Z</time>
      </trkpt>
      <trkpt lat="59.3666959464" lon="17.6501713405">
        <ele>0</ele>
        <time>2013-05-03T18:51:42Z</time>
      </trkpt>
      <trkpt lat="59.3662848981" lon="17.6506234602">
        <ele>0</ele>
        <time>2013-05-03T18:51:49Z</time>
      </trkpt>
      <trkpt lat="59.3662269791" lon="17.6506786131">
        <ele>0</ele>
        <time>2013-05-03T18:51:50Z</time>
      </trkpt>
      <trkpt lat="59.3661670486" lon="17.6507325925">
        <ele>0</ele>
        <time>2013-05-03T18:51:51Z</time>
      </trkpt>
      <trkpt lat="59.3661066151" lon="17.6507871587">
        <ele>0</ele>
        <time>2013-05-03T18:51:52Z</time>
      </trkpt>
      <trkpt lat="59.3660393084" lon="17.6508451614">
        <ele>0</ele>
        <time>2013-05-03T18:51:53Z</time>
      </trkpt>
      <trkpt lat="59.3658226363" lon="17.6510324969">
        <ele>0</ele>
        <time>2013-05-03T18:51:56Z</time>
      </trkpt>
      <trkpt lat="59.3657458581" lon="17.6511103648">
        <ele>0</ele>
        <time>2013-05-03T18:51:57Z</time>
      </trkpt>
      <trkpt lat="59.3656731032" lon="17.6512086006">
        <ele>0</ele>
        <time>2013-05-03T18:51:58Z</time>
      </trkpt>
      <trkpt lat="59.3656064671" lon="17.6513215048">
        <ele>0</ele>
        <time>2013-05-03T18:51:59Z</time>
      </trkpt>
      <trkpt lat="59.3655481291" lon="17.6514439644">
        <ele>0</ele>
        <time>2013-05-03T18:52:00Z</time>
      </trkpt>
      <trkpt lat="59.3654924732" lon="17.6515838583">
        <ele>0</ele>
        <time>2013-05-03T18:52:01Z</time>
      </trkpt>
      <trkpt lat="59.3654491388" lon="17.6517235007">
        <ele>0</ele>
        <time>2013-05-03T18:52:02Z</time>
      </trkpt>
      <trkpt lat="59.3654109174" lon="17.6518718604">
        <ele>0</ele>
        <time>2013-05-03T18:52:03Z</time>
      </trkpt>
      <trkpt lat="59.365381916" lon="17.6520327928">
        <ele>0</ele>
        <time>2013-05-03T18:52:04Z</time>
      </trkpt>
      <trkpt lat="59.3653557645" lon="17.6521942282">
        <ele>0</ele>
        <time>2013-05-03T18:52:05Z</time>
      </trkpt>
      <trkpt lat="59.3653337201" lon="17.6523538196">
        <ele>0</ele>
        <time>2013-05-03T18:52:06Z</time>
      </trkpt>
      <trkpt lat="59.365314274" lon="17.6525128243">
        <ele>0</ele>
        <time>2013-05-03T18:52:07Z</time>
      </trkpt>
      <trkpt lat="59.3652949119" lon="17.652679205">
        <ele>0</ele>
        <time>2013-05-03T18:52:08Z</time>
      </trkpt>
      <trkpt lat="59.3652727836" lon="17.6528387964">
        <ele>0</ele>
        <time>2013-05-03T18:52:09Z</time>
      </trkpt>
      <trkpt lat="59.3652509907" lon="17.6529949511">
        <ele>0</ele>
        <time>2013-05-03T18:52:10Z</time>
      </trkpt>
      <trkpt lat="59.3651096719" lon="17.6540362346">
        <ele>0</ele>
        <time>2013-05-03T18:52:17Z</time>
      </trkpt>
      <trkpt lat="59.3649873799" lon="17.6547145818">
        <ele>0</ele>
        <time>2013-05-03T18:52:22Z</time>
      </trkpt>
      <trkpt lat="59.3649513378" lon="17.6548334371">
        <ele>0</ele>
        <time>2013-05-03T18:52:23Z</time>
      </trkpt>
      <trkpt lat="59.3647385213" lon="17.6552236984">
        <ele>0</ele>
        <time>2013-05-03T18:52:27Z</time>
      </trkpt>
      <trkpt lat="59.3646714661" lon="17.6553052542">
        <ele>0</ele>
        <time>2013-05-03T18:52:28Z</time>
      </trkpt>
      <trkpt lat="59.3643827097" lon="17.6556439668">
        <ele>0</ele>
        <time>2013-05-03T18:52:32Z</time>
      </trkpt>
      <trkpt lat="59.3643074402" lon="17.6557329826">
        <ele>0</ele>
        <time>2013-05-03T18:52:33Z</time>
      </trkpt>
      <trkpt lat="59.3642319193" lon="17.6558230042">
        <ele>0</ele>
        <time>2013-05-03T18:52:34Z</time>
      </trkpt>
      <trkpt lat="59.3641575718" lon="17.655911098">
        <ele>0</ele>
        <time>2013-05-03T18:52:35Z</time>
      </trkpt>
      <trkpt lat="59.3640812127" lon="17.6559951684">
        <ele>0</ele>
        <time>2013-05-03T18:52:36Z</time>
      </trkpt>
      <trkpt lat="59.3636973217" lon="17.6564278421">
        <ele>0</ele>
        <time>2013-05-03T18:52:41Z</time>
      </trkpt>
      <trkpt lat="59.3636211302" lon="17.6565125831">
        <ele>0</ele>
        <time>2013-05-03T18:52:42Z</time>
      </trkpt>
      <trkpt lat="59.3635451902" lon="17.6565996711">
        <ele>0</ele>
        <time>2013-05-03T18:52:43Z</time>
      </trkpt>
      <trkpt lat="59.3634726868" lon="17.6566898603">
        <ele>0</ele>
        <time>2013-05-03T18:52:44Z</time>
      </trkpt>
      <trkpt lat="59.3634047096" lon="17.6567845758">
        <ele>0</ele>
        <time>2013-05-03T18:52:45Z</time>
      </trkpt>
      <trkpt lat="59.3633377382" lon="17.6568907744">
        <ele>0</ele>
        <time>2013-05-03T18:52:46Z</time>
      </trkpt>
      <trkpt lat="59.3632811604" lon="17.6570002421">
        <ele>0</ele>
        <time>2013-05-03T18:52:47Z</time>
      </trkpt>
      <trkpt lat="59.3629093393" lon="17.6577757355">
        <ele>0</ele>
        <time>2013-05-03T18:52:54Z</time>
      </trkpt>
      <trkpt lat="59.3628572877" lon="17.6578891426">
        <ele>0</ele>
        <time>2013-05-03T18:52:55Z</time>
      </trkpt>
      <trkpt lat="59.3624736481" lon="17.6586482074">
        <ele>0</ele>
        <time>2013-05-03T18:53:02Z</time>
      </trkpt>
      <trkpt lat="59.3623618336" lon="17.6588558271">
        <ele>0</ele>
        <time>2013-05-03T18:53:04Z</time>
      </trkpt>
      <trkpt lat="59.3619973048" lon="17.6595168237">
        <ele>0</ele>
        <time>2013-05-03T18:53:11Z</time>
      </trkpt>
      <trkpt lat="59.3617538106" lon="17.6600405248">
        <ele>0</ele>
        <time>2013-05-03T18:53:17Z</time>
      </trkpt>
      <trkpt lat="59.3616107315" lon="17.6603547623">
        <ele>0</ele>
        <time>2013-05-03T18:53:21Z</time>
      </trkpt>
      <trkpt lat="59.3615745217" lon="17.6604362343">
        <ele>0</ele>
        <time>2013-05-03T18:53:22Z</time>
      </trkpt>
      <trkpt lat="59.3613151857" lon="17.6609694908">
        <ele>0</ele>
        <time>2013-05-03T18:53:29Z</time>
      </trkpt>
      <trkpt lat="59.3612765452" lon="17.6610357916">
        <ele>0</ele>
        <time>2013-05-03T18:53:30Z</time>
      </trkpt>
      <trkpt lat="59.3612354739" lon="17.6611043556">
        <ele>0</ele>
        <time>2013-05-03T18:53:31Z</time>
      </trkpt>
      <trkpt lat="59.3611952407" lon="17.6611664655">
        <ele>0</ele>
        <time>2013-05-03T18:53:32Z</time>
      </trkpt>
      <trkpt lat="59.361153918" lon="17.6612238815">
        <ele>0</ele>
        <time>2013-05-03T18:53:33Z</time>
      </trkpt>
      <trkpt lat="59.3610669977" lon="17.661338462">
        <ele>0</ele>
        <time>2013-05-03T18:53:35Z</time>
      </trkpt>
      <trkpt lat="59.3610208134" lon="17.6613888373">
        <ele>0</ele>
        <time>2013-05-03T18:53:36Z</time>
      </trkpt>
      <trkpt lat="59.3609728689" lon="17.6614306629">
        <ele>0</ele>
        <time>2013-05-03T18:53:37Z</time>
      </trkpt>
      <trkpt lat="59.3609236672" lon="17.6614691359">
        <ele>0</ele>
        <time>2013-05-03T18:53:38Z</time>
      </trkpt>
      <trkpt lat="59.3608754713" lon="17.6615032502">
        <ele>0</ele>
        <time>2013-05-03T18:53:39Z</time>
      </trkpt>
      <trkpt lat="59.3607142035" lon="17.661571898">
        <ele>0</ele>
        <time>2013-05-03T18:53:42Z</time>
      </trkpt>
      <trkpt lat="59.3603489203" lon="17.6615873207">
        <ele>0</ele>
        <time>2013-05-03T18:53:48Z</time>
      </trkpt>
      <trkpt lat="59.3599615927" lon="17.6615359396">
        <ele>0</ele>
        <time>2013-05-03T18:53:54Z</time>
      </trkpt>
      <trkpt lat="59.3598962977" lon="17.6615258813">
        <ele>0</ele>
        <time>2013-05-03T18:53:55Z</time>
      </trkpt>
      <trkpt lat="59.3598284881" lon="17.6615161583">
        <ele>0</ele>
        <time>2013-05-03T18:53:56Z</time>
      </trkpt>
      <trkpt lat="59.3597593375" lon="17.6615104586">
        <ele>0</ele>
        <time>2013-05-03T18:53:57Z</time>
      </trkpt>
      <trkpt lat="59.3596918632" lon="17.6615086984">
        <ele>0</ele>
        <time>2013-05-03T18:53:58Z</time>
      </trkpt>
      <trkpt lat="59.3593650529" lon="17.6614766796">
        <ele>0</ele>
        <time>2013-05-03T18:54:03Z</time>
      </trkpt>
      <trkpt lat="59.3589993506" lon="17.6614322555">
        <ele>0</ele>
        <time>2013-05-03T18:54:09Z</time>
      </trkpt>
      <trkpt lat="59.3586094246" lon="17.6613853169">
        <ele>0</ele>
        <time>2013-05-03T18:54:15Z</time>
      </trkpt>
      <trkpt lat="59.3581785949" lon="17.661366709">
        <ele>0</ele>
        <time>2013-05-03T18:54:22Z</time>
      </trkpt>
      <trkpt lat="59.3581195864" lon="17.6613702294">
        <ele>0</ele>
        <time>2013-05-03T18:54:23Z</time>
      </trkpt>
      <trkpt lat="59.3576753457" lon="17.6614067745">
        <ele>0</ele>
        <time>2013-05-03T18:54:30Z</time>
      </trkpt>
      <trkpt lat="59.357385751" lon="17.661546417">
        <ele>0</ele>
        <time>2013-05-03T18:54:34Z</time>
      </trkpt>
      <trkpt lat="59.3573250661" lon="17.6616139751">
        <ele>0</ele>
        <time>2013-05-03T18:54:35Z</time>
      </trkpt>
      <trkpt lat="59.3571108247" lon="17.662017815">
        <ele>0</ele>
        <time>2013-05-03T18:54:39Z</time>
      </trkpt>
      <trkpt lat="59.3568307854" lon="17.6626993473">
        <ele>0</ele>
        <time>2013-05-03T18:54:45Z</time>
      </trkpt>
      <trkpt lat="59.3566330564" lon="17.6631623635">
        <ele>0</ele>
        <time>2013-05-03T18:54:49Z</time>
      </trkpt>
      <trkpt lat="59.3566012052" lon="17.6632983179">
        <ele>0</ele>
        <time>2013-05-03T18:54:50Z</time>
      </trkpt>
      <trkpt lat="59.3565685158" lon="17.6637418042">
        <ele>0</ele>
        <time>2013-05-03T18:54:53Z</time>
      </trkpt>
      <trkpt lat="59.3566254289" lon="17.6643326444">
        <ele>0</ele>
        <time>2013-05-03T18:54:57Z</time>
      </trkpt>
      <trkpt lat="59.3567636464" lon="17.6648402522">
        <ele>0</ele>
        <time>2013-05-03T18:55:01Z</time>
      </trkpt>
      <trkpt lat="59.3568011135" lon="17.6649740274">
        <ele>0</ele>
        <time>2013-05-03T18:55:02Z</time>
      </trkpt>
      <trkpt lat="59.3570520676" lon="17.6660366846">
        <ele>0</ele>
        <time>2013-05-03T18:55:10Z</time>
      </trkpt>
      <trkpt lat="59.357168576" lon="17.6669990106">
        <ele>0</ele>
        <time>2013-05-03T18:55:17Z</time>
      </trkpt>
      <trkpt lat="59.3572446836" lon="17.6677777729">
        <ele>0</ele>
        <time>2013-05-03T18:55:23Z</time>
      </trkpt>
      <trkpt lat="59.3573121579" lon="17.6685546074">
        <ele>0</ele>
        <time>2013-05-03T18:55:29Z</time>
      </trkpt>
      <trkpt lat="59.3573240602" lon="17.6686784919">
        <ele>0</ele>
        <time>2013-05-03T18:55:30Z</time>
      </trkpt>
      <trkpt lat="59.357338058" lon="17.6688028793">
        <ele>0</ele>
        <time>2013-05-03T18:55:31Z</time>
      </trkpt>
      <trkpt lat="59.35735105" lon="17.6689210641">
        <ele>0</ele>
        <time>2013-05-03T18:55:32Z</time>
      </trkpt>
      <trkpt lat="59.3573661374" lon="17.669041512">
        <ele>0</ele>
        <time>2013-05-03T18:55:33Z</time>
      </trkpt>
      <trkpt lat="59.3574407363" lon="17.6695010915">
        <ele>0</ele>
        <time>2013-05-03T18:55:37Z</time>
      </trkpt>
      <trkpt lat="59.3575369605" lon="17.6699598329">
        <ele>0</ele>
        <time>2013-05-03T18:55:41Z</time>
      </trkpt>
      <trkpt lat="59.3575607651" lon="17.6700681271">
        <ele>0</ele>
        <time>2013-05-03T18:55:42Z</time>
      </trkpt>
      <trkpt lat="59.357587671" lon="17.6701800254">
        <ele>0</ele>
        <time>2013-05-03T18:55:43Z</time>
      </trkpt>
      <trkpt lat="59.3576097992" lon="17.6702910856">
        <ele>0</ele>
        <time>2013-05-03T18:55:44Z</time>
      </trkpt>
      <trkpt lat="59.3576299996" lon="17.6704034869">
        <ele>0</ele>
        <time>2013-05-03T18:55:45Z</time>
      </trkpt>
      <trkpt lat="59.3576509543" lon="17.6705259465">
        <ele>0</ele>
        <time>2013-05-03T18:55:46Z</time>
      </trkpt>
      <trkpt lat="59.3576667123" lon="17.6706492442">
        <ele>0</ele>
        <time>2013-05-03T18:55:47Z</time>
      </trkpt>
      <trkpt lat="59.3576749266" lon="17.6707719552">
        <ele>0</ele>
        <time>2013-05-03T18:55:48Z</time>
      </trkpt>
      <trkpt lat="59.3576778602" lon="17.6708960073">
        <ele>0</ele>
        <time>2013-05-03T18:55:49Z</time>
      </trkpt>
      <trkpt lat="59.3576729149" lon="17.6710195565">
        <ele>0</ele>
        <time>2013-05-03T18:55:50Z</time>
      </trkpt>
      <trkpt lat="59.3576583304" lon="17.6711391663">
        <ele>0</ele>
        <time>2013-05-03T18:55:51Z</time>
      </trkpt>
      <trkpt lat="59.3576393035" lon="17.6712631346">
        <ele>0</ele>
        <time>2013-05-03T18:55:52Z</time>
      </trkpt>
      <trkpt lat="59.3576097992" lon="17.6715124123">
        <ele>0</ele>
        <time>2013-05-03T18:55:54Z</time>
      </trkpt>
      <trkpt lat="59.3575363738" lon="17.6726332399">
        <ele>0</ele>
        <time>2013-05-03T18:56:03Z</time>
      </trkpt>
      <trkpt lat="59.3574766946" lon="17.6736491262">
        <ele>0</ele>
        <time>2013-05-03T18:56:11Z</time>
      </trkpt>
      <trkpt lat="59.3574585059" lon="17.6742750865">
        <ele>0</ele>
        <time>2013-05-03T18:56:16Z</time>
      </trkpt>
      <trkpt lat="59.357459847" lon="17.6744018208">
        <ele>0</ele>
        <time>2013-05-03T18:56:17Z</time>
      </trkpt>
      <trkpt lat="59.357470492" lon="17.6745350092">
        <ele>0</ele>
        <time>2013-05-03T18:56:18Z</time>
      </trkpt>
      <trkpt lat="59.3574864176" lon="17.674663839">
        <ele>0</ele>
        <time>2013-05-03T18:56:19Z</time>
      </trkpt>
      <trkpt lat="59.3575114795" lon="17.6747927526">
        <ele>0</ele>
        <time>2013-05-03T18:56:20Z</time>
      </trkpt>
      <trkpt lat="59.3575768583" lon="17.675047311">
        <ele>0</ele>
        <time>2013-05-03T18:56:22Z</time>
      </trkpt>
      <trkpt lat="59.357614074" lon="17.6751770628">
        <ele>0</ele>
        <time>2013-05-03T18:56:23Z</time>
      </trkpt>
      <trkpt lat="59.3576882538" lon="17.6754534978">
        <ele>0</ele>
        <time>2013-05-03T18:56:25Z</time>
      </trkpt>
      <trkpt lat="59.35773075" lon="17.6757723453">
        <ele>0</ele>
        <time>2013-05-03T18:56:27Z</time>
      </trkpt>
      <trkpt lat="59.3577132318" lon="17.676257322">
        <ele>0</ele>
        <time>2013-05-03T18:56:30Z</time>
      </trkpt>
      <trkpt lat="59.3576174267" lon="17.6769265329">
        <ele>0</ele>
        <time>2013-05-03T18:56:34Z</time>
      </trkpt>
      <trkpt lat="59.3575753496" lon="17.6770816819">
        <ele>0</ele>
        <time>2013-05-03T18:56:35Z</time>
      </trkpt>
      <trkpt lat="59.3573160974" lon="17.6781840694">
        <ele>0</ele>
        <time>2013-05-03T18:56:42Z</time>
      </trkpt>
      <trkpt lat="59.3571332882" lon="17.6790535239">
        <ele>0</ele>
        <time>2013-05-03T18:56:48Z</time>
      </trkpt>
      <trkpt lat="59.3570873554" lon="17.6793596309">
        <ele>0</ele>
        <time>2013-05-03T18:56:50Z</time>
      </trkpt>
      <trkpt lat="59.3570345494" lon="17.6798454458">
        <ele>0</ele>
        <time>2013-05-03T18:56:53Z</time>
      </trkpt>
      <trkpt lat="59.3569273449" lon="17.6810057522">
        <ele>0</ele>
        <time>2013-05-03T18:57:00Z</time>
      </trkpt>
      <trkpt lat="59.356912006" lon="17.6811656789">
        <ele>0</ele>
        <time>2013-05-03T18:57:01Z</time>
      </trkpt>
      <trkpt lat="59.3568794843" lon="17.6814841911">
        <ele>0</ele>
        <time>2013-05-03T18:57:03Z</time>
      </trkpt>
      <trkpt lat="59.3568589486" lon="17.6816535054">
        <ele>0</ele>
        <time>2013-05-03T18:57:04Z</time>
      </trkpt>
      <trkpt lat="59.3568382453" lon="17.6818151923">
        <ele>0</ele>
        <time>2013-05-03T18:57:05Z</time>
      </trkpt>
      <trkpt lat="59.3568182964" lon="17.6819710118">
        <ele>0</ele>
        <time>2013-05-03T18:57:06Z</time>
      </trkpt>
      <trkpt lat="59.3567988504" lon="17.6821306032">
        <ele>0</ele>
        <time>2013-05-03T18:57:07Z</time>
      </trkpt>
      <trkpt lat="59.3567585334" lon="17.6824310105">
        <ele>0</ele>
        <time>2013-05-03T18:57:09Z</time>
      </trkpt>
      <trkpt lat="59.3565899734" lon="17.6832350023">
        <ele>0</ele>
        <time>2013-05-03T18:57:15Z</time>
      </trkpt>
      <trkpt lat="59.3565382571" lon="17.6834902312">
        <ele>0</ele>
        <time>2013-05-03T18:57:17Z</time>
      </trkpt>
      <trkpt lat="59.3565146201" lon="17.6838865274">
        <ele>0</ele>
        <time>2013-05-03T18:57:20Z</time>
      </trkpt>
      <trkpt lat="59.3565230859" lon="17.6840160278">
        <ele>0</ele>
        <time>2013-05-03T18:57:21Z</time>
      </trkpt>
      <trkpt lat="59.356532306" lon="17.6841420077">
        <ele>0</ele>
        <time>2013-05-03T18:57:22Z</time>
      </trkpt>
      <trkpt lat="59.3565478125" lon="17.6842624556">
        <ele>0</ele>
        <time>2013-05-03T18:57:23Z</time>
      </trkpt>
      <trkpt lat="59.3565665041" lon="17.6843913693">
        <ele>0</ele>
        <time>2013-05-03T18:57:24Z</time>
      </trkpt>
      <trkpt lat="59.3565856987" lon="17.6845252282">
        <ele>0</ele>
        <time>2013-05-03T18:57:25Z</time>
      </trkpt>
      <trkpt lat="59.3566007861" lon="17.6846653736">
        <ele>0</ele>
        <time>2013-05-03T18:57:26Z</time>
      </trkpt>
      <trkpt lat="59.3566286978" lon="17.6851361011">
        <ele>0</ele>
        <time>2013-05-03T18:57:29Z</time>
      </trkpt>
      <trkpt lat="59.3566331402" lon="17.6861221478">
        <ele>0</ele>
        <time>2013-05-03T18:57:35Z</time>
      </trkpt>
      <trkpt lat="59.3566756364" lon="17.6869694741">
        <ele>0</ele>
        <time>2013-05-03T18:57:41Z</time>
      </trkpt>
      <trkpt lat="59.3567693461" lon="17.688069347">
        <ele>0</ele>
        <time>2013-05-03T18:57:49Z</time>
      </trkpt>
      <trkpt lat="59.3569249142" lon="17.6887627816">
        <ele>0</ele>
        <time>2013-05-03T18:57:54Z</time>
      </trkpt>
      <trkpt lat="59.3572323622" lon="17.6896669371">
        <ele>0</ele>
        <time>2013-05-03T18:58:01Z</time>
      </trkpt>
      <trkpt lat="59.3572776245" lon="17.6897824397">
        <ele>0</ele>
        <time>2013-05-03T18:58:02Z</time>
      </trkpt>
      <trkpt lat="59.3573207913" lon="17.6898979423">
        <ele>0</ele>
        <time>2013-05-03T18:58:03Z</time>
      </trkpt>
      <trkpt lat="59.3573650477" lon="17.6900149536">
        <ele>0</ele>
        <time>2013-05-03T18:58:04Z</time>
      </trkpt>
      <trkpt lat="59.3574124893" lon="17.690137497">
        <ele>0</ele>
        <time>2013-05-03T18:58:05Z</time>
      </trkpt>
      <trkpt lat="59.3575707395" lon="17.6906169417">
        <ele>0</ele>
        <time>2013-05-03T18:58:09Z</time>
      </trkpt>
      <trkpt lat="59.3577294089" lon="17.6913387071">
        <ele>0</ele>
        <time>2013-05-03T18:58:15Z</time>
      </trkpt>
      <trkpt lat="59.3578248788" lon="17.6919701156">
        <ele>0</ele>
        <time>2013-05-03T18:58:20Z</time>
      </trkpt>
      <trkpt lat="59.3579352684" lon="17.692619629">
        <ele>0</ele>
        <time>2013-05-03T18:58:25Z</time>
      </trkpt>
      <trkpt lat="59.3580880704" lon="17.6937030734">
        <ele>0</ele>
        <time>2013-05-03T18:58:33Z</time>
      </trkpt>
      <trkpt lat="59.3582761603" lon="17.6944659101">
        <ele>0</ele>
        <time>2013-05-03T18:58:39Z</time>
      </trkpt>
      <trkpt lat="59.3584365898" lon="17.6948661459">
        <ele>0</ele>
        <time>2013-05-03T18:58:43Z</time>
      </trkpt>
      <trkpt lat="59.3584651721" lon="17.6949567542">
        <ele>0</ele>
        <time>2013-05-03T18:58:44Z</time>
      </trkpt>
      <trkpt lat="59.3585204088" lon="17.6951646253">
        <ele>0</ele>
        <time>2013-05-03T18:58:46Z</time>
      </trkpt>
      <trkpt lat="59.3585525953" lon="17.695401414">
        <ele>0</ele>
        <time>2013-05-03T18:58:48Z</time>
      </trkpt>
      <trkpt lat="59.3585616478" lon="17.6955333451">
        <ele>0</ele>
        <time>2013-05-03T18:58:49Z</time>
      </trkpt>
      <trkpt lat="59.3585649167" lon="17.6957961177">
        <ele>0</ele>
        <time>2013-05-03T18:58:51Z</time>
      </trkpt>
      <trkpt lat="59.3585566186" lon="17.6959193316">
        <ele>0</ele>
        <time>2013-05-03T18:58:52Z</time>
      </trkpt>
      <trkpt lat="59.3585432914" lon="17.6960450601">
        <ele>0</ele>
        <time>2013-05-03T18:58:53Z</time>
      </trkpt>
      <trkpt lat="59.3585256056" lon="17.6961696151">
        <ele>0</ele>
        <time>2013-05-03T18:58:54Z</time>
      </trkpt>
      <trkpt lat="59.358503645" lon="17.6962940863">
        <ele>0</ele>
        <time>2013-05-03T18:58:55Z</time>
      </trkpt>
      <trkpt lat="59.3584382662" lon="17.6965233313">
        <ele>0</ele>
        <time>2013-05-03T18:58:57Z</time>
      </trkpt>
      <trkpt lat="59.3582721369" lon="17.6967954916">
        <ele>0</ele>
        <time>2013-05-03T18:59:00Z</time>
      </trkpt>
      <trkpt lat="59.3581384456" lon="17.6969430969">
        <ele>0</ele>
        <time>2013-05-03T18:59:02Z</time>
      </trkpt>
      <trkpt lat="59.357928479" lon="17.6971207931">
        <ele>0</ele>
        <time>2013-05-03T18:59:05Z</time>
      </trkpt>
      <trkpt lat="59.35754551" lon="17.6975418998">
        <ele>0</ele>
        <time>2013-05-03T18:59:11Z</time>
      </trkpt>
      <trkpt lat="59.3572344577" lon="17.6981365956">
        <ele>0</ele>
        <time>2013-05-03T18:59:17Z</time>
      </trkpt>
      <trkpt lat="59.356966656" lon="17.6987053913">
        <ele>0</ele>
        <time>2013-05-03T18:59:23Z</time>
      </trkpt>
      <trkpt lat="59.3568620499" lon="17.699044523">
        <ele>0</ele>
        <time>2013-05-03T18:59:26Z</time>
      </trkpt>
      <trkpt lat="59.3568419333" lon="17.6991649709">
        <ele>0</ele>
        <time>2013-05-03T18:59:27Z</time>
      </trkpt>
      <trkpt lat="59.3568384968" lon="17.6995652066">
        <ele>0</ele>
        <time>2013-05-03T18:59:30Z</time>
      </trkpt>
      <trkpt lat="59.356975457" lon="17.7001002233">
        <ele>0</ele>
        <time>2013-05-03T18:59:34Z</time>
      </trkpt>
      <trkpt lat="59.3572373076" lon="17.7006831006">
        <ele>0</ele>
        <time>2013-05-03T18:59:38Z</time>
      </trkpt>
      <trkpt lat="59.3573101463" lon="17.7008456257">
        <ele>0</ele>
        <time>2013-05-03T18:59:39Z</time>
      </trkpt>
      <trkpt lat="59.3573818953" lon="17.7010227352">
        <ele>0</ele>
        <time>2013-05-03T18:59:40Z</time>
      </trkpt>
      <trkpt lat="59.3574546502" lon="17.7012070532">
        <ele>0</ele>
        <time>2013-05-03T18:59:41Z</time>
      </trkpt>
      <trkpt lat="59.357522376" lon="17.701403525">
        <ele>0</ele>
        <time>2013-05-03T18:59:42Z</time>
      </trkpt>
      <trkpt lat="59.3575830609" lon="17.7016158385">
        <ele>0</ele>
        <time>2013-05-03T18:59:43Z</time>
      </trkpt>
      <trkpt lat="59.357640477" lon="17.701846676">
        <ele>0</ele>
        <time>2013-05-03T18:59:44Z</time>
      </trkpt>
      <trkpt lat="59.3576922771" lon="17.7020752504">
        <ele>0</ele>
        <time>2013-05-03T18:59:45Z</time>
      </trkpt>
      <trkpt lat="59.3577421494" lon="17.702309776">
        <ele>0</ele>
        <time>2013-05-03T18:59:46Z</time>
      </trkpt>
      <trkpt lat="59.357797889" lon="17.7025406973">
        <ele>0</ele>
        <time>2013-05-03T18:59:47Z</time>
      </trkpt>
      <trkpt lat="59.3578527067" lon="17.7027759773">
        <ele>0</ele>
        <time>2013-05-03T18:59:48Z</time>
      </trkpt>
      <trkpt lat="59.3579055126" lon="17.7030185494">
        <ele>0</ele>
        <time>2013-05-03T18:59:49Z</time>
      </trkpt>
      <trkpt lat="59.3579533733" lon="17.7032672404">
        <ele>0</ele>
        <time>2013-05-03T18:59:50Z</time>
      </trkpt>
      <trkpt lat="59.3579947799" lon="17.7035290072">
        <ele>0</ele>
        <time>2013-05-03T18:59:51Z</time>
      </trkpt>
      <trkpt lat="59.3580257091" lon="17.7037775305">
        <ele>0</ele>
        <time>2013-05-03T18:59:52Z</time>
      </trkpt>
      <trkpt lat="59.3580454065" lon="17.7040265567">
        <ele>0</ele>
        <time>2013-05-03T18:59:53Z</time>
      </trkpt>
      <trkpt lat="59.3580566383" lon="17.7042691289">
        <ele>0</ele>
        <time>2013-05-03T18:59:54Z</time>
      </trkpt>
      <trkpt lat="59.3580659422" lon="17.7045040736">
        <ele>0</ele>
        <time>2013-05-03T18:59:55Z</time>
      </trkpt>
      <trkpt lat="59.3580687082" lon="17.7047329833">
        <ele>0</ele>
        <time>2013-05-03T18:59:56Z</time>
      </trkpt>
      <trkpt lat="59.3580653555" lon="17.7049574506">
        <ele>0</ele>
        <time>2013-05-03T18:59:57Z</time>
      </trkpt>
      <trkpt lat="59.3580543752" lon="17.7051773916">
        <ele>0</ele>
        <time>2013-05-03T18:59:58Z</time>
      </trkpt>
      <trkpt lat="59.3580380305" lon="17.7054006016">
        <ele>0</ele>
        <time>2013-05-03T18:59:59Z</time>
      </trkpt>
      <trkpt lat="59.3579431474" lon="17.7061277314">
        <ele>0</ele>
        <time>2013-05-03T19:00:03Z</time>
      </trkpt>
      <trkpt lat="59.3579198457" lon="17.706283048">
        <ele>0</ele>
        <time>2013-05-03T19:00:04Z</time>
      </trkpt>
      <trkpt lat="59.3579005673" lon="17.7064304018">
        <ele>0</ele>
        <time>2013-05-03T19:00:05Z</time>
      </trkpt>
      <trkpt lat="59.3578797802" lon="17.7065755763">
        <ele>0</ele>
        <time>2013-05-03T19:00:06Z</time>
      </trkpt>
      <trkpt lat="59.3578599151" lon="17.7067073398">
        <ele>0</ele>
        <time>2013-05-03T19:00:07Z</time>
      </trkpt>
      <trkpt lat="59.3578415587" lon="17.7068417855">
        <ele>0</ele>
        <time>2013-05-03T19:00:08Z</time>
      </trkpt>
      <trkpt lat="59.3577506151" lon="17.707466237">
        <ele>0</ele>
        <time>2013-05-03T19:00:13Z</time>
      </trkpt>
      <trkpt lat="59.3577272296" lon="17.7075809853">
        <ele>0</ele>
        <time>2013-05-03T19:00:14Z</time>
      </trkpt>
      <trkpt lat="59.3576507867" lon="17.7077763673">
        <ele>0</ele>
        <time>2013-05-03T19:00:16Z</time>
      </trkpt>
      <trkpt lat="59.3574029339" lon="17.7080548141">
        <ele>0</ele>
        <time>2013-05-03T19:00:20Z</time>
      </trkpt>
      <trkpt lat="59.3573202884" lon="17.7080955501">
        <ele>0</ele>
        <time>2013-05-03T19:00:21Z</time>
      </trkpt>
      <trkpt lat="59.3572390678" lon="17.7081355318">
        <ele>0</ele>
        <time>2013-05-03T19:00:22Z</time>
      </trkpt>
      <trkpt lat="59.3571550811" lon="17.708178028">
        <ele>0</ele>
        <time>2013-05-03T19:00:23Z</time>
      </trkpt>
      <trkpt lat="59.3570687476" lon="17.7082273974">
        <ele>0</ele>
        <time>2013-05-03T19:00:24Z</time>
      </trkpt>
      <trkpt lat="59.3569798994" lon="17.7082783593">
        <ele>0</ele>
        <time>2013-05-03T19:00:25Z</time>
      </trkpt>
      <trkpt lat="59.3568900455" lon="17.7083261362">
        <ele>0</ele>
        <time>2013-05-03T19:00:26Z</time>
      </trkpt>
      <trkpt lat="59.3567984313" lon="17.708374835">
        <ele>0</ele>
        <time>2013-05-03T19:00:27Z</time>
      </trkpt>
      <trkpt lat="59.3567102537" lon="17.7084303232">
        <ele>0</ele>
        <time>2013-05-03T19:00:28Z</time>
      </trkpt>
      <trkpt lat="59.3566188072" lon="17.7084895832">
        <ele>0</ele>
        <time>2013-05-03T19:00:29Z</time>
      </trkpt>
      <trkpt lat="59.3565321383" lon="17.7085423892">
        <ele>0</ele>
        <time>2013-05-03T19:00:30Z</time>
      </trkpt>
      <trkpt lat="59.3564443798" lon="17.7085933511">
        <ele>0</ele>
        <time>2013-05-03T19:00:31Z</time>
      </trkpt>
      <trkpt lat="59.3563600579" lon="17.7086428043">
        <ele>0</ele>
        <time>2013-05-03T19:00:32Z</time>
      </trkpt>
      <trkpt lat="59.3562762389" lon="17.7086942692">
        <ele>0</ele>
        <time>2013-05-03T19:00:33Z</time>
      </trkpt>
      <trkpt lat="59.3561912464" lon="17.7087405373">
        <ele>0</ele>
        <time>2013-05-03T19:00:34Z</time>
      </trkpt>
      <trkpt lat="59.3557721514" lon="17.7089817684">
        <ele>0</ele>
        <time>2013-05-03T19:00:39Z</time>
      </trkpt>
      <trkpt lat="59.3553256476" lon="17.7092533419">
        <ele>0</ele>
        <time>2013-05-03T19:00:45Z</time>
      </trkpt>
      <trkpt lat="59.3549868512" lon="17.7094789827">
        <ele>0</ele>
        <time>2013-05-03T19:00:50Z</time>
      </trkpt>
      <trkpt lat="59.3549187902" lon="17.7095213113">
        <ele>0</ele>
        <time>2013-05-03T19:00:51Z</time>
      </trkpt>
      <trkpt lat="59.354848969" lon="17.7095607062">
        <ele>0</ele>
        <time>2013-05-03T19:00:52Z</time>
      </trkpt>
      <trkpt lat="59.3547831711" lon="17.7095977542">
        <ele>0</ele>
        <time>2013-05-03T19:00:53Z</time>
      </trkpt>
      <trkpt lat="59.3547207259" lon="17.7096378197">
        <ele>0</ele>
        <time>2013-05-03T19:00:54Z</time>
      </trkpt>
      <trkpt lat="59.3542313068" lon="17.7099495426">
        <ele>0</ele>
        <time>2013-05-03T19:01:02Z</time>
      </trkpt>
      <trkpt lat="59.3538392853" lon="17.7101989041">
        <ele>0</ele>
        <time>2013-05-03T19:01:09Z</time>
      </trkpt>
      <trkpt lat="59.3537888263" lon="17.7102354492">
        <ele>0</ele>
        <time>2013-05-03T19:01:10Z</time>
      </trkpt>
      <trkpt lat="59.3537414685" lon="17.7102687253">
        <ele>0</ele>
        <time>2013-05-03T19:01:11Z</time>
      </trkpt>
      <trkpt lat="59.3536984694" lon="17.7102954636">
        <ele>0</ele>
        <time>2013-05-03T19:01:12Z</time>
      </trkpt>
      <trkpt lat="59.3536557217" lon="17.7103286559">
        <ele>0</ele>
        <time>2013-05-03T19:01:13Z</time>
      </trkpt>
      <trkpt lat="59.3535727409" lon="17.7103985609">
        <ele>0</ele>
        <time>2013-05-03T19:01:15Z</time>
      </trkpt>
      <trkpt lat="59.3534217829" lon="17.7105639358">
        <ele>0</ele>
        <time>2013-05-03T19:01:19Z</time>
      </trkpt>
      <trkpt lat="59.3533919433" lon="17.7106046719">
        <ele>0</ele>
        <time>2013-05-03T19:01:20Z</time>
      </trkpt>
      <trkpt lat="59.3533630257" lon="17.7106466652">
        <ele>0</ele>
        <time>2013-05-03T19:01:21Z</time>
      </trkpt>
      <trkpt lat="59.3533310069" lon="17.7106894129">
        <ele>0</ele>
        <time>2013-05-03T19:01:22Z</time>
      </trkpt>
      <trkpt lat="59.3533014188" lon="17.7107290593">
        <ele>0</ele>
        <time>2013-05-03T19:01:23Z</time>
      </trkpt>
      <trkpt lat="59.3531652967" lon="17.7109029837">
        <ele>0</ele>
        <time>2013-05-03T19:01:27Z</time>
      </trkpt>
      <trkpt lat="59.3531290869" lon="17.7109472401">
        <ele>0</ele>
        <time>2013-05-03T19:01:28Z</time>
      </trkpt>
      <trkpt lat="59.3530930448" lon="17.7110047399">
        <ele>0</ele>
        <time>2013-05-03T19:01:29Z</time>
      </trkpt>
      <trkpt lat="59.3530601877" lon="17.7110551152">
        <ele>0</ele>
        <time>2013-05-03T19:01:30Z</time>
      </trkpt>
      <trkpt lat="59.3530275821" lon="17.7111059095">
        <ele>0</ele>
        <time>2013-05-03T19:01:31Z</time>
      </trkpt>
      <trkpt lat="59.35299615" lon="17.7111573743">
        <ele>0</ele>
        <time>2013-05-03T19:01:32Z</time>
      </trkpt>
      <trkpt lat="59.3529254068" lon="17.7112652494">
        <ele>0</ele>
        <time>2013-05-03T19:01:34Z</time>
      </trkpt>
      <trkpt lat="59.3528945614" lon="17.711327024">
        <ele>0</ele>
        <time>2013-05-03T19:01:35Z</time>
      </trkpt>
      <trkpt lat="59.3528619558" lon="17.7113869546">
        <ele>0</ele>
        <time>2013-05-03T19:01:36Z</time>
      </trkpt>
      <trkpt lat="59.3528233152" lon="17.7114482263">
        <ele>0</ele>
        <time>2013-05-03T19:01:37Z</time>
      </trkpt>
      <trkpt lat="59.3527903743" lon="17.711505307">
        <ele>0</ele>
        <time>2013-05-03T19:01:38Z</time>
      </trkpt>
      <trkpt lat="59.3527602833" lon="17.7115673331">
        <ele>0</ele>
        <time>2013-05-03T19:01:39Z</time>
      </trkpt>
      <trkpt lat="59.3527306952" lon="17.7116315384">
        <ele>0</ele>
        <time>2013-05-03T19:01:40Z</time>
      </trkpt>
      <trkpt lat="59.3527032864" lon="17.7116966658">
        <ele>0</ele>
        <time>2013-05-03T19:01:41Z</time>
      </trkpt>
      <trkpt lat="59.3526781407" lon="17.7117665708">
        <ele>0</ele>
        <time>2013-05-03T19:01:42Z</time>
      </trkpt>
      <trkpt lat="59.3526544199" lon="17.7118421756">
        <ele>0</ele>
        <time>2013-05-03T19:01:43Z</time>
      </trkpt>
      <trkpt lat="59.3525801563" lon="17.712074438">
        <ele>0</ele>
        <time>2013-05-03T19:01:46Z</time>
      </trkpt>
      <trkpt lat="59.3524745443" lon="17.7123284934">
        <ele>0</ele>
        <time>2013-05-03T19:01:49Z</time>
      </trkpt>
      <trkpt lat="59.3524292821" lon="17.7124144079">
        <ele>0</ele>
        <time>2013-05-03T19:01:50Z</time>
      </trkpt>
      <trkpt lat="59.3522032222" lon="17.7127784338">
        <ele>0</ele>
        <time>2013-05-03T19:01:54Z</time>
      </trkpt>
      <trkpt lat="59.3518975344" lon="17.7131690303">
        <ele>0</ele>
        <time>2013-05-03T19:01:59Z</time>
      </trkpt>
      <trkpt lat="59.3518236898" lon="17.7132149632">
        <ele>0</ele>
        <time>2013-05-03T19:02:00Z</time>
      </trkpt>
      <trkpt lat="59.3517509349" lon="17.7132074194">
        <ele>0</ele>
        <time>2013-05-03T19:02:01Z</time>
      </trkpt>
      <trkpt lat="59.3516789344" lon="17.7131636659">
        <ele>0</ele>
        <time>2013-05-03T19:02:02Z</time>
      </trkpt>
      <trkpt lat="59.3516077721" lon="17.7131064175">
        <ele>0</ele>
        <time>2013-05-03T19:02:03Z</time>
      </trkpt>
      <trkpt lat="59.3515394596" lon="17.7130495044">
        <ele>0</ele>
        <time>2013-05-03T19:02:04Z</time>
      </trkpt>
      <trkpt lat="59.3512481047" lon="17.7128610793">
        <ele>0</ele>
        <time>2013-05-03T19:02:08Z</time>
      </trkpt>
      <trkpt lat="59.3509518046" lon="17.7127419725">
        <ele>0</ele>
        <time>2013-05-03T19:02:12Z</time>
      </trkpt>
      <trkpt lat="59.3508797202" lon="17.7127123844">
        <ele>0</ele>
        <time>2013-05-03T19:02:13Z</time>
      </trkpt>
      <trkpt lat="59.3508101505" lon="17.7126826287">
        <ele>0</ele>
        <time>2013-05-03T19:02:14Z</time>
      </trkpt>
      <trkpt lat="59.3507360545" lon="17.7126558066">
        <ele>0</ele>
        <time>2013-05-03T19:02:15Z</time>
      </trkpt>
      <trkpt lat="59.3506674905" lon="17.7126291522">
        <ele>0</ele>
        <time>2013-05-03T19:02:16Z</time>
      </trkpt>
      <trkpt lat="59.3503166242" lon="17.7124797867">
        <ele>0</ele>
        <time>2013-05-03T19:02:21Z</time>
      </trkpt>
      <trkpt lat="59.3500246826" lon="17.7123469336">
        <ele>0</ele>
        <time>2013-05-03T19:02:25Z</time>
      </trkpt>
      <trkpt lat="59.3499514248" lon="17.712308293">
        <ele>0</ele>
        <time>2013-05-03T19:02:26Z</time>
      </trkpt>
      <trkpt lat="59.3498785023" lon="17.712264791">
        <ele>0</ele>
        <time>2013-05-03T19:02:27Z</time>
      </trkpt>
      <trkpt lat="59.3498076752" lon="17.7122137452">
        <ele>0</ele>
        <time>2013-05-03T19:02:28Z</time>
      </trkpt>
      <trkpt lat="59.3497388598" lon="17.7121521382">
        <ele>0</ele>
        <time>2013-05-03T19:02:29Z</time>
      </trkpt>
      <trkpt lat="59.3492000713" lon="17.7116365676">
        <ele>0</ele>
        <time>2013-05-03T19:02:37Z</time>
      </trkpt>
      <trkpt lat="59.3491330161" lon="17.7115680874">
        <ele>0</ele>
        <time>2013-05-03T19:02:38Z</time>
      </trkpt>
      <trkpt lat="59.3490705709" lon="17.711501619">
        <ele>0</ele>
        <time>2013-05-03T19:02:39Z</time>
      </trkpt>
      <trkpt lat="59.3490075391" lon="17.7114410178">
        <ele>0</ele>
        <time>2013-05-03T19:02:40Z</time>
      </trkpt>
      <trkpt lat="59.3489434175" lon="17.7113799138">
        <ele>0</ele>
        <time>2013-05-03T19:02:41Z</time>
      </trkpt>
      <trkpt lat="59.3488787092" lon="17.7113198156">
        <ele>0</ele>
        <time>2013-05-03T19:02:42Z</time>
      </trkpt>
      <trkpt lat="59.3487530646" lon="17.7111950091">
        <ele>0</ele>
        <time>2013-05-03T19:02:44Z</time>
      </trkpt>
      <trkpt lat="59.3482908866" lon="17.7107925941">
        <ele>0</ele>
        <time>2013-05-03T19:02:51Z</time>
      </trkpt>
      <trkpt lat="59.3478320614" lon="17.7104648618">
        <ele>0</ele>
        <time>2013-05-03T19:02:58Z</time>
      </trkpt>
      <trkpt lat="59.3476691173" lon="17.7103622673">
        <ele>0</ele>
        <time>2013-05-03T19:03:01Z</time>
      </trkpt>
      <trkpt lat="59.3476106116" lon="17.7103270633">
        <ele>0</ele>
        <time>2013-05-03T19:03:02Z</time>
      </trkpt>
      <trkpt lat="59.3473011519" lon="17.7101639516">
        <ele>0</ele>
        <time>2013-05-03T19:03:08Z</time>
      </trkpt>
      <trkpt lat="59.3472496032" lon="17.7101398955">
        <ele>0</ele>
        <time>2013-05-03T19:03:09Z</time>
      </trkpt>
      <trkpt lat="59.3472034189" lon="17.7101145822">
        <ele>0</ele>
        <time>2013-05-03T19:03:10Z</time>
      </trkpt>
      <trkpt lat="59.3471585757" lon="17.7100885983">
        <ele>0</ele>
        <time>2013-05-03T19:03:11Z</time>
      </trkpt>
      <trkpt lat="59.3471144031" lon="17.7100658833">
        <ele>0</ele>
        <time>2013-05-03T19:03:12Z</time>
      </trkpt>
      <trkpt lat="59.3470188495" lon="17.7100213754">
        <ele>0</ele>
        <time>2013-05-03T19:03:14Z</time>
      </trkpt>
      <trkpt lat="59.3469683904" lon="17.7099987443">
        <ele>0</ele>
        <time>2013-05-03T19:03:15Z</time>
      </trkpt>
      <trkpt lat="59.3469238825" lon="17.7099813938">
        <ele>0</ele>
        <time>2013-05-03T19:03:16Z</time>
      </trkpt>
      <trkpt lat="59.3468787879" lon="17.7099600199">
        <ele>0</ele>
        <time>2013-05-03T19:03:17Z</time>
      </trkpt>
      <trkpt lat="59.3468362079" lon="17.709942837">
        <ele>0</ele>
        <time>2013-05-03T19:03:18Z</time>
      </trkpt>
      <trkpt lat="59.3467932087" lon="17.7099318567">
        <ele>0</ele>
        <time>2013-05-03T19:03:19Z</time>
      </trkpt>
      <trkpt lat="59.3467480303" lon="17.7099223014">
        <ele>0</ele>
        <time>2013-05-03T19:03:20Z</time>
      </trkpt>
      <trkpt lat="59.3467013431" lon="17.7099156797">
        <ele>0</ele>
        <time>2013-05-03T19:03:21Z</time>
      </trkpt>
      <trkpt lat="59.3466530633" lon="17.7099085551">
        <ele>0</ele>
        <time>2013-05-03T19:03:22Z</time>
      </trkpt>
      <trkpt lat="59.3466037778" lon="17.709908136">
        <ele>0</ele>
        <time>2013-05-03T19:03:23Z</time>
      </trkpt>
      <trkpt lat="59.3464466171" lon="17.7099502131">
        <ele>0</ele>
        <time>2013-05-03T19:03:26Z</time>
      </trkpt>
      <trkpt lat="59.346392973" lon="17.7099818967">
        <ele>0</ele>
        <time>2013-05-03T19:03:27Z</time>
      </trkpt>
      <trkpt lat="59.3460341438" lon="17.7102769396">
        <ele>0</ele>
        <time>2013-05-03T19:03:33Z</time>
      </trkpt>
      <trkpt lat="59.3456999575" lon="17.7105720663">
        <ele>0</ele>
        <time>2013-05-03T19:03:38Z</time>
      </trkpt>
      <trkpt lat="59.3456282084" lon="17.7106308234">
        <ele>0</ele>
        <time>2013-05-03T19:03:39Z</time>
      </trkpt>
      <trkpt lat="59.3455583034" lon="17.7106867307">
        <ele>0</ele>
        <time>2013-05-03T19:03:40Z</time>
      </trkpt>
      <trkpt lat="59.3454883145" lon="17.710726377">
        <ele>0</ele>
        <time>2013-05-03T19:03:41Z</time>
      </trkpt>
      <trkpt lat="59.3454143862" lon="17.7107495111">
        <ele>0</ele>
        <time>2013-05-03T19:03:42Z</time>
      </trkpt>
      <trkpt lat="59.3453362669" lon="17.7107389499">
        <ele>0</ele>
        <time>2013-05-03T19:03:43Z</time>
      </trkpt>
      <trkpt lat="59.3452663618" lon="17.7106971242">
        <ele>0</ele>
        <time>2013-05-03T19:03:44Z</time>
      </trkpt>
      <trkpt lat="59.3452002286" lon="17.7106327512">
        <ele>0</ele>
        <time>2013-05-03T19:03:45Z</time>
      </trkpt>
      <trkpt lat="59.3451373644" lon="17.7105600801">
        <ele>0</ele>
        <time>2013-05-03T19:03:46Z</time>
      </trkpt>
      <trkpt lat="59.3450808704" lon="17.7104594135">
        <ele>0</ele>
        <time>2013-05-03T19:03:47Z</time>
      </trkpt>
      <trkpt lat="59.3449819639" lon="17.7102512071">
        <ele>0</ele>
        <time>2013-05-03T19:03:49Z</time>
      </trkpt>
      <trkpt lat="59.3446400662" lon="17.7095408411">
        <ele>0</ele>
        <time>2013-05-03T19:03:56Z</time>
      </trkpt>
      <trkpt lat="59.3442894514" lon="17.7088691156">
        <ele>0</ele>
        <time>2013-05-03T19:04:03Z</time>
      </trkpt>
      <trkpt lat="59.3439017047" lon="17.708155816">
        <ele>0</ele>
        <time>2013-05-03T19:04:11Z</time>
      </trkpt>
      <trkpt lat="59.3436891397" lon="17.7075644729">
        <ele>0</ele>
        <time>2013-05-03T19:04:17Z</time>
      </trkpt>
      <trkpt lat="59.3435443843" lon="17.7070163805">
        <ele>0</ele>
        <time>2013-05-03T19:04:22Z</time>
      </trkpt>
      <trkpt lat="59.3434888123" lon="17.7068097666">
        <ele>0</ele>
        <time>2013-05-03T19:04:24Z</time>
      </trkpt>
      <trkpt lat="59.3434591403" lon="17.7067013048">
        <ele>0</ele>
        <time>2013-05-03T19:04:25Z</time>
      </trkpt>
      <trkpt lat="59.3434295522" lon="17.706597956">
        <ele>0</ele>
        <time>2013-05-03T19:04:26Z</time>
      </trkpt>
      <trkpt lat="59.3434005509" lon="17.7064902486">
        <ele>0</ele>
        <time>2013-05-03T19:04:27Z</time>
      </trkpt>
      <trkpt lat="59.3433746508" lon="17.7063827926">
        <ele>0</ele>
        <time>2013-05-03T19:04:28Z</time>
      </trkpt>
      <trkpt lat="59.3433448112" lon="17.7062710619">
        <ele>0</ele>
        <time>2013-05-03T19:04:29Z</time>
      </trkpt>
      <trkpt lat="59.3432283866" lon="17.705830174">
        <ele>0</ele>
        <time>2013-05-03T19:04:33Z</time>
      </trkpt>
      <trkpt lat="59.3432020675" lon="17.7057238077">
        <ele>0</ele>
        <time>2013-05-03T19:04:34Z</time>
      </trkpt>
      <trkpt lat="59.34317776" lon="17.7056126637">
        <ele>0</ele>
        <time>2013-05-03T19:04:35Z</time>
      </trkpt>
      <trkpt lat="59.3431528657" lon="17.7054990051">
        <ele>0</ele>
        <time>2013-05-03T19:04:36Z</time>
      </trkpt>
      <trkpt lat="59.3431281391" lon="17.7053832511">
        <ele>0</ele>
        <time>2013-05-03T19:04:37Z</time>
      </trkpt>
      <trkpt lat="59.343042057" lon="17.7049031358">
        <ele>0</ele>
        <time>2013-05-03T19:04:41Z</time>
      </trkpt>
      <trkpt lat="59.3430175819" lon="17.7046601446">
        <ele>0</ele>
        <time>2013-05-03T19:04:43Z</time>
      </trkpt>
      <trkpt lat="59.3430151511" lon="17.7043024889">
        <ele>0</ele>
        <time>2013-05-03T19:04:46Z</time>
      </trkpt>
      <trkpt lat="59.3430872354" lon="17.7034507202">
        <ele>0</ele>
        <time>2013-05-03T19:04:53Z</time>
      </trkpt>
      <trkpt lat="59.3431847169" lon="17.7028450441">
        <ele>0</ele>
        <time>2013-05-03T19:04:58Z</time>
      </trkpt>
      <trkpt lat="59.3431804422" lon="17.7027124425">
        <ele>0</ele>
        <time>2013-05-03T19:04:59Z</time>
      </trkpt>
      <trkpt lat="59.3430955335" lon="17.7021677866">
        <ele>0</ele>
        <time>2013-05-03T19:05:03Z</time>
      </trkpt>
      <trkpt lat="59.3429181725" lon="17.701393299">
        <ele>0</ele>
        <time>2013-05-03T19:05:09Z</time>
      </trkpt>
      <trkpt lat="59.3426547294" lon="17.7003490819">
        <ele>0</ele>
        <time>2013-05-03T19:05:17Z</time>
      </trkpt>
      <trkpt lat="59.3423709183" lon="17.6994999116">
        <ele>0</ele>
        <time>2013-05-03T19:05:24Z</time>
      </trkpt>
      <trkpt lat="59.3421089839" lon="17.6986973447">
        <ele>0</ele>
        <time>2013-05-03T19:05:31Z</time>
      </trkpt>
      <trkpt lat="59.3419125122" lon="17.6980344202">
        <ele>0</ele>
        <time>2013-05-03T19:05:37Z</time>
      </trkpt>
      <trkpt lat="59.3416623963" lon="17.6971697434">
        <ele>0</ele>
        <time>2013-05-03T19:05:45Z</time>
      </trkpt>
      <trkpt lat="59.3414039823" lon="17.6964473913">
        <ele>0</ele>
        <time>2013-05-03T19:05:52Z</time>
      </trkpt>
      <trkpt lat="59.3412761583" lon="17.6961651727">
        <ele>0</ele>
        <time>2013-05-03T19:05:55Z</time>
      </trkpt>
      <trkpt lat="59.3411282178" lon="17.6959317368">
        <ele>0</ele>
        <time>2013-05-03T19:05:58Z</time>
      </trkpt>
      <trkpt lat="59.3410255395" lon="17.6957948604">
        <ele>0</ele>
        <time>2013-05-03T19:06:00Z</time>
      </trkpt>
      <trkpt lat="59.3409758348" lon="17.6957345945">
        <ele>0</ele>
        <time>2013-05-03T19:06:01Z</time>
      </trkpt>
      <trkpt lat="59.3409318299" lon="17.6956821238">
        <ele>0</ele>
        <time>2013-05-03T19:06:02Z</time>
      </trkpt>
      <trkpt lat="59.3408808679" lon="17.6956270547">
        <ele>0</ele>
        <time>2013-05-03T19:06:03Z</time>
      </trkpt>
      <trkpt lat="59.3408300736" lon="17.6955703931">
        <ele>0</ele>
        <time>2013-05-03T19:06:04Z</time>
      </trkpt>
      <trkpt lat="59.3407265571" lon="17.6954817964">
        <ele>0</ele>
        <time>2013-05-03T19:06:06Z</time>
      </trkpt>
      <trkpt lat="59.3405622719" lon="17.6953875839">
        <ele>0</ele>
        <time>2013-05-03T19:06:09Z</time>
      </trkpt>
      <trkpt lat="59.3403673927" lon="17.6952891804">
        <ele>0</ele>
        <time>2013-05-03T19:06:13Z</time>
      </trkpt>
      <trkpt lat="59.340282065" lon="17.6952427446">
        <ele>0</ele>
        <time>2013-05-03T19:06:15Z</time>
      </trkpt>
      <trkpt lat="59.3402405746" lon="17.6952102229">
        <ele>0</ele>
        <time>2013-05-03T19:06:16Z</time>
      </trkpt>
      <trkpt lat="59.3402029398" lon="17.6951765276">
        <ele>0</ele>
        <time>2013-05-03T19:06:17Z</time>
      </trkpt>
      <trkpt lat="59.3401653051" lon="17.6951331094">
        <ele>0</ele>
        <time>2013-05-03T19:06:18Z</time>
      </trkpt>
      <trkpt lat="59.3401291791" lon="17.6950876795">
        <ele>0</ele>
        <time>2013-05-03T19:06:19Z</time>
      </trkpt>
      <trkpt lat="59.3400951486" lon="17.6950312693">
        <ele>0</ele>
        <time>2013-05-03T19:06:20Z</time>
      </trkpt>
      <trkpt lat="59.3400637165" lon="17.694970752">
        <ele>0</ele>
        <time>2013-05-03T19:06:21Z</time>
      </trkpt>
      <trkpt lat="59.3400371459" lon="17.6949053732">
        <ele>0</ele>
        <time>2013-05-03T19:06:22Z</time>
      </trkpt>
      <trkpt lat="59.3400099047" lon="17.6948364739">
        <ele>0</ele>
        <time>2013-05-03T19:06:23Z</time>
      </trkpt>
      <trkpt lat="59.3399848428" lon="17.6947626294">
        <ele>0</ele>
        <time>2013-05-03T19:06:24Z</time>
      </trkpt>
      <trkpt lat="59.3399354734" lon="17.6945985118">
        <ele>0</ele>
        <time>2013-05-03T19:06:26Z</time>
      </trkpt>
      <trkpt lat="59.3398873613" lon="17.6944350647">
        <ele>0</ele>
        <time>2013-05-03T19:06:28Z</time>
      </trkpt>
      <trkpt lat="59.3398602878" lon="17.6943501561">
        <ele>0</ele>
        <time>2013-05-03T19:06:29Z</time>
      </trkpt>
      <trkpt lat="59.3398372375" lon="17.6942626491">
        <ele>0</ele>
        <time>2013-05-03T19:06:30Z</time>
      </trkpt>
      <trkpt lat="59.3398125109" lon="17.6941844459">
        <ele>0</ele>
        <time>2013-05-03T19:06:31Z</time>
      </trkpt>
      <trkpt lat="59.3397874491" lon="17.6941087574">
        <ele>0</ele>
        <time>2013-05-03T19:06:32Z</time>
      </trkpt>
      <trkpt lat="59.3397649856" lon="17.694023262">
        <ele>0</ele>
        <time>2013-05-03T19:06:33Z</time>
      </trkpt>
      <trkpt lat="59.3396552665" lon="17.6936234454">
        <ele>0</ele>
        <time>2013-05-03T19:06:38Z</time>
      </trkpt>
      <trkpt lat="59.3394755586" lon="17.6930332758">
        <ele>0</ele>
        <time>2013-05-03T19:06:44Z</time>
      </trkpt>
      <trkpt lat="59.3392342437" lon="17.6922994404">
        <ele>0</ele>
        <time>2013-05-03T19:06:50Z</time>
      </trkpt>
      <trkpt lat="59.3389878158" lon="17.6916697083">
        <ele>0</ele>
        <time>2013-05-03T19:06:56Z</time>
      </trkpt>
      <trkpt lat="59.3389473312" lon="17.6915651022">
        <ele>0</ele>
        <time>2013-05-03T19:06:57Z</time>
      </trkpt>
      <trkpt lat="59.3389034101" lon="17.6914737395">
        <ele>0</ele>
        <time>2013-05-03T19:06:58Z</time>
      </trkpt>
      <trkpt lat="59.3388572258" lon="17.6913736596">
        <ele>0</ele>
        <time>2013-05-03T19:06:59Z</time>
      </trkpt>
      <trkpt lat="59.3388114606" lon="17.6912754237">
        <ele>0</ele>
        <time>2013-05-03T19:07:00Z</time>
      </trkpt>
      <trkpt lat="59.3387630132" lon="17.691179451">
        <ele>0</ele>
        <time>2013-05-03T19:07:01Z</time>
      </trkpt>
      <trkpt lat="59.3387161584" lon="17.691091441">
        <ele>0</ele>
        <time>2013-05-03T19:07:02Z</time>
      </trkpt>
      <trkpt lat="59.3386118038" lon="17.6909241383">
        <ele>0</ele>
        <time>2013-05-03T19:07:04Z</time>
      </trkpt>
      <trkpt lat="59.3385525437" lon="17.6908596815">
        <ele>0</ele>
        <time>2013-05-03T19:07:05Z</time>
      </trkpt>
      <trkpt lat="59.338491775" lon="17.6907890221">
        <ele>0</ele>
        <time>2013-05-03T19:07:06Z</time>
      </trkpt>
      <trkpt lat="59.3384341913" lon="17.6907283371">
        <ele>0</ele>
        <time>2013-05-03T19:07:07Z</time>
      </trkpt>
      <trkpt lat="59.3383792899" lon="17.6906692447">
        <ele>0</ele>
        <time>2013-05-03T19:07:08Z</time>
      </trkpt>
      <trkpt lat="59.3383263162" lon="17.6906143433">
        <ele>0</ele>
        <time>2013-05-03T19:07:09Z</time>
      </trkpt>
      <trkpt lat="59.3382729235" lon="17.6905555023">
        <ele>0</ele>
        <time>2013-05-03T19:07:10Z</time>
      </trkpt>
      <trkpt lat="59.338218525" lon="17.6904954879">
        <ele>0</ele>
        <time>2013-05-03T19:07:11Z</time>
      </trkpt>
      <trkpt lat="59.3381610252" lon="17.6904277622">
        <ele>0</ele>
        <time>2013-05-03T19:07:12Z</time>
      </trkpt>
      <trkpt lat="59.3381052017" lon="17.6903630539">
        <ele>0</ele>
        <time>2013-05-03T19:07:13Z</time>
      </trkpt>
      <trkpt lat="59.3376976737" lon="17.6899922387">
        <ele>0</ele>
        <time>2013-05-03T19:07:20Z</time>
      </trkpt>
      <trkpt lat="59.3372662574" lon="17.6896825274">
        <ele>0</ele>
        <time>2013-05-03T19:07:27Z</time>
      </trkpt>
      <trkpt lat="59.3371953465" lon="17.6896434678">
        <ele>0</ele>
        <time>2013-05-03T19:07:28Z</time>
      </trkpt>
      <trkpt lat="59.3371244356" lon="17.6896067551">
        <ele>0</ele>
        <time>2013-05-03T19:07:29Z</time>
      </trkpt>
      <trkpt lat="59.3370526027" lon="17.689572054">
        <ele>0</ele>
        <time>2013-05-03T19:07:30Z</time>
      </trkpt>
      <trkpt lat="59.3369809375" lon="17.689537772">
        <ele>0</ele>
        <time>2013-05-03T19:07:31Z</time>
      </trkpt>
      <trkpt lat="59.3369108648" lon="17.6895033224">
        <ele>0</ele>
        <time>2013-05-03T19:07:32Z</time>
      </trkpt>
      <trkpt lat="59.3366373634" lon="17.6893322478">
        <ele>0</ele>
        <time>2013-05-03T19:07:36Z</time>
      </trkpt>
      <trkpt lat="59.3364433224" lon="17.6891576529">
        <ele>0</ele>
        <time>2013-05-03T19:07:39Z</time>
      </trkpt>
      <trkpt lat="59.3363817993" lon="17.6890871611">
        <ele>0</ele>
        <time>2013-05-03T19:07:40Z</time>
      </trkpt>
      <trkpt lat="59.3363244671" lon="17.6890056052">
        <ele>0</ele>
        <time>2013-05-03T19:07:41Z</time>
      </trkpt>
      <trkpt lat="59.336265207" lon="17.6889202775">
        <ele>0</ele>
        <time>2013-05-03T19:07:42Z</time>
      </trkpt>
      <trkpt lat="59.3362161729" lon="17.6888262325">
        <ele>0</ele>
        <time>2013-05-03T19:07:43Z</time>
      </trkpt>
      <trkpt lat="59.3360309329" lon="17.6884421739">
        <ele>0</ele>
        <time>2013-05-03T19:07:47Z</time>
      </trkpt>
      <trkpt lat="59.3356959922" lon="17.6876711229">
        <ele>0</ele>
        <time>2013-05-03T19:07:55Z</time>
      </trkpt>
      <trkpt lat="59.335608569" lon="17.6874811052">
        <ele>0</ele>
        <time>2013-05-03T19:07:57Z</time>
      </trkpt>
      <trkpt lat="59.335563642" lon="17.6873910836">
        <ele>0</ele>
        <time>2013-05-03T19:07:58Z</time>
      </trkpt>
      <trkpt lat="59.3355197208" lon="17.6873102821">
        <ele>0</ele>
        <time>2013-05-03T19:07:59Z</time>
      </trkpt>
      <trkpt lat="59.3354843492" lon="17.6872295644">
        <ele>0</ele>
        <time>2013-05-03T19:08:00Z</time>
      </trkpt>
      <trkpt lat="59.3354458763" lon="17.6871516966">
        <ele>0</ele>
        <time>2013-05-03T19:08:01Z</time>
      </trkpt>
      <trkpt lat="59.3353504903" lon="17.6868802068">
        <ele>0</ele>
        <time>2013-05-03T19:08:04Z</time>
      </trkpt>
      <trkpt lat="59.3352898892" lon="17.6867082941">
        <ele>0</ele>
        <time>2013-05-03T19:08:06Z</time>
      </trkpt>
      <trkpt lat="59.3351923238" lon="17.6863970741">
        <ele>0</ele>
        <time>2013-05-03T19:08:10Z</time>
      </trkpt>
      <trkpt lat="59.3351673458" lon="17.6863223914">
        <ele>0</ele>
        <time>2013-05-03T19:08:11Z</time>
      </trkpt>
      <trkpt lat="59.3351376738" lon="17.686246619">
        <ele>0</ele>
        <time>2013-05-03T19:08:12Z</time>
      </trkpt>
      <trkpt lat="59.3351078343" lon="17.6861742832">
        <ele>0</ele>
        <time>2013-05-03T19:08:13Z</time>
      </trkpt>
      <trkpt lat="59.3350791682" lon="17.6861027856">
        <ele>0</ele>
        <time>2013-05-03T19:08:14Z</time>
      </trkpt>
      <trkpt lat="59.3349728019" lon="17.6859300346">
        <ele>0</ele>
        <time>2013-05-03T19:08:17Z</time>
      </trkpt>
      <trkpt lat="59.3348228497" lon="17.6860130993">
        <ele>0</ele>
        <time>2013-05-03T19:08:20Z</time>
      </trkpt>
      <trkpt lat="59.3347371867" lon="17.6861836709">
        <ele>0</ele>
        <time>2013-05-03T19:08:22Z</time>
      </trkpt>
      <trkpt lat="59.3346973726" lon="17.6862821583">
        <ele>0</ele>
        <time>2013-05-03T19:08:23Z</time>
      </trkpt>
      <trkpt lat="59.3346567204" lon="17.6863810647">
        <ele>0</ele>
        <time>2013-05-03T19:08:24Z</time>
      </trkpt>
      <trkpt lat="59.3343149065" lon="17.6872832924">
        <ele>0</ele>
        <time>2013-05-03T19:08:32Z</time>
      </trkpt>
      <trkpt lat="59.3341323488" lon="17.6878571173">
        <ele>0</ele>
        <time>2013-05-03T19:08:36Z</time>
      </trkpt>
      <trkpt lat="59.3340772797" lon="17.6879894675">
        <ele>0</ele>
        <time>2013-05-03T19:08:37Z</time>
      </trkpt>
      <trkpt lat="59.3340186902" lon="17.6881144416">
        <ele>0</ele>
        <time>2013-05-03T19:08:38Z</time>
      </trkpt>
      <trkpt lat="59.3339579214" lon="17.6882307824">
        <ele>0</ele>
        <time>2013-05-03T19:08:39Z</time>
      </trkpt>
      <trkpt lat="59.3338950572" lon="17.6883390765">
        <ele>0</ele>
        <time>2013-05-03T19:08:40Z</time>
      </trkpt>
      <trkpt lat="59.3337567558" lon="17.6885464447">
        <ele>0</ele>
        <time>2013-05-03T19:08:42Z</time>
      </trkpt>
      <trkpt lat="59.3333659078" lon="17.6891183418">
        <ele>0</ele>
        <time>2013-05-03T19:08:48Z</time>
      </trkpt>
      <trkpt lat="59.3333043847" lon="17.6892193437">
        <ele>0</ele>
        <time>2013-05-03T19:08:49Z</time>
      </trkpt>
      <trkpt lat="59.3332467172" lon="17.6893214352">
        <ele>0</ele>
        <time>2013-05-03T19:08:50Z</time>
      </trkpt>
      <trkpt lat="59.3331879601" lon="17.6894212636">
        <ele>0</ele>
        <time>2013-05-03T19:08:51Z</time>
      </trkpt>
      <trkpt lat="59.3329832741" lon="17.6898233434">
        <ele>0</ele>
        <time>2013-05-03T19:08:55Z</time>
      </trkpt>
      <trkpt lat="59.3328063322" lon="17.6902489762">
        <ele>0</ele>
        <time>2013-05-03T19:08:59Z</time>
      </trkpt>
      <trkpt lat="59.3327370139" lon="17.6904807358">
        <ele>0</ele>
        <time>2013-05-03T19:09:01Z</time>
      </trkpt>
      <trkpt lat="59.3324872332" lon="17.6912196003">
        <ele>0</ele>
        <time>2013-05-03T19:09:08Z</time>
      </trkpt>
      <trkpt lat="59.3323433998" lon="17.6914760026">
        <ele>0</ele>
        <time>2013-05-03T19:09:12Z</time>
      </trkpt>
      <trkpt lat="59.3323061842" lon="17.6915386154">
        <ele>0</ele>
        <time>2013-05-03T19:09:13Z</time>
      </trkpt>
      <trkpt lat="59.3322340999" lon="17.6916540341">
        <ele>0</ele>
        <time>2013-05-03T19:09:15Z</time>
      </trkpt>
      <trkpt lat="59.3321950402" lon="17.6917066725">
        <ele>0</ele>
        <time>2013-05-03T19:09:16Z</time>
      </trkpt>
      <trkpt lat="59.3321559806" lon="17.6917661001">
        <ele>0</ele>
        <time>2013-05-03T19:09:17Z</time>
      </trkpt>
      <trkpt lat="59.3321159151" lon="17.6918313952">
        <ele>0</ele>
        <time>2013-05-03T19:09:18Z</time>
      </trkpt>
      <trkpt lat="59.3320736703" lon="17.6918960196">
        <ele>0</ele>
        <time>2013-05-03T19:09:19Z</time>
      </trkpt>
      <trkpt lat="59.3320361194" lon="17.6919586324">
        <ele>0</ele>
        <time>2013-05-03T19:09:20Z</time>
      </trkpt>
      <trkpt lat="59.3319963054" lon="17.6920227539">
        <ele>0</ele>
        <time>2013-05-03T19:09:21Z</time>
      </trkpt>
      <trkpt lat="59.3319560722" lon="17.6920882166">
        <ele>0</ele>
        <time>2013-05-03T19:09:22Z</time>
      </trkpt>
      <trkpt lat="59.3319160906" lon="17.6921510808">
        <ele>0</ele>
        <time>2013-05-03T19:09:23Z</time>
      </trkpt>
      <trkpt lat="59.3317694912" lon="17.6924048847">
        <ele>0</ele>
        <time>2013-05-03T19:09:27Z</time>
      </trkpt>
      <trkpt lat="59.3316860074" lon="17.6925636379">
        <ele>0</ele>
        <time>2013-05-03T19:09:29Z</time>
      </trkpt>
      <trkpt lat="59.3316462772" lon="17.6926567608">
        <ele>0</ele>
        <time>2013-05-03T19:09:30Z</time>
      </trkpt>
      <trkpt lat="59.331609816" lon="17.6927626242">
        <ele>0</ele>
        <time>2013-05-03T19:09:31Z</time>
      </trkpt>
      <trkpt lat="59.3315774618" lon="17.6928903644">
        <ele>0</ele>
        <time>2013-05-03T19:09:32Z</time>
      </trkpt>
      <trkpt lat="59.3315525676" lon="17.6930372153">
        <ele>0</ele>
        <time>2013-05-03T19:09:33Z</time>
      </trkpt>
      <trkpt lat="59.331529685" lon="17.693199908">
        <ele>0</ele>
        <time>2013-05-03T19:09:34Z</time>
      </trkpt>
      <trkpt lat="59.3315127536" lon="17.6933713178">
        <ele>0</ele>
        <time>2013-05-03T19:09:35Z</time>
      </trkpt>
      <trkpt lat="59.3315021085" lon="17.6935599944">
        <ele>0</ele>
        <time>2013-05-03T19:09:36Z</time>
      </trkpt>
      <trkpt lat="59.3314946486" lon="17.6937410434">
        <ele>0</ele>
        <time>2013-05-03T19:09:37Z</time>
      </trkpt>
      <trkpt lat="59.331488949" lon="17.6939248585">
        <ele>0</ele>
        <time>2013-05-03T19:09:38Z</time>
      </trkpt>
      <trkpt lat="59.3314814052" lon="17.6941100985">
        <ele>0</ele>
        <time>2013-05-03T19:09:39Z</time>
      </trkpt>
      <trkpt lat="59.3314746997" lon="17.6942940812">
        <ele>0</ele>
        <time>2013-05-03T19:09:40Z</time>
      </trkpt>
      <trkpt lat="59.3314664016" lon="17.6944737891">
        <ele>0</ele>
        <time>2013-05-03T19:09:41Z</time>
      </trkpt>
      <trkpt lat="59.3314209717" lon="17.6953861589">
        <ele>0</ele>
        <time>2013-05-03T19:09:46Z</time>
      </trkpt>
      <trkpt lat="59.331410662" lon="17.6955631008">
        <ele>0</ele>
        <time>2013-05-03T19:09:47Z</time>
      </trkpt>
      <trkpt lat="59.3314020287" lon="17.6957378635">
        <ele>0</ele>
        <time>2013-05-03T19:09:48Z</time>
      </trkpt>
      <trkpt lat="59.3313931438" lon="17.6959151406">
        <ele>0</ele>
        <time>2013-05-03T19:09:49Z</time>
      </trkpt>
      <trkpt lat="59.3313824988" lon="17.6960856285">
        <ele>0</ele>
        <time>2013-05-03T19:09:50Z</time>
      </trkpt>
      <trkpt lat="59.3313713509" lon="17.6962572898">
        <ele>0</ele>
        <time>2013-05-03T19:09:51Z</time>
      </trkpt>
      <trkpt lat="59.3313605382" lon="17.6964349861">
        <ele>0</ele>
        <time>2013-05-03T19:09:52Z</time>
      </trkpt>
      <trkpt lat="59.3313508991" lon="17.6966118442">
        <ele>0</ele>
        <time>2013-05-03T19:09:53Z</time>
      </trkpt>
      <trkpt lat="59.3313405055" lon="17.6967969165">
        <ele>0</ele>
        <time>2013-05-03T19:09:54Z</time>
      </trkpt>
      <trkpt lat="59.3313274297" lon="17.6969757863">
        <ele>0</ele>
        <time>2013-05-03T19:09:55Z</time>
      </trkpt>
      <trkpt lat="59.3313174553" lon="17.6971559971">
        <ele>0</ele>
        <time>2013-05-03T19:09:56Z</time>
      </trkpt>
      <trkpt lat="59.3313063074" lon="17.6973324361">
        <ele>0</ele>
        <time>2013-05-03T19:09:57Z</time>
      </trkpt>
      <trkpt lat="59.3312917229" lon="17.6975156645">
        <ele>0</ele>
        <time>2013-05-03T19:09:58Z</time>
      </trkpt>
      <trkpt lat="59.3312758811" lon="17.6982019744">
        <ele>0</ele>
        <time>2013-05-03T19:10:02Z</time>
      </trkpt>
      <trkpt lat="59.331327765" lon="17.6990361411">
        <ele>0</ele>
        <time>2013-05-03T19:10:07Z</time>
      </trkpt>
      <trkpt lat="59.3313404217" lon="17.6991872668">
        <ele>0</ele>
        <time>2013-05-03T19:10:08Z</time>
      </trkpt>
      <trkpt lat="59.3313441935" lon="17.6993375542">
        <ele>0</ele>
        <time>2013-05-03T19:10:09Z</time>
      </trkpt>
      <trkpt lat="59.3313508991" lon="17.6994888475">
        <ele>0</ele>
        <time>2013-05-03T19:10:10Z</time>
      </trkpt>
      <trkpt lat="59.3313580237" lon="17.6996448347">
        <ele>0</ele>
        <time>2013-05-03T19:10:11Z</time>
      </trkpt>
      <trkpt lat="59.3313623823" lon="17.699797972">
        <ele>0</ele>
        <time>2013-05-03T19:10:12Z</time>
      </trkpt>
      <trkpt lat="59.3313645616" lon="17.7002650115">
        <ele>0</ele>
        <time>2013-05-03T19:10:15Z</time>
      </trkpt>
      <trkpt lat="59.3313468758" lon="17.7008328014">
        <ele>0</ele>
        <time>2013-05-03T19:10:19Z</time>
      </trkpt>
      <trkpt lat="59.3313133482" lon="17.701737376">
        <ele>0</ele>
        <time>2013-05-03T19:10:26Z</time>
      </trkpt>
      <trkpt lat="59.3312910523" lon="17.7028480616">
        <ele>0</ele>
        <time>2013-05-03T19:10:34Z</time>
      </trkpt>
      <trkpt lat="59.3313303634" lon="17.7036487845">
        <ele>0</ele>
        <time>2013-05-03T19:10:40Z</time>
      </trkpt>
      <trkpt lat="59.3313640586" lon="17.7041827115">
        <ele>0</ele>
        <time>2013-05-03T19:10:44Z</time>
      </trkpt>
      <trkpt lat="59.3313951555" lon="17.704567776">
        <ele>0</ele>
        <time>2013-05-03T19:10:47Z</time>
      </trkpt>
      <trkpt lat="59.3314041241" lon="17.7046948456">
        <ele>0</ele>
        <time>2013-05-03T19:10:48Z</time>
      </trkpt>
      <trkpt lat="59.3314109135" lon="17.7048188139">
        <ele>0</ele>
        <time>2013-05-03T19:10:49Z</time>
      </trkpt>
      <trkpt lat="59.3314136795" lon="17.704941944">
        <ele>0</ele>
        <time>2013-05-03T19:10:50Z</time>
      </trkpt>
      <trkpt lat="59.331408818" lon="17.7050603803">
        <ele>0</ele>
        <time>2013-05-03T19:10:51Z</time>
      </trkpt>
      <trkpt lat="59.3313234903" lon="17.705398087">
        <ele>0</ele>
        <time>2013-05-03T19:10:55Z</time>
      </trkpt>
      <trkpt lat="59.3312292777" lon="17.7056670622">
        <ele>0</ele>
        <time>2013-05-03T19:10:59Z</time>
      </trkpt>
      <trkpt lat="59.3310926527" lon="17.705967721">
        <ele>0</ele>
        <time>2013-05-03T19:13:07Z</time>
      </trkpt>
      <trkpt lat="59.3310709436" lon="17.7060113907">
        <ele>0</ele>
        <time>2013-05-03T19:13:08Z</time>
      </trkpt>
      <trkpt lat="59.3310484801" lon="17.7060525458">
        <ele>0</ele>
        <time>2013-05-03T19:13:09Z</time>
      </trkpt>
      <trkpt lat="59.3309240927" lon="17.7062861493">
        <ele>0</ele>
        <time>2013-05-03T19:13:13Z</time>
      </trkpt>
      <trkpt lat="59.3306961889" lon="17.7066849601">
        <ele>0</ele>
        <time>2013-05-03T19:13:17Z</time>
      </trkpt>
      <trkpt lat="59.3302205998" lon="17.7074790613">
        <ele>0</ele>
        <time>2013-05-03T19:13:24Z</time>
      </trkpt>
      <trkpt lat="59.3300889202" lon="17.7076974937">
        <ele>0</ele>
        <time>2013-05-03T19:13:26Z</time>
      </trkpt>
      <trkpt lat="59.3300243796" lon="17.7078072127">
        <ele>0</ele>
        <time>2013-05-03T19:13:27Z</time>
      </trkpt>
      <trkpt lat="59.32996118" lon="17.7079187758">
        <ele>0</ele>
        <time>2013-05-03T19:13:28Z</time>
      </trkpt>
      <trkpt lat="59.3298967232" lon="17.7080264832">
        <ele>0</ele>
        <time>2013-05-03T19:13:29Z</time>
      </trkpt>
      <trkpt lat="59.3298322664" lon="17.7081335201">
        <ele>0</ele>
        <time>2013-05-03T19:13:30Z</time>
      </trkpt>
      <trkpt lat="59.3297644569" lon="17.7082496932">
        <ele>0</ele>
        <time>2013-05-03T19:13:31Z</time>
      </trkpt>
      <trkpt lat="59.3296965635" lon="17.7083558081">
        <ele>0</ele>
        <time>2013-05-03T19:13:32Z</time>
      </trkpt>
      <trkpt lat="59.3296266584" lon="17.7084525352">
        <ele>0</ele>
        <time>2013-05-03T19:13:33Z</time>
      </trkpt>
      <trkpt lat="59.3295556637" lon="17.708542473">
        <ele>0</ele>
        <time>2013-05-03T19:13:34Z</time>
      </trkpt>
      <trkpt lat="59.3294834117" lon="17.7086189159">
        <ele>0</ele>
        <time>2013-05-03T19:13:35Z</time>
      </trkpt>
      <trkpt lat="59.3290768896" lon="17.7090683534">
        <ele>0</ele>
        <time>2013-05-03T19:13:41Z</time>
      </trkpt>
      <trkpt lat="59.3286139573" lon="17.7096184575">
        <ele>0</ele>
        <time>2013-05-03T19:13:49Z</time>
      </trkpt>
      <trkpt lat="59.3281664476" lon="17.7101432483">
        <ele>0</ele>
        <time>2013-05-03T19:13:57Z</time>
      </trkpt>
      <trkpt lat="59.3277720792" lon="17.7106063482">
        <ele>0</ele>
        <time>2013-05-03T19:14:04Z</time>
      </trkpt>
      <trkpt lat="59.3275584246" lon="17.7108542848">
        <ele>0</ele>
        <time>2013-05-03T19:14:08Z</time>
      </trkpt>
      <trkpt lat="59.3275064568" lon="17.710919496">
        <ele>0</ele>
        <time>2013-05-03T19:14:09Z</time>
      </trkpt>
      <trkpt lat="59.3274571712" lon="17.7109824441">
        <ele>0</ele>
        <time>2013-05-03T19:14:10Z</time>
      </trkpt>
      <trkpt lat="59.3274089753" lon="17.7110451407">
        <ele>0</ele>
        <time>2013-05-03T19:14:11Z</time>
      </trkpt>
      <trkpt lat="59.3273610308" lon="17.7111062448">
        <ele>0</ele>
        <time>2013-05-03T19:14:12Z</time>
      </trkpt>
      <trkpt lat="59.3272616215" lon="17.711221915">
        <ele>0</ele>
        <time>2013-05-03T19:14:14Z</time>
      </trkpt>
      <trkpt lat="59.3272104919" lon="17.7112731284">
        <ele>0</ele>
        <time>2013-05-03T19:14:15Z</time>
      </trkpt>
      <trkpt lat="59.3271626313" lon="17.7113224978">
        <ele>0</ele>
        <time>2013-05-03T19:14:16Z</time>
      </trkpt>
      <trkpt lat="59.3271117531" lon="17.7113709452">
        <ele>0</ele>
        <time>2013-05-03T19:14:17Z</time>
      </trkpt>
      <trkpt lat="59.3270638087" lon="17.711410843">
        <ele>0</ele>
        <time>2013-05-03T19:14:18Z</time>
      </trkpt>
      <trkpt lat="59.3270180435" lon="17.7114498188">
        <ele>0</ele>
        <time>2013-05-03T19:14:19Z</time>
      </trkpt>
      <trkpt lat="59.3269709372" lon="17.7114846875">
        <ele>0</ele>
        <time>2013-05-03T19:14:20Z</time>
      </trkpt>
      <trkpt lat="59.3269239986" lon="17.7115140242">
        <ele>0</ele>
        <time>2013-05-03T19:14:21Z</time>
      </trkpt>
      <trkpt lat="59.3268790716" lon="17.7115331349">
        <ele>0</ele>
        <time>2013-05-03T19:14:22Z</time>
      </trkpt>
      <trkpt lat="59.3268327197" lon="17.7115419359">
        <ele>0</ele>
        <time>2013-05-03T19:14:23Z</time>
      </trkpt>
      <trkpt lat="59.3267826797" lon="17.7115515751">
        <ele>0</ele>
        <time>2013-05-03T19:14:24Z</time>
      </trkpt>
      <trkpt lat="59.3267364117" lon="17.7115623039">
        <ele>0</ele>
        <time>2013-05-03T19:14:25Z</time>
      </trkpt>
      <trkpt lat="59.3266909818" lon="17.7115726137">
        <ele>0</ele>
        <time>2013-05-03T19:14:26Z</time>
      </trkpt>
      <trkpt lat="59.3266458871" lon="17.7115831749">
        <ele>0</ele>
        <time>2013-05-03T19:14:27Z</time>
      </trkpt>
      <trkpt lat="59.3264510918" lon="17.7116032076">
        <ele>0</ele>
        <time>2013-05-03T19:14:31Z</time>
      </trkpt>
      <trkpt lat="59.3264027282" lon="17.7116022856">
        <ele>0</ele>
        <time>2013-05-03T19:14:32Z</time>
      </trkpt>
      <trkpt lat="59.3262118724" lon="17.7116462906">
        <ele>0</ele>
        <time>2013-05-03T19:14:36Z</time>
      </trkpt>
      <trkpt lat="59.3261179113" lon="17.7116878648">
        <ele>0</ele>
        <time>2013-05-03T19:14:38Z</time>
      </trkpt>
      <trkpt lat="59.3259983854" lon="17.7118452769">
        <ele>0</ele>
        <time>2013-05-03T19:14:41Z</time>
      </trkpt>
      <trkpt lat="59.3258386263" lon="17.7121160122">
        <ele>0</ele>
        <time>2013-05-03T19:14:45Z</time>
      </trkpt>
      <trkpt lat="59.3257300807" lon="17.7123818861">
        <ele>0</ele>
        <time>2013-05-03T19:14:48Z</time>
      </trkpt>
      <trkpt lat="59.3254999976" lon="17.7130405358">
        <ele>0</ele>
        <time>2013-05-03T19:14:55Z</time>
      </trkpt>
      <trkpt lat="59.3252876002" lon="17.7136638139">
        <ele>0</ele>
        <time>2013-05-03T19:15:01Z</time>
      </trkpt>
      <trkpt lat="59.3252424218" lon="17.7137599543">
        <ele>0</ele>
        <time>2013-05-03T19:15:02Z</time>
      </trkpt>
      <trkpt lat="59.325198333" lon="17.7138505626">
        <ele>0</ele>
        <time>2013-05-03T19:15:03Z</time>
      </trkpt>
      <trkpt lat="59.32515525" lon="17.7139405842">
        <ele>0</ele>
        <time>2013-05-03T19:15:04Z</time>
      </trkpt>
      <trkpt lat="59.3251109098" lon="17.7140306058">
        <ele>0</ele>
        <time>2013-05-03T19:15:05Z</time>
      </trkpt>
      <trkpt lat="59.3250663181" lon="17.7141250699">
        <ele>0</ele>
        <time>2013-05-03T19:15:06Z</time>
      </trkpt>
      <trkpt lat="59.3249498935" lon="17.7144588371">
        <ele>0</ele>
        <time>2013-05-03T19:15:09Z</time>
      </trkpt>
      <trkpt lat="59.324842689" lon="17.7151222645">
        <ele>0</ele>
        <time>2013-05-03T19:15:14Z</time>
      </trkpt>
      <trkpt lat="59.3248960817" lon="17.71553281">
        <ele>0</ele>
        <time>2013-05-03T19:15:17Z</time>
      </trkpt>
      <trkpt lat="59.3249214789" lon="17.7156653278">
        <ele>0</ele>
        <time>2013-05-03T19:15:18Z</time>
      </trkpt>
      <trkpt lat="59.324996413" lon="17.7161018572">
        <ele>0</ele>
        <time>2013-05-03T19:15:21Z</time>
      </trkpt>
      <trkpt lat="59.325020972" lon="17.7162385659">
        <ele>0</ele>
        <time>2013-05-03T19:15:22Z</time>
      </trkpt>
      <trkpt lat="59.3250471235" lon="17.7163769511">
        <ele>0</ele>
        <time>2013-05-03T19:15:23Z</time>
      </trkpt>
      <trkpt lat="59.3250727721" lon="17.7165255622">
        <ele>0</ele>
        <time>2013-05-03T19:15:24Z</time>
      </trkpt>
      <trkpt lat="59.3250969958" lon="17.7166717425">
        <ele>0</ele>
        <time>2013-05-03T19:15:25Z</time>
      </trkpt>
      <trkpt lat="59.325245104" lon="17.7175878842">
        <ele>0</ele>
        <time>2013-05-03T19:15:31Z</time>
      </trkpt>
      <trkpt lat="59.3254267398" lon="17.7187041018">
        <ele>0</ele>
        <time>2013-05-03T19:15:38Z</time>
      </trkpt>
      <trkpt lat="59.3256004966" lon="17.7197427869">
        <ele>0</ele>
        <time>2013-05-03T19:15:45Z</time>
      </trkpt>
      <trkpt lat="59.325621116" lon="17.7198814235">
        <ele>0</ele>
        <time>2013-05-03T19:15:46Z</time>
      </trkpt>
      <trkpt lat="59.3256409811" lon="17.720026598">
        <ele>0</ele>
        <time>2013-05-03T19:15:47Z</time>
      </trkpt>
      <trkpt lat="59.3256631932" lon="17.7201764664">
        <ele>0</ele>
        <time>2013-05-03T19:15:48Z</time>
      </trkpt>
      <trkpt lat="59.3256818848" lon="17.7203194616">
        <ele>0</ele>
        <time>2013-05-03T19:15:49Z</time>
      </trkpt>
      <trkpt lat="59.3257009956" lon="17.720463295">
        <ele>0</ele>
        <time>2013-05-03T19:15:50Z</time>
      </trkpt>
      <trkpt lat="59.3257271471" lon="17.7206057873">
        <ele>0</ele>
        <time>2013-05-03T19:15:51Z</time>
      </trkpt>
      <trkpt lat="59.3258215273" lon="17.7211776005">
        <ele>0</ele>
        <time>2013-05-03T19:15:55Z</time>
      </trkpt>
      <trkpt lat="59.3258387102" lon="17.7213107051">
        <ele>0</ele>
        <time>2013-05-03T19:15:56Z</time>
      </trkpt>
      <trkpt lat="59.3258601678" lon="17.7214402893">
        <ele>0</ele>
        <time>2013-05-03T19:15:57Z</time>
      </trkpt>
      <trkpt lat="59.3258812902" lon="17.7215703764">
        <ele>0</ele>
        <time>2013-05-03T19:15:58Z</time>
      </trkpt>
      <trkpt lat="59.3259045919" lon="17.7217013016">
        <ele>0</ele>
        <time>2013-05-03T19:15:59Z</time>
      </trkpt>
      <trkpt lat="59.3259283127" lon="17.7218311373">
        <ele>0</ele>
        <time>2013-05-03T19:16:00Z</time>
      </trkpt>
      <trkpt lat="59.3259815377" lon="17.7222530821">
        <ele>0</ele>
        <time>2013-05-03T19:16:03Z</time>
      </trkpt>
      <trkpt lat="59.3259923504" lon="17.7225519807">
        <ele>0</ele>
        <time>2013-05-03T19:16:05Z</time>
      </trkpt>
      <trkpt lat="59.3260379479" lon="17.7236637559">
        <ele>0</ele>
        <time>2013-05-03T19:16:12Z</time>
      </trkpt>
      <trkpt lat="59.3260397919" lon="17.7239851179">
        <ele>0</ele>
        <time>2013-05-03T19:16:14Z</time>
      </trkpt>
      <trkpt lat="59.3260391214" lon="17.7243173764">
        <ele>0</ele>
        <time>2013-05-03T19:16:16Z</time>
      </trkpt>
      <trkpt lat="59.3260406301" lon="17.7244878643">
        <ele>0</ele>
        <time>2013-05-03T19:16:17Z</time>
      </trkpt>
      <trkpt lat="59.3260457431" lon="17.7246570948">
        <ele>0</ele>
        <time>2013-05-03T19:16:18Z</time>
      </trkpt>
      <trkpt lat="59.3260502693" lon="17.7248364675">
        <ele>0</ele>
        <time>2013-05-03T19:16:19Z</time>
      </trkpt>
      <trkpt lat="59.3260542926" lon="17.7250044408">
        <ele>0</ele>
        <time>2013-05-03T19:16:20Z</time>
      </trkpt>
      <trkpt lat="59.3260542926" lon="17.725171073">
        <ele>0</ele>
        <time>2013-05-03T19:16:21Z</time>
      </trkpt>
      <trkpt lat="59.3260599085" lon="17.725340555">
        <ele>0</ele>
        <time>2013-05-03T19:16:22Z</time>
      </trkpt>
      <trkpt lat="59.3260662788" lon="17.7255141441">
        <ele>0</ele>
        <time>2013-05-03T19:16:23Z</time>
      </trkpt>
      <trkpt lat="59.3260753312" lon="17.7256898287">
        <ele>0</ele>
        <time>2013-05-03T19:16:24Z</time>
      </trkpt>
      <trkpt lat="59.3260872335" lon="17.7258681956">
        <ele>0</ele>
        <time>2013-05-03T19:16:25Z</time>
      </trkpt>
      <trkpt lat="59.3260969565" lon="17.7260568721">
        <ele>0</ele>
        <time>2013-05-03T19:16:26Z</time>
      </trkpt>
      <trkpt lat="59.326100896" lon="17.7262442076">
        <ele>0</ele>
        <time>2013-05-03T19:16:27Z</time>
      </trkpt>
      <trkpt lat="59.3261081883" lon="17.7264339738">
        <ele>0</ele>
        <time>2013-05-03T19:16:28Z</time>
      </trkpt>
      <trkpt lat="59.3261154805" lon="17.7266225666">
        <ele>0</ele>
        <time>2013-05-03T19:16:29Z</time>
      </trkpt>
      <trkpt lat="59.3261538696" lon="17.7277532011">
        <ele>0</ele>
        <time>2013-05-03T19:16:35Z</time>
      </trkpt>
      <trkpt lat="59.3261694599" lon="17.7282898941">
        <ele>0</ele>
        <time>2013-05-03T19:16:38Z</time>
      </trkpt>
      <trkpt lat="59.3261974555" lon="17.7292886813">
        <ele>0</ele>
        <time>2013-05-03T19:16:44Z</time>
      </trkpt>
      <trkpt lat="59.3262279656" lon="17.7298915914">
        <ele>0</ele>
        <time>2013-05-03T19:16:48Z</time>
      </trkpt>
      <trkpt lat="59.3262931768" lon="17.7306275222">
        <ele>0</ele>
        <time>2013-05-03T19:16:53Z</time>
      </trkpt>
      <trkpt lat="59.3263469886" lon="17.7310225612">
        <ele>0</ele>
        <time>2013-05-03T19:16:56Z</time>
      </trkpt>
      <trkpt lat="59.3263580527" lon="17.7311643829">
        <ele>0</ele>
        <time>2013-05-03T19:16:57Z</time>
      </trkpt>
      <trkpt lat="59.3263692006" lon="17.7312998344">
        <ele>0</ele>
        <time>2013-05-03T19:16:58Z</time>
      </trkpt>
      <trkpt lat="59.3263774149" lon="17.7314325199">
        <ele>0</ele>
        <time>2013-05-03T19:16:59Z</time>
      </trkpt>
      <trkpt lat="59.3263811867" lon="17.7315696478">
        <ele>0</ele>
        <time>2013-05-03T19:17:00Z</time>
      </trkpt>
      <trkpt lat="59.3263659317" lon="17.7319950292">
        <ele>0</ele>
        <time>2013-05-03T19:17:03Z</time>
      </trkpt>
      <trkpt lat="59.3263508443" lon="17.7321299778">
        <ele>0</ele>
        <time>2013-05-03T19:17:04Z</time>
      </trkpt>
      <trkpt lat="59.3262191646" lon="17.7328104204">
        <ele>0</ele>
        <time>2013-05-03T19:17:09Z</time>
      </trkpt>
      <trkpt lat="59.3259698869" lon="17.7336004983">
        <ele>0</ele>
        <time>2013-05-03T19:17:15Z</time>
      </trkpt>
      <trkpt lat="59.3259266363" lon="17.7337246343">
        <ele>0</ele>
        <time>2013-05-03T19:17:16Z</time>
      </trkpt>
      <trkpt lat="59.3258844753" lon="17.7338487702">
        <ele>0</ele>
        <time>2013-05-03T19:17:17Z</time>
      </trkpt>
      <trkpt lat="59.3258363632" lon="17.7339646081">
        <ele>0</ele>
        <time>2013-05-03T19:17:18Z</time>
      </trkpt>
      <trkpt lat="59.3257861557" lon="17.7340812003">
        <ele>0</ele>
        <time>2013-05-03T19:17:19Z</time>
      </trkpt>
      <trkpt lat="59.3257336011" lon="17.73418413">
        <ele>0</ele>
        <time>2013-05-03T19:17:20Z</time>
      </trkpt>
      <trkpt lat="59.3256776939" lon="17.7342919213">
        <ele>0</ele>
        <time>2013-05-03T19:17:21Z</time>
      </trkpt>
      <trkpt lat="59.3254302602" lon="17.7347748863">
        <ele>0</ele>
        <time>2013-05-03T19:17:26Z</time>
      </trkpt>
      <trkpt lat="59.3252075531" lon="17.7354623698">
        <ele>0</ele>
        <time>2013-05-03T19:17:32Z</time>
      </trkpt>
      <trkpt lat="59.3251285956" lon="17.7358557323">
        <ele>0</ele>
        <time>2013-05-03T19:17:35Z</time>
      </trkpt>
      <trkpt lat="59.3251189564" lon="17.7360074447">
        <ele>0</ele>
        <time>2013-05-03T19:17:36Z</time>
      </trkpt>
      <trkpt lat="59.3251254105" lon="17.7363025714">
        <ele>0</ele>
        <time>2013-05-03T19:17:38Z</time>
      </trkpt>
      <trkpt lat="59.3251494665" lon="17.7366037331">
        <ele>0</ele>
        <time>2013-05-03T19:17:40Z</time>
      </trkpt>
      <trkpt lat="59.325161285" lon="17.7369065711">
        <ele>0</ele>
        <time>2013-05-03T19:17:42Z</time>
      </trkpt>
      <trkpt lat="59.3251606983" lon="17.7373639714">
        <ele>0</ele>
        <time>2013-05-03T19:17:45Z</time>
      </trkpt>
      <trkpt lat="59.3251527355" lon="17.7378054461">
        <ele>0</ele>
        <time>2013-05-03T19:17:48Z</time>
      </trkpt>
      <trkpt lat="59.3251233988" lon="17.7380947055">
        <ele>0</ele>
        <time>2013-05-03T19:17:50Z</time>
      </trkpt>
      <trkpt lat="59.3251149331" lon="17.7383956995">
        <ele>0</ele>
        <time>2013-05-03T19:17:52Z</time>
      </trkpt>
      <trkpt lat="59.3250973311" lon="17.7388240146">
        <ele>0</ele>
        <time>2013-05-03T19:17:55Z</time>
      </trkpt>
      <trkpt lat="59.3250857641" lon="17.7389639085">
        <ele>0</ele>
        <time>2013-05-03T19:17:56Z</time>
      </trkpt>
      <trkpt lat="59.3250770469" lon="17.739244786">
        <ele>0</ele>
        <time>2013-05-03T19:17:58Z</time>
      </trkpt>
      <trkpt lat="59.3250660666" lon="17.7395384039">
        <ele>0</ele>
        <time>2013-05-03T19:18:00Z</time>
      </trkpt>
      <trkpt lat="59.3250453633" lon="17.7398232209">
        <ele>0</ele>
        <time>2013-05-03T19:18:02Z</time>
      </trkpt>
      <trkpt lat="59.3250352212" lon="17.7402558946">
        <ele>0</ele>
        <time>2013-05-03T19:18:05Z</time>
      </trkpt>
      <trkpt lat="59.3250064713" lon="17.7413223237">
        <ele>0</ele>
        <time>2013-05-03T19:18:13Z</time>
      </trkpt>
      <trkpt lat="59.3250010231" lon="17.742227066">
        <ele>0</ele>
        <time>2013-05-03T19:18:20Z</time>
      </trkpt>
      <trkpt lat="59.3250006878" lon="17.7431450517">
        <ele>0</ele>
        <time>2013-05-03T19:18:27Z</time>
      </trkpt>
      <trkpt lat="59.3249390808" lon="17.7441057012">
        <ele>0</ele>
        <time>2013-05-03T19:18:34Z</time>
      </trkpt>
      <trkpt lat="59.3249244125" lon="17.7442373809">
        <ele>0</ele>
        <time>2013-05-03T19:18:35Z</time>
      </trkpt>
      <trkpt lat="59.3249155277" lon="17.7446485131">
        <ele>0</ele>
        <time>2013-05-03T19:18:39Z</time>
      </trkpt>
      <trkpt lat="59.3249206407" lon="17.7447849704">
        <ele>0</ele>
        <time>2013-05-03T19:18:40Z</time>
      </trkpt>
      <trkpt lat="59.3249120073" lon="17.7455942429">
        <ele>0</ele>
        <time>2013-05-03T19:18:46Z</time>
      </trkpt>
      <trkpt lat="59.324865823" lon="17.746534692">
        <ele>0</ele>
        <time>2013-05-03T19:18:53Z</time>
      </trkpt>
      <trkpt lat="59.3247427767" lon="17.747317813">
        <ele>0</ele>
        <time>2013-05-03T19:18:59Z</time>
      </trkpt>
      <trkpt lat="59.3245649966" lon="17.7477126004">
        <ele>0</ele>
        <time>2013-05-03T19:19:03Z</time>
      </trkpt>
      <trkpt lat="59.3243444689" lon="17.7482000079">
        <ele>0</ele>
        <time>2013-05-03T19:19:08Z</time>
      </trkpt>
      <trkpt lat="59.3243144617" lon="17.7483140018">
        <ele>0</ele>
        <time>2013-05-03T19:19:09Z</time>
      </trkpt>
      <trkpt lat="59.3242669363" lon="17.7485320988">
        <ele>0</ele>
        <time>2013-05-03T19:19:11Z</time>
      </trkpt>
      <trkpt lat="59.3242081792" lon="17.7487329291">
        <ele>0</ele>
        <time>2013-05-03T19:19:13Z</time>
      </trkpt>
      <trkpt lat="59.3241705444" lon="17.7488182569">
        <ele>0</ele>
        <time>2013-05-03T19:19:14Z</time>
      </trkpt>
      <trkpt lat="59.3241307304" lon="17.7489022435">
        <ele>0</ele>
        <time>2013-05-03T19:19:15Z</time>
      </trkpt>
      <trkpt lat="59.324094353" lon="17.7489902535">
        <ele>0</ele>
        <time>2013-05-03T19:19:16Z</time>
      </trkpt>
      <trkpt lat="59.3239785151" lon="17.7492616594">
        <ele>0</ele>
        <time>2013-05-03T19:19:19Z</time>
      </trkpt>
      <trkpt lat="59.3238674549" lon="17.7495272818">
        <ele>0</ele>
        <time>2013-05-03T19:19:22Z</time>
      </trkpt>
      <trkpt lat="59.3238312451" lon="17.7496163814">
        <ele>0</ele>
        <time>2013-05-03T19:19:23Z</time>
      </trkpt>
      <trkpt lat="59.3237904253" lon="17.7497148687">
        <ele>0</ele>
        <time>2013-05-03T19:19:24Z</time>
      </trkpt>
      <trkpt lat="59.3237496054" lon="17.7498034654">
        <ele>0</ele>
        <time>2013-05-03T19:19:25Z</time>
      </trkpt>
      <trkpt lat="59.3237085341" lon="17.7498891284">
        <ele>0</ele>
        <time>2013-05-03T19:19:26Z</time>
      </trkpt>
      <trkpt lat="59.323666457" lon="17.7499776413">
        <ele>0</ele>
        <time>2013-05-03T19:19:27Z</time>
      </trkpt>
      <trkpt lat="59.3234127369" lon="17.7506828943">
        <ele>0</ele>
        <time>2013-05-03T19:19:34Z</time>
      </trkpt>
      <trkpt lat="59.3232601025" lon="17.7513484172">
        <ele>0</ele>
        <time>2013-05-03T19:19:40Z</time>
      </trkpt>
      <trkpt lat="59.3230679893" lon="17.7524404111">
        <ele>0</ele>
        <time>2013-05-03T19:19:49Z</time>
      </trkpt>
      <trkpt lat="59.323032953" lon="17.7528264815">
        <ele>0</ele>
        <time>2013-05-03T19:19:52Z</time>
      </trkpt>
      <trkpt lat="59.3230249902" lon="17.7531026651">
        <ele>0</ele>
        <time>2013-05-03T19:19:54Z</time>
      </trkpt>
      <trkpt lat="59.3230508902" lon="17.7537410306">
        <ele>0</ele>
        <time>2013-05-03T19:19:59Z</time>
      </trkpt>
      <trkpt lat="59.3230583501" lon="17.754239586">
        <ele>0</ele>
        <time>2013-05-03T19:20:03Z</time>
      </trkpt>
      <trkpt lat="59.3230539077" lon="17.7546004268">
        <ele>0</ele>
        <time>2013-05-03T19:20:06Z</time>
      </trkpt>
      <trkpt lat="59.3230577634" lon="17.7549585854">
        <ele>0</ele>
        <time>2013-05-03T19:20:09Z</time>
      </trkpt>
      <trkpt lat="59.3230586016" lon="17.7550783627">
        <ele>0</ele>
        <time>2013-05-03T19:20:10Z</time>
      </trkpt>
      <trkpt lat="59.3230632954" lon="17.7552000679">
        <ele>0</ele>
        <time>2013-05-03T19:20:11Z</time>
      </trkpt>
      <trkpt lat="59.3230650556" lon="17.7553221084">
        <ele>0</ele>
        <time>2013-05-03T19:20:12Z</time>
      </trkpt>
      <trkpt lat="59.3230672349" lon="17.755444987">
        <ele>0</ele>
        <time>2013-05-03T19:20:13Z</time>
      </trkpt>
      <trkpt lat="59.3230702524" lon="17.7555678657">
        <ele>0</ele>
        <time>2013-05-03T19:20:14Z</time>
      </trkpt>
      <trkpt lat="59.3230917939" lon="17.7564654833">
        <ele>0</ele>
        <time>2013-05-03T19:20:21Z</time>
      </trkpt>
      <trkpt lat="59.3231087253" lon="17.7572423178">
        <ele>0</ele>
        <time>2013-05-03T19:20:27Z</time>
      </trkpt>
      <trkpt lat="59.3231108208" lon="17.7578825273">
        <ele>0</ele>
        <time>2013-05-03T19:20:32Z</time>
      </trkpt>
      <trkpt lat="59.3231083062" lon="17.7580116924">
        <ele>0</ele>
        <time>2013-05-03T19:20:33Z</time>
      </trkpt>
      <trkpt lat="59.3231072166" lon="17.758135074">
        <ele>0</ele>
        <time>2013-05-03T19:20:34Z</time>
      </trkpt>
      <trkpt lat="59.3231041153" lon="17.7582561925">
        <ele>0</ele>
        <time>2013-05-03T19:20:35Z</time>
      </trkpt>
      <trkpt lat="59.3231029418" lon="17.7583775624">
        <ele>0</ele>
        <time>2013-05-03T19:20:36Z</time>
      </trkpt>
      <trkpt lat="59.3230430951" lon="17.7591176003">
        <ele>0</ele>
        <time>2013-05-03T19:20:42Z</time>
      </trkpt>
      <trkpt lat="59.3229520676" lon="17.7596386192">
        <ele>0</ele>
        <time>2013-05-03T19:20:47Z</time>
      </trkpt>
      <trkpt lat="59.3228605373" lon="17.760071712">
        <ele>0</ele>
        <time>2013-05-03T19:20:52Z</time>
      </trkpt>
      <trkpt lat="59.322846791" lon="17.7601583808">
        <ele>0</ele>
        <time>2013-05-03T19:20:53Z</time>
      </trkpt>
      <trkpt lat="59.3228244113" lon="17.7602466422">
        <ele>0</ele>
        <time>2013-05-03T19:20:54Z</time>
      </trkpt>
      <trkpt lat="59.3228032051" lon="17.7603387593">
        <ele>0</ele>
        <time>2013-05-03T19:20:55Z</time>
      </trkpt>
      <trkpt lat="59.322748136" lon="17.7605246699">
        <ele>0</ele>
        <time>2013-05-03T19:20:57Z</time>
      </trkpt>
      <trkpt lat="59.3227181288" lon="17.7606101652">
        <ele>0</ele>
        <time>2013-05-03T19:20:58Z</time>
      </trkpt>
      <trkpt lat="59.3226887921" lon="17.7606993487">
        <ele>0</ele>
        <time>2013-05-03T19:20:59Z</time>
      </trkpt>
      <trkpt lat="59.3226566057" lon="17.7607921363">
        <ele>0</ele>
        <time>2013-05-03T19:21:00Z</time>
      </trkpt>
      <trkpt lat="59.3226213179" lon="17.7608842534">
        <ele>0</ele>
        <time>2013-05-03T19:21:01Z</time>
      </trkpt>
      <trkpt lat="59.3225829288" lon="17.7609707546">
        <ele>0</ele>
        <time>2013-05-03T19:21:02Z</time>
      </trkpt>
      <trkpt lat="59.3225390914" lon="17.7610575073">
        <ele>0</ele>
        <time>2013-05-03T19:21:03Z</time>
      </trkpt>
      <trkpt lat="59.3225001156" lon="17.7611427512">
        <ele>0</ele>
        <time>2013-05-03T19:21:04Z</time>
      </trkpt>
      <trkpt lat="59.3224589604" lon="17.7612293362">
        <ele>0</ele>
        <time>2013-05-03T19:21:05Z</time>
      </trkpt>
      <trkpt lat="59.3224163804" lon="17.7613206989">
        <ele>0</ele>
        <time>2013-05-03T19:21:06Z</time>
      </trkpt>
      <trkpt lat="59.3223720401" lon="17.7614124807">
        <ele>0</ele>
        <time>2013-05-03T19:21:07Z</time>
      </trkpt>
      <trkpt lat="59.3222454735" lon="17.7616866527">
        <ele>0</ele>
        <time>2013-05-03T19:21:10Z</time>
      </trkpt>
      <trkpt lat="59.3220773325" lon="17.7620475773">
        <ele>0</ele>
        <time>2013-05-03T19:21:14Z</time>
      </trkpt>
      <trkpt lat="59.3220324056" lon="17.7621312286">
        <ele>0</ele>
        <time>2013-05-03T19:21:15Z</time>
      </trkpt>
      <trkpt lat="59.3219873109" lon="17.7622145447">
        <ele>0</ele>
        <time>2013-05-03T19:21:16Z</time>
      </trkpt>
      <trkpt lat="59.3219459882" lon="17.7622970226">
        <ele>0</ele>
        <time>2013-05-03T19:21:17Z</time>
      </trkpt>
      <trkpt lat="59.3219067609" lon="17.7623872957">
        <ele>0</ele>
        <time>2013-05-03T19:21:18Z</time>
      </trkpt>
      <trkpt lat="59.321580705" lon="17.7630332887">
        <ele>0</ele>
        <time>2013-05-03T19:21:26Z</time>
      </trkpt>
      <trkpt lat="59.3213571597" lon="17.7634945447">
        <ele>0</ele>
        <time>2013-05-03T19:21:31Z</time>
      </trkpt>
      <trkpt lat="59.3213062816" lon="17.7635910203">
        <ele>0</ele>
        <time>2013-05-03T19:21:32Z</time>
      </trkpt>
      <trkpt lat="59.3212502905" lon="17.7636936148">
        <ele>0</ele>
        <time>2013-05-03T19:21:33Z</time>
      </trkpt>
      <trkpt lat="59.3211927906" lon="17.7637804513">
        <ele>0</ele>
        <time>2013-05-03T19:21:34Z</time>
      </trkpt>
      <trkpt lat="59.3211322733" lon="17.7638628454">
        <ele>0</ele>
        <time>2013-05-03T19:21:35Z</time>
      </trkpt>
      <trkpt lat="59.3210728456" lon="17.7639586505">
        <ele>0</ele>
        <time>2013-05-03T19:21:36Z</time>
      </trkpt>
      <trkpt lat="59.3208030323" lon="17.7644827707">
        <ele>0</ele>
        <time>2013-05-03T19:21:41Z</time>
      </trkpt>
      <trkpt lat="59.3207513998" lon="17.7645887179">
        <ele>0</ele>
        <time>2013-05-03T19:21:42Z</time>
      </trkpt>
      <trkpt lat="59.3206980909" lon="17.7646889654">
        <ele>0</ele>
        <time>2013-05-03T19:21:43Z</time>
      </trkpt>
      <trkpt lat="59.3206430218" lon="17.7647925657">
        <ele>0</ele>
        <time>2013-05-03T19:21:44Z</time>
      </trkpt>
      <trkpt lat="59.3205368231" lon="17.7650079805">
        <ele>0</ele>
        <time>2013-05-03T19:21:46Z</time>
      </trkpt>
      <trkpt lat="59.320480832" lon="17.765115688">
        <ele>0</ele>
        <time>2013-05-03T19:21:47Z</time>
      </trkpt>
      <trkpt lat="59.3204217397" lon="17.7652295142">
        <ele>0</ele>
        <time>2013-05-03T19:21:48Z</time>
      </trkpt>
      <trkpt lat="59.3203643236" lon="17.76533982">
        <ele>0</ele>
        <time>2013-05-03T19:21:49Z</time>
      </trkpt>
      <trkpt lat="59.3203093384" lon="17.7654499581">
        <ele>0</ele>
        <time>2013-05-03T19:21:50Z</time>
      </trkpt>
      <trkpt lat="59.3199761579" lon="17.7661095298">
        <ele>0</ele>
        <time>2013-05-03T19:21:56Z</time>
      </trkpt>
      <trkpt lat="59.3198573025" lon="17.7663411217">
        <ele>0</ele>
        <time>2013-05-03T19:21:58Z</time>
      </trkpt>
      <trkpt lat="59.3197992159" lon="17.7664526848">
        <ele>0</ele>
        <time>2013-05-03T19:21:59Z</time>
      </trkpt>
      <trkpt lat="59.3197401235" lon="17.7665613981">
        <ele>0</ele>
        <time>2013-05-03T19:22:00Z</time>
      </trkpt>
      <trkpt lat="59.3196812826" lon="17.7666677644">
        <ele>0</ele>
        <time>2013-05-03T19:22:01Z</time>
      </trkpt>
      <trkpt lat="59.319623699" lon="17.7667752203">
        <ele>0</ele>
        <time>2013-05-03T19:22:02Z</time>
      </trkpt>
      <trkpt lat="59.3195123873" lon="17.7670057226">
        <ele>0</ele>
        <time>2013-05-03T19:22:04Z</time>
      </trkpt>
      <trkpt lat="59.3191063681" lon="17.7677678049">
        <ele>0</ele>
        <time>2013-05-03T19:22:11Z</time>
      </trkpt>
      <trkpt lat="59.3186904582" lon="17.7685063341">
        <ele>0</ele>
        <time>2013-05-03T19:22:18Z</time>
      </trkpt>
      <trkpt lat="59.3186304438" lon="17.7686085095">
        <ele>0</ele>
        <time>2013-05-03T19:22:19Z</time>
      </trkpt>
      <trkpt lat="59.3185628857" lon="17.7687029735">
        <ele>0</ele>
        <time>2013-05-03T19:22:20Z</time>
      </trkpt>
      <trkpt lat="59.3184965849" lon="17.7687864572">
        <ele>0</ele>
        <time>2013-05-03T19:22:21Z</time>
      </trkpt>
      <trkpt lat="59.3184302002" lon="17.7688665044">
        <ele>0</ele>
        <time>2013-05-03T19:22:22Z</time>
      </trkpt>
      <trkpt lat="59.3183001131" lon="17.769020899">
        <ele>0</ele>
        <time>2013-05-03T19:22:24Z</time>
      </trkpt>
      <trkpt lat="59.3179002127" lon="17.7693964919">
        <ele>0</ele>
        <time>2013-05-03T19:22:30Z</time>
      </trkpt>
      <trkpt lat="59.3174858954" lon="17.7697515492">
        <ele>0</ele>
        <time>2013-05-03T19:22:37Z</time>
      </trkpt>
      <trkpt lat="59.3171202769" lon="17.7700777728">
        <ele>0</ele>
        <time>2013-05-03T19:22:44Z</time>
      </trkpt>
      <trkpt lat="59.317069734" lon="17.7701173353">
        <ele>0</ele>
        <time>2013-05-03T19:22:45Z</time>
      </trkpt>
      <trkpt lat="59.3170180177" lon="17.770154551">
        <ele>0</ele>
        <time>2013-05-03T19:22:46Z</time>
      </trkpt>
      <trkpt lat="59.3169652117" lon="17.770192521">
        <ele>0</ele>
        <time>2013-05-03T19:22:47Z</time>
      </trkpt>
      <trkpt lat="59.3169119867" lon="17.7702294013">
        <ele>0</ele>
        <time>2013-05-03T19:22:48Z</time>
      </trkpt>
      <trkpt lat="59.3168573367" lon="17.7702681257">
        <ele>0</ele>
        <time>2013-05-03T19:22:49Z</time>
      </trkpt>
      <trkpt lat="59.3166391558" lon="17.7704189161">
        <ele>0</ele>
        <time>2013-05-03T19:22:53Z</time>
      </trkpt>
      <trkpt lat="59.3161756368" lon="17.770715803">
        <ele>0</ele>
        <time>2013-05-03T19:23:01Z</time>
      </trkpt>
      <trkpt lat="59.3158023069" lon="17.7709598839">
        <ele>0</ele>
        <time>2013-05-03T19:23:07Z</time>
      </trkpt>
      <trkpt lat="59.3157354194" lon="17.7709974348">
        <ele>0</ele>
        <time>2013-05-03T19:23:08Z</time>
      </trkpt>
      <trkpt lat="59.3156668554" lon="17.7710350696">
        <ele>0</ele>
        <time>2013-05-03T19:23:09Z</time>
      </trkpt>
      <trkpt lat="59.3155963636" lon="17.7710706088">
        <ele>0</ele>
        <time>2013-05-03T19:23:10Z</time>
      </trkpt>
      <trkpt lat="59.3155247822" lon="17.7711036335">
        <ele>0</ele>
        <time>2013-05-03T19:23:11Z</time>
      </trkpt>
      <trkpt lat="59.3151517877" lon="17.7712732832">
        <ele>0</ele>
        <time>2013-05-03T19:23:16Z</time>
      </trkpt>
      <trkpt lat="59.314934445" lon="17.7714404182">
        <ele>0</ele>
        <time>2013-05-03T19:23:19Z</time>
      </trkpt>
      <trkpt lat="59.3148608519" lon="17.771500265">
        <ele>0</ele>
        <time>2013-05-03T19:23:20Z</time>
      </trkpt>
      <trkpt lat="59.3147857501" lon="17.771557681">
        <ele>0</ele>
        <time>2013-05-03T19:23:21Z</time>
      </trkpt>
      <trkpt lat="59.3147083013" lon="17.7716138397">
        <ele>0</ele>
        <time>2013-05-03T19:23:22Z</time>
      </trkpt>
      <trkpt lat="59.3142071475" lon="17.7719711601">
        <ele>0</ele>
        <time>2013-05-03T19:23:29Z</time>
      </trkpt>
      <trkpt lat="59.3141336383" lon="17.7720157519">
        <ele>0</ele>
        <time>2013-05-03T19:23:30Z</time>
      </trkpt>
      <trkpt lat="59.3139189778" lon="17.77215925">
        <ele>0</ele>
        <time>2013-05-03T19:23:33Z</time>
      </trkpt>
      <trkpt lat="59.3138483184" lon="17.77220183">
        <ele>0</ele>
        <time>2013-05-03T19:23:34Z</time>
      </trkpt>
      <trkpt lat="59.3137790839" lon="17.7722436557">
        <ele>0</ele>
        <time>2013-05-03T19:23:35Z</time>
      </trkpt>
      <trkpt lat="59.3137099332" lon="17.7722850623">
        <ele>0</ele>
        <time>2013-05-03T19:23:36Z</time>
      </trkpt>
      <trkpt lat="59.3136401958" lon="17.7723456634">
        <ele>0</ele>
        <time>2013-05-03T19:23:37Z</time>
      </trkpt>
      <trkpt lat="59.3135722186" lon="17.772396793">
        <ele>0</ele>
        <time>2013-05-03T19:23:38Z</time>
      </trkpt>
      <trkpt lat="59.3131424786" lon="17.7726514351">
        <ele>0</ele>
        <time>2013-05-03T19:23:44Z</time>
      </trkpt>
      <trkpt lat="59.3127964738" lon="17.7728750642">
        <ele>0</ele>
        <time>2013-05-03T19:23:49Z</time>
      </trkpt>
      <trkpt lat="59.312727826" lon="17.7729219191">
        <ele>0</ele>
        <time>2013-05-03T19:23:50Z</time>
      </trkpt>
      <trkpt lat="59.3126621119" lon="17.77296408">
        <ele>0</ele>
        <time>2013-05-03T19:23:51Z</time>
      </trkpt>
      <trkpt lat="59.3125942185" lon="17.7730091746">
        <ele>0</ele>
        <time>2013-05-03T19:23:52Z</time>
      </trkpt>
      <trkpt lat="59.3125281691" lon="17.7730529282">
        <ele>0</ele>
        <time>2013-05-03T19:23:53Z</time>
      </trkpt>
      <trkpt lat="59.3120700983" lon="17.7733547604">
        <ele>0</ele>
        <time>2013-05-03T19:24:00Z</time>
      </trkpt>
      <trkpt lat="59.3116231754" lon="17.7736481269">
        <ele>0</ele>
        <time>2013-05-03T19:24:07Z</time>
      </trkpt>
      <trkpt lat="59.3115469839" lon="17.7737125837">
        <ele>0</ele>
        <time>2013-05-03T19:24:08Z</time>
      </trkpt>
      <trkpt lat="59.3113693715" lon="17.7738227219">
        <ele>0</ele>
        <time>2013-05-03T19:24:11Z</time>
      </trkpt>
      <trkpt lat="59.3109025835" lon="17.7741189382">
        <ele>0</ele>
        <time>2013-05-03T19:24:18Z</time>
      </trkpt>
      <trkpt lat="59.3106325186" lon="17.7742930303">
        <ele>0</ele>
        <time>2013-05-03T19:24:22Z</time>
      </trkpt>
      <trkpt lat="59.3105641223" lon="17.7743335987">
        <ele>0</ele>
        <time>2013-05-03T19:24:23Z</time>
      </trkpt>
      <trkpt lat="59.3104931276" lon="17.7743750052">
        <ele>0</ele>
        <time>2013-05-03T19:24:24Z</time>
      </trkpt>
      <trkpt lat="59.310426743" lon="17.7744169986">
        <ele>0</ele>
        <time>2013-05-03T19:24:25Z</time>
      </trkpt>
      <trkpt lat="59.3103616156" lon="17.7744595786">
        <ele>0</ele>
        <time>2013-05-03T19:24:26Z</time>
      </trkpt>
      <trkpt lat="59.3102964883" lon="17.774498303">
        <ele>0</ele>
        <time>2013-05-03T19:24:27Z</time>
      </trkpt>
      <trkpt lat="59.3099240805" lon="17.7747505982">
        <ele>0</ele>
        <time>2013-05-03T19:24:33Z</time>
      </trkpt>
      <trkpt lat="59.3096706118" lon="17.774959056">
        <ele>0</ele>
        <time>2013-05-03T19:24:37Z</time>
      </trkpt>
      <trkpt lat="59.3092467391" lon="17.7753209865">
        <ele>0</ele>
        <time>2013-05-03T19:24:44Z</time>
      </trkpt>
      <trkpt lat="59.3088143169" lon="17.7757304423">
        <ele>0</ele>
        <time>2013-05-03T19:24:51Z</time>
      </trkpt>
      <trkpt lat="59.3083276638" lon="17.7762094679">
        <ele>0</ele>
        <time>2013-05-03T19:24:59Z</time>
      </trkpt>
      <trkpt lat="59.307825588" lon="17.7767236974">
        <ele>0</ele>
        <time>2013-05-03T19:25:07Z</time>
      </trkpt>
      <trkpt lat="59.3073777431" lon="17.7771807625">
        <ele>0</ele>
        <time>2013-05-03T19:25:14Z</time>
      </trkpt>
      <trkpt lat="59.3073136215" lon="17.7772475662">
        <ele>0</ele>
        <time>2013-05-03T19:25:15Z</time>
      </trkpt>
      <trkpt lat="59.307250422" lon="17.7773125259">
        <ele>0</ele>
        <time>2013-05-03T19:25:16Z</time>
      </trkpt>
      <trkpt lat="59.3071855461" lon="17.7773859514">
        <ele>0</ele>
        <time>2013-05-03T19:25:17Z</time>
      </trkpt>
      <trkpt lat="59.3071231848" lon="17.7774530904">
        <ele>0</ele>
        <time>2013-05-03T19:25:18Z</time>
      </trkpt>
      <trkpt lat="59.3070618292" lon="17.7775230792">
        <ele>0</ele>
        <time>2013-05-03T19:25:19Z</time>
      </trkpt>
      <trkpt lat="59.3068829595" lon="17.7777654838">
        <ele>0</ele>
        <time>2013-05-03T19:25:22Z</time>
      </trkpt>
      <trkpt lat="59.3065245495" lon="17.7781860037">
        <ele>0</ele>
        <time>2013-05-03T19:25:28Z</time>
      </trkpt>
      <trkpt lat="59.3061546562" lon="17.7785431565">
        <ele>0</ele>
        <time>2013-05-03T19:25:34Z</time>
      </trkpt>
      <trkpt lat="59.3058413408" lon="17.7788714755">
        <ele>0</ele>
        <time>2013-05-03T19:25:39Z</time>
      </trkpt>
      <trkpt lat="59.3055103396" lon="17.7793553626">
        <ele>0</ele>
        <time>2013-05-03T19:25:45Z</time>
      </trkpt>
      <trkpt lat="59.3052589664" lon="17.7798295267">
        <ele>0</ele>
        <time>2013-05-03T19:25:51Z</time>
      </trkpt>
      <trkpt lat="59.3048939346" lon="17.7804603485">
        <ele>0</ele>
        <time>2013-05-03T19:25:59Z</time>
      </trkpt>
      <trkpt lat="59.3046062678" lon="17.7809746618">
        <ele>0</ele>
        <time>2013-05-03T19:26:05Z</time>
      </trkpt>
      <trkpt lat="59.3045577366" lon="17.7810656893">
        <ele>0</ele>
        <time>2013-05-03T19:26:06Z</time>
      </trkpt>
      <trkpt lat="59.3045092054" lon="17.7811517714">
        <ele>0</ele>
        <time>2013-05-03T19:26:07Z</time>
      </trkpt>
      <trkpt lat="59.3044620991" lon="17.7812386079">
        <ele>0</ele>
        <time>2013-05-03T19:26:08Z</time>
      </trkpt>
      <trkpt lat="59.3044165854" lon="17.7813272046">
        <ele>0</ele>
        <time>2013-05-03T19:26:09Z</time>
      </trkpt>
      <trkpt lat="59.3040584268" lon="17.7820741995">
        <ele>0</ele>
        <time>2013-05-03T19:26:17Z</time>
      </trkpt>
      <trkpt lat="59.3037269227" lon="17.7828270617">
        <ele>0</ele>
        <time>2013-05-03T19:26:25Z</time>
      </trkpt>
      <trkpt lat="59.3034631443" lon="17.7834773296">
        <ele>0</ele>
        <time>2013-05-03T19:26:32Z</time>
      </trkpt>
      <trkpt lat="59.3032061552" lon="17.7841781402">
        <ele>0</ele>
        <time>2013-05-03T19:26:39Z</time>
      </trkpt>
      <trkpt lat="59.3029174826" lon="17.7850688009">
        <ele>0</ele>
        <time>2013-05-03T19:26:47Z</time>
      </trkpt>
      <trkpt lat="59.3027401216" lon="17.7857317254">
        <ele>0</ele>
        <time>2013-05-03T19:26:53Z</time>
      </trkpt>
      <trkpt lat="59.3027104497" lon="17.7858545202">
        <ele>0</ele>
        <time>2013-05-03T19:26:54Z</time>
      </trkpt>
      <trkpt lat="59.3026822865" lon="17.7859665024">
        <ele>0</ele>
        <time>2013-05-03T19:26:55Z</time>
      </trkpt>
      <trkpt lat="59.3026549615" lon="17.7860767244">
        <ele>0</ele>
        <time>2013-05-03T19:26:56Z</time>
      </trkpt>
      <trkpt lat="59.3026267145" lon="17.7862015309">
        <ele>0</ele>
        <time>2013-05-03T19:26:57Z</time>
      </trkpt>
      <trkpt lat="59.3026018203" lon="17.7863331267">
        <ele>0</ele>
        <time>2013-05-03T19:26:58Z</time>
      </trkpt>
      <trkpt lat="59.3025796082" lon="17.7864565083">
        <ele>0</ele>
        <time>2013-05-03T19:26:59Z</time>
      </trkpt>
      <trkpt lat="59.3023957093" lon="17.7875378572">
        <ele>0</ele>
        <time>2013-05-03T19:27:07Z</time>
      </trkpt>
      <trkpt lat="59.3022551449" lon="17.7885918811">
        <ele>0</ele>
        <time>2013-05-03T19:27:15Z</time>
      </trkpt>
      <trkpt lat="59.3021677217" lon="17.789539874">
        <ele>0</ele>
        <time>2013-05-03T19:27:22Z</time>
      </trkpt>
      <trkpt lat="59.3021585854" lon="17.7896663569">
        <ele>0</ele>
        <time>2013-05-03T19:27:23Z</time>
      </trkpt>
      <trkpt lat="59.3021494491" lon="17.789795019">
        <ele>0</ele>
        <time>2013-05-03T19:27:24Z</time>
      </trkpt>
      <trkpt lat="59.3021421569" lon="17.7899240165">
        <ele>0</ele>
        <time>2013-05-03T19:27:25Z</time>
      </trkpt>
      <trkpt lat="59.3021383012" lon="17.7900512537">
        <ele>0</ele>
        <time>2013-05-03T19:27:26Z</time>
      </trkpt>
      <trkpt lat="59.3021345293" lon="17.7901859509">
        <ele>0</ele>
        <time>2013-05-03T19:27:27Z</time>
      </trkpt>
      <trkpt lat="59.3021200286" lon="17.7905751225">
        <ele>0</ele>
        <time>2013-05-03T19:27:30Z</time>
      </trkpt>
      <trkpt lat="59.3021048574" lon="17.7909628692">
        <ele>0</ele>
        <time>2013-05-03T19:27:33Z</time>
      </trkpt>
      <trkpt lat="59.3021057794" lon="17.7913614285">
        <ele>0</ele>
        <time>2013-05-03T19:27:36Z</time>
      </trkpt>
      <trkpt lat="59.3021127364" lon="17.7917596526">
        <ele>0</ele>
        <time>2013-05-03T19:27:39Z</time>
      </trkpt>
      <trkpt lat="59.3021145804" lon="17.7918922542">
        <ele>0</ele>
        <time>2013-05-03T19:27:40Z</time>
      </trkpt>
      <trkpt lat="59.302114748" lon="17.7920258617">
        <ele>0</ele>
        <time>2013-05-03T19:27:41Z</time>
      </trkpt>
      <trkpt lat="59.302113826" lon="17.7921561164">
        <ele>0</ele>
        <time>2013-05-03T19:27:42Z</time>
      </trkpt>
      <trkpt lat="59.3021148319" lon="17.7922835213">
        <ele>0</ele>
        <time>2013-05-03T19:27:43Z</time>
      </trkpt>
      <trkpt lat="59.3021171788" lon="17.7926629699">
        <ele>0</ele>
        <time>2013-05-03T19:27:46Z</time>
      </trkpt>
      <trkpt lat="59.3021215374" lon="17.7935621802">
        <ele>0</ele>
        <time>2013-05-03T19:27:53Z</time>
      </trkpt>
      <trkpt lat="59.3021227947" lon="17.7936901718">
        <ele>0</ele>
        <time>2013-05-03T19:27:54Z</time>
      </trkpt>
      <trkpt lat="59.3021246387" lon="17.7938195045">
        <ele>0</ele>
        <time>2013-05-03T19:27:55Z</time>
      </trkpt>
      <trkpt lat="59.3021264827" lon="17.7939468256">
        <ele>0</ele>
        <time>2013-05-03T19:27:56Z</time>
      </trkpt>
      <trkpt lat="59.3021221241" lon="17.7940797625">
        <ele>0</ele>
        <time>2013-05-03T19:27:57Z</time>
      </trkpt>
      <trkpt lat="59.3021262312" lon="17.7942035632">
        <ele>0</ele>
        <time>2013-05-03T19:27:58Z</time>
      </trkpt>
      <trkpt lat="59.3021188552" lon="17.7944557745">
        <ele>0</ele>
        <time>2013-05-03T19:28:00Z</time>
      </trkpt>
      <trkpt lat="59.3021175979" lon="17.7954666317">
        <ele>0</ele>
        <time>2013-05-03T19:28:08Z</time>
      </trkpt>
      <trkpt lat="59.3021165921" lon="17.7955791168">
        <ele>0</ele>
        <time>2013-05-03T19:28:09Z</time>
      </trkpt>
      <trkpt lat="59.3021142451" lon="17.7956959605">
        <ele>0</ele>
        <time>2013-05-03T19:28:10Z</time>
      </trkpt>
      <trkpt lat="59.302114329" lon="17.7958142291">
        <ele>0</ele>
        <time>2013-05-03T19:28:11Z</time>
      </trkpt>
      <trkpt lat="59.3021102218" lon="17.7959360181">
        <ele>0</ele>
        <time>2013-05-03T19:28:12Z</time>
      </trkpt>
      <trkpt lat="59.3021098865" lon="17.7960501796">
        <ele>0</ele>
        <time>2013-05-03T19:28:13Z</time>
      </trkpt>
      <trkpt lat="59.3021114791" lon="17.7962830287">
        <ele>0</ele>
        <time>2013-05-03T19:28:15Z</time>
      </trkpt>
      <trkpt lat="59.3020780353" lon="17.7965055682">
        <ele>0</ele>
        <time>2013-05-03T19:28:18Z</time>
      </trkpt>
      <trkpt lat="59.3020715813" lon="17.7965693544">
        <ele>0</ele>
        <time>2013-05-03T19:28:19Z</time>
      </trkpt>
      <trkpt lat="59.3020093876" lon="17.7969230706">
        <ele>0</ele>
        <time>2013-05-03T19:28:24Z</time>
      </trkpt>
      <trkpt lat="59.3019872593" lon="17.7971524832">
        <ele>0</ele>
        <time>2013-05-03T19:28:26Z</time>
      </trkpt>
      <trkpt lat="59.3019831522" lon="17.7974082988">
        <ele>0</ele>
        <time>2013-05-03T19:28:28Z</time>
      </trkpt>
      <trkpt lat="59.3019949707" lon="17.79767543">
        <ele>0</ele>
        <time>2013-05-03T19:28:30Z</time>
      </trkpt>
      <trkpt lat="59.3020258161" lon="17.7982249473">
        <ele>0</ele>
        <time>2013-05-03T19:28:34Z</time>
      </trkpt>
      <trkpt lat="59.3020948829" lon="17.7990229042">
        <ele>0</ele>
        <time>2013-05-03T19:28:40Z</time>
      </trkpt>
      <trkpt lat="59.3021184361" lon="17.7992884428">
        <ele>0</ele>
        <time>2013-05-03T19:28:42Z</time>
      </trkpt>
      <trkpt lat="59.3021319309" lon="17.7994135846">
        <ele>0</ele>
        <time>2013-05-03T19:28:43Z</time>
      </trkpt>
      <trkpt lat="59.3021399776" lon="17.7995420791">
        <ele>0</ele>
        <time>2013-05-03T19:28:44Z</time>
      </trkpt>
      <trkpt lat="59.3021514608" lon="17.7996663827">
        <ele>0</ele>
        <time>2013-05-03T19:28:45Z</time>
      </trkpt>
      <trkpt lat="59.302163866" lon="17.7997920273">
        <ele>0</ele>
        <time>2013-05-03T19:28:46Z</time>
      </trkpt>
      <trkpt lat="59.3021840664" lon="17.8000454122">
        <ele>0</ele>
        <time>2013-05-03T19:28:48Z</time>
      </trkpt>
      <trkpt lat="59.3022005787" lon="17.8002903313">
        <ele>0</ele>
        <time>2013-05-03T19:28:50Z</time>
      </trkpt>
      <trkpt lat="59.3022209467" lon="17.8005434647">
        <ele>0</ele>
        <time>2013-05-03T19:28:52Z</time>
      </trkpt>
      <trkpt lat="59.3022391354" lon="17.8008090871">
        <ele>0</ele>
        <time>2013-05-03T19:28:54Z</time>
      </trkpt>
      <trkpt lat="59.3022641135" lon="17.8010674173">
        <ele>0</ele>
        <time>2013-05-03T19:28:56Z</time>
      </trkpt>
      <trkpt lat="59.3022760158" lon="17.8011950736">
        <ele>0</ele>
        <time>2013-05-03T19:28:57Z</time>
      </trkpt>
      <trkpt lat="59.3022894268" lon="17.801325915">
        <ele>0</ele>
        <time>2013-05-03T19:28:58Z</time>
      </trkpt>
      <trkpt lat="59.3023019997" lon="17.8014523979">
        <ele>0</ele>
        <time>2013-05-03T19:28:59Z</time>
      </trkpt>
      <trkpt lat="59.3023107169" lon="17.8015794675">
        <ele>0</ele>
        <time>2013-05-03T19:29:00Z</time>
      </trkpt>
      <trkpt lat="59.3023182606" lon="17.801707543">
        <ele>0</ele>
        <time>2013-05-03T19:29:01Z</time>
      </trkpt>
      <trkpt lat="59.3023438254" lon="17.8020744187">
        <ele>0</ele>
        <time>2013-05-03T19:29:04Z</time>
      </trkpt>
      <trkpt lat="59.3023492736" lon="17.8028152949">
        <ele>0</ele>
        <time>2013-05-03T19:29:10Z</time>
      </trkpt>
      <trkpt lat="59.3022936178" lon="17.8036599389">
        <ele>0</ele>
        <time>2013-05-03T19:29:17Z</time>
      </trkpt>
      <trkpt lat="59.3022019198" lon="17.8045971192">
        <ele>0</ele>
        <time>2013-05-03T19:29:24Z</time>
      </trkpt>
      <trkpt lat="59.302090692" lon="17.8056609499">
        <ele>0</ele>
        <time>2013-05-03T19:29:31Z</time>
      </trkpt>
      <trkpt lat="59.3019829846" lon="17.8067778381">
        <ele>0</ele>
        <time>2013-05-03T19:29:38Z</time>
      </trkpt>
      <trkpt lat="59.3019621975" lon="17.8069471525">
        <ele>0</ele>
        <time>2013-05-03T19:29:39Z</time>
      </trkpt>
      <trkpt lat="59.301945266" lon="17.8071183109">
        <ele>0</ele>
        <time>2013-05-03T19:29:40Z</time>
      </trkpt>
      <trkpt lat="59.3019207909" lon="17.8072851107">
        <ele>0</ele>
        <time>2013-05-03T19:29:41Z</time>
      </trkpt>
      <trkpt lat="59.3018885206" lon="17.8074464622">
        <ele>0</ele>
        <time>2013-05-03T19:29:42Z</time>
      </trkpt>
      <trkpt lat="59.3018553282" lon="17.807620219">
        <ele>0</ele>
        <time>2013-05-03T19:29:43Z</time>
      </trkpt>
      <trkpt lat="59.3018181964" lon="17.8077764577">
        <ele>0</ele>
        <time>2013-05-03T19:29:44Z</time>
      </trkpt>
      <trkpt lat="59.3017689947" lon="17.8079118253">
        <ele>0</ele>
        <time>2013-05-03T19:29:45Z</time>
      </trkpt>
      <trkpt lat="59.3016550846" lon="17.8081648749">
        <ele>0</ele>
        <time>2013-05-03T19:29:47Z</time>
      </trkpt>
      <trkpt lat="59.3014606246" lon="17.8084742508">
        <ele>0</ele>
        <time>2013-05-03T19:29:50Z</time>
      </trkpt>
      <trkpt lat="59.3013911386" lon="17.8085708941">
        <ele>0</ele>
        <time>2013-05-03T19:29:51Z</time>
      </trkpt>
      <trkpt lat="59.3009390189" lon="17.8091664281">
        <ele>0</ele>
        <time>2013-05-03T19:29:58Z</time>
      </trkpt>
      <trkpt lat="59.3004345124" lon="17.8096555958">
        <ele>0</ele>
        <time>2013-05-03T19:30:05Z</time>
      </trkpt>
      <trkpt lat="59.3002829676" lon="17.8097607048">
        <ele>0</ele>
        <time>2013-05-03T19:30:07Z</time>
      </trkpt>
      <trkpt lat="59.3002002383" lon="17.80978979">
        <ele>0</ele>
        <time>2013-05-03T19:30:08Z</time>
      </trkpt>
      <trkpt lat="59.3001123121" lon="17.8098029496">
        <ele>0</ele>
        <time>2013-05-03T19:30:09Z</time>
      </trkpt>
      <trkpt lat="59.3000258947" lon="17.809809739">
        <ele>0</ele>
        <time>2013-05-03T19:30:10Z</time>
      </trkpt>
      <trkpt lat="59.2999429139" lon="17.8098269218">
        <ele>0</ele>
        <time>2013-05-03T19:30:11Z</time>
      </trkpt>
      <trkpt lat="59.2998599331" lon="17.8098498883">
        <ele>0</ele>
        <time>2013-05-03T19:30:12Z</time>
      </trkpt>
      <trkpt lat="59.2997770361" lon="17.8098706754">
        <ele>0</ele>
        <time>2013-05-03T19:30:13Z</time>
      </trkpt>
      <trkpt lat="59.299693301" lon="17.8098993415">
        <ele>0</ele>
        <time>2013-05-03T19:30:14Z</time>
      </trkpt>
      <trkpt lat="59.2996109069" lon="17.8099413348">
        <ele>0</ele>
        <time>2013-05-03T19:30:15Z</time>
      </trkpt>
      <trkpt lat="59.2995327876" lon="17.8099995052">
        <ele>0</ele>
        <time>2013-05-03T19:30:16Z</time>
      </trkpt>
      <trkpt lat="59.2994556741" lon="17.8100335357">
        <ele>0</ele>
        <time>2013-05-03T19:30:17Z</time>
      </trkpt>
      <trkpt lat="59.2993768004" lon="17.8100585137">
        <ele>0</ele>
        <time>2013-05-03T19:30:18Z</time>
      </trkpt>
      <trkpt lat="59.2993014471" lon="17.8100813125">
        <ele>0</ele>
        <time>2013-05-03T19:30:19Z</time>
      </trkpt>
      <trkpt lat="59.2990655805" lon="17.810133867">
        <ele>0</ele>
        <time>2013-05-03T19:30:22Z</time>
      </trkpt>
      <trkpt lat="59.2989877964" lon="17.8101595156">
        <ele>0</ele>
        <time>2013-05-03T19:30:23Z</time>
      </trkpt>
      <trkpt lat="59.2989127784" lon="17.8101834041">
        <ele>0</ele>
        <time>2013-05-03T19:30:24Z</time>
      </trkpt>
      <trkpt lat="59.2988365031" lon="17.8102023471">
        <ele>0</ele>
        <time>2013-05-03T19:30:25Z</time>
      </trkpt>
      <trkpt lat="59.2987599764" lon="17.8102250621">
        <ele>0</ele>
        <time>2013-05-03T19:30:26Z</time>
      </trkpt>
      <trkpt lat="59.2983714753" lon="17.8103270698">
        <ele>0</ele>
        <time>2013-05-03T19:30:31Z</time>
      </trkpt>
      <trkpt lat="59.2980600877" lon="17.8104118108">
        <ele>0</ele>
        <time>2013-05-03T19:30:35Z</time>
      </trkpt>
      <trkpt lat="59.2979797891" lon="17.8104440811">
        <ele>0</ele>
        <time>2013-05-03T19:30:36Z</time>
      </trkpt>
      <trkpt lat="59.2978991553" lon="17.8104653712">
        <ele>0</ele>
        <time>2013-05-03T19:30:37Z</time>
      </trkpt>
      <trkpt lat="59.2978240534" lon="17.8104826379">
        <ele>0</ele>
        <time>2013-05-03T19:30:38Z</time>
      </trkpt>
      <trkpt lat="59.2973344667" lon="17.8106054327">
        <ele>0</ele>
        <time>2013-05-03T19:30:45Z</time>
      </trkpt>
      <trkpt lat="59.2969499051" lon="17.8107195104">
        <ele>0</ele>
        <time>2013-05-03T19:30:51Z</time>
      </trkpt>
      <trkpt lat="59.2968845263" lon="17.8107340949">
        <ele>0</ele>
        <time>2013-05-03T19:30:52Z</time>
      </trkpt>
      <trkpt lat="59.2968218297" lon="17.8107444884">
        <ele>0</ele>
        <time>2013-05-03T19:30:53Z</time>
      </trkpt>
      <trkpt lat="59.2967598874" lon="17.8107666167">
        <ele>0</ele>
        <time>2013-05-03T19:30:54Z</time>
      </trkpt>
      <trkpt lat="59.2966994539" lon="17.810773406">
        <ele>0</ele>
        <time>2013-05-03T19:30:55Z</time>
      </trkpt>
      <trkpt lat="59.2966417026" lon="17.8107763397">
        <ele>0</ele>
        <time>2013-05-03T19:30:56Z</time>
      </trkpt>
      <trkpt lat="59.2965917465" lon="17.8107904213">
        <ele>0</ele>
        <time>2013-05-03T19:30:57Z</time>
      </trkpt>
      <trkpt lat="59.2963571371" lon="17.8108560515">
        <ele>0</ele>
        <time>2013-05-03T19:31:02Z</time>
      </trkpt>
      <trkpt lat="59.2962633437" lon="17.8108776768">
        <ele>0</ele>
        <time>2013-05-03T19:31:04Z</time>
      </trkpt>
      <trkpt lat="59.2962200092" lon="17.8108996374">
        <ele>0</ele>
        <time>2013-05-03T19:31:05Z</time>
      </trkpt>
      <trkpt lat="59.2961748308" lon="17.8109092766">
        <ele>0</ele>
        <time>2013-05-03T19:31:06Z</time>
      </trkpt>
      <trkpt lat="59.2961262996" lon="17.8109245317">
        <ele>0</ele>
        <time>2013-05-03T19:31:07Z</time>
      </trkpt>
      <trkpt lat="59.2960794448" lon="17.8109406249">
        <ele>0</ele>
        <time>2013-05-03T19:31:08Z</time>
      </trkpt>
      <trkpt lat="59.2960325061" lon="17.8109609091">
        <ele>0</ele>
        <time>2013-05-03T19:31:09Z</time>
      </trkpt>
      <trkpt lat="59.295986238" lon="17.8109796846">
        <ele>0</ele>
        <time>2013-05-03T19:31:10Z</time>
      </trkpt>
      <trkpt lat="59.2958233777" lon="17.8110191633">
        <ele>0</ele>
        <time>2013-05-03T19:31:14Z</time>
      </trkpt>
      <trkpt lat="59.2957714099" lon="17.8110194148">
        <ele>0</ele>
        <time>2013-05-03T19:31:15Z</time>
      </trkpt>
      <trkpt lat="59.2957199451" lon="17.8110303951">
        <ele>0</ele>
        <time>2013-05-03T19:31:16Z</time>
      </trkpt>
      <trkpt lat="59.2955094756" lon="17.8111043234">
        <ele>0</ele>
        <time>2013-05-03T19:31:20Z</time>
      </trkpt>
      <trkpt lat="59.2951498921" lon="17.8112417866">
        <ele>0</ele>
        <time>2013-05-03T19:31:27Z</time>
      </trkpt>
      <trkpt lat="59.2951018638" lon="17.8112584665">
        <ele>0</ele>
        <time>2013-05-03T19:31:28Z</time>
      </trkpt>
      <trkpt lat="59.2950520753" lon="17.8112753142">
        <ele>0</ele>
        <time>2013-05-03T19:31:29Z</time>
      </trkpt>
      <trkpt lat="59.2950002751" lon="17.8112878032">
        <ele>0</ele>
        <time>2013-05-03T19:31:30Z</time>
      </trkpt>
      <trkpt lat="59.2949519116" lon="17.8113009628">
        <ele>0</ele>
        <time>2013-05-03T19:31:31Z</time>
      </trkpt>
      <trkpt lat="59.2949027098" lon="17.8113128651">
        <ele>0</ele>
        <time>2013-05-03T19:31:32Z</time>
      </trkpt>
      <trkpt lat="59.2946969342" lon="17.8113666769">
        <ele>0</ele>
        <time>2013-05-03T19:31:36Z</time>
      </trkpt>
      <trkpt lat="59.294380266" lon="17.8114658348">
        <ele>0</ele>
        <time>2013-05-03T19:31:42Z</time>
      </trkpt>
      <trkpt lat="59.2941681201" lon="17.8115337281">
        <ele>0</ele>
        <time>2013-05-03T19:31:46Z</time>
      </trkpt>
      <trkpt lat="59.2941128834" lon="17.8115452113">
        <ele>0</ele>
        <time>2013-05-03T19:31:47Z</time>
      </trkpt>
      <trkpt lat="59.2940610832" lon="17.811561137">
        <ele>0</ele>
        <time>2013-05-03T19:31:48Z</time>
      </trkpt>
      <trkpt lat="59.2940115462" lon="17.8115905574">
        <ele>0</ele>
        <time>2013-05-03T19:31:49Z</time>
      </trkpt>
      <trkpt lat="59.2939746659" lon="17.8116457103">
        <ele>0</ele>
        <time>2013-05-03T19:31:50Z</time>
      </trkpt>
      <trkpt lat="59.2939480952" lon="17.8117201416">
        <ele>0</ele>
        <time>2013-05-03T19:31:51Z</time>
      </trkpt>
      <trkpt lat="59.2939610872" lon="17.8118911324">
        <ele>0</ele>
        <time>2013-05-03T19:31:53Z</time>
      </trkpt>
      <trkpt lat="59.2939554713" lon="17.8120339599">
        <ele>0</ele>
        <time>2013-05-03T19:31:55Z</time>
      </trkpt>
      <trkpt lat="59.2938788607" lon="17.8122697428">
        <ele>0</ele>
        <time>2013-05-03T19:31:58Z</time>
      </trkpt>
      <trkpt lat="59.2938653659" lon="17.8123907774">
        <ele>0</ele>
        <time>2013-05-03T19:31:59Z</time>
      </trkpt>
      <trkpt lat="59.2938169185" lon="17.8130685379">
        <ele>0</ele>
        <time>2013-05-03T19:32:04Z</time>
      </trkpt>
      <trkpt lat="59.2937184312" lon="17.81420395">
        <ele>0</ele>
        <time>2013-05-03T19:32:12Z</time>
      </trkpt>
      <trkpt lat="59.2936479394" lon="17.8149227818">
        <ele>0</ele>
        <time>2013-05-03T19:32:17Z</time>
      </trkpt>
      <trkpt lat="59.2936077901" lon="17.8152078502">
        <ele>0</ele>
        <time>2013-05-03T19:32:19Z</time>
      </trkpt>
      <trkpt lat="59.2934722548" lon="17.8162579346">
        <ele>0</ele>
        <time>2013-05-03T19:32:26Z</time>
      </trkpt>
      <trkpt lat="59.2934316026" lon="17.8167301709">
        <ele>0</ele>
        <time>2013-05-03T19:32:29Z</time>
      </trkpt>
      <trkpt lat="59.2934178562" lon="17.8168828053">
        <ele>0</ele>
        <time>2013-05-03T19:32:30Z</time>
      </trkpt>
      <trkpt lat="59.2934043614" lon="17.8170357749">
        <ele>0</ele>
        <time>2013-05-03T19:32:31Z</time>
      </trkpt>
      <trkpt lat="59.2933927944" lon="17.8171946119">
        <ele>0</ele>
        <time>2013-05-03T19:32:32Z</time>
      </trkpt>
      <trkpt lat="59.2933825684" lon="17.8173624176">
        <ele>0</ele>
        <time>2013-05-03T19:32:33Z</time>
      </trkpt>
      <trkpt lat="59.2933378091" lon="17.8180306227">
        <ele>0</ele>
        <time>2013-05-03T19:32:37Z</time>
      </trkpt>
      <trkpt lat="59.2933280861" lon="17.8182031222">
        <ele>0</ele>
        <time>2013-05-03T19:32:38Z</time>
      </trkpt>
      <trkpt lat="59.2933190336" lon="17.8183734424">
        <ele>0</ele>
        <time>2013-05-03T19:32:39Z</time>
      </trkpt>
      <trkpt lat="59.293309143" lon="17.8185400745">
        <ele>0</ele>
        <time>2013-05-03T19:32:40Z</time>
      </trkpt>
      <trkpt lat="59.2932390703" lon="17.8194846308">
        <ele>0</ele>
        <time>2013-05-03T19:32:46Z</time>
      </trkpt>
      <trkpt lat="59.2931835821" lon="17.8204182069">
        <ele>0</ele>
        <time>2013-05-03T19:32:52Z</time>
      </trkpt>
      <trkpt lat="59.2931824925" lon="17.8211759306">
        <ele>0</ele>
        <time>2013-05-03T19:32:57Z</time>
      </trkpt>
      <trkpt lat="59.293222558" lon="17.8216217639">
        <ele>0</ele>
        <time>2013-05-03T19:33:00Z</time>
      </trkpt>
      <trkpt lat="59.2932391541" lon="17.8217563772">
        <ele>0</ele>
        <time>2013-05-03T19:33:01Z</time>
      </trkpt>
      <trkpt lat="59.2932566723" lon="17.8218966064">
        <ele>0</ele>
        <time>2013-05-03T19:33:02Z</time>
      </trkpt>
      <trkpt lat="59.2932749448" lon="17.822034321">
        <ele>0</ele>
        <time>2013-05-03T19:33:03Z</time>
      </trkpt>
      <trkpt lat="59.2932934688" lon="17.8221728738">
        <ele>0</ele>
        <time>2013-05-03T19:33:04Z</time>
      </trkpt>
      <trkpt lat="59.2934152579" lon="17.8230105609">
        <ele>0</ele>
        <time>2013-05-03T19:33:10Z</time>
      </trkpt>
      <trkpt lat="59.2934490369" lon="17.8232796199">
        <ele>0</ele>
        <time>2013-05-03T19:33:12Z</time>
      </trkpt>
      <trkpt lat="59.2934648787" lon="17.8234085335">
        <ele>0</ele>
        <time>2013-05-03T19:33:13Z</time>
      </trkpt>
      <trkpt lat="59.2934808043" lon="17.8235395426">
        <ele>0</ele>
        <time>2013-05-03T19:33:14Z</time>
      </trkpt>
      <trkpt lat="59.2934961432" lon="17.8236766705">
        <ele>0</ele>
        <time>2013-05-03T19:33:15Z</time>
      </trkpt>
      <trkpt lat="59.2935077102" lon="17.8238037401">
        <ele>0</ele>
        <time>2013-05-03T19:33:16Z</time>
      </trkpt>
      <trkpt lat="59.2935249769" lon="17.8240799237">
        <ele>0</ele>
        <time>2013-05-03T19:33:18Z</time>
      </trkpt>
      <trkpt lat="59.293563366" lon="17.8249987476">
        <ele>0</ele>
        <time>2013-05-03T19:33:24Z</time>
      </trkpt>
      <trkpt lat="59.2935678084" lon="17.825795531">
        <ele>0</ele>
        <time>2013-05-03T19:33:30Z</time>
      </trkpt>
      <trkpt lat="59.2936056108" lon="17.8264780691">
        <ele>0</ele>
        <time>2013-05-03T19:33:35Z</time>
      </trkpt>
      <trkpt lat="59.2936196086" lon="17.8266171248">
        <ele>0</ele>
        <time>2013-05-03T19:33:36Z</time>
      </trkpt>
      <trkpt lat="59.2936361209" lon="17.8267541689">
        <ele>0</ele>
        <time>2013-05-03T19:33:37Z</time>
      </trkpt>
      <trkpt lat="59.2936538067" lon="17.8268890337">
        <ele>0</ele>
        <time>2013-05-03T19:33:38Z</time>
      </trkpt>
      <trkpt lat="59.2936744262" lon="17.8270223897">
        <ele>0</ele>
        <time>2013-05-03T19:33:39Z</time>
      </trkpt>
      <trkpt lat="59.2937760986" lon="17.8275197716">
        <ele>0</ele>
        <time>2013-05-03T19:33:43Z</time>
      </trkpt>
      <trkpt lat="59.2939535435" lon="17.8281584724">
        <ele>0</ele>
        <time>2013-05-03T19:33:48Z</time>
      </trkpt>
      <trkpt lat="59.2941904998" lon="17.8289555911">
        <ele>0</ele>
        <time>2013-05-03T19:33:54Z</time>
      </trkpt>
      <trkpt lat="59.2943472413" lon="17.8295134904">
        <ele>0</ele>
        <time>2013-05-03T19:33:58Z</time>
      </trkpt>
      <trkpt lat="59.294384876" lon="17.8296592516">
        <ele>0</ele>
        <time>2013-05-03T19:33:59Z</time>
      </trkpt>
      <trkpt lat="59.2944209182" lon="17.8298081142">
        <ele>0</ele>
        <time>2013-05-03T19:34:00Z</time>
      </trkpt>
      <trkpt lat="59.2944536914" lon="17.8299676217">
        <ele>0</ele>
        <time>2013-05-03T19:34:01Z</time>
      </trkpt>
      <trkpt lat="59.2944827766" lon="17.8301336672">
        <ele>0</ele>
        <time>2013-05-03T19:34:02Z</time>
      </trkpt>
      <trkpt lat="59.2945408632" lon="17.8306575359">
        <ele>0</ele>
        <time>2013-05-03T19:34:05Z</time>
      </trkpt>
      <trkpt lat="59.2946001232" lon="17.8316620228">
        <ele>0</ele>
        <time>2013-05-03T19:34:11Z</time>
      </trkpt>
      <trkpt lat="59.2947142847" lon="17.8327180584">
        <ele>0</ele>
        <time>2013-05-03T19:34:17Z</time>
      </trkpt>
      <trkpt lat="59.2947376702" lon="17.8328918152">
        <ele>0</ele>
        <time>2013-05-03T19:34:18Z</time>
      </trkpt>
      <trkpt lat="59.2947589602" lon="17.8330597884">
        <ele>0</ele>
        <time>2013-05-03T19:34:19Z</time>
      </trkpt>
      <trkpt lat="59.2947807532" lon="17.8332420948">
        <ele>0</ele>
        <time>2013-05-03T19:34:20Z</time>
      </trkpt>
      <trkpt lat="59.2948014565" lon="17.8334134208">
        <ele>0</ele>
        <time>2013-05-03T19:34:21Z</time>
      </trkpt>
      <trkpt lat="59.2948560226" lon="17.8337429971">
        <ele>0</ele>
        <time>2013-05-03T19:34:23Z</time>
      </trkpt>
      <trkpt lat="59.2948892988" lon="17.8340940311">
        <ele>0</ele>
        <time>2013-05-03T19:34:25Z</time>
      </trkpt>
      <trkpt lat="59.2948965072" lon="17.8344537822">
        <ele>0</ele>
        <time>2013-05-03T19:34:27Z</time>
      </trkpt>
      <trkpt lat="59.294887371" lon="17.8355150984">
        <ele>0</ele>
        <time>2013-05-03T19:34:33Z</time>
      </trkpt>
      <trkpt lat="59.2948849402" lon="17.836456302">
        <ele>0</ele>
        <time>2013-05-03T19:34:39Z</time>
      </trkpt>
      <trkpt lat="59.2948997762" lon="17.8367399455">
        <ele>0</ele>
        <time>2013-05-03T19:34:41Z</time>
      </trkpt>
      <trkpt lat="59.2949715252" lon="17.8371649078">
        <ele>0</ele>
        <time>2013-05-03T19:34:44Z</time>
      </trkpt>
      <trkpt lat="59.2950053881" lon="17.8373070648">
        <ele>0</ele>
        <time>2013-05-03T19:34:45Z</time>
      </trkpt>
      <trkpt lat="59.2950912188" lon="17.8375935582">
        <ele>0</ele>
        <time>2013-05-03T19:34:47Z</time>
      </trkpt>
      <trkpt lat="59.2951438571" lon="17.8377252378">
        <ele>0</ele>
        <time>2013-05-03T19:34:48Z</time>
      </trkpt>
      <trkpt lat="59.2953219725" lon="17.8380833126">
        <ele>0</ele>
        <time>2013-05-03T19:34:51Z</time>
      </trkpt>
      <trkpt lat="59.2954530654" lon="17.8383107135">
        <ele>0</ele>
        <time>2013-05-03T19:34:53Z</time>
      </trkpt>
      <trkpt lat="59.295928822" lon="17.8391011267">
        <ele>0</ele>
        <time>2013-05-03T19:35:00Z</time>
      </trkpt>
      <trkpt lat="59.2960470906" lon="17.8393658271">
        <ele>0</ele>
        <time>2013-05-03T19:35:02Z</time>
      </trkpt>
      <trkpt lat="59.2961385372" lon="17.8396663182">
        <ele>0</ele>
        <time>2013-05-03T19:35:04Z</time>
      </trkpt>
      <trkpt lat="59.296204838" lon="17.839975275">
        <ele>0</ele>
        <time>2013-05-03T19:35:06Z</time>
      </trkpt>
      <trkpt lat="59.2962319953" lon="17.8401427454">
        <ele>0</ele>
        <time>2013-05-03T19:35:07Z</time>
      </trkpt>
      <trkpt lat="59.2962577278" lon="17.8403004928">
        <ele>0</ele>
        <time>2013-05-03T19:35:08Z</time>
      </trkpt>
      <trkpt lat="59.2962828735" lon="17.8404615091">
        <ele>0</ele>
        <time>2013-05-03T19:35:09Z</time>
      </trkpt>
      <trkpt lat="59.2963067619" lon="17.8406198432">
        <ele>0</ele>
        <time>2013-05-03T19:35:10Z</time>
      </trkpt>
      <trkpt lat="59.2964027347" lon="17.8413659999">
        <ele>0</ele>
        <time>2013-05-03T19:35:15Z</time>
      </trkpt>
      <trkpt lat="59.2964877271" lon="17.8421558263">
        <ele>0</ele>
        <time>2013-05-03T19:35:20Z</time>
      </trkpt>
      <trkpt lat="59.2965020602" lon="17.8423189381">
        <ele>0</ele>
        <time>2013-05-03T19:35:21Z</time>
      </trkpt>
      <trkpt lat="59.2965165609" lon="17.8424807926">
        <ele>0</ele>
        <time>2013-05-03T19:35:22Z</time>
      </trkpt>
      <trkpt lat="59.296532235" lon="17.8426522024">
        <ele>0</ele>
        <time>2013-05-03T19:35:23Z</time>
      </trkpt>
      <trkpt lat="59.2965480768" lon="17.84281632">
        <ele>0</ele>
        <time>2013-05-03T19:35:24Z</time>
      </trkpt>
      <trkpt lat="59.2965652597" lon="17.8429819464">
        <ele>0</ele>
        <time>2013-05-03T19:35:25Z</time>
      </trkpt>
      <trkpt lat="59.29658085" lon="17.8431449743">
        <ele>0</ele>
        <time>2013-05-03T19:35:26Z</time>
      </trkpt>
      <trkpt lat="59.2966905691" lon="17.8443078792">
        <ele>0</ele>
        <time>2013-05-03T19:35:33Z</time>
      </trkpt>
      <trkpt lat="59.2968002044" lon="17.8454331492">
        <ele>0</ele>
        <time>2013-05-03T19:35:40Z</time>
      </trkpt>
      <trkpt lat="59.2968173872" lon="17.8456017092">
        <ele>0</ele>
        <time>2013-05-03T19:35:41Z</time>
      </trkpt>
      <trkpt lat="59.2968851968" lon="17.8464612731">
        <ele>0</ele>
        <time>2013-05-03T19:35:46Z</time>
      </trkpt>
      <trkpt lat="59.29687539" lon="17.8466254745">
        <ele>0</ele>
        <time>2013-05-03T19:35:47Z</time>
      </trkpt>
      <trkpt lat="59.2968452152" lon="17.8467829704">
        <ele>0</ele>
        <time>2013-05-03T19:35:48Z</time>
      </trkpt>
      <trkpt lat="59.2967931636" lon="17.8469149853">
        <ele>0</ele>
        <time>2013-05-03T19:35:49Z</time>
      </trkpt>
      <trkpt lat="59.296732311" lon="17.8470225251">
        <ele>0</ele>
        <time>2013-05-03T19:35:50Z</time>
      </trkpt>
      <trkpt lat="59.2966740568" lon="17.8471370219">
        <ele>0</ele>
        <time>2013-05-03T19:35:51Z</time>
      </trkpt>
      <trkpt lat="59.2966240168" lon="17.8472840404">
        <ele>0</ele>
        <time>2013-05-03T19:35:52Z</time>
      </trkpt>
      <trkpt lat="59.2966200773" lon="17.8476091743">
        <ele>0</ele>
        <time>2013-05-03T19:35:54Z</time>
      </trkpt>
      <trkpt lat="59.2967333168" lon="17.8480412612">
        <ele>0</ele>
        <time>2013-05-03T19:35:57Z</time>
      </trkpt>
      <trkpt lat="59.2967787467" lon="17.8481783053">
        <ele>0</ele>
        <time>2013-05-03T19:35:58Z</time>
      </trkpt>
      <trkpt lat="59.296964741" lon="17.8487614341">
        <ele>0</ele>
        <time>2013-05-03T19:36:02Z</time>
      </trkpt>
      <trkpt lat="59.2970117635" lon="17.8488999031">
        <ele>0</ele>
        <time>2013-05-03T19:36:03Z</time>
      </trkpt>
      <trkpt lat="59.297059708" lon="17.8490390426">
        <ele>0</ele>
        <time>2013-05-03T19:36:04Z</time>
      </trkpt>
      <trkpt lat="59.2971034615" lon="17.849173153">
        <ele>0</ele>
        <time>2013-05-03T19:36:05Z</time>
      </trkpt>
      <trkpt lat="59.2971457063" lon="17.8492993006">
        <ele>0</ele>
        <time>2013-05-03T19:36:06Z</time>
      </trkpt>
      <trkpt lat="59.2972296929" lon="17.8495444712">
        <ele>0</ele>
        <time>2013-05-03T19:36:08Z</time>
      </trkpt>
      <trkpt lat="59.2972690878" lon="17.8496668469">
        <ele>0</ele>
        <time>2013-05-03T19:36:09Z</time>
      </trkpt>
      <trkpt lat="59.2973041242" lon="17.849782601">
        <ele>0</ele>
        <time>2013-05-03T19:36:10Z</time>
      </trkpt>
      <trkpt lat="59.2973341314" lon="17.8499050605">
        <ele>0</ele>
        <time>2013-05-03T19:36:11Z</time>
      </trkpt>
      <trkpt lat="59.2973573492" lon="17.8500413502">
        <ele>0</ele>
        <time>2013-05-03T19:36:12Z</time>
      </trkpt>
      <trkpt lat="59.2973799804" lon="17.8501834234">
        <ele>0</ele>
        <time>2013-05-03T19:36:13Z</time>
      </trkpt>
      <trkpt lat="59.2975227241" lon="17.8510802867">
        <ele>0</ele>
        <time>2013-05-03T19:36:19Z</time>
      </trkpt>
      <trkpt lat="59.2977097243" lon="17.8521636473">
        <ele>0</ele>
        <time>2013-05-03T19:36:26Z</time>
      </trkpt>
      <trkpt lat="59.2977426652" lon="17.8523181257">
        <ele>0</ele>
        <time>2013-05-03T19:36:27Z</time>
      </trkpt>
      <trkpt lat="59.2979848183" lon="17.8533586548">
        <ele>0</ele>
        <time>2013-05-03T19:36:33Z</time>
      </trkpt>
      <trkpt lat="59.2980337686" lon="17.853534507">
        <ele>0</ele>
        <time>2013-05-03T19:36:34Z</time>
      </trkpt>
      <trkpt lat="59.298091436" lon="17.8537089344">
        <ele>0</ele>
        <time>2013-05-03T19:36:35Z</time>
      </trkpt>
      <trkpt lat="59.2981620116" lon="17.8538728005">
        <ele>0</ele>
        <time>2013-05-03T19:36:36Z</time>
      </trkpt>
      <trkpt lat="59.2982433161" lon="17.8540194">
        <ele>0</ele>
        <time>2013-05-03T19:36:37Z</time>
      </trkpt>
      <trkpt lat="59.2984417156" lon="17.8542559372">
        <ele>0</ele>
        <time>2013-05-03T19:36:39Z</time>
      </trkpt>
      <trkpt lat="59.2985483334" lon="17.8543234115">
        <ele>0</ele>
        <time>2013-05-03T19:36:40Z</time>
      </trkpt>
      <trkpt lat="59.2986534424" lon="17.8543558494">
        <ele>0</ele>
        <time>2013-05-03T19:36:41Z</time>
      </trkpt>
      <trkpt lat="59.2987691127" lon="17.8543188014">
        <ele>0</ele>
        <time>2013-05-03T19:36:42Z</time>
      </trkpt>
      <trkpt lat="59.298887968" lon="17.8542474715">
        <ele>0</ele>
        <time>2013-05-03T19:36:43Z</time>
      </trkpt>
      <trkpt lat="59.2989999502" lon="17.8541543485">
        <ele>0</ele>
        <time>2013-05-03T19:36:44Z</time>
      </trkpt>
      <trkpt lat="59.2990974317" lon="17.8540359123">
        <ele>0</ele>
        <time>2013-05-03T19:36:45Z</time>
      </trkpt>
      <trkpt lat="59.2991785685" lon="17.853904065">
        <ele>0</ele>
        <time>2013-05-03T19:36:46Z</time>
      </trkpt>
      <trkpt lat="59.299314942" lon="17.853619751">
        <ele>0</ele>
        <time>2013-05-03T19:36:48Z</time>
      </trkpt>
      <trkpt lat="59.2994301093" lon="17.8533148174">
        <ele>0</ele>
        <time>2013-05-03T19:36:50Z</time>
      </trkpt>
      <trkpt lat="59.2995860965" lon="17.8526249871">
        <ele>0</ele>
        <time>2013-05-03T19:36:54Z</time>
      </trkpt>
      <trkpt lat="59.2997250684" lon="17.8520188919">
        <ele>0</ele>
        <time>2013-05-03T19:36:58Z</time>
      </trkpt>
      <trkpt lat="59.2998484499" lon="17.8519663374">
        <ele>0</ele>
        <time>2013-05-03T19:37:00Z</time>
      </trkpt>
      <trkpt lat="59.2999178521" lon="17.8520282796">
        <ele>0</ele>
        <time>2013-05-03T19:37:01Z</time>
      </trkpt>
      <trkpt lat="59.2999862484" lon="17.8521069856">
        <ele>0</ele>
        <time>2013-05-03T19:37:02Z</time>
      </trkpt>
      <trkpt lat="59.3000533036" lon="17.8521949956">
        <ele>0</ele>
        <time>2013-05-03T19:37:03Z</time>
      </trkpt>
      <trkpt lat="59.3001156649" lon="17.8522819159">
        <ele>0</ele>
        <time>2013-05-03T19:37:04Z</time>
      </trkpt>
      <trkpt lat="59.3004723147" lon="17.8527789626">
        <ele>0</ele>
        <time>2013-05-03T19:37:10Z</time>
      </trkpt>
      <trkpt lat="59.3006014798" lon="17.8529178507">
        <ele>0</ele>
        <time>2013-05-03T19:37:12Z</time>
      </trkpt>
      <trkpt lat="59.300667613" lon="17.8529810502">
        <ele>0</ele>
        <time>2013-05-03T19:37:13Z</time>
      </trkpt>
      <trkpt lat="59.3007358417" lon="17.8530408131">
        <ele>0</ele>
        <time>2013-05-03T19:37:14Z</time>
      </trkpt>
      <trkpt lat="59.3008027292" lon="17.853095966">
        <ele>0</ele>
        <time>2013-05-03T19:37:15Z</time>
      </trkpt>
      <trkpt lat="59.3008760709" lon="17.8531468442">
        <ele>0</ele>
        <time>2013-05-03T19:37:16Z</time>
      </trkpt>
      <trkpt lat="59.3010199043" lon="17.8532172521">
        <ele>0</ele>
        <time>2013-05-03T19:37:18Z</time>
      </trkpt>
      <trkpt lat="59.3010938326" lon="17.8532453315">
        <ele>0</ele>
        <time>2013-05-03T19:37:19Z</time>
      </trkpt>
      <trkpt lat="59.3011682639" lon="17.853279362">
        <ele>0</ele>
        <time>2013-05-03T19:37:20Z</time>
      </trkpt>
      <trkpt lat="59.3012402644" lon="17.8533221935">
        <ele>0</ele>
        <time>2013-05-03T19:37:21Z</time>
      </trkpt>
      <trkpt lat="59.3013120135" lon="17.853372904">
        <ele>0</ele>
        <time>2013-05-03T19:37:22Z</time>
      </trkpt>
      <trkpt lat="59.3017184518" lon="17.8537086829">
        <ele>0</ele>
        <time>2013-05-03T19:37:28Z</time>
      </trkpt>
      <trkpt lat="59.3021202801" lon="17.8540384269">
        <ele>0</ele>
        <time>2013-05-03T19:37:35Z</time>
      </trkpt>
      <trkpt lat="59.3022403927" lon="17.8541093377">
        <ele>0</ele>
        <time>2013-05-03T19:37:37Z</time>
      </trkpt>
      <trkpt lat="59.3023019997" lon="17.8541364113">
        <ele>0</ele>
        <time>2013-05-03T19:37:38Z</time>
      </trkpt>
      <trkpt lat="59.3023631037" lon="17.8541614732">
        <ele>0</ele>
        <time>2013-05-03T19:37:39Z</time>
      </trkpt>
      <trkpt lat="59.3024214418" lon="17.854187457">
        <ele>0</ele>
        <time>2013-05-03T19:37:40Z</time>
      </trkpt>
      <trkpt lat="59.3024807018" lon="17.8542128542">
        <ele>0</ele>
        <time>2013-05-03T19:37:41Z</time>
      </trkpt>
      <trkpt lat="59.3025412191" lon="17.8542317135">
        <ele>0</ele>
        <time>2013-05-03T19:37:42Z</time>
      </trkpt>
      <trkpt lat="59.3026574761" lon="17.8542778977">
        <ele>0</ele>
        <time>2013-05-03T19:37:44Z</time>
      </trkpt>
      <trkpt lat="59.3027088571" lon="17.8543269319">
        <ele>0</ele>
        <time>2013-05-03T19:37:45Z</time>
      </trkpt>
      <trkpt lat="59.3027472462" lon="17.8543913049">
        <ele>0</ele>
        <time>2013-05-03T19:37:46Z</time>
      </trkpt>
      <trkpt lat="59.3027787622" lon="17.8544669934">
        <ele>0</ele>
        <time>2013-05-03T19:37:47Z</time>
      </trkpt>
      <trkpt lat="59.3027993816" lon="17.8545511477">
        <ele>0</ele>
        <time>2013-05-03T19:37:48Z</time>
      </trkpt>
      <trkpt lat="59.3028560433" lon="17.8549350387">
        <ele>0</ele>
        <time>2013-05-03T19:37:52Z</time>
      </trkpt>
      <trkpt lat="59.3029637507" lon="17.8550597614">
        <ele>0</ele>
        <time>2013-05-03T19:37:54Z</time>
      </trkpt>
      <trkpt lat="59.3030292972" lon="17.8551202787">
        <ele>0</ele>
        <time>2013-05-03T19:37:55Z</time>
      </trkpt>
      <trkpt lat="59.3032225838" lon="17.8552870785">
        <ele>0</ele>
        <time>2013-05-03T19:37:58Z</time>
      </trkpt>
      <trkpt lat="59.3032874597" lon="17.8553444107">
        <ele>0</ele>
        <time>2013-05-03T19:37:59Z</time>
      </trkpt>
      <trkpt lat="59.3033509107" lon="17.8554044251">
        <ele>0</ele>
        <time>2013-05-03T19:38:00Z</time>
      </trkpt>
      <trkpt lat="59.3034161218" lon="17.8554660321">
        <ele>0</ele>
        <time>2013-05-03T19:38:01Z</time>
      </trkpt>
      <trkpt lat="59.3034819198" lon="17.8555266332">
        <ele>0</ele>
        <time>2013-05-03T19:38:02Z</time>
      </trkpt>
      <trkpt lat="59.3038755338" lon="17.8558685309">
        <ele>0</ele>
        <time>2013-05-03T19:38:08Z</time>
      </trkpt>
      <trkpt lat="59.3039423375" lon="17.8559271204">
        <ele>0</ele>
        <time>2013-05-03T19:38:09Z</time>
      </trkpt>
      <trkpt lat="59.3040111529" lon="17.8559883083">
        <ele>0</ele>
        <time>2013-05-03T19:38:10Z</time>
      </trkpt>
      <trkpt lat="59.3040771185" lon="17.856049077">
        <ele>0</ele>
        <time>2013-05-03T19:38:11Z</time>
      </trkpt>
      <trkpt lat="59.3041455148" lon="17.8561122766">
        <ele>0</ele>
        <time>2013-05-03T19:38:12Z</time>
      </trkpt>
      <trkpt lat="59.3045254663" lon="17.856446882">
        <ele>0</ele>
        <time>2013-05-03T19:38:17Z</time>
      </trkpt>
      <trkpt lat="59.3048753268" lon="17.8567587725">
        <ele>0</ele>
        <time>2013-05-03T19:38:21Z</time>
      </trkpt>
      <trkpt lat="59.3049602355" lon="17.8568364727">
        <ele>0</ele>
        <time>2013-05-03T19:38:22Z</time>
      </trkpt>
      <trkpt lat="59.3050439706" lon="17.8569150949">
        <ele>0</ele>
        <time>2013-05-03T19:38:23Z</time>
      </trkpt>
      <trkpt lat="59.3051302204" lon="17.856996567">
        <ele>0</ele>
        <time>2013-05-03T19:38:24Z</time>
      </trkpt>
      <trkpt lat="59.3052207449" lon="17.8570754407">
        <ele>0</ele>
        <time>2013-05-03T19:38:25Z</time>
      </trkpt>
      <trkpt lat="59.3057757943" lon="17.8575662848">
        <ele>0</ele>
        <time>2013-05-03T19:38:31Z</time>
      </trkpt>
      <trkpt lat="59.3063291674" lon="17.8580572965">
        <ele>0</ele>
        <time>2013-05-03T19:38:37Z</time>
      </trkpt>
      <trkpt lat="59.3065024212" lon="17.8582145409">
        <ele>0</ele>
        <time>2013-05-03T19:38:39Z</time>
      </trkpt>
      <trkpt lat="59.3070190816" lon="17.8586727794">
        <ele>0</ele>
        <time>2013-05-03T19:38:45Z</time>
      </trkpt>
      <trkpt lat="59.3072889787" lon="17.8589185367">
        <ele>0</ele>
        <time>2013-05-03T19:38:48Z</time>
      </trkpt>
      <trkpt lat="59.3073817664" lon="17.8589987515">
        <ele>0</ele>
        <time>2013-05-03T19:38:49Z</time>
      </trkpt>
      <trkpt lat="59.3074719556" lon="17.859077206">
        <ele>0</ele>
        <time>2013-05-03T19:38:50Z</time>
      </trkpt>
      <trkpt lat="59.3075619772" lon="17.8591553254">
        <ele>0</ele>
        <time>2013-05-03T19:38:51Z</time>
      </trkpt>
      <trkpt lat="59.3076514121" lon="17.8592330256">
        <ele>0</ele>
        <time>2013-05-03T19:38:52Z</time>
      </trkpt>
      <trkpt lat="59.3080973292" lon="17.8596191797">
        <ele>0</ele>
        <time>2013-05-03T19:38:57Z</time>
      </trkpt>
      <trkpt lat="59.3084432502" lon="17.859914977">
        <ele>0</ele>
        <time>2013-05-03T19:39:01Z</time>
      </trkpt>
      <trkpt lat="59.3085266501" lon="17.8599904979">
        <ele>0</ele>
        <time>2013-05-03T19:39:02Z</time>
      </trkpt>
      <trkpt lat="59.3086107205" lon="17.8600648453">
        <ele>0</ele>
        <time>2013-05-03T19:39:03Z</time>
      </trkpt>
      <trkpt lat="59.3087035082" lon="17.8601390251">
        <ele>0</ele>
        <time>2013-05-03T19:39:04Z</time>
      </trkpt>
      <trkpt lat="59.3087942842" lon="17.8602096846">
        <ele>0</ele>
        <time>2013-05-03T19:39:05Z</time>
      </trkpt>
      <trkpt lat="59.3092335795" lon="17.8604628179">
        <ele>0</ele>
        <time>2013-05-03T19:39:10Z</time>
      </trkpt>
      <trkpt lat="59.3093240202" lon="17.8604940824">
        <ele>0</ele>
        <time>2013-05-03T19:39:11Z</time>
      </trkpt>
      <trkpt lat="59.3094116949" lon="17.8605232514">
        <ele>0</ele>
        <time>2013-05-03T19:39:12Z</time>
      </trkpt>
      <trkpt lat="59.309496855" lon="17.8605446253">
        <ele>0</ele>
        <time>2013-05-03T19:39:13Z</time>
      </trkpt>
      <trkpt lat="59.3095836077" lon="17.8605656639">
        <ele>0</ele>
        <time>2013-05-03T19:39:14Z</time>
      </trkpt>
      <trkpt lat="59.3097488987" lon="17.8605923183">
        <ele>0</ele>
        <time>2013-05-03T19:39:16Z</time>
      </trkpt>
      <trkpt lat="59.3101198816" lon="17.8605877082">
        <ele>0</ele>
        <time>2013-05-03T19:39:21Z</time>
      </trkpt>
      <trkpt lat="59.3104093925" lon="17.8605657477">
        <ele>0</ele>
        <time>2013-05-03T19:39:25Z</time>
      </trkpt>
      <trkpt lat="59.3104790461" lon="17.8605629816">
        <ele>0</ele>
        <time>2013-05-03T19:39:26Z</time>
      </trkpt>
      <trkpt lat="59.3105481129" lon="17.860562814">
        <ele>0</ele>
        <time>2013-05-03T19:39:27Z</time>
      </trkpt>
      <trkpt lat="59.3106144976" lon="17.8605613053">
        <ele>0</ele>
        <time>2013-05-03T19:39:28Z</time>
      </trkpt>
      <trkpt lat="59.3106781162" lon="17.8605602156">
        <ele>0</ele>
        <time>2013-05-03T19:39:29Z</time>
      </trkpt>
      <trkpt lat="59.3110762564" lon="17.8605404343">
        <ele>0</ele>
        <time>2013-05-03T19:39:35Z</time>
      </trkpt>
      <trkpt lat="59.3111429764" lon="17.8605271071">
        <ele>0</ele>
        <time>2013-05-03T19:39:36Z</time>
      </trkpt>
      <trkpt lat="59.3112107021" lon="17.860513277">
        <ele>0</ele>
        <time>2013-05-03T19:39:37Z</time>
      </trkpt>
      <trkpt lat="59.3112764162" lon="17.8604955912">
        <ele>0</ele>
        <time>2013-05-03T19:39:38Z</time>
      </trkpt>
      <trkpt lat="59.3114858799" lon="17.8604375884">
        <ele>0</ele>
        <time>2013-05-03T19:39:41Z</time>
      </trkpt>
      <trkpt lat="59.3116336528" lon="17.860391488">
        <ele>0</ele>
        <time>2013-05-03T19:39:43Z</time>
      </trkpt>
      <trkpt lat="59.3117067429" lon="17.8603643306">
        <ele>0</ele>
        <time>2013-05-03T19:39:44Z</time>
      </trkpt>
      <trkpt lat="59.3117786597" lon="17.86033776">
        <ele>0</ele>
        <time>2013-05-03T19:39:45Z</time>
      </trkpt>
      <trkpt lat="59.3118522527" lon="17.860309513">
        <ele>0</ele>
        <time>2013-05-03T19:39:46Z</time>
      </trkpt>
      <trkpt lat="59.3119258458" lon="17.860285876">
        <ele>0</ele>
        <time>2013-05-03T19:39:47Z</time>
      </trkpt>
      <trkpt lat="59.3120743731" lon="17.8602438827">
        <ele>0</ele>
        <time>2013-05-03T19:39:49Z</time>
      </trkpt>
      <trkpt lat="59.3126678116" lon="17.8600919189">
        <ele>0</ele>
        <time>2013-05-03T19:39:57Z</time>
      </trkpt>
      <trkpt lat="59.3128988168" lon="17.8599627538">
        <ele>0</ele>
        <time>2013-05-03T19:40:00Z</time>
      </trkpt>
      <trkpt lat="59.3129696438" lon="17.859871894">
        <ele>0</ele>
        <time>2013-05-03T19:40:01Z</time>
      </trkpt>
      <trkpt lat="59.3133055066" lon="17.8593664654">
        <ele>0</ele>
        <time>2013-05-03T19:40:06Z</time>
      </trkpt>
      <trkpt lat="59.3135710451" lon="17.8589755336">
        <ele>0</ele>
        <time>2013-05-03T19:40:10Z</time>
      </trkpt>
      <trkpt lat="59.3136441353" lon="17.8589337917">
        <ele>0</ele>
        <time>2013-05-03T19:40:11Z</time>
      </trkpt>
      <trkpt lat="59.3138919881" lon="17.8590131683">
        <ele>0</ele>
        <time>2013-05-03T19:40:14Z</time>
      </trkpt>
      <trkpt lat="59.313975388" lon="17.8590839954">
        <ele>0</ele>
        <time>2013-05-03T19:40:15Z</time>
      </trkpt>
      <trkpt lat="59.3140592908" lon="17.8591817283">
        <ele>0</ele>
        <time>2013-05-03T19:40:16Z</time>
      </trkpt>
      <trkpt lat="59.3141561018" lon="17.859340733">
        <ele>0</ele>
        <time>2013-05-03T19:40:17Z</time>
      </trkpt>
      <trkpt lat="59.3142381606" lon="17.8594980612">
        <ele>0</ele>
        <time>2013-05-03T19:40:18Z</time>
      </trkpt>
      <trkpt lat="59.3143141844" lon="17.8596703093">
        <ele>0</ele>
        <time>2013-05-03T19:40:19Z</time>
      </trkpt>
      <trkpt lat="59.3143291042" lon="17.8599611612">
        <ele>0</ele>
        <time>2013-05-03T19:40:20Z</time>
      </trkpt>
      <trkpt lat="59.3143817425" lon="17.8601836168">
        <ele>0</ele>
        <time>2013-05-03T19:40:21Z</time>
      </trkpt>
      <trkpt lat="59.3144305252" lon="17.860397942">
        <ele>0</ele>
        <time>2013-05-03T19:40:22Z</time>
      </trkpt>
      <trkpt lat="59.3145132545" lon="17.8605386741">
        <ele>0</ele>
        <time>2013-05-03T19:40:23Z</time>
      </trkpt>
      <trkpt lat="59.3146026894" lon="17.8606570266">
        <ele>0</ele>
        <time>2013-05-03T19:40:24Z</time>
      </trkpt>
      <trkpt lat="59.3146893582" lon="17.8607810787">
        <ele>0</ele>
        <time>2013-05-03T19:40:25Z</time>
      </trkpt>
      <trkpt lat="59.3147769491" lon="17.8608952402">
        <ele>0</ele>
        <time>2013-05-03T19:40:26Z</time>
      </trkpt>
      <trkpt lat="59.3148675574" lon="17.8609920511">
        <ele>0</ele>
        <time>2013-05-03T19:40:27Z</time>
      </trkpt>
      <trkpt lat="59.3149569085" lon="17.8610932206">
        <ele>0</ele>
        <time>2013-05-03T19:40:28Z</time>
      </trkpt>
      <trkpt lat="59.3153817032" lon="17.8615134891">
        <ele>0</ele>
        <time>2013-05-03T19:40:33Z</time>
      </trkpt>
      <trkpt lat="59.3159124451" lon="17.8620532835">
        <ele>0</ele>
        <time>2013-05-03T19:40:39Z</time>
      </trkpt>
      <trkpt lat="59.3160849446" lon="17.8622282137">
        <ele>0</ele>
        <time>2013-05-03T19:40:41Z</time>
      </trkpt>
      <trkpt lat="59.3166150998" lon="17.8627511605">
        <ele>0</ele>
        <time>2013-05-03T19:40:47Z</time>
      </trkpt>
      <trkpt lat="59.3167922931" lon="17.8629241629">
        <ele>0</ele>
        <time>2013-05-03T19:40:49Z</time>
      </trkpt>
      <trkpt lat="59.3173255496" lon="17.8634415776">
        <ele>0</ele>
        <time>2013-05-03T19:40:55Z</time>
      </trkpt>
      <trkpt lat="59.3174993902" lon="17.8636435814">
        <ele>0</ele>
        <time>2013-05-03T19:40:57Z</time>
      </trkpt>
      <trkpt lat="59.3180066628" lon="17.8643191625">
        <ele>0</ele>
        <time>2013-05-03T19:41:03Z</time>
      </trkpt>
      <trkpt lat="59.318498848" lon="17.8649752976">
        <ele>0</ele>
        <time>2013-05-03T19:41:09Z</time>
      </trkpt>
      <trkpt lat="59.318738235" lon="17.8652990066">
        <ele>0</ele>
        <time>2013-05-03T19:41:12Z</time>
      </trkpt>
      <trkpt lat="59.3188189527" lon="17.8654063787">
        <ele>0</ele>
        <time>2013-05-03T19:41:13Z</time>
      </trkpt>
      <trkpt lat="59.3189066274" lon="17.8655110687">
        <ele>0</ele>
        <time>2013-05-03T19:41:14Z</time>
      </trkpt>
      <trkpt lat="59.3189883509" lon="17.8656134955">
        <ele>0</ele>
        <time>2013-05-03T19:41:15Z</time>
      </trkpt>
      <trkpt lat="59.3190704936" lon="17.8657145812">
        <ele>0</ele>
        <time>2013-05-03T19:41:16Z</time>
      </trkpt>
      <trkpt lat="59.3193191845" lon="17.8659835564">
        <ele>0</ele>
        <time>2013-05-03T19:41:19Z</time>
      </trkpt>
      <trkpt lat="59.3197532831" lon="17.8664630849">
        <ele>0</ele>
        <time>2013-05-03T19:41:25Z</time>
      </trkpt>
      <trkpt lat="59.3198002218" lon="17.8665177349">
        <ele>0</ele>
        <time>2013-05-03T19:41:27Z</time>
      </trkpt>
      <trkpt lat="59.319807514" lon="17.8665268711">
        <ele>0</ele>
        <time>2013-05-03T19:41:28Z</time>
      </trkpt>
      <trkpt lat="59.3198499264" lon="17.8665643382">
        <ele>0</ele>
        <time>2013-05-03T19:41:31Z</time>
      </trkpt>
      <trkpt lat="59.3199234357" lon="17.8666893962">
        <ele>0</ele>
        <time>2013-05-03T19:41:34Z</time>
      </trkpt>
      <trkpt lat="59.320023767" lon="17.8668354089">
        <ele>0</ele>
        <time>2013-05-03T19:41:36Z</time>
      </trkpt>
      <trkpt lat="59.3200945103" lon="17.8669167971">
        <ele>0</ele>
        <time>2013-05-03T19:41:37Z</time>
      </trkpt>
      <trkpt lat="59.3203178879" lon="17.8671279372">
        <ele>0</ele>
        <time>2013-05-03T19:41:40Z</time>
      </trkpt>
      <trkpt lat="59.3204796586" lon="17.8672898755">
        <ele>0</ele>
        <time>2013-05-03T19:41:42Z</time>
      </trkpt>
      <trkpt lat="59.3206776391" lon="17.8676772869">
        <ele>0</ele>
        <time>2013-05-03T19:41:45Z</time>
      </trkpt>
      <trkpt lat="59.3207545011" lon="17.8678033507">
        <ele>0</ele>
        <time>2013-05-03T19:41:46Z</time>
      </trkpt>
      <trkpt lat="59.3209328679" lon="17.8680298296">
        <ele>0</ele>
        <time>2013-05-03T19:41:48Z</time>
      </trkpt>
      <trkpt lat="59.3212435011" lon="17.8682609186">
        <ele>0</ele>
        <time>2013-05-03T19:41:51Z</time>
      </trkpt>
      <trkpt lat="59.3213559862" lon="17.8683045045">
        <ele>0</ele>
        <time>2013-05-03T19:41:52Z</time>
      </trkpt>
      <trkpt lat="59.3214585807" lon="17.8683307398">
        <ele>0</ele>
        <time>2013-05-03T19:41:53Z</time>
      </trkpt>
      <trkpt lat="59.3215591635" lon="17.8683550473">
        <ele>0</ele>
        <time>2013-05-03T19:41:54Z</time>
      </trkpt>
      <trkpt lat="59.321663099" lon="17.8683793548">
        <ele>0</ele>
        <time>2013-05-03T19:41:55Z</time>
      </trkpt>
      <trkpt lat="59.3217639333" lon="17.8683985494">
        <ele>0</ele>
        <time>2013-05-03T19:41:56Z</time>
      </trkpt>
      <trkpt lat="59.3218604928" lon="17.8684191689">
        <ele>0</ele>
        <time>2013-05-03T19:41:57Z</time>
      </trkpt>
      <trkpt lat="59.3224178053" lon="17.8685329951">
        <ele>0</ele>
        <time>2013-05-03T19:42:03Z</time>
      </trkpt>
      <trkpt lat="59.3225086651" lon="17.868549256">
        <ele>0</ele>
        <time>2013-05-03T19:42:04Z</time>
      </trkpt>
      <trkpt lat="59.3225984353" lon="17.8685694563">
        <ele>0</ele>
        <time>2013-05-03T19:42:05Z</time>
      </trkpt>
      <trkpt lat="59.3226922287" lon="17.868594602">
        <ele>0</ele>
        <time>2013-05-03T19:42:07Z</time>
      </trkpt>
      <trkpt lat="59.3227835076" lon="17.8686177361">
        <ele>0</ele>
        <time>2013-05-03T19:42:08Z</time>
      </trkpt>
      <trkpt lat="59.322878726" lon="17.8686432171">
        <ele>0</ele>
        <time>2013-05-03T19:42:09Z</time>
      </trkpt>
      <trkpt lat="59.3229757884" lon="17.8686675246">
        <ele>0</ele>
        <time>2013-05-03T19:42:10Z</time>
      </trkpt>
      <trkpt lat="59.3230753654" lon="17.8686878926">
        <ele>0</ele>
        <time>2013-05-03T19:42:11Z</time>
      </trkpt>
      <trkpt lat="59.3231754453" lon="17.8687046564">
        <ele>0</ele>
        <time>2013-05-03T19:42:12Z</time>
      </trkpt>
      <trkpt lat="59.3235703166" lon="17.8687899003">
        <ele>0</ele>
        <time>2013-05-03T19:42:16Z</time>
      </trkpt>
      <trkpt lat="59.3236638586" lon="17.8688102683">
        <ele>0</ele>
        <time>2013-05-03T19:42:17Z</time>
      </trkpt>
      <trkpt lat="59.3237579873" lon="17.868830804">
        <ele>0</ele>
        <time>2013-05-03T19:42:18Z</time>
      </trkpt>
      <trkpt lat="59.3238498529" lon="17.8688567879">
        <ele>0</ele>
        <time>2013-05-03T19:42:19Z</time>
      </trkpt>
      <trkpt lat="59.323941048" lon="17.8688961828">
        <ele>0</ele>
        <time>2013-05-03T19:42:20Z</time>
      </trkpt>
      <trkpt lat="59.3244007114" lon="17.8692196403">
        <ele>0</ele>
        <time>2013-05-03T19:42:25Z</time>
      </trkpt>
      <trkpt lat="59.3245676789" lon="17.8694269247">
        <ele>0</ele>
        <time>2013-05-03T19:42:27Z</time>
      </trkpt>
      <trkpt lat="59.3246462173" lon="17.8695418406">
        <ele>0</ele>
        <time>2013-05-03T19:42:28Z</time>
      </trkpt>
      <trkpt lat="59.3247224087" lon="17.8696670661">
        <ele>0</ele>
        <time>2013-05-03T19:42:29Z</time>
      </trkpt>
      <trkpt lat="59.3247982649" lon="17.8698124083">
        <ele>0</ele>
        <time>2013-05-03T19:42:30Z</time>
      </trkpt>
      <trkpt lat="59.3250513145" lon="17.8704098701">
        <ele>0</ele>
        <time>2013-05-03T19:42:34Z</time>
      </trkpt>
      <trkpt lat="59.3252309386" lon="17.8710825176">
        <ele>0</ele>
        <time>2013-05-03T19:42:38Z</time>
      </trkpt>
      <trkpt lat="59.3252631251" lon="17.8712431986">
        <ele>0</ele>
        <time>2013-05-03T19:42:39Z</time>
      </trkpt>
      <trkpt lat="59.3252924617" lon="17.8714048017">
        <ele>0</ele>
        <time>2013-05-03T19:42:40Z</time>
      </trkpt>
      <trkpt lat="59.3253208764" lon="17.8715707633">
        <ele>0</ele>
        <time>2013-05-03T19:42:41Z</time>
      </trkpt>
      <trkpt lat="59.325350213" lon="17.8717394909">
        <ele>0</ele>
        <time>2013-05-03T19:42:42Z</time>
      </trkpt>
      <trkpt lat="59.3254517178" lon="17.8724304109">
        <ele>0</ele>
        <time>2013-05-03T19:42:46Z</time>
      </trkpt>
      <trkpt lat="59.3256045199" lon="17.8734571099">
        <ele>0</ele>
        <time>2013-05-03T19:42:52Z</time>
      </trkpt>
      <trkpt lat="59.3256298332" lon="17.8736266757">
        <ele>0</ele>
        <time>2013-05-03T19:42:53Z</time>
      </trkpt>
      <trkpt lat="59.3256562362" lon="17.8737933079">
        <ele>0</ele>
        <time>2013-05-03T19:42:54Z</time>
      </trkpt>
      <trkpt lat="59.3256821363" lon="17.8739581799">
        <ele>0</ele>
        <time>2013-05-03T19:42:55Z</time>
      </trkpt>
      <trkpt lat="59.3258506963" lon="17.8751081765">
        <ele>0</ele>
        <time>2013-05-03T19:43:02Z</time>
      </trkpt>
      <trkpt lat="59.3260205136" lon="17.8761859212">
        <ele>0</ele>
        <time>2013-05-03T19:43:09Z</time>
      </trkpt>
      <trkpt lat="59.3260450725" lon="17.8763412378">
        <ele>0</ele>
        <time>2013-05-03T19:43:10Z</time>
      </trkpt>
      <trkpt lat="59.326205083" lon="17.8771232691">
        <ele>0</ele>
        <time>2013-05-03T19:43:15Z</time>
      </trkpt>
      <trkpt lat="59.3262943503" lon="17.8777457928">
        <ele>0</ele>
        <time>2013-05-03T19:43:19Z</time>
      </trkpt>
      <trkpt lat="59.3263154726" lon="17.877897589">
        <ele>0</ele>
        <time>2013-05-03T19:43:20Z</time>
      </trkpt>
      <trkpt lat="59.3263368465" lon="17.8780416739">
        <ele>0</ele>
        <time>2013-05-03T19:43:21Z</time>
      </trkpt>
      <trkpt lat="59.3263614893" lon="17.8781856749">
        <ele>0</ele>
        <time>2013-05-03T19:43:22Z</time>
      </trkpt>
      <trkpt lat="59.3264190729" lon="17.8786516248">
        <ele>0</ele>
        <time>2013-05-03T19:43:25Z</time>
      </trkpt>
      <trkpt lat="59.3264309752" lon="17.8788062708">
        <ele>0</ele>
        <time>2013-05-03T19:43:26Z</time>
      </trkpt>
      <trkpt lat="59.3264699511" lon="17.8797373323">
        <ele>0</ele>
        <time>2013-05-03T19:43:32Z</time>
      </trkpt>
      <trkpt lat="59.3264263652" lon="17.8806871692">
        <ele>0</ele>
        <time>2013-05-03T19:43:38Z</time>
      </trkpt>
      <trkpt lat="59.3264031473" lon="17.880832176">
        <ele>0</ele>
        <time>2013-05-03T19:43:39Z</time>
      </trkpt>
      <trkpt lat="59.3263770796" lon="17.8809767638">
        <ele>0</ele>
        <time>2013-05-03T19:43:40Z</time>
      </trkpt>
      <trkpt lat="59.3263479106" lon="17.8811225251">
        <ele>0</ele>
        <time>2013-05-03T19:43:41Z</time>
      </trkpt>
      <trkpt lat="59.326314383" lon="17.8812640953">
        <ele>0</ele>
        <time>2013-05-03T19:43:42Z</time>
      </trkpt>
      <trkpt lat="59.3262123753" lon="17.8816907341">
        <ele>0</ele>
        <time>2013-05-03T19:43:45Z</time>
      </trkpt>
      <trkpt lat="59.3261068471" lon="17.8820566878">
        <ele>0</ele>
        <time>2013-05-03T19:43:48Z</time>
      </trkpt>
      <trkpt lat="59.3260351819" lon="17.8823017746">
        <ele>0</ele>
        <time>2013-05-03T19:43:50Z</time>
      </trkpt>
      <trkpt lat="59.3258829666" lon="17.8827797943">
        <ele>0</ele>
        <time>2013-05-03T19:43:54Z</time>
      </trkpt>
      <trkpt lat="59.3258495228" lon="17.8828970571">
        <ele>0</ele>
        <time>2013-05-03T19:43:55Z</time>
      </trkpt>
      <trkpt lat="59.3258152408" lon="17.8830093746">
        <ele>0</ele>
        <time>2013-05-03T19:43:56Z</time>
      </trkpt>
      <trkpt lat="59.3257829705" lon="17.8831220273">
        <ele>0</ele>
        <time>2013-05-03T19:43:57Z</time>
      </trkpt>
      <trkpt lat="59.3257484371" lon="17.8832340933">
        <ele>0</ele>
        <time>2013-05-03T19:43:58Z</time>
      </trkpt>
      <trkpt lat="59.3256533864" lon="17.8835605683">
        <ele>0</ele>
        <time>2013-05-03T19:44:01Z</time>
      </trkpt>
      <trkpt lat="59.3254545677" lon="17.8842636421">
        <ele>0</ele>
        <time>2013-05-03T19:44:08Z</time>
      </trkpt>
      <trkpt lat="59.3252067987" lon="17.8849460964">
        <ele>0</ele>
        <time>2013-05-03T19:44:15Z</time>
      </trkpt>
      <trkpt lat="59.325165476" lon="17.8850304183">
        <ele>0</ele>
        <time>2013-05-03T19:44:16Z</time>
      </trkpt>
      <trkpt lat="59.3251244885" lon="17.8851185959">
        <ele>0</ele>
        <time>2013-05-03T19:44:17Z</time>
      </trkpt>
      <trkpt lat="59.3250820761" lon="17.8852034207">
        <ele>0</ele>
        <time>2013-05-03T19:44:18Z</time>
      </trkpt>
      <trkpt lat="59.325040418" lon="17.8852898381">
        <ele>0</ele>
        <time>2013-05-03T19:44:19Z</time>
      </trkpt>
      <trkpt lat="59.3249009432" lon="17.8855490064">
        <ele>0</ele>
        <time>2013-05-03T19:44:22Z</time>
      </trkpt>
      <trkpt lat="59.3247724487" lon="17.8858055764">
        <ele>0</ele>
        <time>2013-05-03T19:44:25Z</time>
      </trkpt>
      <trkpt lat="59.3247003643" lon="17.8860027187">
        <ele>0</ele>
        <time>2013-05-03T19:44:27Z</time>
      </trkpt>
      <trkpt lat="59.3245961773" lon="17.8863164532">
        <ele>0</ele>
        <time>2013-05-03T19:44:30Z</time>
      </trkpt>
      <trkpt lat="59.3245370011" lon="17.8865339635">
        <ele>0</ele>
        <time>2013-05-03T19:44:32Z</time>
      </trkpt>
      <trkpt lat="59.3243748952" lon="17.8872611772">
        <ele>0</ele>
        <time>2013-05-03T19:44:38Z</time>
      </trkpt>
      <trkpt lat="59.324211951" lon="17.8880373411">
        <ele>0</ele>
        <time>2013-05-03T19:44:44Z</time>
      </trkpt>
      <trkpt lat="59.324187392" lon="17.8881625667">
        <ele>0</ele>
        <time>2013-05-03T19:44:45Z</time>
      </trkpt>
      <trkpt lat="59.3241635036" lon="17.8882872055">
        <ele>0</ele>
        <time>2013-05-03T19:44:46Z</time>
      </trkpt>
      <trkpt lat="59.3241401181" lon="17.8884199748">
        <ele>0</ele>
        <time>2013-05-03T19:44:47Z</time>
      </trkpt>
      <trkpt lat="59.3241174032" lon="17.8885526603">
        <ele>0</ele>
        <time>2013-05-03T19:44:48Z</time>
      </trkpt>
      <trkpt lat="59.3240221848" lon="17.8890570831">
        <ele>0</ele>
        <time>2013-05-03T19:44:52Z</time>
      </trkpt>
      <trkpt lat="59.3239522798" lon="17.8894315863">
        <ele>0</ele>
        <time>2013-05-03T19:44:55Z</time>
      </trkpt>
      <trkpt lat="59.3239314926" lon="17.8895676246">
        <ele>0</ele>
        <time>2013-05-03T19:44:56Z</time>
      </trkpt>
      <trkpt lat="59.3239095321" lon="17.8896875696">
        <ele>0</ele>
        <time>2013-05-03T19:44:57Z</time>
      </trkpt>
      <trkpt lat="59.32388271" lon="17.8898287208">
        <ele>0</ele>
        <time>2013-05-03T19:44:58Z</time>
      </trkpt>
      <trkpt lat="59.3236975538" lon="17.8906887875">
        <ele>0</ele>
        <time>2013-05-03T19:45:04Z</time>
      </trkpt>
      <trkpt lat="59.3236220329" lon="17.8915100461">
        <ele>0</ele>
        <time>2013-05-03T19:45:09Z</time>
      </trkpt>
      <trkpt lat="59.3236254695" lon="17.8920091044">
        <ele>0</ele>
        <time>2013-05-03T19:45:12Z</time>
      </trkpt>
      <trkpt lat="59.3236626013" lon="17.8923422849">
        <ele>0</ele>
        <time>2013-05-03T19:45:14Z</time>
      </trkpt>
      <trkpt lat="59.3237007389" lon="17.8926554327">
        <ele>0</ele>
        <time>2013-05-03T19:45:16Z</time>
      </trkpt>
      <trkpt lat="59.3237216099" lon="17.8928084024">
        <ele>0</ele>
        <time>2013-05-03T19:45:17Z</time>
      </trkpt>
      <trkpt lat="59.3237430675" lon="17.892961875">
        <ele>0</ele>
        <time>2013-05-03T19:45:18Z</time>
      </trkpt>
      <trkpt lat="59.3237631841" lon="17.8931169401">
        <ele>0</ele>
        <time>2013-05-03T19:45:19Z</time>
      </trkpt>
      <trkpt lat="59.3237821272" lon="17.8932729273">
        <ele>0</ele>
        <time>2013-05-03T19:45:20Z</time>
      </trkpt>
      <trkpt lat="59.3238365257" lon="17.8937557247">
        <ele>0</ele>
        <time>2013-05-03T19:45:23Z</time>
      </trkpt>
      <trkpt lat="59.3239576442" lon="17.894743364">
        <ele>0</ele>
        <time>2013-05-03T19:45:29Z</time>
      </trkpt>
      <trkpt lat="59.3240940177" lon="17.8959380362">
        <ele>0</ele>
        <time>2013-05-03T19:45:36Z</time>
      </trkpt>
      <trkpt lat="59.3241177385" lon="17.8960936881">
        <ele>0</ele>
        <time>2013-05-03T19:45:37Z</time>
      </trkpt>
      <trkpt lat="59.3242914952" lon="17.8969415173">
        <ele>0</ele>
        <time>2013-05-03T19:45:43Z</time>
      </trkpt>
      <trkpt lat="59.3245034735" lon="17.897754813">
        <ele>0</ele>
        <time>2013-05-03T19:45:49Z</time>
      </trkpt>
      <trkpt lat="59.3247156194" lon="17.8985266184">
        <ele>0</ele>
        <time>2013-05-03T19:45:55Z</time>
      </trkpt>
      <trkpt lat="59.3247498175" lon="17.8986538556">
        <ele>0</ele>
        <time>2013-05-03T19:45:56Z</time>
      </trkpt>
      <trkpt lat="59.3247830099" lon="17.8987770696">
        <ele>0</ele>
        <time>2013-05-03T19:45:57Z</time>
      </trkpt>
      <trkpt lat="59.3248156155" lon="17.8989001997">
        <ele>0</ele>
        <time>2013-05-03T19:45:58Z</time>
      </trkpt>
      <trkpt lat="59.3248490592" lon="17.899021402">
        <ele>0</ele>
        <time>2013-05-03T19:45:59Z</time>
      </trkpt>
      <trkpt lat="59.3250518174" lon="17.8997409881">
        <ele>0</ele>
        <time>2013-05-03T19:46:05Z</time>
      </trkpt>
      <trkpt lat="59.325202524" lon="17.9002226959">
        <ele>0</ele>
        <time>2013-05-03T19:46:09Z</time>
      </trkpt>
      <trkpt lat="59.3252986644" lon="17.9004271304">
        <ele>0</ele>
        <time>2013-05-03T19:46:11Z</time>
      </trkpt>
      <trkpt lat="59.3253363829" lon="17.9005525236">
        <ele>0</ele>
        <time>2013-05-03T19:46:12Z</time>
      </trkpt>
      <trkpt lat="59.3254216268" lon="17.9009758934">
        <ele>0</ele>
        <time>2013-05-03T19:46:15Z</time>
      </trkpt>
      <trkpt lat="59.3254654642" lon="17.901256268">
        <ele>0</ele>
        <time>2013-05-03T19:46:17Z</time>
      </trkpt>
      <trkpt lat="59.3255681424" lon="17.9016627063">
        <ele>0</ele>
        <time>2013-05-03T19:46:20Z</time>
      </trkpt>
      <trkpt lat="59.3258298254" lon="17.9026303128">
        <ele>0</ele>
        <time>2013-05-03T19:46:27Z</time>
      </trkpt>
      <trkpt lat="59.3260710564" lon="17.9033501504">
        <ele>0</ele>
        <time>2013-05-03T19:46:33Z</time>
      </trkpt>
      <trkpt lat="59.3261029077" lon="17.9034758789">
        <ele>0</ele>
        <time>2013-05-03T19:46:34Z</time>
      </trkpt>
      <trkpt lat="59.3261811946" lon="17.9038634579">
        <ele>0</ele>
        <time>2013-05-03T19:46:37Z</time>
      </trkpt>
      <trkpt lat="59.3263658479" lon="17.9045558029">
        <ele>0</ele>
        <time>2013-05-03T19:46:43Z</time>
      </trkpt>
      <trkpt lat="59.3265182308" lon="17.9051189827">
        <ele>0</ele>
        <time>2013-05-03T19:46:48Z</time>
      </trkpt>
      <trkpt lat="59.3265473998" lon="17.9052305458">
        <ele>0</ele>
        <time>2013-05-03T19:46:49Z</time>
      </trkpt>
      <trkpt lat="59.3265780776" lon="17.9053428633">
        <ele>0</ele>
        <time>2013-05-03T19:46:50Z</time>
      </trkpt>
      <trkpt lat="59.3266071628" lon="17.9054566057">
        <ele>0</ele>
        <time>2013-05-03T19:46:51Z</time>
      </trkpt>
      <trkpt lat="59.3266349068" lon="17.905568504">
        <ele>0</ele>
        <time>2013-05-03T19:46:52Z</time>
      </trkpt>
      <trkpt lat="59.3268386708" lon="17.9063568217">
        <ele>0</ele>
        <time>2013-05-03T19:46:59Z</time>
      </trkpt>
      <trkpt lat="59.3268663311" lon="17.9064626013">
        <ele>0</ele>
        <time>2013-05-03T19:47:00Z</time>
      </trkpt>
      <trkpt lat="59.3268947457" lon="17.9065700573">
        <ele>0</ele>
        <time>2013-05-03T19:47:01Z</time>
      </trkpt>
      <trkpt lat="59.3269208135" lon="17.9066626773">
        <ele>0</ele>
        <time>2013-05-03T19:47:02Z</time>
      </trkpt>
      <trkpt lat="59.3269447019" lon="17.9067567222">
        <ele>0</ele>
        <time>2013-05-03T19:47:03Z</time>
      </trkpt>
      <trkpt lat="59.3269694285" lon="17.9068580594">
        <ele>0</ele>
        <time>2013-05-03T19:47:04Z</time>
      </trkpt>
      <trkpt lat="59.3270241623" lon="17.9070593926">
        <ele>0</ele>
        <time>2013-05-03T19:47:06Z</time>
      </trkpt>
      <trkpt lat="59.3271911297" lon="17.9076953274">
        <ele>0</ele>
        <time>2013-05-03T19:47:12Z</time>
      </trkpt>
      <trkpt lat="59.3272166945" lon="17.9077887855">
        <ele>0</ele>
        <time>2013-05-03T19:47:13Z</time>
      </trkpt>
      <trkpt lat="59.3272426784" lon="17.9078839201">
        <ele>0</ele>
        <time>2013-05-03T19:47:14Z</time>
      </trkpt>
      <trkpt lat="59.327269249" lon="17.9079754504">
        <ele>0</ele>
        <time>2013-05-03T19:47:15Z</time>
      </trkpt>
      <trkpt lat="59.3272957358" lon="17.9080757818">
        <ele>0</ele>
        <time>2013-05-03T19:47:16Z</time>
      </trkpt>
      <trkpt lat="59.3273215521" lon="17.9081685694">
        <ele>0</ele>
        <time>2013-05-03T19:47:17Z</time>
      </trkpt>
      <trkpt lat="59.3273980788" lon="17.9084501174">
        <ele>0</ele>
        <time>2013-05-03T19:47:20Z</time>
      </trkpt>
      <trkpt lat="59.3274443469" lon="17.9086313341">
        <ele>0</ele>
        <time>2013-05-03T19:47:22Z</time>
      </trkpt>
      <trkpt lat="59.3274699117" lon="17.9087219425">
        <ele>0</ele>
        <time>2013-05-03T19:47:23Z</time>
      </trkpt>
      <trkpt lat="59.3274943869" lon="17.9088093657">
        <ele>0</ele>
        <time>2013-05-03T19:47:24Z</time>
      </trkpt>
      <trkpt lat="59.3275220471" lon="17.908901818">
        <ele>0</ele>
        <time>2013-05-03T19:47:25Z</time>
      </trkpt>
      <trkpt lat="59.3275709974" lon="17.9090839567">
        <ele>0</ele>
        <time>2013-05-03T19:47:27Z</time>
      </trkpt>
      <trkpt lat="59.32771986" lon="17.9096500703">
        <ele>0</ele>
        <time>2013-05-03T19:47:33Z</time>
      </trkpt>
      <trkpt lat="59.3277437484" lon="17.9097377449">
        <ele>0</ele>
        <time>2013-05-03T19:47:34Z</time>
      </trkpt>
      <trkpt lat="59.3277685588" lon="17.9098274313">
        <ele>0</ele>
        <time>2013-05-03T19:47:35Z</time>
      </trkpt>
      <trkpt lat="59.3277893459" lon="17.9099229011">
        <ele>0</ele>
        <time>2013-05-03T19:47:36Z</time>
      </trkpt>
      <trkpt lat="59.3278138211" lon="17.9100140123">
        <ele>0</ele>
        <time>2013-05-03T19:47:37Z</time>
      </trkpt>
      <trkpt lat="59.3278347758" lon="17.910110488">
        <ele>0</ele>
        <time>2013-05-03T19:47:38Z</time>
      </trkpt>
      <trkpt lat="59.3278860731" lon="17.9103047805">
        <ele>0</ele>
        <time>2013-05-03T19:47:40Z</time>
      </trkpt>
      <trkpt lat="59.3279937805" lon="17.9107016634">
        <ele>0</ele>
        <time>2013-05-03T19:47:44Z</time>
      </trkpt>
      <trkpt lat="59.3280812037" lon="17.9110096144">
        <ele>0</ele>
        <time>2013-05-03T19:47:47Z</time>
      </trkpt>
      <trkpt lat="59.3281086125" lon="17.9111170704">
        <ele>0</ele>
        <time>2013-05-03T19:47:48Z</time>
      </trkpt>
      <trkpt lat="59.3281363566" lon="17.9112182399">
        <ele>0</ele>
        <time>2013-05-03T19:47:49Z</time>
      </trkpt>
      <trkpt lat="59.3281666991" lon="17.9113194933">
        <ele>0</ele>
        <time>2013-05-03T19:47:50Z</time>
      </trkpt>
      <trkpt lat="59.3282541223" lon="17.9116291207">
        <ele>0</ele>
        <time>2013-05-03T19:47:53Z</time>
      </trkpt>
      <trkpt lat="59.3284890669" lon="17.912449541">
        <ele>0</ele>
        <time>2013-05-03T19:48:01Z</time>
      </trkpt>
      <trkpt lat="59.3285764902" lon="17.912775094">
        <ele>0</ele>
        <time>2013-05-03T19:48:04Z</time>
      </trkpt>
      <trkpt lat="59.3286074194" lon="17.9128839749">
        <ele>0</ele>
        <time>2013-05-03T19:48:05Z</time>
      </trkpt>
      <trkpt lat="59.3286378457" lon="17.9129879943">
        <ele>0</ele>
        <time>2013-05-03T19:48:06Z</time>
      </trkpt>
      <trkpt lat="59.3286676014" lon="17.913095115">
        <ele>0</ele>
        <time>2013-05-03T19:48:07Z</time>
      </trkpt>
      <trkpt lat="59.3286953455" lon="17.9132005593">
        <ele>0</ele>
        <time>2013-05-03T19:48:08Z</time>
      </trkpt>
      <trkpt lat="59.3287260233" lon="17.9133089372">
        <ele>0</ele>
        <time>2013-05-03T19:48:09Z</time>
      </trkpt>
      <trkpt lat="59.328913694" lon="17.9140000249">
        <ele>0</ele>
        <time>2013-05-03T19:48:15Z</time>
      </trkpt>
      <trkpt lat="59.3291657377" lon="17.9149498618">
        <ele>0</ele>
        <time>2013-05-03T19:48:23Z</time>
      </trkpt>
      <trkpt lat="59.329365646" lon="17.9156378482">
        <ele>0</ele>
        <time>2013-05-03T19:48:29Z</time>
      </trkpt>
      <trkpt lat="59.3294403288" lon="17.9158350743">
        <ele>0</ele>
        <time>2013-05-03T19:48:31Z</time>
      </trkpt>
      <trkpt lat="59.3296005907" lon="17.9161143592">
        <ele>0</ele>
        <time>2013-05-03T19:48:34Z</time>
      </trkpt>
      <trkpt lat="59.3297522193" lon="17.91642055">
        <ele>0</ele>
        <time>2013-05-03T19:48:37Z</time>
      </trkpt>
      <trkpt lat="59.32979262" lon="17.9165276707">
        <ele>0</ele>
        <time>2013-05-03T19:48:38Z</time>
      </trkpt>
      <trkpt lat="59.3300816279" lon="17.9172588238">
        <ele>0</ele>
        <time>2013-05-03T19:48:45Z</time>
      </trkpt>
      <trkpt lat="59.3303648523" lon="17.9178945909">
        <ele>0</ele>
        <time>2013-05-03T19:48:51Z</time>
      </trkpt>
      <trkpt lat="59.3307372602" lon="17.9184547533">
        <ele>0</ele>
        <time>2013-05-03T19:48:57Z</time>
      </trkpt>
      <trkpt lat="59.3308545229" lon="17.9186249059">
        <ele>0</ele>
        <time>2013-05-03T19:48:59Z</time>
      </trkpt>
      <trkpt lat="59.3309090891" lon="17.9186820704">
        <ele>0</ele>
        <time>2013-05-03T19:49:00Z</time>
      </trkpt>
      <trkpt lat="59.3309617274" lon="17.9186944756">
        <ele>0</ele>
        <time>2013-05-03T19:49:01Z</time>
      </trkpt>
      <trkpt lat="59.3310369969" lon="17.9186282586">
        <ele>0</ele>
        <time>2013-05-03T19:49:02Z</time>
      </trkpt>
      <trkpt lat="59.3310955864" lon="17.9185441043">
        <ele>0</ele>
        <time>2013-05-03T19:49:03Z</time>
      </trkpt>
      <trkpt lat="59.3312224884" lon="17.9182214012">
        <ele>0</ele>
        <time>2013-05-03T19:49:06Z</time>
      </trkpt>
      <trkpt lat="59.3312830895" lon="17.9179869594">
        <ele>0</ele>
        <time>2013-05-03T19:49:08Z</time>
      </trkpt>
      <trkpt lat="59.3313581075" lon="17.9176441397">
        <ele>0</ele>
        <time>2013-05-03T19:49:11Z</time>
      </trkpt>
      <trkpt lat="59.3313829179" lon="17.9175338339">
        <ele>0</ele>
        <time>2013-05-03T19:49:12Z</time>
      </trkpt>
      <trkpt lat="59.33140974" lon="17.9174319938">
        <ele>0</ele>
        <time>2013-05-03T19:49:13Z</time>
      </trkpt>
      <trkpt lat="59.3314375679" lon="17.9173242026">
        <ele>0</ele>
        <time>2013-05-03T19:49:14Z</time>
      </trkpt>
      <trkpt lat="59.3314641385" lon="17.9172182554">
        <ele>0</ele>
        <time>2013-05-03T19:49:15Z</time>
      </trkpt>
      <trkpt lat="59.3315368096" lon="17.9168962228">
        <ele>0</ele>
        <time>2013-05-03T19:49:18Z</time>
      </trkpt>
      <trkpt lat="59.3315553336" lon="17.9167938798">
        <ele>0</ele>
        <time>2013-05-03T19:49:19Z</time>
      </trkpt>
      <trkpt lat="59.3315691637" lon="17.9166939676">
        <ele>0</ele>
        <time>2013-05-03T19:49:20Z</time>
      </trkpt>
      <trkpt lat="59.3315758693" lon="17.9165885233">
        <ele>0</ele>
        <time>2013-05-03T19:49:21Z</time>
      </trkpt>
      <trkpt lat="59.3315938065" lon="17.9164877728">
        <ele>0</ele>
        <time>2013-05-03T19:49:22Z</time>
      </trkpt>
      <trkpt lat="59.3316201257" lon="17.9162816619">
        <ele>0</ele>
        <time>2013-05-03T19:49:24Z</time>
      </trkpt>
      <trkpt lat="59.3316316927" lon="17.9161773072">
        <ele>0</ele>
        <time>2013-05-03T19:49:25Z</time>
      </trkpt>
      <trkpt lat="59.3316429245" lon="17.9160705218">
        <ele>0</ele>
        <time>2013-05-03T19:49:26Z</time>
      </trkpt>
      <trkpt lat="59.3316511387" lon="17.9159675083">
        <ele>0</ele>
        <time>2013-05-03T19:49:27Z</time>
      </trkpt>
      <trkpt lat="59.3316645498" lon="17.915863908">
        <ele>0</ele>
        <time>2013-05-03T19:49:28Z</time>
      </trkpt>
      <trkpt lat="59.3316794695" lon="17.9156836971">
        <ele>0</ele>
        <time>2013-05-03T19:49:30Z</time>
      </trkpt>
      <trkpt lat="59.3317035256" lon="17.9154001375">
        <ele>0</ele>
        <time>2013-05-03T19:49:33Z</time>
      </trkpt>
      <trkpt lat="59.3317153441" lon="17.9153019016">
        <ele>0</ele>
        <time>2013-05-03T19:49:34Z</time>
      </trkpt>
      <trkpt lat="59.3317267435" lon="17.9152086111">
        <ele>0</ele>
        <time>2013-05-03T19:49:35Z</time>
      </trkpt>
      <trkpt lat="59.3317388972" lon="17.9151152367">
        <ele>0</ele>
        <time>2013-05-03T19:49:36Z</time>
      </trkpt>
      <trkpt lat="59.3317542361" lon="17.9150155759">
        <ele>0</ele>
        <time>2013-05-03T19:49:37Z</time>
      </trkpt>
      <trkpt lat="59.3318340318" lon="17.9143431799">
        <ele>0</ele>
        <time>2013-05-03T19:49:43Z</time>
      </trkpt>
      <trkpt lat="59.3319403981" lon="17.9135000446">
        <ele>0</ele>
        <time>2013-05-03T19:49:49Z</time>
      </trkpt>
      <trkpt lat="59.3320631929" lon="17.9128854837">
        <ele>0</ele>
        <time>2013-05-03T19:49:53Z</time>
      </trkpt>
      <trkpt lat="59.3321056053" lon="17.9127304185">
        <ele>0</ele>
        <time>2013-05-03T19:49:54Z</time>
      </trkpt>
      <trkpt lat="59.3322344351" lon="17.9122239841">
        <ele>0</ele>
        <time>2013-05-03T19:49:57Z</time>
      </trkpt>
      <trkpt lat="59.332278021" lon="17.9120526581">
        <ele>0</ele>
        <time>2013-05-03T19:49:58Z</time>
      </trkpt>
      <trkpt lat="59.3323200143" lon="17.9118773087">
        <ele>0</ele>
        <time>2013-05-03T19:49:59Z</time>
      </trkpt>
      <trkpt lat="59.3323512788" lon="17.9116915658">
        <ele>0</ele>
        <time>2013-05-03T19:50:00Z</time>
      </trkpt>
      <trkpt lat="59.3323875725" lon="17.9115054876">
        <ele>0</ele>
        <time>2013-05-03T19:50:01Z</time>
      </trkpt>
      <trkpt lat="59.3324366904" lon="17.9113199962">
        <ele>0</ele>
        <time>2013-05-03T19:50:02Z</time>
      </trkpt>
      <trkpt lat="59.3324865627" lon="17.9111402883">
        <ele>0</ele>
        <time>2013-05-03T19:50:03Z</time>
      </trkpt>
      <trkpt lat="59.3325345072" lon="17.9109490133">
        <ele>0</ele>
        <time>2013-05-03T19:50:04Z</time>
      </trkpt>
      <trkpt lat="59.3325825355" lon="17.9107705626">
        <ele>0</ele>
        <time>2013-05-03T19:50:05Z</time>
      </trkpt>
      <trkpt lat="59.332646657" lon="17.9106112227">
        <ele>0</ele>
        <time>2013-05-03T19:50:06Z</time>
      </trkpt>
      <trkpt lat="59.3327136284" lon="17.9104478595">
        <ele>0</ele>
        <time>2013-05-03T19:50:07Z</time>
      </trkpt>
      <trkpt lat="59.3327759059" lon="17.9103214604">
        <ele>0</ele>
        <time>2013-05-03T19:50:08Z</time>
      </trkpt>
      <trkpt lat="59.3328399436" lon="17.9101865119">
        <ele>0</ele>
        <time>2013-05-03T19:50:09Z</time>
      </trkpt>
      <trkpt lat="59.3329111897" lon="17.9100515633">
        <ele>0</ele>
        <time>2013-05-03T19:50:10Z</time>
      </trkpt>
      <trkpt lat="59.3332999423" lon="17.9093025567">
        <ele>0</ele>
        <time>2013-05-03T19:50:16Z</time>
      </trkpt>
      <trkpt lat="59.3336696679" lon="17.908779107">
        <ele>0</ele>
        <time>2013-05-03T19:50:21Z</time>
      </trkpt>
      <trkpt lat="59.3337471166" lon="17.908680033">
        <ele>0</ele>
        <time>2013-05-03T19:50:22Z</time>
      </trkpt>
      <trkpt lat="59.3338255712" lon="17.9085793663">
        <ele>0</ele>
        <time>2013-05-03T19:50:23Z</time>
      </trkpt>
      <trkpt lat="59.3339075462" lon="17.9084834774">
        <ele>0</ele>
        <time>2013-05-03T19:50:24Z</time>
      </trkpt>
      <trkpt lat="59.3339910299" lon="17.9083887619">
        <ele>0</ele>
        <time>2013-05-03T19:50:25Z</time>
      </trkpt>
      <trkpt lat="59.3340763577" lon="17.908300752">
        <ele>0</ele>
        <time>2013-05-03T19:50:26Z</time>
      </trkpt>
      <trkpt lat="59.3341610987" lon="17.9082113171">
        <ele>0</ele>
        <time>2013-05-03T19:50:27Z</time>
      </trkpt>
      <trkpt lat="59.3342398047" lon="17.9081207088">
        <ele>0</ele>
        <time>2013-05-03T19:50:28Z</time>
      </trkpt>
      <trkpt lat="59.3343119729" lon="17.9080287593">
        <ele>0</ele>
        <time>2013-05-03T19:50:29Z</time>
      </trkpt>
      <trkpt lat="59.3343860689" lon="17.907947874">
        <ele>0</ele>
        <time>2013-05-03T19:50:30Z</time>
      </trkpt>
      <trkpt lat="59.3345908387" lon="17.9077354767">
        <ele>0</ele>
        <time>2013-05-03T19:50:33Z</time>
      </trkpt>
      <trkpt lat="59.3349472371" lon="17.9073761446">
        <ele>0</ele>
        <time>2013-05-03T19:50:39Z</time>
      </trkpt>
      <trkpt lat="59.3351957604" lon="17.9071065827">
        <ele>0</ele>
        <time>2013-05-03T19:50:43Z</time>
      </trkpt>
      <trkpt lat="59.3352514162" lon="17.9070361747">
        <ele>0</ele>
        <time>2013-05-03T19:50:44Z</time>
      </trkpt>
      <trkpt lat="59.335307072" lon="17.9069736458">
        <ele>0</ele>
        <time>2013-05-03T19:50:45Z</time>
      </trkpt>
      <trkpt lat="59.3353616382" lon="17.9069073449">
        <ele>0</ele>
        <time>2013-05-03T19:50:46Z</time>
      </trkpt>
      <trkpt lat="59.3354177131" lon="17.9068335004">
        <ele>0</ele>
        <time>2013-05-03T19:50:47Z</time>
      </trkpt>
      <trkpt lat="59.3356508138" lon="17.9065099591">
        <ele>0</ele>
        <time>2013-05-03T19:50:51Z</time>
      </trkpt>
      <trkpt lat="59.3361075435" lon="17.9058938056">
        <ele>0</ele>
        <time>2013-05-03T19:50:58Z</time>
      </trkpt>
      <trkpt lat="59.3362434141" lon="17.9057127565">
        <ele>0</ele>
        <time>2013-05-03T19:51:00Z</time>
      </trkpt>
      <trkpt lat="59.3363117266" lon="17.9056281832">
        <ele>0</ele>
        <time>2013-05-03T19:51:01Z</time>
      </trkpt>
      <trkpt lat="59.3363792009" lon="17.9055359823">
        <ele>0</ele>
        <time>2013-05-03T19:51:02Z</time>
      </trkpt>
      <trkpt lat="59.3364423166" lon="17.9054478885">
        <ele>0</ele>
        <time>2013-05-03T19:51:03Z</time>
      </trkpt>
      <trkpt lat="59.3365081983" lon="17.9053517481">
        <ele>0</ele>
        <time>2013-05-03T19:51:04Z</time>
      </trkpt>
      <trkpt lat="59.3366450747" lon="17.9051473974">
        <ele>0</ele>
        <time>2013-05-03T19:51:06Z</time>
      </trkpt>
      <trkpt lat="59.3369432189" lon="17.9047115386">
        <ele>0</ele>
        <time>2013-05-03T19:51:10Z</time>
      </trkpt>
      <trkpt lat="59.3370245234" lon="17.9045879894">
        <ele>0</ele>
        <time>2013-05-03T19:51:11Z</time>
      </trkpt>
      <trkpt lat="59.3371109407" lon="17.9044698884">
        <ele>0</ele>
        <time>2013-05-03T19:51:12Z</time>
      </trkpt>
      <trkpt lat="59.3372003756" lon="17.9043584091">
        <ele>0</ele>
        <time>2013-05-03T19:51:13Z</time>
      </trkpt>
      <trkpt lat="59.3372885532" lon="17.9042386318">
        <ele>0</ele>
        <time>2013-05-03T19:51:14Z</time>
      </trkpt>
      <trkpt lat="59.3374652437" lon="17.9039994962">
        <ele>0</ele>
        <time>2013-05-03T19:51:16Z</time>
      </trkpt>
      <trkpt lat="59.3375489788" lon="17.903873181">
        <ele>0</ele>
        <time>2013-05-03T19:51:17Z</time>
      </trkpt>
      <trkpt lat="59.3376187162" lon="17.9037379809">
        <ele>0</ele>
        <time>2013-05-03T19:51:18Z</time>
      </trkpt>
      <trkpt lat="59.3376780601" lon="17.9036005177">
        <ele>0</ele>
        <time>2013-05-03T19:51:19Z</time>
      </trkpt>
      <trkpt lat="59.3377406729" lon="17.903446207">
        <ele>0</ele>
        <time>2013-05-03T19:51:20Z</time>
      </trkpt>
      <trkpt lat="59.337793898" lon="17.9033079056">
        <ele>0</ele>
        <time>2013-05-03T19:51:21Z</time>
      </trkpt>
      <trkpt lat="59.3378676587" lon="17.9030169699">
        <ele>0</ele>
        <time>2013-05-03T19:51:23Z</time>
      </trkpt>
      <trkpt lat="59.3378945646" lon="17.9028687779">
        <ele>0</ele>
        <time>2013-05-03T19:51:24Z</time>
      </trkpt>
      <trkpt lat="59.337936977" lon="17.9022874093">
        <ele>0</ele>
        <time>2013-05-03T19:51:28Z</time>
      </trkpt>
      <trkpt lat="59.337888362" lon="17.9017200385">
        <ele>0</ele>
        <time>2013-05-03T19:51:32Z</time>
      </trkpt>
      <trkpt lat="59.3378705085" lon="17.9015854252">
        <ele>0</ele>
        <time>2013-05-03T19:51:33Z</time>
      </trkpt>
      <trkpt lat="59.337791551" lon="17.9008917391">
        <ele>0</ele>
        <time>2013-05-03T19:51:38Z</time>
      </trkpt>
      <trkpt lat="59.3376558481" lon="17.8997620266">
        <ele>0</ele>
        <time>2013-05-03T19:51:46Z</time>
      </trkpt>
      <trkpt lat="59.3375533374" lon="17.8987986111">
        <ele>0</ele>
        <time>2013-05-03T19:51:53Z</time>
      </trkpt>
      <trkpt lat="59.3374338115" lon="17.897934521">
        <ele>0</ele>
        <time>2013-05-03T19:52:00Z</time>
      </trkpt>
      <trkpt lat="59.3372697777" lon="17.8968507413">
        <ele>0</ele>
        <time>2013-05-03T19:52:09Z</time>
      </trkpt>
      <trkpt lat="59.3371772416" lon="17.8958910976">
        <ele>0</ele>
        <time>2013-05-03T19:52:16Z</time>
      </trkpt>
      <trkpt lat="59.3371282075" lon="17.8951679911">
        <ele>0</ele>
        <time>2013-05-03T19:52:21Z</time>
      </trkpt>
      <trkpt lat="59.3371232621" lon="17.8950131774">
        <ele>0</ele>
        <time>2013-05-03T19:52:22Z</time>
      </trkpt>
      <trkpt lat="59.3371178139" lon="17.8948557653">
        <ele>0</ele>
        <time>2013-05-03T19:52:23Z</time>
      </trkpt>
      <trkpt lat="59.3371169757" lon="17.8946981856">
        <ele>0</ele>
        <time>2013-05-03T19:52:24Z</time>
      </trkpt>
      <trkpt lat="59.3371346615" lon="17.8939327505">
        <ele>0</ele>
        <time>2013-05-03T19:52:29Z</time>
      </trkpt>
      <trkpt lat="59.337220576" lon="17.8930811494">
        <ele>0</ele>
        <time>2013-05-03T19:52:35Z</time>
      </trkpt>
      <trkpt lat="59.3373937461" lon="17.8924060712">
        <ele>0</ele>
        <time>2013-05-03T19:52:40Z</time>
      </trkpt>
      <trkpt lat="59.3376648167" lon="17.8914476848">
        <ele>0</ele>
        <time>2013-05-03T19:52:47Z</time>
      </trkpt>
      <trkpt lat="59.3377250826" lon="17.8911517199">
        <ele>0</ele>
        <time>2013-05-03T19:52:49Z</time>
      </trkpt>
      <trkpt lat="59.337751737" lon="17.8910038631">
        <ele>0</ele>
        <time>2013-05-03T19:52:50Z</time>
      </trkpt>
      <trkpt lat="59.3377751225" lon="17.8908397455">
        <ele>0</ele>
        <time>2013-05-03T19:52:51Z</time>
      </trkpt>
      <trkpt lat="59.3377954905" lon="17.8906817467">
        <ele>0</ele>
        <time>2013-05-03T19:52:52Z</time>
      </trkpt>
      <trkpt lat="59.3378152718" lon="17.8905271845">
        <ele>0</ele>
        <time>2013-05-03T19:52:53Z</time>
      </trkpt>
      <trkpt lat="59.3379461971" lon="17.8897912537">
        <ele>0</ele>
        <time>2013-05-03T19:52:58Z</time>
      </trkpt>
      <trkpt lat="59.3381432555" lon="17.889186751">
        <ele>0</ele>
        <time>2013-05-03T19:53:03Z</time>
      </trkpt>
      <trkpt lat="59.3383726682" lon="17.8887553347">
        <ele>0</ele>
        <time>2013-05-03T19:53:08Z</time>
      </trkpt>
      <trkpt lat="59.3386364465" lon="17.888385609">
        <ele>0</ele>
        <time>2013-05-03T19:53:14Z</time>
      </trkpt>
      <trkpt lat="59.3387712275" lon="17.888222162">
        <ele>0</ele>
        <time>2013-05-03T19:53:17Z</time>
      </trkpt>
      <trkpt lat="59.3388154839" lon="17.8881664224">
        <ele>0</ele>
        <time>2013-05-03T19:53:18Z</time>
      </trkpt>
      <trkpt lat="59.3388610815" lon="17.8881204895">
        <ele>0</ele>
        <time>2013-05-03T19:53:19Z</time>
      </trkpt>
      <trkpt lat="59.3388975427" lon="17.8880843636">
        <ele>0</ele>
        <time>2013-05-03T19:53:20Z</time>
      </trkpt>
      <trkpt lat="59.3389379435" lon="17.888041113">
        <ele>0</ele>
        <time>2013-05-03T19:53:21Z</time>
      </trkpt>
      <trkpt lat="59.3390310664" lon="17.8879366745">
        <ele>0</ele>
        <time>2013-05-03T19:53:23Z</time>
      </trkpt>
      <trkpt lat="59.3390754905" lon="17.8878930886">
        <ele>0</ele>
        <time>2013-05-03T19:53:24Z</time>
      </trkpt>
      <trkpt lat="59.3391190763" lon="17.8878542804">
        <ele>0</ele>
        <time>2013-05-03T19:53:25Z</time>
      </trkpt>
      <trkpt lat="59.339161824" lon="17.8878110298">
        <ele>0</ele>
        <time>2013-05-03T19:53:26Z</time>
      </trkpt>
      <trkpt lat="59.3391996264" lon="17.887768785">
        <ele>0</ele>
        <time>2013-05-03T19:53:27Z</time>
      </trkpt>
      <trkpt lat="59.339242877" lon="17.8877340001">
        <ele>0</ele>
        <time>2013-05-03T19:53:28Z</time>
      </trkpt>
      <trkpt lat="59.3393298811" lon="17.8876462416">
        <ele>0</ele>
        <time>2013-05-03T19:53:30Z</time>
      </trkpt>
      <trkpt lat="59.3393732156" lon="17.8876033263">
        <ele>0</ele>
        <time>2013-05-03T19:53:31Z</time>
      </trkpt>
      <trkpt lat="59.3394140354" lon="17.8875609977">
        <ele>0</ele>
        <time>2013-05-03T19:53:32Z</time>
      </trkpt>
      <trkpt lat="59.3394567831" lon="17.887523363">
        <ele>0</ele>
        <time>2013-05-03T19:53:33Z</time>
      </trkpt>
      <trkpt lat="59.3395004528" lon="17.887483549">
        <ele>0</ele>
        <time>2013-05-03T19:53:34Z</time>
      </trkpt>
      <trkpt lat="59.3396316295" lon="17.8873765121">
        <ele>0</ele>
        <time>2013-05-03T19:53:37Z</time>
      </trkpt>
      <trkpt lat="59.339678652" lon="17.887339967">
        <ele>0</ele>
        <time>2013-05-03T19:53:38Z</time>
      </trkpt>
      <trkpt lat="59.3397220702" lon="17.8873071938">
        <ele>0</ele>
        <time>2013-05-03T19:53:39Z</time>
      </trkpt>
      <trkpt lat="59.3397688412" lon="17.887268218">
        <ele>0</ele>
        <time>2013-05-03T19:53:40Z</time>
      </trkpt>
      <trkpt lat="59.339816199" lon="17.8872284878">
        <ele>0</ele>
        <time>2013-05-03T19:53:41Z</time>
      </trkpt>
      <trkpt lat="59.340050054" lon="17.8870735064">
        <ele>0</ele>
        <time>2013-05-03T19:53:46Z</time>
      </trkpt>
      <trkpt lat="59.3400914606" lon="17.8870438345">
        <ele>0</ele>
        <time>2013-05-03T19:53:47Z</time>
      </trkpt>
      <trkpt lat="59.3401341244" lon="17.8870217901">
        <ele>0</ele>
        <time>2013-05-03T19:53:48Z</time>
      </trkpt>
      <trkpt lat="59.3401780456" lon="17.8869999972">
        <ele>0</ele>
        <time>2013-05-03T19:53:49Z</time>
      </trkpt>
      <trkpt lat="59.3402244813" lon="17.8869811379">
        <ele>0</ele>
        <time>2013-05-03T19:53:50Z</time>
      </trkpt>
      <trkpt lat="59.3403202864" lon="17.886955154">
        <ele>0</ele>
        <time>2013-05-03T19:53:52Z</time>
      </trkpt>
      <trkpt lat="59.3404255631" lon="17.8869362947">
        <ele>0</ele>
        <time>2013-05-03T19:53:54Z</time>
      </trkpt>
      <trkpt lat="59.3405268165" lon="17.8869285834">
        <ele>0</ele>
        <time>2013-05-03T19:53:56Z</time>
      </trkpt>
      <trkpt lat="59.3405773593" lon="17.8869383064">
        <ele>0</ele>
        <time>2013-05-03T19:53:57Z</time>
      </trkpt>
      <trkpt lat="59.3406259743" lon="17.8869460177">
        <ele>0</ele>
        <time>2013-05-03T19:53:58Z</time>
      </trkpt>
      <trkpt lat="59.3406724101" lon="17.8869618595">
        <ele>0</ele>
        <time>2013-05-03T19:53:59Z</time>
      </trkpt>
      <trkpt lat="59.3407190972" lon="17.8869822275">
        <ele>0</ele>
        <time>2013-05-03T19:54:00Z</time>
      </trkpt>
      <trkpt lat="59.3409211848" lon="17.8870888453">
        <ele>0</ele>
        <time>2013-05-03T19:54:04Z</time>
      </trkpt>
      <trkpt lat="59.3410204265" lon="17.8871549785">
        <ele>0</ele>
        <time>2013-05-03T19:54:06Z</time>
      </trkpt>
      <trkpt lat="59.3410710532" lon="17.8871909368">
        <ele>0</ele>
        <time>2013-05-03T19:54:07Z</time>
      </trkpt>
      <trkpt lat="59.3411187462" lon="17.8872395519">
        <ele>0</ele>
        <time>2013-05-03T19:54:08Z</time>
      </trkpt>
      <trkpt lat="59.3411704626" lon="17.887286742">
        <ele>0</ele>
        <time>2013-05-03T19:54:09Z</time>
      </trkpt>
      <trkpt lat="59.3412164792" lon="17.8873356923">
        <ele>0</ele>
        <time>2013-05-03T19:54:10Z</time>
      </trkpt>
      <trkpt lat="59.3413069199" lon="17.8874518654">
        <ele>0</ele>
        <time>2013-05-03T19:54:12Z</time>
      </trkpt>
      <trkpt lat="59.3413565407" lon="17.8875097843">
        <ele>0</ele>
        <time>2013-05-03T19:54:13Z</time>
      </trkpt>
      <trkpt lat="59.3414024735" lon="17.8875653563">
        <ele>0</ele>
        <time>2013-05-03T19:54:14Z</time>
      </trkpt>
      <trkpt lat="59.3414499989" lon="17.8876236105">
        <ele>0</ele>
        <time>2013-05-03T19:54:15Z</time>
      </trkpt>
      <trkpt lat="59.3415002065" lon="17.8876851337">
        <ele>0</ele>
        <time>2013-05-03T19:54:16Z</time>
      </trkpt>
      <trkpt lat="59.3415442115" lon="17.8877413762">
        <ele>0</ele>
        <time>2013-05-03T19:54:17Z</time>
      </trkpt>
      <trkpt lat="59.3415895576" lon="17.8877969482">
        <ele>0</ele>
        <time>2013-05-03T19:54:18Z</time>
      </trkpt>
      <trkpt lat="59.341670862" lon="17.8879268677">
        <ele>0</ele>
        <time>2013-05-03T19:54:20Z</time>
      </trkpt>
      <trkpt lat="59.3417287809" lon="17.8879920788">
        <ele>0</ele>
        <time>2013-05-03T19:54:21Z</time>
      </trkpt>
      <trkpt lat="59.3418556829" lon="17.8881678473">
        <ele>0</ele>
        <time>2013-05-03T19:54:23Z</time>
      </trkpt>
      <trkpt lat="59.3421475406" lon="17.8885497266">
        <ele>0</ele>
        <time>2013-05-03T19:54:28Z</time>
      </trkpt>
      <trkpt lat="59.3424997481" lon="17.8889991641">
        <ele>0</ele>
        <time>2013-05-03T19:54:34Z</time>
      </trkpt>
      <trkpt lat="59.3425594272" lon="17.8890698235">
        <ele>0</ele>
        <time>2013-05-03T19:54:35Z</time>
      </trkpt>
      <trkpt lat="59.342616005" lon="17.8891406506">
        <ele>0</ele>
        <time>2013-05-03T19:54:36Z</time>
      </trkpt>
      <trkpt lat="59.3426674699" lon="17.889205275">
        <ele>0</ele>
        <time>2013-05-03T19:54:37Z</time>
      </trkpt>
      <trkpt lat="59.3427257241" lon="17.8892868309">
        <ele>0</ele>
        <time>2013-05-03T19:54:38Z</time>
      </trkpt>
      <trkpt lat="59.343033256" lon="17.8896370267">
        <ele>0</ele>
        <time>2013-05-03T19:54:43Z</time>
      </trkpt>
      <trkpt lat="59.3434202483" lon="17.8900579657">
        <ele>0</ele>
        <time>2013-05-03T19:54:49Z</time>
      </trkpt>
      <trkpt lat="59.3434885608" lon="17.8901086762">
        <ele>0</ele>
        <time>2013-05-03T19:54:51Z</time>
      </trkpt>
      <trkpt lat="59.3435240163" lon="17.8901095982">
        <ele>0</ele>
        <time>2013-05-03T19:54:52Z</time>
      </trkpt>
      <trkpt lat="59.3435594717" lon="17.8901235122">
        <ele>0</ele>
        <time>2013-05-03T19:54:53Z</time>
      </trkpt>
      <trkpt lat="59.3436004592" lon="17.8901619013">
        <ele>0</ele>
        <time>2013-05-03T19:54:54Z</time>
      </trkpt>
      <trkpt lat="59.3436443803" lon="17.8902102649">
        <ele>0</ele>
        <time>2013-05-03T19:54:55Z</time>
      </trkpt>
      <trkpt lat="59.3436995332" lon="17.8902705307">
        <ele>0</ele>
        <time>2013-05-03T19:54:56Z</time>
      </trkpt>
      <trkpt lat="59.343756614" lon="17.8903377536">
        <ele>0</ele>
        <time>2013-05-03T19:54:57Z</time>
      </trkpt>
      <trkpt lat="59.3440060593" lon="17.8906109197">
        <ele>0</ele>
        <time>2013-05-03T19:55:01Z</time>
      </trkpt>
      <trkpt lat="59.3444789661" lon="17.8911177732">
        <ele>0</ele>
        <time>2013-05-03T19:55:08Z</time>
      </trkpt>
      <trkpt lat="59.344866629" lon="17.8915388798">
        <ele>0</ele>
        <time>2013-05-03T19:55:14Z</time>
      </trkpt>
      <trkpt lat="59.3452424734" lon="17.8919267103">
        <ele>0</ele>
        <time>2013-05-03T19:55:20Z</time>
      </trkpt>
      <trkpt lat="59.3457782444" lon="17.8924994456">
        <ele>0</ele>
        <time>2013-05-03T19:55:28Z</time>
      </trkpt>
      <trkpt lat="59.3458463055" lon="17.8925745474">
        <ele>0</ele>
        <time>2013-05-03T19:55:29Z</time>
      </trkpt>
      <trkpt lat="59.3459137798" lon="17.8926500683">
        <ele>0</ele>
        <time>2013-05-03T19:55:30Z</time>
      </trkpt>
      <trkpt lat="59.345983601" lon="17.8927305345">
        <ele>0</ele>
        <time>2013-05-03T19:55:31Z</time>
      </trkpt>
      <trkpt lat="59.3460476387" lon="17.8928077318">
        <ele>0</ele>
        <time>2013-05-03T19:55:32Z</time>
      </trkpt>
      <trkpt lat="59.3461386661" lon="17.8929249946">
        <ele>0</ele>
        <time>2013-05-03T19:55:34Z</time>
      </trkpt>
      <trkpt lat="59.3461860239" lon="17.8929823268">
        <ele>0</ele>
        <time>2013-05-03T19:55:35Z</time>
      </trkpt>
      <trkpt lat="59.3462301965" lon="17.8930306904">
        <ele>0</ele>
        <time>2013-05-03T19:55:36Z</time>
      </trkpt>
      <trkpt lat="59.3462750397" lon="17.8930789701">
        <ele>0</ele>
        <time>2013-05-03T19:55:37Z</time>
      </trkpt>
      <trkpt lat="59.3463191284" lon="17.8931335363">
        <ele>0</ele>
        <time>2013-05-03T19:55:38Z</time>
      </trkpt>
      <trkpt lat="59.3464451084" lon="17.8933119031">
        <ele>0</ele>
        <time>2013-05-03T19:55:41Z</time>
      </trkpt>
      <trkpt lat="59.3464862635" lon="17.8933617754">
        <ele>0</ele>
        <time>2013-05-03T19:55:42Z</time>
      </trkpt>
      <trkpt lat="59.3465350462" lon="17.8934269028">
        <ele>0</ele>
        <time>2013-05-03T19:55:43Z</time>
      </trkpt>
      <trkpt lat="59.3465877683" lon="17.893499071">
        <ele>0</ele>
        <time>2013-05-03T19:55:44Z</time>
      </trkpt>
      <trkpt lat="59.3466430889" lon="17.8935669644">
        <ele>0</ele>
        <time>2013-05-03T19:55:45Z</time>
      </trkpt>
      <trkpt lat="59.3469674684" lon="17.8939603269">
        <ele>0</ele>
        <time>2013-05-03T19:55:50Z</time>
      </trkpt>
      <trkpt lat="59.3473715598" lon="17.8944017178">
        <ele>0</ele>
        <time>2013-05-03T19:55:56Z</time>
      </trkpt>
      <trkpt lat="59.3477298022" lon="17.8949016981">
        <ele>0</ele>
        <time>2013-05-03T19:56:01Z</time>
      </trkpt>
      <trkpt lat="59.348178653" lon="17.8955387225">
        <ele>0</ele>
        <time>2013-05-03T19:56:07Z</time>
      </trkpt>
      <trkpt lat="59.3482498153" lon="17.8956407302">
        <ele>0</ele>
        <time>2013-05-03T19:56:08Z</time>
      </trkpt>
      <trkpt lat="59.3483936487" lon="17.8958451648">
        <ele>0</ele>
        <time>2013-05-03T19:56:10Z</time>
      </trkpt>
      <trkpt lat="59.3484617935" lon="17.8959366113">
        <ele>0</ele>
        <time>2013-05-03T19:56:11Z</time>
      </trkpt>
      <trkpt lat="59.3485296869" lon="17.8960237831">
        <ele>0</ele>
        <time>2013-05-03T19:56:12Z</time>
      </trkpt>
      <trkpt lat="59.3485941437" lon="17.8961190014">
        <ele>0</ele>
        <time>2013-05-03T19:56:13Z</time>
      </trkpt>
      <trkpt lat="59.3486572595" lon="17.8962099451">
        <ele>0</ele>
        <time>2013-05-03T19:56:14Z</time>
      </trkpt>
      <trkpt lat="59.3487175253" lon="17.8963013916">
        <ele>0</ele>
        <time>2013-05-03T19:56:15Z</time>
      </trkpt>
      <trkpt lat="59.3490513764" lon="17.8967490689">
        <ele>0</ele>
        <time>2013-05-03T19:56:20Z</time>
      </trkpt>
      <trkpt lat="59.3491172581" lon="17.8968501546">
        <ele>0</ele>
        <time>2013-05-03T19:56:21Z</time>
      </trkpt>
      <trkpt lat="59.3491813797" lon="17.8969505697">
        <ele>0</ele>
        <time>2013-05-03T19:56:22Z</time>
      </trkpt>
      <trkpt lat="59.3492480158" lon="17.8970519069">
        <ele>0</ele>
        <time>2013-05-03T19:56:23Z</time>
      </trkpt>
      <trkpt lat="59.3493118858" lon="17.897144946">
        <ele>0</ele>
        <time>2013-05-03T19:56:24Z</time>
      </trkpt>
      <trkpt lat="59.3493760074" lon="17.8972339618">
        <ele>0</ele>
        <time>2013-05-03T19:56:25Z</time>
      </trkpt>
      <trkpt lat="59.3494375305" lon="17.8973308565">
        <ele>0</ele>
        <time>2013-05-03T19:56:26Z</time>
      </trkpt>
      <trkpt lat="59.3494990537" lon="17.8974213811">
        <ele>0</ele>
        <time>2013-05-03T19:56:27Z</time>
      </trkpt>
      <trkpt lat="59.3495583137" lon="17.8975119894">
        <ele>0</ele>
        <time>2013-05-03T19:56:28Z</time>
      </trkpt>
      <trkpt lat="59.3496170708" lon="17.8976036874">
        <ele>0</ele>
        <time>2013-05-03T19:56:29Z</time>
      </trkpt>
      <trkpt lat="59.3496705473" lon="17.8976986543">
        <ele>0</ele>
        <time>2013-05-03T19:56:30Z</time>
      </trkpt>
      <trkpt lat="59.3497271252" lon="17.8978130673">
        <ele>0</ele>
        <time>2013-05-03T19:56:31Z</time>
      </trkpt>
      <trkpt lat="59.3497852117" lon="17.8979399692">
        <ele>0</ele>
        <time>2013-05-03T19:56:32Z</time>
      </trkpt>
      <trkpt lat="59.34985453" lon="17.8980744987">
        <ele>0</ele>
        <time>2013-05-03T19:56:33Z</time>
      </trkpt>
      <trkpt lat="59.3502182207" lon="17.8987308853">
        <ele>0</ele>
        <time>2013-05-03T19:56:38Z</time>
      </trkpt>
      <trkpt lat="59.3506557559" lon="17.899531692">
        <ele>0</ele>
        <time>2013-05-03T19:56:44Z</time>
      </trkpt>
      <trkpt lat="59.3507258286" lon="17.8996580073">
        <ele>0</ele>
        <time>2013-05-03T19:56:45Z</time>
      </trkpt>
      <trkpt lat="59.350794141" lon="17.8997814726">
        <ele>0</ele>
        <time>2013-05-03T19:56:46Z</time>
      </trkpt>
      <trkpt lat="59.3508587655" lon="17.89990586">
        <ele>0</ele>
        <time>2013-05-03T19:56:47Z</time>
      </trkpt>
      <trkpt lat="59.3509259883" lon="17.9000305827">
        <ele>0</ele>
        <time>2013-05-03T19:56:48Z</time>
      </trkpt>
      <trkpt lat="59.3511587537" lon="17.9004811098">
        <ele>0</ele>
        <time>2013-05-03T19:56:52Z</time>
      </trkpt>
      <trkpt lat="59.3515159903" lon="17.9011262647">
        <ele>0</ele>
        <time>2013-05-03T19:56:58Z</time>
      </trkpt>
      <trkpt lat="59.3519315649" lon="17.9018920351">
        <ele>0</ele>
        <time>2013-05-03T19:57:05Z</time>
      </trkpt>
      <trkpt lat="59.3519907411" lon="17.9020010836">
        <ele>0</ele>
        <time>2013-05-03T19:57:06Z</time>
      </trkpt>
      <trkpt lat="59.3520492467" lon="17.9021121438">
        <ele>0</ele>
        <time>2013-05-03T19:57:07Z</time>
      </trkpt>
      <trkpt lat="59.3521095126" lon="17.9022221981">
        <ele>0</ele>
        <time>2013-05-03T19:57:08Z</time>
      </trkpt>
      <trkpt lat="59.3521681859" lon="17.9023314981">
        <ele>0</ele>
        <time>2013-05-03T19:57:09Z</time>
      </trkpt>
      <trkpt lat="59.3522264401" lon="17.9024458272">
        <ele>0</ele>
        <time>2013-05-03T19:57:10Z</time>
      </trkpt>
      <trkpt lat="59.3522905616" lon="17.9025628385">
        <ele>0</ele>
        <time>2013-05-03T19:57:11Z</time>
      </trkpt>
      <trkpt lat="59.3525274341" lon="17.9030119407">
        <ele>0</ele>
        <time>2013-05-03T19:57:15Z</time>
      </trkpt>
      <trkpt lat="59.3529583476" lon="17.9038272481">
        <ele>0</ele>
        <time>2013-05-03T19:57:22Z</time>
      </trkpt>
      <trkpt lat="59.3530196193" lon="17.9039395656">
        <ele>0</ele>
        <time>2013-05-03T19:57:23Z</time>
      </trkpt>
      <trkpt lat="59.3533999061" lon="17.9046500154">
        <ele>0</ele>
        <time>2013-05-03T19:57:29Z</time>
      </trkpt>
      <trkpt lat="59.3534615131" lon="17.9047695413">
        <ele>0</ele>
        <time>2013-05-03T19:57:30Z</time>
      </trkpt>
      <trkpt lat="59.3535244611" lon="17.9048953537">
        <ele>0</ele>
        <time>2013-05-03T19:57:31Z</time>
      </trkpt>
      <trkpt lat="59.3535894209" lon="17.9050146281">
        <ele>0</ele>
        <time>2013-05-03T19:57:32Z</time>
      </trkpt>
      <trkpt lat="59.3536559732" lon="17.9051330643">
        <ele>0</ele>
        <time>2013-05-03T19:57:33Z</time>
      </trkpt>
      <trkpt lat="59.353849595" lon="17.9055043825">
        <ele>0</ele>
        <time>2013-05-03T19:57:36Z</time>
      </trkpt>
      <trkpt lat="59.3539766646" lon="17.9057422608">
        <ele>0</ele>
        <time>2013-05-03T19:57:38Z</time>
      </trkpt>
      <trkpt lat="59.3540385231" lon="17.9058614515">
        <ele>0</ele>
        <time>2013-05-03T19:57:39Z</time>
      </trkpt>
      <trkpt lat="59.3541005491" lon="17.9059767026">
        <ele>0</ele>
        <time>2013-05-03T19:57:40Z</time>
      </trkpt>
      <trkpt lat="59.3541548638" lon="17.9060970667">
        <ele>0</ele>
        <time>2013-05-03T19:57:41Z</time>
      </trkpt>
      <trkpt lat="59.3542175605" lon="17.9062094679">
        <ele>0</ele>
        <time>2013-05-03T19:57:42Z</time>
      </trkpt>
      <trkpt lat="59.3546151978" lon="17.9069632522">
        <ele>0</ele>
        <time>2013-05-03T19:57:49Z</time>
      </trkpt>
      <trkpt lat="59.3550440158" lon="17.9077513184">
        <ele>0</ele>
        <time>2013-05-03T19:57:57Z</time>
      </trkpt>
      <trkpt lat="59.3551030244" lon="17.9078671563">
        <ele>0</ele>
        <time>2013-05-03T19:57:58Z</time>
      </trkpt>
      <trkpt lat="59.3551626197" lon="17.9079777136">
        <ele>0</ele>
        <time>2013-05-03T19:57:59Z</time>
      </trkpt>
      <trkpt lat="59.3552264898" lon="17.9080885223">
        <ele>0</ele>
        <time>2013-05-03T19:58:00Z</time>
      </trkpt>
      <trkpt lat="59.3552888511" lon="17.9082017618">
        <ele>0</ele>
        <time>2013-05-03T19:58:01Z</time>
      </trkpt>
      <trkpt lat="59.3554170942" lon="17.9084455074">
        <ele>0</ele>
        <time>2013-05-03T19:58:03Z</time>
      </trkpt>
      <trkpt lat="59.3558457445" lon="17.9092469847">
        <ele>0</ele>
        <time>2013-05-03T19:58:10Z</time>
      </trkpt>
      <trkpt lat="59.3560234408" lon="17.9095738788">
        <ele>0</ele>
        <time>2013-05-03T19:58:13Z</time>
      </trkpt>
      <trkpt lat="59.3560787613" lon="17.9096749645">
        <ele>0</ele>
        <time>2013-05-03T19:58:14Z</time>
      </trkpt>
      <trkpt lat="59.356132657" lon="17.9097837616">
        <ele>0</ele>
        <time>2013-05-03T19:58:15Z</time>
      </trkpt>
      <trkpt lat="59.3561857982" lon="17.9098754595">
        <ele>0</ele>
        <time>2013-05-03T19:58:16Z</time>
      </trkpt>
      <trkpt lat="59.3562362573" lon="17.9099651459">
        <ele>0</ele>
        <time>2013-05-03T19:58:17Z</time>
      </trkpt>
      <trkpt lat="59.3563844492" lon="17.910232277">
        <ele>0</ele>
        <time>2013-05-03T19:58:21Z</time>
      </trkpt>
      <trkpt lat="59.3564086729" lon="17.9102807244">
        <ele>0</ele>
        <time>2013-05-03T19:58:22Z</time>
      </trkpt>
      <trkpt lat="59.3564300468" lon="17.9103590114">
        <ele>0</ele>
        <time>2013-05-03T19:58:23Z</time>
      </trkpt>
      <trkpt lat="59.3564649993" lon="17.9104287488">
        <ele>0</ele>
        <time>2013-05-03T19:58:24Z</time>
      </trkpt>
      <trkpt lat="59.3565004547" lon="17.9105160882">
        <ele>0</ele>
        <time>2013-05-03T19:58:25Z</time>
      </trkpt>
      <trkpt lat="59.3565476448" lon="17.9105931178">
        <ele>0</ele>
        <time>2013-05-03T19:58:26Z</time>
      </trkpt>
      <trkpt lat="59.356666584" lon="17.9106833909">
        <ele>0</ele>
        <time>2013-05-03T19:58:28Z</time>
      </trkpt>
      <trkpt lat="59.3568301987" lon="17.9105144118">
        <ele>0</ele>
        <time>2013-05-03T19:58:31Z</time>
      </trkpt>
      <trkpt lat="59.356974535" lon="17.9102511363">
        <ele>0</ele>
        <time>2013-05-03T19:58:33Z</time>
      </trkpt>
      <trkpt lat="59.3570520676" lon="17.910112332">
        <ele>0</ele>
        <time>2013-05-03T19:58:34Z</time>
      </trkpt>
      <trkpt lat="59.3571293487" lon="17.9099775511">
        <ele>0</ele>
        <time>2013-05-03T19:58:35Z</time>
      </trkpt>
      <trkpt lat="59.3572025227" lon="17.9098436921">
        <ele>0</ele>
        <time>2013-05-03T19:58:36Z</time>
      </trkpt>
      <trkpt lat="59.357269075" lon="17.9097229928">
        <ele>0</ele>
        <time>2013-05-03T19:58:37Z</time>
      </trkpt>
      <trkpt lat="59.3575192747" lon="17.9092834459">
        <ele>0</ele>
        <time>2013-05-03T19:58:41Z</time>
      </trkpt>
      <trkpt lat="59.3575806302" lon="17.9091773311">
        <ele>0</ele>
        <time>2013-05-03T19:58:42Z</time>
      </trkpt>
      <trkpt lat="59.3576448355" lon="17.9090663547">
        <ele>0</ele>
        <time>2013-05-03T19:58:43Z</time>
      </trkpt>
      <trkpt lat="59.3577088733" lon="17.9089696276">
        <ele>0</ele>
        <time>2013-05-03T19:58:44Z</time>
      </trkpt>
      <trkpt lat="59.3577714861" lon="17.9088745769">
        <ele>0</ele>
        <time>2013-05-03T19:58:45Z</time>
      </trkpt>
      <trkpt lat="59.3579639345" lon="17.9086001535">
        <ele>0</ele>
        <time>2013-05-03T19:58:48Z</time>
      </trkpt>
      <trkpt lat="59.3584108574" lon="17.907976121">
        <ele>0</ele>
        <time>2013-05-03T19:58:55Z</time>
      </trkpt>
      <trkpt lat="59.3588225763" lon="17.907496341">
        <ele>0</ele>
        <time>2013-05-03T19:59:01Z</time>
      </trkpt>
      <trkpt lat="59.3592974948" lon="17.9070402819">
        <ele>0</ele>
        <time>2013-05-03T19:59:08Z</time>
      </trkpt>
      <trkpt lat="59.3594283362" lon="17.9069326583">
        <ele>0</ele>
        <time>2013-05-03T19:59:10Z</time>
      </trkpt>
      <trkpt lat="59.359615085" lon="17.9067749109">
        <ele>0</ele>
        <time>2013-05-03T19:59:13Z</time>
      </trkpt>
      <trkpt lat="59.3596758537" lon="17.906704">
        <ele>0</ele>
        <time>2013-05-03T19:59:14Z</time>
      </trkpt>
      <trkpt lat="59.3598066114" lon="17.9065724042">
        <ele>0</ele>
        <time>2013-05-03T19:59:16Z</time>
      </trkpt>
      <trkpt lat="59.3599312502" lon="17.9064446641">
        <ele>0</ele>
        <time>2013-05-03T19:59:18Z</time>
      </trkpt>
      <trkpt lat="59.3599928572" lon="17.9063838115">
        <ele>0</ele>
        <time>2013-05-03T19:59:19Z</time>
      </trkpt>
      <trkpt lat="59.3600547156" lon="17.906319187">
        <ele>0</ele>
        <time>2013-05-03T19:59:20Z</time>
      </trkpt>
      <trkpt lat="59.3601215194" lon="17.9062601784">
        <ele>0</ele>
        <time>2013-05-03T19:59:21Z</time>
      </trkpt>
      <trkpt lat="59.3603783408" lon="17.9060250661">
        <ele>0</ele>
        <time>2013-05-03T19:59:25Z</time>
      </trkpt>
      <trkpt lat="59.3608928218" lon="17.9055795682">
        <ele>0</ele>
        <time>2013-05-03T19:59:32Z</time>
      </trkpt>
      <trkpt lat="59.3609716955" lon="17.9055122615">
        <ele>0</ele>
        <time>2013-05-03T19:59:33Z</time>
      </trkpt>
      <trkpt lat="59.3610514912" lon="17.9054445357">
        <ele>0</ele>
        <time>2013-05-03T19:59:34Z</time>
      </trkpt>
      <trkpt lat="59.3611322927" lon="17.9053788216">
        <ele>0</ele>
        <time>2013-05-03T19:59:35Z</time>
      </trkpt>
      <trkpt lat="59.3612172013" lon="17.9053044742">
        <ele>0</ele>
        <time>2013-05-03T19:59:36Z</time>
      </trkpt>
      <trkpt lat="59.3612974999" lon="17.9052398497">
        <ele>0</ele>
        <time>2013-05-03T19:59:37Z</time>
      </trkpt>
      <trkpt lat="59.3615385634" lon="17.9050733852">
        <ele>0</ele>
        <time>2013-05-03T19:59:40Z</time>
      </trkpt>
      <trkpt lat="59.3619360331" lon="17.9047723912">
        <ele>0</ele>
        <time>2013-05-03T19:59:45Z</time>
      </trkpt>
      <trkpt lat="59.3620181757" lon="17.9047133826">
        <ele>0</ele>
        <time>2013-05-03T19:59:46Z</time>
      </trkpt>
      <trkpt lat="59.3620934452" lon="17.9046453216">
        <ele>0</ele>
        <time>2013-05-03T19:59:47Z</time>
      </trkpt>
      <trkpt lat="59.3621703072" lon="17.9045816191">
        <ele>0</ele>
        <time>2013-05-03T19:59:48Z</time>
      </trkpt>
      <trkpt lat="59.362246331" lon="17.9045277235">
        <ele>0</ele>
        <time>2013-05-03T19:59:49Z</time>
      </trkpt>
      <trkpt lat="59.3624669426" lon="17.904341813">
        <ele>0</ele>
        <time>2013-05-03T19:59:52Z</time>
      </trkpt>
      <trkpt lat="59.362616811" lon="17.904226981">
        <ele>0</ele>
        <time>2013-05-03T19:59:54Z</time>
      </trkpt>
      <trkpt lat="59.3626893982" lon="17.9041724986">
        <ele>0</ele>
        <time>2013-05-03T19:59:55Z</time>
      </trkpt>
      <trkpt lat="59.362761734" lon="17.9041139091">
        <ele>0</ele>
        <time>2013-05-03T19:59:56Z</time>
      </trkpt>
      <trkpt lat="59.3628292922" lon="17.9040692336">
        <ele>0</ele>
        <time>2013-05-03T19:59:57Z</time>
      </trkpt>
      <trkpt lat="59.3628939166" lon="17.9040242228">
        <ele>0</ele>
        <time>2013-05-03T19:59:58Z</time>
      </trkpt>
      <trkpt lat="59.3631451221" lon="17.9037991688">
        <ele>0</ele>
        <time>2013-05-03T20:00:02Z</time>
      </trkpt>
      <trkpt lat="59.3631854391" lon="17.903698586">
        <ele>0</ele>
        <time>2013-05-03T20:00:03Z</time>
      </trkpt>
      <trkpt lat="59.363341091" lon="17.903479986">
        <ele>0</ele>
        <time>2013-05-03T20:00:06Z</time>
      </trkpt>
      <trkpt lat="59.36340823" lon="17.9034103324">
        <ele>0</ele>
        <time>2013-05-03T20:00:07Z</time>
      </trkpt>
      <trkpt lat="59.3636106529" lon="17.9032168782">
        <ele>0</ele>
        <time>2013-05-03T20:00:10Z</time>
      </trkpt>
      <trkpt lat="59.3636813123" lon="17.9031502421">
        <ele>0</ele>
        <time>2013-05-03T20:00:11Z</time>
      </trkpt>
      <trkpt lat="59.363749541" lon="17.9030769005">
        <ele>0</ele>
        <time>2013-05-03T20:00:12Z</time>
      </trkpt>
      <trkpt lat="59.3638214577" lon="17.9030067439">
        <ele>0</ele>
        <time>2013-05-03T20:00:13Z</time>
      </trkpt>
      <trkpt lat="59.363894464" lon="17.9029313068">
        <ele>0</ele>
        <time>2013-05-03T20:00:14Z</time>
      </trkpt>
      <trkpt lat="59.3643356872" lon="17.9024826237">
        <ele>0</ele>
        <time>2013-05-03T20:00:20Z</time>
      </trkpt>
      <trkpt lat="59.3648225918" lon="17.9019692324">
        <ele>0</ele>
        <time>2013-05-03T20:00:27Z</time>
      </trkpt>
      <trkpt lat="59.3651709436" lon="17.9016743571">
        <ele>0</ele>
        <time>2013-05-03T20:00:32Z</time>
      </trkpt>
      <trkpt lat="59.3652463807" lon="17.9016354651">
        <ele>0</ele>
        <time>2013-05-03T20:00:33Z</time>
      </trkpt>
      <trkpt lat="59.3656638831" lon="17.901461373">
        <ele>0</ele>
        <time>2013-05-03T20:00:39Z</time>
      </trkpt>
      <trkpt lat="59.3658483687" lon="17.9013117561">
        <ele>0</ele>
        <time>2013-05-03T20:00:42Z</time>
      </trkpt>
      <trkpt lat="59.3659157592" lon="17.9012898794">
        <ele>0</ele>
        <time>2013-05-03T20:00:43Z</time>
      </trkpt>
      <trkpt lat="59.3659846584" lon="17.9012771389">
        <ele>0</ele>
        <time>2013-05-03T20:00:44Z</time>
      </trkpt>
      <trkpt lat="59.3660533062" lon="17.9012581958">
        <ele>0</ele>
        <time>2013-05-03T20:00:45Z</time>
      </trkpt>
      <trkpt lat="59.3661248038" lon="17.901242354">
        <ele>0</ele>
        <time>2013-05-03T20:00:46Z</time>
      </trkpt>
      <trkpt lat="59.3663346027" lon="17.9012148614">
        <ele>0</ele>
        <time>2013-05-03T20:00:49Z</time>
      </trkpt>
      <trkpt lat="59.3668399475" lon="17.9011021248">
        <ele>0</ele>
        <time>2013-05-03T20:00:56Z</time>
      </trkpt>
      <trkpt lat="59.3671866229" lon="17.9010353211">
        <ele>0</ele>
        <time>2013-05-03T20:01:01Z</time>
      </trkpt>
      <trkpt lat="59.3672548515" lon="17.9010219938">
        <ele>0</ele>
        <time>2013-05-03T20:01:02Z</time>
      </trkpt>
      <trkpt lat="59.3673247566" lon="17.9010086666">
        <ele>0</ele>
        <time>2013-05-03T20:01:03Z</time>
      </trkpt>
      <trkpt lat="59.3673986011" lon="17.9010056491">
        <ele>0</ele>
        <time>2013-05-03T20:01:04Z</time>
      </trkpt>
      <trkpt lat="59.3674728648" lon="17.9009939983">
        <ele>0</ele>
        <time>2013-05-03T20:01:05Z</time>
      </trkpt>
      <trkpt lat="59.3675468769" lon="17.9009654998">
        <ele>0</ele>
        <time>2013-05-03T20:01:06Z</time>
      </trkpt>
      <trkpt lat="59.3676933087" lon="17.9009299606">
        <ele>0</ele>
        <time>2013-05-03T20:01:08Z</time>
      </trkpt>
      <trkpt lat="59.3681569954" lon="17.9008349098">
        <ele>0</ele>
        <time>2013-05-03T20:01:14Z</time>
      </trkpt>
      <trkpt lat="59.3686149824" lon="17.9007905696">
        <ele>0</ele>
        <time>2013-05-03T20:01:20Z</time>
      </trkpt>
      <trkpt lat="59.3688459876" lon="17.9007891447">
        <ele>0</ele>
        <time>2013-05-03T20:01:23Z</time>
      </trkpt>
      <trkpt lat="59.3689225144" lon="17.9007942576">
        <ele>0</ele>
        <time>2013-05-03T20:01:24Z</time>
      </trkpt>
      <trkpt lat="59.3689956045" lon="17.9007914078">
        <ele>0</ele>
        <time>2013-05-03T20:01:25Z</time>
      </trkpt>
      <trkpt lat="59.3690682756" lon="17.9008127816">
        <ele>0</ele>
        <time>2013-05-03T20:01:26Z</time>
      </trkpt>
      <trkpt lat="59.3692779069" lon="17.9008830219">
        <ele>0</ele>
        <time>2013-05-03T20:01:29Z</time>
      </trkpt>
      <trkpt lat="59.3694660806" lon="17.9009896397">
        <ele>0</ele>
        <time>2013-05-03T20:01:32Z</time>
      </trkpt>
      <trkpt lat="59.3695313756" lon="17.9010323874">
        <ele>0</ele>
        <time>2013-05-03T20:01:33Z</time>
      </trkpt>
      <trkpt lat="59.3696001072" lon="17.9010820921">
        <ele>0</ele>
        <time>2013-05-03T20:01:34Z</time>
      </trkpt>
      <trkpt lat="59.3696634743" lon="17.901133976">
        <ele>0</ele>
        <time>2013-05-03T20:01:35Z</time>
      </trkpt>
      <trkpt lat="59.3697208903" lon="17.9011659949">
        <ele>0</ele>
        <time>2013-05-03T20:01:36Z</time>
      </trkpt>
      <trkpt lat="59.3697778873" lon="17.9012096646">
        <ele>0</ele>
        <time>2013-05-03T20:01:37Z</time>
      </trkpt>
      <trkpt lat="59.3699668153" lon="17.9013211439">
        <ele>0</ele>
        <time>2013-05-03T20:01:40Z</time>
      </trkpt>
      <trkpt lat="59.370081312" lon="17.9013779731">
        <ele>0</ele>
        <time>2013-05-03T20:01:42Z</time>
      </trkpt>
      <trkpt lat="59.3701364649" lon="17.9013871932">
        <ele>0</ele>
        <time>2013-05-03T20:01:43Z</time>
      </trkpt>
      <trkpt lat="59.3701922884" lon="17.9014008557">
        <ele>0</ele>
        <time>2013-05-03T20:01:44Z</time>
      </trkpt>
      <trkpt lat="59.37024895" lon="17.9014212237">
        <ele>0</ele>
        <time>2013-05-03T20:01:45Z</time>
      </trkpt>
      <trkpt lat="59.3703118981" lon="17.9014327069">
        <ele>0</ele>
        <time>2013-05-03T20:01:46Z</time>
      </trkpt>
      <trkpt lat="59.3704308373" lon="17.9014656478">
        <ele>0</ele>
        <time>2013-05-03T20:01:48Z</time>
      </trkpt>
      <trkpt lat="59.3704909355" lon="17.9014810705">
        <ele>0</ele>
        <time>2013-05-03T20:01:49Z</time>
      </trkpt>
      <trkpt lat="59.3705552247" lon="17.9014951521">
        <ele>0</ele>
        <time>2013-05-03T20:01:50Z</time>
      </trkpt>
      <trkpt lat="59.3706230342" lon="17.9015056295">
        <ele>0</ele>
        <time>2013-05-03T20:01:51Z</time>
      </trkpt>
      <trkpt lat="59.3706879101" lon="17.9015193758">
        <ele>0</ele>
        <time>2013-05-03T20:01:52Z</time>
      </trkpt>
      <trkpt lat="59.3707516126" lon="17.9015264166">
        <ele>0</ele>
        <time>2013-05-03T20:01:53Z</time>
      </trkpt>
      <trkpt lat="59.3708743236" lon="17.9015105748">
        <ele>0</ele>
        <time>2013-05-03T20:01:55Z</time>
      </trkpt>
      <trkpt lat="59.3709370202" lon="17.9014485487">
        <ele>0</ele>
        <time>2013-05-03T20:01:56Z</time>
      </trkpt>
      <trkpt lat="59.3709900776" lon="17.9013770511">
        <ele>0</ele>
        <time>2013-05-03T20:01:57Z</time>
      </trkpt>
      <trkpt lat="59.371048248" lon="17.9013012788">
        <ele>0</ele>
        <time>2013-05-03T20:01:58Z</time>
      </trkpt>
      <trkpt lat="59.3711062508" lon="17.9012146099">
        <ele>0</ele>
        <time>2013-05-03T20:01:59Z</time>
      </trkpt>
      <trkpt lat="59.3711705399" lon="17.901149734">
        <ele>0</ele>
        <time>2013-05-03T20:02:00Z</time>
      </trkpt>
      <trkpt lat="59.3712943406" lon="17.9009931601">
        <ele>0</ele>
        <time>2013-05-03T20:02:02Z</time>
      </trkpt>
      <trkpt lat="59.3717161178" lon="17.9003878193">
        <ele>0</ele>
        <time>2013-05-03T20:02:09Z</time>
      </trkpt>
      <trkpt lat="59.3720250746" lon="17.8999583307">
        <ele>0</ele>
        <time>2013-05-03T20:02:14Z</time>
      </trkpt>
      <trkpt lat="59.3720898667" lon="17.899868812">
        <ele>0</ele>
        <time>2013-05-03T20:02:15Z</time>
      </trkpt>
      <trkpt lat="59.3721699977" lon="17.8998099711">
        <ele>0</ele>
        <time>2013-05-03T20:02:16Z</time>
      </trkpt>
      <trkpt lat="59.3723243085" lon="17.8997409043">
        <ele>0</ele>
        <time>2013-05-03T20:02:18Z</time>
      </trkpt>
      <trkpt lat="59.3724056967" lon="17.8997392279">
        <ele>0</ele>
        <time>2013-05-03T20:02:19Z</time>
      </trkpt>
      <trkpt lat="59.3724882584" lon="17.8997505434">
        <ele>0</ele>
        <time>2013-05-03T20:02:20Z</time>
      </trkpt>
      <trkpt lat="59.3725682218" lon="17.8997738451">
        <ele>0</ele>
        <time>2013-05-03T20:02:21Z</time>
      </trkpt>
      <trkpt lat="59.3726471793" lon="17.8998025112">
        <ele>0</ele>
        <time>2013-05-03T20:02:22Z</time>
      </trkpt>
      <trkpt lat="59.3728845547" lon="17.8999934509">
        <ele>0</ele>
        <time>2013-05-03T20:02:25Z</time>
      </trkpt>
      <trkpt lat="59.3729463293" lon="17.9001103784">
        <ele>0</ele>
        <time>2013-05-03T20:02:26Z</time>
      </trkpt>
      <trkpt lat="59.373093264" lon="17.9005260368">
        <ele>0</ele>
        <time>2013-05-03T20:02:29Z</time>
      </trkpt>
      <trkpt lat="59.3731438068" lon="17.9006715466">
        <ele>0</ele>
        <time>2013-05-03T20:02:30Z</time>
      </trkpt>
      <trkpt lat="59.3732433" lon="17.9009779889">
        <ele>0</ele>
        <time>2013-05-03T20:02:32Z</time>
      </trkpt>
      <trkpt lat="59.3732905739" lon="17.9011357362">
        <ele>0</ele>
        <time>2013-05-03T20:02:33Z</time>
      </trkpt>
      <trkpt lat="59.3733380155" lon="17.9012934836">
        <ele>0</ele>
        <time>2013-05-03T20:02:34Z</time>
      </trkpt>
      <trkpt lat="59.373389145" lon="17.9014520691">
        <ele>0</ele>
        <time>2013-05-03T20:02:35Z</time>
      </trkpt>
      <trkpt lat="59.3734388497" lon="17.9016198748">
        <ele>0</ele>
        <time>2013-05-03T20:02:36Z</time>
      </trkpt>
      <trkpt lat="59.3737643189" lon="17.9026091904">
        <ele>0</ele>
        <time>2013-05-03T20:02:42Z</time>
      </trkpt>
      <trkpt lat="59.373899938" lon="17.9028847873">
        <ele>0</ele>
        <time>2013-05-03T20:02:44Z</time>
      </trkpt>
      <trkpt lat="59.3739746208" lon="17.9030090909">
        <ele>0</ele>
        <time>2013-05-03T20:02:45Z</time>
      </trkpt>
      <trkpt lat="59.3740563443" lon="17.9031063209">
        <ele>0</ele>
        <time>2013-05-03T20:02:46Z</time>
      </trkpt>
      <trkpt lat="59.3741463659" lon="17.9032028804">
        <ele>0</ele>
        <time>2013-05-03T20:02:47Z</time>
      </trkpt>
      <trkpt lat="59.3742337891" lon="17.9032908065">
        <ele>0</ele>
        <time>2013-05-03T20:02:48Z</time>
      </trkpt>
      <trkpt lat="59.3744039417" lon="17.9034609591">
        <ele>0</ele>
        <time>2013-05-03T20:02:50Z</time>
      </trkpt>
      <trkpt lat="59.3744942147" lon="17.903528601">
        <ele>0</ele>
        <time>2013-05-03T20:02:51Z</time>
      </trkpt>
      <trkpt lat="59.3745854098" lon="17.9035893698">
        <ele>0</ele>
        <time>2013-05-03T20:02:52Z</time>
      </trkpt>
      <trkpt lat="59.3746803767" lon="17.9036305249">
        <ele>0</ele>
        <time>2013-05-03T20:02:53Z</time>
      </trkpt>
      <trkpt lat="59.3747798699" lon="17.9036637173">
        <ele>0</ele>
        <time>2013-05-03T20:02:54Z</time>
      </trkpt>
      <trkpt lat="59.3748903433" lon="17.9037120808">
        <ele>0</ele>
        <time>2013-05-03T20:02:55Z</time>
      </trkpt>
      <trkpt lat="59.3750029961" lon="17.9037113265">
        <ele>0</ele>
        <time>2013-05-03T20:02:56Z</time>
      </trkpt>
      <trkpt lat="59.3751200912" lon="17.9037057944">
        <ele>0</ele>
        <time>2013-05-03T20:02:57Z</time>
      </trkpt>
      <trkpt lat="59.3752371025" lon="17.9036876895">
        <ele>0</ele>
        <time>2013-05-03T20:02:58Z</time>
      </trkpt>
      <trkpt lat="59.375355455" lon="17.9036590234">
        <ele>0</ele>
        <time>2013-05-03T20:02:59Z</time>
      </trkpt>
      <trkpt lat="59.3754710414" lon="17.903599931">
        <ele>0</ele>
        <time>2013-05-03T20:03:00Z</time>
      </trkpt>
      <trkpt lat="59.3757076624" lon="17.903421648">
        <ele>0</ele>
        <time>2013-05-03T20:03:02Z</time>
      </trkpt>
      <trkpt lat="59.3758140287" lon="17.9033144435">
        <ele>0</ele>
        <time>2013-05-03T20:03:03Z</time>
      </trkpt>
      <trkpt lat="59.3759280226" lon="17.9031893856">
        <ele>0</ele>
        <time>2013-05-03T20:03:04Z</time>
      </trkpt>
      <trkpt lat="59.3760448662" lon="17.9030656687">
        <ele>0</ele>
        <time>2013-05-03T20:03:05Z</time>
      </trkpt>
      <trkpt lat="59.3761607879" lon="17.9029516749">
        <ele>0</ele>
        <time>2013-05-03T20:03:06Z</time>
      </trkpt>
      <trkpt lat="59.376282996" lon="17.9028412852">
        <ele>0</ele>
        <time>2013-05-03T20:03:07Z</time>
      </trkpt>
      <trkpt lat="59.3765446789" lon="17.902704325">
        <ele>0</ele>
        <time>2013-05-03T20:03:09Z</time>
      </trkpt>
      <trkpt lat="59.3766804657" lon="17.9027013913">
        <ele>0</ele>
        <time>2013-05-03T20:03:10Z</time>
      </trkpt>
      <trkpt lat="59.3769421486" lon="17.902792754">
        <ele>0</ele>
        <time>2013-05-03T20:03:12Z</time>
      </trkpt>
      <trkpt lat="59.3770632671" lon="17.9028888106">
        <ele>0</ele>
        <time>2013-05-03T20:03:13Z</time>
      </trkpt>
      <trkpt lat="59.3771751655" lon="17.9030185624">
        <ele>0</ele>
        <time>2013-05-03T20:03:14Z</time>
      </trkpt>
      <trkpt lat="59.3772891593" lon="17.9031596298">
        <ele>0</ele>
        <time>2013-05-03T20:03:15Z</time>
      </trkpt>
      <trkpt lat="59.3773971182" lon="17.9033017868">
        <ele>0</ele>
        <time>2013-05-03T20:03:16Z</time>
      </trkpt>
      <trkpt lat="59.3778109326" lon="17.903844431">
        <ele>0</ele>
        <time>2013-05-03T20:03:20Z</time>
      </trkpt>
      <trkpt lat="59.377908917" lon="17.9039732608">
        <ele>0</ele>
        <time>2013-05-03T20:03:21Z</time>
      </trkpt>
      <trkpt lat="59.3780088292" lon="17.9040922838">
        <ele>0</ele>
        <time>2013-05-03T20:03:22Z</time>
      </trkpt>
      <trkpt lat="59.3781039638" lon="17.9042178447">
        <ele>0</ele>
        <time>2013-05-03T20:03:23Z</time>
      </trkpt>
      <trkpt lat="59.3781953265" lon="17.904352458">
        <ele>0</ele>
        <time>2013-05-03T20:03:24Z</time>
      </trkpt>
      <trkpt lat="59.3782980048" lon="17.9044752528">
        <ele>0</ele>
        <time>2013-05-03T20:03:25Z</time>
      </trkpt>
      <trkpt lat="59.3783786387" lon="17.9045863968">
        <ele>0</ele>
        <time>2013-05-03T20:03:26Z</time>
      </trkpt>
      <trkpt lat="59.3784310255" lon="17.9047067609">
        <ele>0</ele>
        <time>2013-05-03T20:03:27Z</time>
      </trkpt>
      <trkpt lat="59.378472935" lon="17.9048062541">
        <ele>0</ele>
        <time>2013-05-03T20:03:28Z</time>
      </trkpt>
      <trkpt lat="59.3785067979" lon="17.9048952698">
        <ele>0</ele>
        <time>2013-05-03T20:03:29Z</time>
      </trkpt>
      <trkpt lat="59.3785372242" lon="17.9050058271">
        <ele>0</ele>
        <time>2013-05-03T20:03:30Z</time>
      </trkpt>
      <trkpt lat="59.3785810615" lon="17.9051313041">
        <ele>0</ele>
        <time>2013-05-03T20:03:31Z</time>
      </trkpt>
      <trkpt lat="59.3786298442" lon="17.9052423643">
        <ele>0</ele>
        <time>2013-05-03T20:03:32Z</time>
      </trkpt>
      <trkpt lat="59.3786839075" lon="17.905320316">
        <ele>0</ele>
        <time>2013-05-03T20:03:33Z</time>
      </trkpt>
      <trkpt lat="59.3788468516" lon="17.9053864492">
        <ele>0</ele>
        <time>2013-05-03T20:03:36Z</time>
      </trkpt>
      <trkpt lat="59.3790642781" lon="17.905215207">
        <ele>0</ele>
        <time>2013-05-03T20:03:38Z</time>
      </trkpt>
      <trkpt lat="59.3795932598" lon="17.9048908274">
        <ele>0</ele>
        <time>2013-05-03T20:03:43Z</time>
      </trkpt>
      <trkpt lat="59.3801771429" lon="17.9044661166">
        <ele>0</ele>
        <time>2013-05-03T20:03:49Z</time>
      </trkpt>
      <trkpt lat="59.3803315375" lon="17.9042577425">
        <ele>0</ele>
        <time>2013-05-03T20:03:51Z</time>
      </trkpt>
      <trkpt lat="59.3804767959" lon="17.9040425792">
        <ele>0</ele>
        <time>2013-05-03T20:03:53Z</time>
      </trkpt>
      <trkpt lat="59.3805386543" lon="17.903922718">
        <ele>0</ele>
        <time>2013-05-03T20:03:54Z</time>
      </trkpt>
      <trkpt lat="59.3807782928" lon="17.9034481348">
        <ele>0</ele>
        <time>2013-05-03T20:03:58Z</time>
      </trkpt>
      <trkpt lat="59.3811528799" lon="17.9025801052">
        <ele>0</ele>
        <time>2013-05-03T20:04:05Z</time>
      </trkpt>
      <trkpt lat="59.3812669576" lon="17.9023312466">
        <ele>0</ele>
        <time>2013-05-03T20:04:07Z</time>
      </trkpt>
      <trkpt lat="59.3815315742" lon="17.9017122433">
        <ele>0</ele>
        <time>2013-05-03T20:04:12Z</time>
      </trkpt>
      <trkpt lat="59.3818856256" lon="17.9007972751">
        <ele>0</ele>
        <time>2013-05-03T20:04:19Z</time>
      </trkpt>
      <trkpt lat="59.3819320613" lon="17.9006675233">
        <ele>0</ele>
        <time>2013-05-03T20:04:20Z</time>
      </trkpt>
      <trkpt lat="59.3821079136" lon="17.9001608374">
        <ele>0</ele>
        <time>2013-05-03T20:04:24Z</time>
      </trkpt>
      <trkpt lat="59.3821565286" lon="17.900056399">
        <ele>0</ele>
        <time>2013-05-03T20:04:25Z</time>
      </trkpt>
      <trkpt lat="59.3824654855" lon="17.8993755372">
        <ele>0</ele>
        <time>2013-05-03T20:04:31Z</time>
      </trkpt>
      <trkpt lat="59.3828254042" lon="17.8985807655">
        <ele>0</ele>
        <time>2013-05-03T20:04:38Z</time>
      </trkpt>
      <trkpt lat="59.3828800542" lon="17.8984728066">
        <ele>0</ele>
        <time>2013-05-03T20:04:39Z</time>
      </trkpt>
      <trkpt lat="59.3832991492" lon="17.8976776996">
        <ele>0</ele>
        <time>2013-05-03T20:04:46Z</time>
      </trkpt>
      <trkpt lat="59.3833672103" lon="17.897544595">
        <ele>0</ele>
        <time>2013-05-03T20:04:47Z</time>
      </trkpt>
      <trkpt lat="59.3836003109" lon="17.89710421">
        <ele>0</ele>
        <time>2013-05-03T20:04:51Z</time>
      </trkpt>
      <trkpt lat="59.3836716409" lon="17.8970174573">
        <ele>0</ele>
        <time>2013-05-03T20:04:52Z</time>
      </trkpt>
      <trkpt lat="59.38395914" lon="17.8966491566">
        <ele>0</ele>
        <time>2013-05-03T20:04:56Z</time>
      </trkpt>
      <trkpt lat="59.3844073202" lon="17.8959162433">
        <ele>0</ele>
        <time>2013-05-03T20:05:03Z</time>
      </trkpt>
      <trkpt lat="59.3848243198" lon="17.8951219744">
        <ele>0</ele>
        <time>2013-05-03T20:05:10Z</time>
      </trkpt>
      <trkpt lat="59.3852450911" lon="17.8943126182">
        <ele>0</ele>
        <time>2013-05-03T20:05:17Z</time>
      </trkpt>
      <trkpt lat="59.385657313" lon="17.8934424093">
        <ele>0</ele>
        <time>2013-05-03T20:05:24Z</time>
      </trkpt>
      <trkpt lat="59.3859804352" lon="17.8925774811">
        <ele>0</ele>
        <time>2013-05-03T20:05:30Z</time>
      </trkpt>
      <trkpt lat="59.3860344985" lon="17.8924454661">
        <ele>0</ele>
        <time>2013-05-03T20:05:31Z</time>
      </trkpt>
      <trkpt lat="59.3860919983" lon="17.8923182289">
        <ele>0</ele>
        <time>2013-05-03T20:05:32Z</time>
      </trkpt>
      <trkpt lat="59.3862012145" lon="17.8920530256">
        <ele>0</ele>
        <time>2013-05-03T20:05:34Z</time>
      </trkpt>
      <trkpt lat="59.3862436269" lon="17.8919031572">
        <ele>0</ele>
        <time>2013-05-03T20:05:35Z</time>
      </trkpt>
      <trkpt lat="59.3865058127" lon="17.8908845887">
        <ele>0</ele>
        <time>2013-05-03T20:05:42Z</time>
      </trkpt>
      <trkpt lat="59.3865460458" lon="17.8907487181">
        <ele>0</ele>
        <time>2013-05-03T20:05:43Z</time>
      </trkpt>
      <trkpt lat="59.386727514" lon="17.889893429">
        <ele>0</ele>
        <time>2013-05-03T20:05:49Z</time>
      </trkpt>
      <trkpt lat="59.3868651448" lon="17.8888949771">
        <ele>0</ele>
        <time>2013-05-03T20:05:56Z</time>
      </trkpt>
      <trkpt lat="59.3868795616" lon="17.888749635">
        <ele>0</ele>
        <time>2013-05-03T20:05:57Z</time>
      </trkpt>
      <trkpt lat="59.3868938109" lon="17.8886004371">
        <ele>0</ele>
        <time>2013-05-03T20:05:58Z</time>
      </trkpt>
      <trkpt lat="59.3869079763" lon="17.8884489762">
        <ele>0</ele>
        <time>2013-05-03T20:05:59Z</time>
      </trkpt>
      <trkpt lat="59.3869228961" lon="17.8882959227">
        <ele>0</ele>
        <time>2013-05-03T20:06:00Z</time>
      </trkpt>
      <trkpt lat="59.386934966" lon="17.8881399356">
        <ele>0</ele>
        <time>2013-05-03T20:06:01Z</time>
      </trkpt>
      <trkpt lat="59.3869727684" lon="17.8876834573">
        <ele>0</ele>
        <time>2013-05-03T20:06:04Z</time>
      </trkpt>
      <trkpt lat="59.3870606945" lon="17.8866778807">
        <ele>0</ele>
        <time>2013-05-03T20:06:11Z</time>
      </trkpt>
      <trkpt lat="59.3871476986" lon="17.8857411196">
        <ele>0</ele>
        <time>2013-05-03T20:06:18Z</time>
      </trkpt>
      <trkpt lat="59.3871624508" lon="17.8855983758">
        <ele>0</ele>
        <time>2013-05-03T20:06:19Z</time>
      </trkpt>
      <trkpt lat="59.3872195315" lon="17.8851706475">
        <ele>0</ele>
        <time>2013-05-03T20:06:22Z</time>
      </trkpt>
      <trkpt lat="59.3872644585" lon="17.8848983196">
        <ele>0</ele>
        <time>2013-05-03T20:06:24Z</time>
      </trkpt>
      <trkpt lat="59.3872891013" lon="17.8847625328">
        <ele>0</ele>
        <time>2013-05-03T20:06:25Z</time>
      </trkpt>
      <trkpt lat="59.3873152528" lon="17.8846164363">
        <ele>0</ele>
        <time>2013-05-03T20:06:26Z</time>
      </trkpt>
      <trkpt lat="59.3873400632" lon="17.884479476">
        <ele>0</ele>
        <time>2013-05-03T20:06:27Z</time>
      </trkpt>
      <trkpt lat="59.3873649575" lon="17.884341929">
        <ele>0</ele>
        <time>2013-05-03T20:06:28Z</time>
      </trkpt>
      <trkpt lat="59.3874331023" lon="17.8839445432">
        <ele>0</ele>
        <time>2013-05-03T20:06:31Z</time>
      </trkpt>
      <trkpt lat="59.3874538056" lon="17.8838178088">
        <ele>0</ele>
        <time>2013-05-03T20:06:32Z</time>
      </trkpt>
      <trkpt lat="59.3874683063" lon="17.8836861292">
        <ele>0</ele>
        <time>2013-05-03T20:06:33Z</time>
      </trkpt>
      <trkpt lat="59.3874878361" lon="17.8835472411">
        <ele>0</ele>
        <time>2013-05-03T20:06:34Z</time>
      </trkpt>
      <trkpt lat="59.3875051028" lon="17.8834114543">
        <ele>0</ele>
        <time>2013-05-03T20:06:35Z</time>
      </trkpt>
      <trkpt lat="59.387546258" lon="17.8829782777">
        <ele>0</ele>
        <time>2013-05-03T20:06:38Z</time>
      </trkpt>
      <trkpt lat="59.3875688053" lon="17.8825363001">
        <ele>0</ele>
        <time>2013-05-03T20:06:41Z</time>
      </trkpt>
      <trkpt lat="59.3875695596" lon="17.8821065601">
        <ele>0</ele>
        <time>2013-05-03T20:06:44Z</time>
      </trkpt>
      <trkpt lat="59.3875326793" lon="17.8813695397">
        <ele>0</ele>
        <time>2013-05-03T20:06:49Z</time>
      </trkpt>
      <trkpt lat="59.3874882552" lon="17.8805683138">
        <ele>0</ele>
        <time>2013-05-03T20:06:55Z</time>
      </trkpt>
      <trkpt lat="59.3875496945" lon="17.8801383224">
        <ele>0</ele>
        <time>2013-05-03T20:06:58Z</time>
      </trkpt>
      <trkpt lat="59.3875166699" lon="17.8797255138">
        <ele>0</ele>
        <time>2013-05-03T20:07:01Z</time>
      </trkpt>
      <trkpt lat="59.3874902669" lon="17.8793003838">
        <ele>0</ele>
        <time>2013-05-03T20:07:04Z</time>
      </trkpt>
      <trkpt lat="59.3874940387" lon="17.8791591488">
        <ele>0</ele>
        <time>2013-05-03T20:07:05Z</time>
      </trkpt>
      <trkpt lat="59.3875678833" lon="17.8784823942">
        <ele>0</ele>
        <time>2013-05-03T20:07:10Z</time>
      </trkpt>
      <trkpt lat="59.3875871616" lon="17.8783446796">
        <ele>0</ele>
        <time>2013-05-03T20:07:11Z</time>
      </trkpt>
      <trkpt lat="59.3876077811" lon="17.87821761">
        <ele>0</ele>
        <time>2013-05-03T20:07:12Z</time>
      </trkpt>
      <trkpt lat="59.3876233714" lon="17.8780894507">
        <ele>0</ele>
        <time>2013-05-03T20:07:13Z</time>
      </trkpt>
      <trkpt lat="59.3876361119" lon="17.8779560109">
        <ele>0</ele>
        <time>2013-05-03T20:07:14Z</time>
      </trkpt>
      <trkpt lat="59.3876506964" lon="17.8778241636">
        <ele>0</ele>
        <time>2013-05-03T20:07:15Z</time>
      </trkpt>
      <trkpt lat="59.3876687175" lon="17.8776984351">
        <ele>0</ele>
        <time>2013-05-03T20:07:16Z</time>
      </trkpt>
      <trkpt lat="59.3877587391" lon="17.8773688588">
        <ele>0</ele>
        <time>2013-05-03T20:07:19Z</time>
      </trkpt>
      <trkpt lat="59.3877969606" lon="17.8772782504">
        <ele>0</ele>
        <time>2013-05-03T20:07:20Z</time>
      </trkpt>
      <trkpt lat="59.3879568034" lon="17.8769106203">
        <ele>0</ele>
        <time>2013-05-03T20:07:24Z</time>
      </trkpt>
      <trkpt lat="59.3881407023" lon="17.8764636136">
        <ele>0</ele>
        <time>2013-05-03T20:07:29Z</time>
      </trkpt>
      <trkpt lat="59.3881805163" lon="17.8763574149">
        <ele>0</ele>
        <time>2013-05-03T20:07:30Z</time>
      </trkpt>
      <trkpt lat="59.3882163071" lon="17.8762537308">
        <ele>0</ele>
        <time>2013-05-03T20:07:31Z</time>
      </trkpt>
      <trkpt lat="59.3882484097" lon="17.8761517231">
        <ele>0</ele>
        <time>2013-05-03T20:07:32Z</time>
      </trkpt>
      <trkpt lat="59.3882823564" lon="17.8760475361">
        <ele>0</ele>
        <time>2013-05-03T20:07:33Z</time>
      </trkpt>
      <trkpt lat="59.3883187339" lon="17.8759399125">
        <ele>0</ele>
        <time>2013-05-03T20:07:34Z</time>
      </trkpt>
      <trkpt lat="59.3883525967" lon="17.8758376533">
        <ele>0</ele>
        <time>2013-05-03T20:07:35Z</time>
      </trkpt>
      <trkpt lat="59.3883856214" lon="17.8757357294">
        <ele>0</ele>
        <time>2013-05-03T20:07:36Z</time>
      </trkpt>
      <trkpt lat="59.3884210769" lon="17.8756369906">
        <ele>0</ele>
        <time>2013-05-03T20:07:37Z</time>
      </trkpt>
      <trkpt lat="59.3886220748" lon="17.8751206656">
        <ele>0</ele>
        <time>2013-05-03T20:07:42Z</time>
      </trkpt>
      <trkpt lat="59.3888678321" lon="17.8744772709">
        <ele>0</ele>
        <time>2013-05-03T20:07:48Z</time>
      </trkpt>
      <trkpt lat="59.3891694967" lon="17.8736784758">
        <ele>0</ele>
        <time>2013-05-03T20:07:55Z</time>
      </trkpt>
      <trkpt lat="59.3893031042" lon="17.8733608018">
        <ele>0</ele>
        <time>2013-05-03T20:07:58Z</time>
      </trkpt>
      <trkpt lat="59.3893471092" lon="17.8732603867">
        <ele>0</ele>
        <time>2013-05-03T20:07:59Z</time>
      </trkpt>
      <trkpt lat="59.3893927067" lon="17.8731599715">
        <ele>0</ele>
        <time>2013-05-03T20:08:00Z</time>
      </trkpt>
      <trkpt lat="59.3894421599" lon="17.8730632444">
        <ele>0</ele>
        <time>2013-05-03T20:08:01Z</time>
      </trkpt>
      <trkpt lat="59.3894937086" lon="17.8729635836">
        <ele>0</ele>
        <time>2013-05-03T20:08:02Z</time>
      </trkpt>
      <trkpt lat="59.389739885" lon="17.8725942771">
        <ele>0</ele>
        <time>2013-05-03T20:08:06Z</time>
      </trkpt>
      <trkpt lat="59.3900945232" lon="17.8722346936">
        <ele>0</ele>
        <time>2013-05-03T20:08:11Z</time>
      </trkpt>
      <trkpt lat="59.3904963515" lon="17.8719968153">
        <ele>0</ele>
        <time>2013-05-03T20:08:16Z</time>
      </trkpt>
      <trkpt lat="59.3910684162" lon="17.8716792251">
        <ele>0</ele>
        <time>2013-05-03T20:08:23Z</time>
      </trkpt>
      <trkpt lat="59.3911469546" lon="17.8716297719">
        <ele>0</ele>
        <time>2013-05-03T20:08:24Z</time>
      </trkpt>
      <trkpt lat="59.3915308456" lon="17.8712950826">
        <ele>0</ele>
        <time>2013-05-03T20:08:29Z</time>
      </trkpt>
      <trkpt lat="59.3915958891" lon="17.8711997804">
        <ele>0</ele>
        <time>2013-05-03T20:08:30Z</time>
      </trkpt>
      <trkpt lat="59.3918589132" lon="17.8707157257">
        <ele>0</ele>
        <time>2013-05-03T20:08:35Z</time>
      </trkpt>
      <trkpt lat="59.3919634354" lon="17.870468292">
        <ele>0</ele>
        <time>2013-05-03T20:08:38Z</time>
      </trkpt>
      <trkpt lat="59.3921390363" lon="17.8700725825">
        <ele>0</ele>
        <time>2013-05-03T20:09:19Z</time>
      </trkpt>
      <trkpt lat="59.3921638467" lon="17.8700067846">
        <ele>0</ele>
        <time>2013-05-03T20:09:20Z</time>
      </trkpt>
      <trkpt lat="59.39228178" lon="17.8697456046">
        <ele>0</ele>
        <time>2013-05-03T20:09:23Z</time>
      </trkpt>
      <trkpt lat="59.3925804271" lon="17.8690228333">
        <ele>0</ele>
        <time>2013-05-03T20:09:29Z</time>
      </trkpt>
      <trkpt lat="59.3929637314" lon="17.8680948732">
        <ele>0</ele>
        <time>2013-05-03T20:09:36Z</time>
      </trkpt>
      <trkpt lat="59.3930184652" lon="17.8679551469">
        <ele>0</ele>
        <time>2013-05-03T20:09:37Z</time>
      </trkpt>
      <trkpt lat="59.3933166932" lon="17.8670487282">
        <ele>0</ele>
        <time>2013-05-03T20:09:43Z</time>
      </trkpt>
      <trkpt lat="59.3934658072" lon="17.8662486759">
        <ele>0</ele>
        <time>2013-05-03T20:09:48Z</time>
      </trkpt>
      <trkpt lat="59.393650209" lon="17.8651935623">
        <ele>0</ele>
        <time>2013-05-03T20:09:55Z</time>
      </trkpt>
      <trkpt lat="59.3936748518" lon="17.8650447836">
        <ele>0</ele>
        <time>2013-05-03T20:09:56Z</time>
      </trkpt>
      <trkpt lat="59.3938619358" lon="17.8640034163">
        <ele>0</ele>
        <time>2013-05-03T20:10:03Z</time>
      </trkpt>
      <trkpt lat="59.3939180107" lon="17.8637084573">
        <ele>0</ele>
        <time>2013-05-03T20:10:05Z</time>
      </trkpt>
      <trkpt lat="59.3941414722" lon="17.8623729691">
        <ele>0</ele>
        <time>2013-05-03T20:10:14Z</time>
      </trkpt>
      <trkpt lat="59.3942769237" lon="17.8612869263">
        <ele>0</ele>
        <time>2013-05-03T20:10:21Z</time>
      </trkpt>
      <trkpt lat="59.3943199228" lon="17.8608257542">
        <ele>0</ele>
        <time>2013-05-03T20:10:24Z</time>
      </trkpt>
      <trkpt lat="59.3943336691" lon="17.8606690127">
        <ele>0</ele>
        <time>2013-05-03T20:10:25Z</time>
      </trkpt>
      <trkpt lat="59.3943472478" lon="17.8605112653">
        <ele>0</ele>
        <time>2013-05-03T20:10:26Z</time>
      </trkpt>
      <trkpt lat="59.394362" lon="17.8603521769">
        <ele>0</ele>
        <time>2013-05-03T20:10:27Z</time>
      </trkpt>
      <trkpt lat="59.3943755786" lon="17.8601896518">
        <ele>0</ele>
        <time>2013-05-03T20:10:28Z</time>
      </trkpt>
      <trkpt lat="59.3944315697" lon="17.8592264039">
        <ele>0</ele>
        <time>2013-05-03T20:10:34Z</time>
      </trkpt>
      <trkpt lat="59.3944665222" lon="17.8582975217">
        <ele>0</ele>
        <time>2013-05-03T20:10:40Z</time>
      </trkpt>
      <trkpt lat="59.3944738983" lon="17.8581500003">
        <ele>0</ele>
        <time>2013-05-03T20:10:41Z</time>
      </trkpt>
      <trkpt lat="59.3944818611" lon="17.8580067536">
        <ele>0</ele>
        <time>2013-05-03T20:10:42Z</time>
      </trkpt>
      <trkpt lat="59.3944886505" lon="17.8578706315">
        <ele>0</ele>
        <time>2013-05-03T20:10:43Z</time>
      </trkpt>
      <trkpt lat="59.3944979544" lon="17.8577387843">
        <ele>0</ele>
        <time>2013-05-03T20:10:44Z</time>
      </trkpt>
      <trkpt lat="59.3945117845" lon="17.8576316636">
        <ele>0</ele>
        <time>2013-05-03T20:10:45Z</time>
      </trkpt>
      <trkpt lat="59.3945363435" lon="17.857480957">
        <ele>0</ele>
        <time>2013-05-03T20:10:47Z</time>
      </trkpt>
      <trkpt lat="59.3947691927" lon="17.8570314357">
        <ele>0</ele>
        <time>2013-05-03T20:11:49Z</time>
      </trkpt>
      <trkpt lat="59.3948030555" lon="17.8569629556">
        <ele>0</ele>
        <time>2013-05-03T20:11:50Z</time>
      </trkpt>
      <trkpt lat="59.3948815939" lon="17.8568207148">
        <ele>0</ele>
        <time>2013-05-03T20:11:52Z</time>
      </trkpt>
      <trkpt lat="59.3949866191" lon="17.8566371511">
        <ele>0</ele>
        <time>2013-05-03T20:11:54Z</time>
      </trkpt>
      <trkpt lat="59.3953407544" lon="17.8560800901">
        <ele>0</ele>
        <time>2013-05-03T20:12:00Z</time>
      </trkpt>
      <trkpt lat="59.3957487853" lon="17.8554983024">
        <ele>0</ele>
        <time>2013-05-03T20:12:06Z</time>
      </trkpt>
      <trkpt lat="59.396215238" lon="17.8548252358">
        <ele>0</ele>
        <time>2013-05-03T20:12:13Z</time>
      </trkpt>
      <trkpt lat="59.3962826285" lon="17.8547320291">
        <ele>0</ele>
        <time>2013-05-03T20:12:14Z</time>
      </trkpt>
      <trkpt lat="59.396756625" lon="17.8540662548">
        <ele>0</ele>
        <time>2013-05-03T20:12:21Z</time>
      </trkpt>
      <trkpt lat="59.3971816711" lon="17.8534405459">
        <ele>0</ele>
        <time>2013-05-03T20:12:28Z</time>
      </trkpt>
      <trkpt lat="59.397557767" lon="17.8528412401">
        <ele>0</ele>
        <time>2013-05-03T20:12:34Z</time>
      </trkpt>
      <trkpt lat="59.3979718328" lon="17.8520856956">
        <ele>0</ele>
        <time>2013-05-03T20:12:41Z</time>
      </trkpt>
      <trkpt lat="59.398420935" lon="17.8514261239">
        <ele>0</ele>
        <time>2013-05-03T20:12:48Z</time>
      </trkpt>
      <trkpt lat="59.3987422971" lon="17.8509873314">
        <ele>0</ele>
        <time>2013-05-03T20:12:53Z</time>
      </trkpt>
      <trkpt lat="59.3991837717" lon="17.8503013567">
        <ele>0</ele>
        <time>2013-05-03T20:13:00Z</time>
      </trkpt>
      <trkpt lat="59.3995187125" lon="17.8496598061">
        <ele>0</ele>
        <time>2013-05-03T20:13:06Z</time>
      </trkpt>
      <trkpt lat="59.3997616199" lon="17.8490665352">
        <ele>0</ele>
        <time>2013-05-03T20:13:11Z</time>
      </trkpt>
      <trkpt lat="59.4000476942" lon="17.8482916286">
        <ele>0</ele>
        <time>2013-05-03T20:13:17Z</time>
      </trkpt>
      <trkpt lat="59.4003644462" lon="17.8474234314">
        <ele>0</ele>
        <time>2013-05-03T20:13:24Z</time>
      </trkpt>
      <trkpt lat="59.4004123906" lon="17.8472917517">
        <ele>0</ele>
        <time>2013-05-03T20:13:25Z</time>
      </trkpt>
      <trkpt lat="59.4007858881" lon="17.8463286714">
        <ele>0</ele>
        <time>2013-05-03T20:13:33Z</time>
      </trkpt>
      <trkpt lat="59.4011360001" lon="17.8454813452">
        <ele>0</ele>
        <time>2013-05-03T20:13:40Z</time>
      </trkpt>
      <trkpt lat="59.4011915721" lon="17.845358718">
        <ele>0</ele>
        <time>2013-05-03T20:13:41Z</time>
      </trkpt>
      <trkpt lat="59.4014881237" lon="17.8446966317">
        <ele>0</ele>
        <time>2013-05-03T20:13:47Z</time>
      </trkpt>
      <trkpt lat="59.4018013553" lon="17.844050471">
        <ele>0</ele>
        <time>2013-05-03T20:13:53Z</time>
      </trkpt>
      <trkpt lat="59.4018624593" lon="17.8439590245">
        <ele>0</ele>
        <time>2013-05-03T20:13:54Z</time>
      </trkpt>
      <trkpt lat="59.4020435084" lon="17.8436691784">
        <ele>0</ele>
        <time>2013-05-03T20:13:57Z</time>
      </trkpt>
      <trkpt lat="59.4021091387" lon="17.8434130275">
        <ele>0</ele>
        <time>2013-05-03T20:13:59Z</time>
      </trkpt>
      <trkpt lat="59.4021392297" lon="17.8432725469">
        <ele>0</ele>
        <time>2013-05-03T20:14:00Z</time>
      </trkpt>
      <trkpt lat="59.4021774512" lon="17.8431436332">
        <ele>0</ele>
        <time>2013-05-03T20:14:01Z</time>
      </trkpt>
      <trkpt lat="59.4022117331" lon="17.8430257837">
        <ele>0</ele>
        <time>2013-05-03T20:14:02Z</time>
      </trkpt>
      <trkpt lat="59.4022523853" lon="17.8429148074">
        <ele>0</ele>
        <time>2013-05-03T20:14:03Z</time>
      </trkpt>
      <trkpt lat="59.4023003298" lon="17.8428107042">
        <ele>0</ele>
        <time>2013-05-03T20:14:04Z</time>
      </trkpt>
      <trkpt lat="59.402446091" lon="17.8425698084">
        <ele>0</ele>
        <time>2013-05-03T20:14:07Z</time>
      </trkpt>
      <trkpt lat="59.4025534632" lon="17.8424503663">
        <ele>0</ele>
        <time>2013-05-03T20:14:09Z</time>
      </trkpt>
      <trkpt lat="59.4026416408" lon="17.8423960516">
        <ele>0</ele>
        <time>2013-05-03T20:14:10Z</time>
      </trkpt>
      <trkpt lat="59.4029018988" lon="17.8424465106">
        <ele>0</ele>
        <time>2013-05-03T20:14:13Z</time>
      </trkpt>
      <trkpt lat="59.4029764139" lon="17.8424584967">
        <ele>0</ele>
        <time>2013-05-03T20:14:14Z</time>
      </trkpt>
      <trkpt lat="59.4030455645" lon="17.8424673816">
        <ele>0</ele>
        <time>2013-05-03T20:14:15Z</time>
      </trkpt>
      <trkpt lat="59.4031136256" lon="17.8424820499">
        <ele>0</ele>
        <time>2013-05-03T20:14:16Z</time>
      </trkpt>
      <trkpt lat="59.4031834468" lon="17.8424751767">
        <ele>0</ele>
        <time>2013-05-03T20:14:17Z</time>
      </trkpt>
      <trkpt lat="59.4032585486" lon="17.8424497796">
        <ele>0</ele>
        <time>2013-05-03T20:14:18Z</time>
      </trkpt>
      <trkpt lat="59.4036343092" lon="17.842303264">
        <ele>0</ele>
        <time>2013-05-03T20:14:23Z</time>
      </trkpt>
      <trkpt lat="59.4040031128" lon="17.84202817">
        <ele>0</ele>
        <time>2013-05-03T20:14:28Z</time>
      </trkpt>
      <trkpt lat="59.4040757" lon="17.8419596899">
        <ele>0</ele>
        <time>2013-05-03T20:14:29Z</time>
      </trkpt>
      <trkpt lat="59.4041485388" lon="17.8418954845">
        <ele>0</ele>
        <time>2013-05-03T20:14:30Z</time>
      </trkpt>
      <trkpt lat="59.4042252331" lon="17.8418275073">
        <ele>0</ele>
        <time>2013-05-03T20:14:31Z</time>
      </trkpt>
      <trkpt lat="59.4043010055" lon="17.8417636372">
        <ele>0</ele>
        <time>2013-05-03T20:14:32Z</time>
      </trkpt>
      <trkpt lat="59.4045354473" lon="17.8415600409">
        <ele>0</ele>
        <time>2013-05-03T20:14:35Z</time>
      </trkpt>
      <trkpt lat="59.4046091242" lon="17.8414906387">
        <ele>0</ele>
        <time>2013-05-03T20:14:36Z</time>
      </trkpt>
      <trkpt lat="59.4046874111" lon="17.8414240026">
        <ele>0</ele>
        <time>2013-05-03T20:14:37Z</time>
      </trkpt>
      <trkpt lat="59.4047619262" lon="17.8413607193">
        <ele>0</ele>
        <time>2013-05-03T20:14:38Z</time>
      </trkpt>
      <trkpt lat="59.4048284785" lon="17.8412929935">
        <ele>0</ele>
        <time>2013-05-03T20:14:39Z</time>
      </trkpt>
      <trkpt lat="59.4049609125" lon="17.8411743058">
        <ele>0</ele>
        <time>2013-05-03T20:14:41Z</time>
      </trkpt>
      <trkpt lat="59.4050994653" lon="17.8410423747">
        <ele>0</ele>
        <time>2013-05-03T20:14:43Z</time>
      </trkpt>
      <trkpt lat="59.4051635868" lon="17.8409671891">
        <ele>0</ele>
        <time>2013-05-03T20:14:44Z</time>
      </trkpt>
      <trkpt lat="59.4052303906" lon="17.8408989604">
        <ele>0</ele>
        <time>2013-05-03T20:14:45Z</time>
      </trkpt>
      <trkpt lat="59.4052919137" lon="17.8408464059">
        <ele>0</ele>
        <time>2013-05-03T20:14:46Z</time>
      </trkpt>
      <trkpt lat="59.4053536045" lon="17.8407935999">
        <ele>0</ele>
        <time>2013-05-03T20:14:47Z</time>
      </trkpt>
      <trkpt lat="59.4056838514" lon="17.8404762612">
        <ele>0</ele>
        <time>2013-05-03T20:14:52Z</time>
      </trkpt>
      <trkpt lat="59.4061213027" lon="17.8400750197">
        <ele>0</ele>
        <time>2013-05-03T20:14:59Z</time>
      </trkpt>
      <trkpt lat="59.4064062873" lon="17.8396971636">
        <ele>0</ele>
        <time>2013-05-03T20:15:04Z</time>
      </trkpt>
      <trkpt lat="59.4064545671" lon="17.839614099">
        <ele>0</ele>
        <time>2013-05-03T20:15:05Z</time>
      </trkpt>
      <trkpt lat="59.4066647013" lon="17.8392457983">
        <ele>0</ele>
        <time>2013-05-03T20:15:08Z</time>
      </trkpt>
      <trkpt lat="59.4067403061" lon="17.8391691039">
        <ele>0</ele>
        <time>2013-05-03T20:15:10Z</time>
      </trkpt>
      <trkpt lat="59.4069591575" lon="17.8389448043">
        <ele>0</ele>
        <time>2013-05-03T20:15:13Z</time>
      </trkpt>
      <trkpt lat="59.4070915077" lon="17.8388785034">
        <ele>0</ele>
        <time>2013-05-03T20:15:15Z</time>
      </trkpt>
      <trkpt lat="59.4071587305" lon="17.8389230951">
        <ele>0</ele>
        <time>2013-05-03T20:15:16Z</time>
      </trkpt>
      <trkpt lat="59.407317819" lon="17.8390479016">
        <ele>0</ele>
        <time>2013-05-03T20:15:19Z</time>
      </trkpt>
      <trkpt lat="59.4074860437" lon="17.8389275375">
        <ele>0</ele>
        <time>2013-05-03T20:15:22Z</time>
      </trkpt>
      <trkpt lat="59.4077241735" lon="17.8387239412">
        <ele>0</ele>
        <time>2013-05-03T20:15:26Z</time>
      </trkpt>
      <trkpt lat="59.4077817571" lon="17.838659652">
        <ele>0</ele>
        <time>2013-05-03T20:15:27Z</time>
      </trkpt>
      <trkpt lat="59.4078395922" lon="17.8385908366">
        <ele>0</ele>
        <time>2013-05-03T20:15:28Z</time>
      </trkpt>
      <trkpt lat="59.4079027918" lon="17.8385220212">
        <ele>0</ele>
        <time>2013-05-03T20:15:29Z</time>
      </trkpt>
      <trkpt lat="59.4079614651" lon="17.8384454945">
        <ele>0</ele>
        <time>2013-05-03T20:15:30Z</time>
      </trkpt>
      <trkpt lat="59.4080163665" lon="17.8383800318">
        <ele>0</ele>
        <time>2013-05-03T20:15:31Z</time>
      </trkpt>
      <trkpt lat="59.4080746207" lon="17.838308199">
        <ele>0</ele>
        <time>2013-05-03T20:15:32Z</time>
      </trkpt>
      <trkpt lat="59.4081374011" lon="17.8382481007">
        <ele>0</ele>
        <time>2013-05-03T20:15:33Z</time>
      </trkpt>
      <trkpt lat="59.4084687377" lon="17.8380096357">
        <ele>0</ele>
        <time>2013-05-03T20:15:38Z</time>
      </trkpt>
      <trkpt lat="59.40886034" lon="17.8376466156">
        <ele>0</ele>
        <time>2013-05-03T20:15:44Z</time>
      </trkpt>
      <trkpt lat="59.4092039979" lon="17.83720556">
        <ele>0</ele>
        <time>2013-05-03T20:15:50Z</time>
      </trkpt>
      <trkpt lat="59.4094799301" lon="17.8367162247">
        <ele>0</ele>
        <time>2013-05-03T20:15:55Z</time>
      </trkpt>
      <trkpt lat="59.4096993682" lon="17.8361191819">
        <ele>0</ele>
        <time>2013-05-03T20:16:00Z</time>
      </trkpt>
      <trkpt lat="59.4097385955" lon="17.8359849877">
        <ele>0</ele>
        <time>2013-05-03T20:16:01Z</time>
      </trkpt>
      <trkpt lat="59.4099985182" lon="17.8349255994">
        <ele>0</ele>
        <time>2013-05-03T20:16:08Z</time>
      </trkpt>
      <trkpt lat="59.4101627196" lon="17.8339927777">
        <ele>0</ele>
        <time>2013-05-03T20:16:14Z</time>
      </trkpt>
      <trkpt lat="59.4102475445" lon="17.8335410771">
        <ele>0</ele>
        <time>2013-05-03T20:16:17Z</time>
      </trkpt>
      <trkpt lat="59.4102697565" lon="17.833397579">
        <ele>0</ele>
        <time>2013-05-03T20:16:18Z</time>
      </trkpt>
      <trkpt lat="59.4102983388" lon="17.8332489679">
        <ele>0</ele>
        <time>2013-05-03T20:16:19Z</time>
      </trkpt>
      <trkpt lat="59.41032558" lon="17.8331003568">
        <ele>0</ele>
        <time>2013-05-03T20:16:20Z</time>
      </trkpt>
      <trkpt lat="59.4103493007" lon="17.8329602115">
        <ele>0</ele>
        <time>2013-05-03T20:16:21Z</time>
      </trkpt>
      <trkpt lat="59.4103753684" lon="17.8328136959">
        <ele>0</ele>
        <time>2013-05-03T20:16:22Z</time>
      </trkpt>
      <trkpt lat="59.4104001789" lon="17.8326725447">
        <ele>0</ele>
        <time>2013-05-03T20:16:23Z</time>
      </trkpt>
      <trkpt lat="59.4104259113" lon="17.8325341595">
        <ele>0</ele>
        <time>2013-05-03T20:16:24Z</time>
      </trkpt>
      <trkpt lat="59.4104515599" lon="17.8324021446">
        <ele>0</ele>
        <time>2013-05-03T20:16:25Z</time>
      </trkpt>
      <trkpt lat="59.4105528133" lon="17.8318786111">
        <ele>0</ele>
        <time>2013-05-03T20:16:29Z</time>
      </trkpt>
      <trkpt lat="59.4106150908" lon="17.8316425768">
        <ele>0</ele>
        <time>2013-05-03T20:16:31Z</time>
      </trkpt>
      <trkpt lat="59.4107865845" lon="17.8309975058">
        <ele>0</ele>
        <time>2013-05-03T20:16:36Z</time>
      </trkpt>
      <trkpt lat="59.4110667914" lon="17.8302675261">
        <ele>0</ele>
        <time>2013-05-03T20:16:42Z</time>
      </trkpt>
      <trkpt lat="59.411378179" lon="17.8297097945">
        <ele>0</ele>
        <time>2013-05-03T20:16:47Z</time>
      </trkpt>
      <trkpt lat="59.4115188272" lon="17.8294797951">
        <ele>0</ele>
        <time>2013-05-03T20:16:49Z</time>
      </trkpt>
      <trkpt lat="59.4115941805" lon="17.8293797991">
        <ele>0</ele>
        <time>2013-05-03T20:16:50Z</time>
      </trkpt>
      <trkpt lat="59.4116705396" lon="17.8292801383">
        <ele>0</ele>
        <time>2013-05-03T20:16:51Z</time>
      </trkpt>
      <trkpt lat="59.4117521793" lon="17.829184417">
        <ele>0</ele>
        <time>2013-05-03T20:16:52Z</time>
      </trkpt>
      <trkpt lat="59.411843542" lon="17.8290827445">
        <ele>0</ele>
        <time>2013-05-03T20:16:53Z</time>
      </trkpt>
      <trkpt lat="59.412113523" lon="17.82880698">
        <ele>0</ele>
        <time>2013-05-03T20:16:56Z</time>
      </trkpt>
      <trkpt lat="59.4122050534" lon="17.8287366559">
        <ele>0</ele>
        <time>2013-05-03T20:16:57Z</time>
      </trkpt>
      <trkpt lat="59.4122943206" lon="17.8286680919">
        <ele>0</ele>
        <time>2013-05-03T20:16:58Z</time>
      </trkpt>
      <trkpt lat="59.4123880303" lon="17.8286127714">
        <ele>0</ele>
        <time>2013-05-03T20:16:59Z</time>
      </trkpt>
      <trkpt lat="59.4124851765" lon="17.8285577861">
        <ele>0</ele>
        <time>2013-05-03T20:17:00Z</time>
      </trkpt>
      <trkpt lat="59.4127838236" lon="17.8284411939">
        <ele>0</ele>
        <time>2013-05-03T20:17:03Z</time>
      </trkpt>
      <trkpt lat="59.4128890164" lon="17.828403643">
        <ele>0</ele>
        <time>2013-05-03T20:17:04Z</time>
      </trkpt>
      <trkpt lat="59.4129901022" lon="17.8283733843">
        <ele>0</ele>
        <time>2013-05-03T20:17:05Z</time>
      </trkpt>
      <trkpt lat="59.4130937024" lon="17.8283669303">
        <ele>0</ele>
        <time>2013-05-03T20:17:06Z</time>
      </trkpt>
      <trkpt lat="59.4131957102" lon="17.8283427904">
        <ele>0</ele>
        <time>2013-05-03T20:17:07Z</time>
      </trkpt>
      <trkpt lat="59.4133014897" lon="17.828333235">
        <ele>0</ele>
        <time>2013-05-03T20:17:08Z</time>
      </trkpt>
      <trkpt lat="59.4134031622" lon="17.8283145434">
        <ele>0</ele>
        <time>2013-05-03T20:17:09Z</time>
      </trkpt>
      <trkpt lat="59.4135027392" lon="17.8282832789">
        <ele>0</ele>
        <time>2013-05-03T20:17:10Z</time>
      </trkpt>
      <trkpt lat="59.4138012186" lon="17.8282242703">
        <ele>0</ele>
        <time>2013-05-03T20:17:13Z</time>
      </trkpt>
      <trkpt lat="59.4138953473" lon="17.8282125357">
        <ele>0</ele>
        <time>2013-05-03T20:17:14Z</time>
      </trkpt>
      <trkpt lat="59.4139929127" lon="17.8281894855">
        <ele>0</ele>
        <time>2013-05-03T20:17:15Z</time>
      </trkpt>
      <trkpt lat="59.4140926573" lon="17.8281640883">
        <ele>0</ele>
        <time>2013-05-03T20:17:16Z</time>
      </trkpt>
      <trkpt lat="59.4142752989" lon="17.8281288005">
        <ele>0</ele>
        <time>2013-05-03T20:17:18Z</time>
      </trkpt>
      <trkpt lat="59.4145881114" lon="17.8280791797">
        <ele>0</ele>
        <time>2013-05-03T20:17:22Z</time>
      </trkpt>
      <trkpt lat="59.414646617" lon="17.8280815266">
        <ele>0</ele>
        <time>2013-05-03T20:17:23Z</time>
      </trkpt>
      <trkpt lat="59.4146821563" lon="17.8280779224">
        <ele>0</ele>
        <time>2013-05-03T20:17:24Z</time>
      </trkpt>
      <trkpt lat="59.414701267" lon="17.8280718036">
        <ele>0</ele>
        <time>2013-05-03T20:17:25Z</time>
      </trkpt>
      <trkpt lat="59.4148695756" lon="17.8280766651">
        <ele>0</ele>
        <time>2013-05-03T20:17:48Z</time>
      </trkpt>
      <trkpt lat="59.4150774467" lon="17.8280268766">
        <ele>0</ele>
        <time>2013-05-03T20:17:52Z</time>
      </trkpt>
      <trkpt lat="59.4152636087" lon="17.8279730648">
        <ele>0</ele>
        <time>2013-05-03T20:17:55Z</time>
      </trkpt>
      <trkpt lat="59.4153955398" lon="17.8280222665">
        <ele>0</ele>
        <time>2013-05-03T20:17:57Z</time>
      </trkpt>
      <trkpt lat="59.415921504" lon="17.8281755715">
        <ele>0</ele>
        <time>2013-05-03T20:18:04Z</time>
      </trkpt>
      <trkpt lat="59.4163713606" lon="17.8283475681">
        <ele>0</ele>
        <time>2013-05-03T20:18:10Z</time>
      </trkpt>
      <trkpt lat="59.4166597818" lon="17.8285322213">
        <ele>0</ele>
        <time>2013-05-03T20:18:14Z</time>
      </trkpt>
      <trkpt lat="59.416727759" lon="17.8285756396">
        <ele>0</ele>
        <time>2013-05-03T20:18:15Z</time>
      </trkpt>
      <trkpt lat="59.4170695729" lon="17.8287918926">
        <ele>0</ele>
        <time>2013-05-03T20:18:20Z</time>
      </trkpt>
      <trkpt lat="59.4171436689" lon="17.8288376578">
        <ele>0</ele>
        <time>2013-05-03T20:18:21Z</time>
      </trkpt>
      <trkpt lat="59.4172183516" lon="17.8288840097">
        <ele>0</ele>
        <time>2013-05-03T20:18:22Z</time>
      </trkpt>
      <trkpt lat="59.4172907712" lon="17.8289286014">
        <ele>0</ele>
        <time>2013-05-03T20:18:23Z</time>
      </trkpt>
      <trkpt lat="59.4173600057" lon="17.8289665714">
        <ele>0</ele>
        <time>2013-05-03T20:18:24Z</time>
      </trkpt>
      <trkpt lat="59.4175755882" lon="17.8290870193">
        <ele>0</ele>
        <time>2013-05-03T20:18:27Z</time>
      </trkpt>
      <trkpt lat="59.4180254448" lon="17.8292925435">
        <ele>0</ele>
        <time>2013-05-03T20:18:33Z</time>
      </trkpt>
      <trkpt lat="59.4182519237" lon="17.8291387356">
        <ele>0</ele>
        <time>2013-05-03T20:18:36Z</time>
      </trkpt>
      <trkpt lat="59.4183364132" lon="17.8291192896">
        <ele>0</ele>
        <time>2013-05-03T20:18:37Z</time>
      </trkpt>
      <trkpt lat="59.4185120979" lon="17.8291822377">
        <ele>0</ele>
        <time>2013-05-03T20:18:39Z</time>
      </trkpt>
      <trkpt lat="59.4187106651" lon="17.8294391429">
        <ele>0</ele>
        <time>2013-05-03T20:18:42Z</time>
      </trkpt>
      <trkpt lat="59.4188101582" lon="17.8296204434">
        <ele>0</ele>
        <time>2013-05-03T20:18:44Z</time>
      </trkpt>
      <trkpt lat="59.418866317" lon="17.8296929469">
        <ele>0</ele>
        <time>2013-05-03T20:18:45Z</time>
      </trkpt>
      <trkpt lat="59.418928343" lon="17.8297393826">
        <ele>0</ele>
        <time>2013-05-03T20:18:46Z</time>
      </trkpt>
      <trkpt lat="59.4189929675" lon="17.8297843096">
        <ele>0</ele>
        <time>2013-05-03T20:18:47Z</time>
      </trkpt>
      <trkpt lat="59.4190601903" lon="17.829827644">
        <ele>0</ele>
        <time>2013-05-03T20:18:48Z</time>
      </trkpt>
      <trkpt lat="59.4191271617" lon="17.8298655302">
        <ele>0</ele>
        <time>2013-05-03T20:18:49Z</time>
      </trkpt>
      <trkpt lat="59.4191945522" lon="17.8299084455">
        <ele>0</ele>
        <time>2013-05-03T20:18:50Z</time>
      </trkpt>
      <trkpt lat="59.4192575002" lon="17.8299465832">
        <ele>0</ele>
        <time>2013-05-03T20:18:51Z</time>
      </trkpt>
      <trkpt lat="59.419313659" lon="17.8299945276">
        <ele>0</ele>
        <time>2013-05-03T20:18:52Z</time>
      </trkpt>
      <trkpt lat="59.4196944487" lon="17.8302200007">
        <ele>0</ele>
        <time>2013-05-03T20:18:58Z</time>
      </trkpt>
      <trkpt lat="59.419759576" lon="17.8302706274">
        <ele>0</ele>
        <time>2013-05-03T20:18:59Z</time>
      </trkpt>
      <trkpt lat="59.4198628411" lon="17.8304355832">
        <ele>0</ele>
        <time>2013-05-03T20:19:01Z</time>
      </trkpt>
      <trkpt lat="59.4200090214" lon="17.830695003">
        <ele>0</ele>
        <time>2013-05-03T20:19:04Z</time>
      </trkpt>
      <trkpt lat="59.4200762442" lon="17.8307400138">
        <ele>0</ele>
        <time>2013-05-03T20:19:05Z</time>
      </trkpt>
      <trkpt lat="59.4204289546" lon="17.8309458733">
        <ele>0</ele>
        <time>2013-05-03T20:19:10Z</time>
      </trkpt>
      <trkpt lat="59.4205038049" lon="17.8309863578">
        <ele>0</ele>
        <time>2013-05-03T20:19:11Z</time>
      </trkpt>
      <trkpt lat="59.4205766437" lon="17.831030279">
        <ele>0</ele>
        <time>2013-05-03T20:19:12Z</time>
      </trkpt>
      <trkpt lat="59.4206524999" lon="17.8310844261">
        <ele>0</ele>
        <time>2013-05-03T20:19:13Z</time>
      </trkpt>
      <trkpt lat="59.4207270149" lon="17.8311337116">
        <ele>0</ele>
        <time>2013-05-03T20:19:14Z</time>
      </trkpt>
      <trkpt lat="59.4210275899" lon="17.8313746075">
        <ele>0</ele>
        <time>2013-05-03T20:19:18Z</time>
      </trkpt>
      <trkpt lat="59.4213957229" lon="17.831666549">
        <ele>0</ele>
        <time>2013-05-03T20:19:23Z</time>
      </trkpt>
      <trkpt lat="59.4214710762" lon="17.8317080394">
        <ele>0</ele>
        <time>2013-05-03T20:19:24Z</time>
      </trkpt>
      <trkpt lat="59.4218895845" lon="17.8318123103">
        <ele>0</ele>
        <time>2013-05-03T20:19:29Z</time>
      </trkpt>
      <trkpt lat="59.4224986133" lon="17.8317793694">
        <ele>0</ele>
        <time>2013-05-03T20:19:36Z</time>
      </trkpt>
      <trkpt lat="59.4225885511" lon="17.8317745079">
        <ele>0</ele>
        <time>2013-05-03T20:19:37Z</time>
      </trkpt>
      <trkpt lat="59.4231677404" lon="17.8317831413">
        <ele>0</ele>
        <time>2013-05-03T20:19:43Z</time>
      </trkpt>
      <trkpt lat="59.4237424035" lon="17.8317630247">
        <ele>0</ele>
        <time>2013-05-03T20:19:49Z</time>
      </trkpt>
      <trkpt lat="59.4240390389" lon="17.8317218696">
        <ele>0</ele>
        <time>2013-05-03T20:19:52Z</time>
      </trkpt>
      <trkpt lat="59.4245976925" lon="17.8317595043">
        <ele>0</ele>
        <time>2013-05-03T20:19:58Z</time>
      </trkpt>
      <trkpt lat="59.4246885523" lon="17.8317514577">
        <ele>0</ele>
        <time>2013-05-03T20:19:59Z</time>
      </trkpt>
      <trkpt lat="59.4252253292" lon="17.831690186">
        <ele>0</ele>
        <time>2013-05-03T20:20:05Z</time>
      </trkpt>
      <trkpt lat="59.4254197055" lon="17.8316715782">
        <ele>0</ele>
        <time>2013-05-03T20:20:07Z</time>
      </trkpt>
      <trkpt lat="59.4259626011" lon="17.8316163415">
        <ele>0</ele>
        <time>2013-05-03T20:20:13Z</time>
      </trkpt>
      <trkpt lat="59.426054802" lon="17.8315911119">
        <ele>0</ele>
        <time>2013-05-03T20:20:14Z</time>
      </trkpt>
      <trkpt lat="59.4265574646" lon="17.8313403255">
        <ele>0</ele>
        <time>2013-05-03T20:20:20Z</time>
      </trkpt>
      <trkpt lat="59.4271334688" lon="17.8309562668">
        <ele>0</ele>
        <time>2013-05-03T20:20:27Z</time>
      </trkpt>
      <trkpt lat="59.4276796334" lon="17.8304868804">
        <ele>0</ele>
        <time>2013-05-03T20:20:34Z</time>
      </trkpt>
      <trkpt lat="59.4279911886" lon="17.830043897">
        <ele>0</ele>
        <time>2013-05-03T20:20:39Z</time>
      </trkpt>
      <trkpt lat="59.4282291507" lon="17.8296420687">
        <ele>0</ele>
        <time>2013-05-03T20:20:43Z</time>
      </trkpt>
      <trkpt lat="59.428598122" lon="17.8289468739">
        <ele>0</ele>
        <time>2013-05-03T20:20:50Z</time>
      </trkpt>
      <trkpt lat="59.4287513431" lon="17.8285380887">
        <ele>0</ele>
        <time>2013-05-03T20:20:54Z</time>
      </trkpt>
      <trkpt lat="59.4287820208" lon="17.8284431217">
        <ele>0</ele>
        <time>2013-05-03T20:20:55Z</time>
      </trkpt>
      <trkpt lat="59.4288890577" lon="17.8283857896">
        <ele>0</ele>
        <time>2013-05-03T20:20:57Z</time>
      </trkpt>
      <trkpt lat="59.4290466374" lon="17.8285822613">
        <ele>0</ele>
        <time>2013-05-03T20:21:00Z</time>
      </trkpt>
      <trkpt lat="59.4291596254" lon="17.8289627995">
        <ele>0</ele>
        <time>2013-05-03T20:21:03Z</time>
      </trkpt>
      <trkpt lat="59.429373783" lon="17.82956462">
        <ele>0</ele>
        <time>2013-05-03T20:21:08Z</time>
      </trkpt>
      <trkpt lat="59.4294561771" lon="17.8298532088">
        <ele>0</ele>
        <time>2013-05-03T20:21:10Z</time>
      </trkpt>
      <trkpt lat="59.4294968293" lon="17.8300017361">
        <ele>0</ele>
        <time>2013-05-03T20:21:11Z</time>
      </trkpt>
      <trkpt lat="59.4295273394" lon="17.8301514368">
        <ele>0</ele>
        <time>2013-05-03T20:21:12Z</time>
      </trkpt>
      <trkpt lat="59.4295712605" lon="17.8302739802">
        <ele>0</ele>
        <time>2013-05-03T20:21:13Z</time>
      </trkpt>
      <trkpt lat="59.4296073865" lon="17.8303951824">
        <ele>0</ele>
        <time>2013-05-03T20:21:14Z</time>
      </trkpt>
      <trkpt lat="59.4296934687" lon="17.8305568693">
        <ele>0</ele>
        <time>2013-05-03T20:21:16Z</time>
      </trkpt>
      <trkpt lat="59.429742838" lon="17.8306216614">
        <ele>0</ele>
        <time>2013-05-03T20:21:17Z</time>
      </trkpt>
      <trkpt lat="59.4298553231" lon="17.8309541714">
        <ele>0</ele>
        <time>2013-05-03T20:21:20Z</time>
      </trkpt>
      <trkpt lat="59.4298908624" lon="17.831087695">
        <ele>0</ele>
        <time>2013-05-03T20:21:21Z</time>
      </trkpt>
      <trkpt lat="59.4300246375" lon="17.8315626135">
        <ele>0</ele>
        <time>2013-05-03T20:21:25Z</time>
      </trkpt>
      <trkpt lat="59.4301183472" lon="17.8318317563">
        <ele>0</ele>
        <time>2013-05-03T20:21:28Z</time>
      </trkpt>
      <trkpt lat="59.4301801218" lon="17.8318472628">
        <ele>0</ele>
        <time>2013-05-03T20:21:29Z</time>
      </trkpt>
      <trkpt lat="59.4304501866" lon="17.8318125617">
        <ele>0</ele>
        <time>2013-05-03T20:21:33Z</time>
      </trkpt>
      <trkpt lat="59.4306013122" lon="17.831731844">
        <ele>0</ele>
        <time>2013-05-03T20:21:35Z</time>
      </trkpt>
      <trkpt lat="59.4306792639" lon="17.8316740927">
        <ele>0</ele>
        <time>2013-05-03T20:21:36Z</time>
      </trkpt>
      <trkpt lat="59.4307583052" lon="17.8316039362">
        <ele>0</ele>
        <time>2013-05-03T20:21:37Z</time>
      </trkpt>
      <trkpt lat="59.4308429624" lon="17.8315318519">
        <ele>0</ele>
        <time>2013-05-03T20:21:38Z</time>
      </trkpt>
      <trkpt lat="59.4309234287" lon="17.8314532297">
        <ele>0</ele>
        <time>2013-05-03T20:21:39Z</time>
      </trkpt>
      <trkpt lat="59.4311917333" lon="17.8311267547">
        <ele>0</ele>
        <time>2013-05-03T20:21:43Z</time>
      </trkpt>
      <trkpt lat="59.4313291964" lon="17.8309338872">
        <ele>0</ele>
        <time>2013-05-03T20:21:45Z</time>
      </trkpt>
      <trkpt lat="59.4315225669" lon="17.83060934">
        <ele>0</ele>
        <time>2013-05-03T20:21:48Z</time>
      </trkpt>
      <trkpt lat="59.4320056996" lon="17.8299320825">
        <ele>0</ele>
        <time>2013-05-03T20:21:55Z</time>
      </trkpt>
      <trkpt lat="59.4325019081" lon="17.8293627838">
        <ele>0</ele>
        <time>2013-05-03T20:22:02Z</time>
      </trkpt>
      <trkpt lat="59.4325698853" lon="17.829293214">
        <ele>0</ele>
        <time>2013-05-03T20:22:03Z</time>
      </trkpt>
      <trkpt lat="59.4329935903" lon="17.8289016117">
        <ele>0</ele>
        <time>2013-05-03T20:22:09Z</time>
      </trkpt>
      <trkpt lat="59.4330665967" lon="17.8288410944">
        <ele>0</ele>
        <time>2013-05-03T20:22:10Z</time>
      </trkpt>
      <trkpt lat="59.4331411118" lon="17.8287860253">
        <ele>0</ele>
        <time>2013-05-03T20:22:11Z</time>
      </trkpt>
      <trkpt lat="59.4332131123" lon="17.8287351471">
        <ele>0</ele>
        <time>2013-05-03T20:22:12Z</time>
      </trkpt>
      <trkpt lat="59.4332837717" lon="17.82868846">
        <ele>0</ele>
        <time>2013-05-03T20:22:13Z</time>
      </trkpt>
      <trkpt lat="59.4333530062" lon="17.8286592909">
        <ele>0</ele>
        <time>2013-05-03T20:22:14Z</time>
      </trkpt>
      <trkpt lat="59.4335615479" lon="17.8285942474">
        <ele>0</ele>
        <time>2013-05-03T20:22:17Z</time>
      </trkpt>
      <trkpt lat="59.4339167728" lon="17.8285672577">
        <ele>0</ele>
        <time>2013-05-03T20:22:22Z</time>
      </trkpt>
      <trkpt lat="59.4339921261" lon="17.8285602169">
        <ele>0</ele>
        <time>2013-05-03T20:22:23Z</time>
      </trkpt>
      <trkpt lat="59.4340725923" lon="17.8285469735">
        <ele>0</ele>
        <time>2013-05-03T20:22:24Z</time>
      </trkpt>
      <trkpt lat="59.4341455987" lon="17.8285207381">
        <ele>0</ele>
        <time>2013-05-03T20:22:25Z</time>
      </trkpt>
      <trkpt lat="59.4342257296" lon="17.8284755597">
        <ele>0</ele>
        <time>2013-05-03T20:22:26Z</time>
      </trkpt>
      <trkpt lat="59.4343040166" lon="17.8284546888">
        <ele>0</ele>
        <time>2013-05-03T20:22:27Z</time>
      </trkpt>
      <trkpt lat="59.4346207686" lon="17.8284210774">
        <ele>0</ele>
        <time>2013-05-03T20:22:31Z</time>
      </trkpt>
      <trkpt lat="59.4346946969" lon="17.828418479">
        <ele>0</ele>
        <time>2013-05-03T20:22:32Z</time>
      </trkpt>
      <trkpt lat="59.4347690444" lon="17.8284188981">
        <ele>0</ele>
        <time>2013-05-03T20:22:33Z</time>
      </trkpt>
      <trkpt lat="59.4348470799" lon="17.8284157129">
        <ele>0</ele>
        <time>2013-05-03T20:22:34Z</time>
      </trkpt>
      <trkpt lat="59.4349929249" lon="17.8284424512">
        <ele>0</ele>
        <time>2013-05-03T20:22:36Z</time>
      </trkpt>
      <trkpt lat="59.4350587228" lon="17.828519397">
        <ele>0</ele>
        <time>2013-05-03T20:22:37Z</time>
      </trkpt>
      <trkpt lat="59.4351756503" lon="17.8286696007">
        <ele>0</ele>
        <time>2013-05-03T20:22:39Z</time>
      </trkpt>
      <trkpt lat="59.4352481538" lon="17.8287187186">
        <ele>0</ele>
        <time>2013-05-03T20:22:40Z</time>
      </trkpt>
      <trkpt lat="59.4353190647" lon="17.8287369073">
        <ele>0</ele>
        <time>2013-05-03T20:22:41Z</time>
      </trkpt>
      <trkpt lat="59.4353904784" lon="17.8287214846">
        <ele>0</ele>
        <time>2013-05-03T20:22:42Z</time>
      </trkpt>
      <trkpt lat="59.4354650774" lon="17.8286794075">
        <ele>0</ele>
        <time>2013-05-03T20:22:43Z</time>
      </trkpt>
      <trkpt lat="59.4355382513" lon="17.8286255119">
        <ele>0</ele>
        <time>2013-05-03T20:22:44Z</time>
      </trkpt>
      <trkpt lat="59.4356151134" lon="17.8285747176">
        <ele>0</ele>
        <time>2013-05-03T20:22:45Z</time>
      </trkpt>
      <trkpt lat="59.4358865193" lon="17.8283287088">
        <ele>0</ele>
        <time>2013-05-03T20:22:49Z</time>
      </trkpt>
      <trkpt lat="59.4360839968" lon="17.8281351707">
        <ele>0</ele>
        <time>2013-05-03T20:22:52Z</time>
      </trkpt>
      <trkpt lat="59.436148286" lon="17.82807348">
        <ele>0</ele>
        <time>2013-05-03T20:22:53Z</time>
      </trkpt>
      <trkpt lat="59.4362103959" lon="17.8280072629">
        <ele>0</ele>
        <time>2013-05-03T20:22:54Z</time>
      </trkpt>
      <trkpt lat="59.4362697398" lon="17.827946578">
        <ele>0</ele>
        <time>2013-05-03T20:22:55Z</time>
      </trkpt>
      <trkpt lat="59.4363313467" lon="17.8278751642">
        <ele>0</ele>
        <time>2013-05-03T20:22:56Z</time>
      </trkpt>
      <trkpt lat="59.4365119767" lon="17.8276670416">
        <ele>0</ele>
        <time>2013-05-03T20:22:59Z</time>
      </trkpt>
      <trkpt lat="59.4365751762" lon="17.8276088712">
        <ele>0</ele>
        <time>2013-05-03T20:23:00Z</time>
      </trkpt>
      <trkpt lat="59.4366460871" lon="17.8275585798">
        <ele>0</ele>
        <time>2013-05-03T20:23:01Z</time>
      </trkpt>
      <trkpt lat="59.4367128908" lon="17.8275074503">
        <ele>0</ele>
        <time>2013-05-03T20:23:02Z</time>
      </trkpt>
      <trkpt lat="59.4367847237" lon="17.8274687259">
        <ele>0</ele>
        <time>2013-05-03T20:23:03Z</time>
      </trkpt>
      <trkpt lat="59.4368627592" lon="17.8274523812">
        <ele>0</ele>
        <time>2013-05-03T20:23:04Z</time>
      </trkpt>
      <trkpt lat="59.4370025693" lon="17.8274593381">
        <ele>0</ele>
        <time>2013-05-03T20:23:06Z</time>
      </trkpt>
      <trkpt lat="59.4372207501" lon="17.8275499465">
        <ele>0</ele>
        <time>2013-05-03T20:23:09Z</time>
      </trkpt>
      <trkpt lat="59.4372899846" lon="17.827598813">
        <ele>0</ele>
        <time>2013-05-03T20:23:10Z</time>
      </trkpt>
      <trkpt lat="59.4376546811" lon="17.8278330871">
        <ele>0</ele>
        <time>2013-05-03T20:23:15Z</time>
      </trkpt>
      <trkpt lat="59.4381777955" lon="17.8281089354">
        <ele>0</ele>
        <time>2013-05-03T20:23:22Z</time>
      </trkpt>
      <trkpt lat="59.4382466109" lon="17.8280697919">
        <ele>0</ele>
        <time>2013-05-03T20:23:23Z</time>
      </trkpt>
      <trkpt lat="59.4383222156" lon="17.8279858891">
        <ele>0</ele>
        <time>2013-05-03T20:23:24Z</time>
      </trkpt>
      <trkpt lat="59.4383984071" lon="17.827730325">
        <ele>0</ele>
        <time>2013-05-03T20:23:26Z</time>
      </trkpt>
      <trkpt lat="59.4384439208" lon="17.8274123157">
        <ele>0</ele>
        <time>2013-05-03T20:23:28Z</time>
      </trkpt>
      <trkpt lat="59.4384817232" lon="17.8271187815">
        <ele>0</ele>
        <time>2013-05-03T20:23:30Z</time>
      </trkpt>
      <trkpt lat="59.4385786179" lon="17.8267012791">
        <ele>0</ele>
        <time>2013-05-03T20:23:33Z</time>
      </trkpt>
      <trkpt lat="59.4386396382" lon="17.8266287757">
        <ele>0</ele>
        <time>2013-05-03T20:23:34Z</time>
      </trkpt>
      <trkpt lat="59.4388163286" lon="17.8266547596">
        <ele>0</ele>
        <time>2013-05-03T20:23:36Z</time>
      </trkpt>
      <trkpt lat="59.4390029097" lon="17.8267170371">
        <ele>0</ele>
        <time>2013-05-03T20:23:38Z</time>
      </trkpt>
      <trkpt lat="59.4391873953" lon="17.8267519058">
        <ele>0</ele>
        <time>2013-05-03T20:23:40Z</time>
      </trkpt>
      <trkpt lat="59.4396766468" lon="17.8267612935">
        <ele>0</ele>
        <time>2013-05-03T20:23:45Z</time>
      </trkpt>
      <trkpt lat="59.4401418423" lon="17.8266222378">
        <ele>0</ele>
        <time>2013-05-03T20:23:50Z</time>
      </trkpt>
      <trkpt lat="59.4406807984" lon="17.8263749717">
        <ele>0</ele>
        <time>2013-05-03T20:23:56Z</time>
      </trkpt>
      <trkpt lat="59.4407711553" lon="17.8263198188">
        <ele>0</ele>
        <time>2013-05-03T20:23:57Z</time>
      </trkpt>
      <trkpt lat="59.4413045794" lon="17.8259616603">
        <ele>0</ele>
        <time>2013-05-03T20:24:03Z</time>
      </trkpt>
      <trkpt lat="59.4413914997" lon="17.8259014782">
        <ele>0</ele>
        <time>2013-05-03T20:24:04Z</time>
      </trkpt>
      <trkpt lat="59.4417500774" lon="17.8256671203">
        <ele>0</ele>
        <time>2013-05-03T20:24:08Z</time>
      </trkpt>
      <trkpt lat="59.4418369977" lon="17.8256166612">
        <ele>0</ele>
        <time>2013-05-03T20:24:09Z</time>
      </trkpt>
      <trkpt lat="59.4419219064" lon="17.8255646935">
        <ele>0</ele>
        <time>2013-05-03T20:24:10Z</time>
      </trkpt>
      <trkpt lat="59.4420084076" lon="17.8255153241">
        <ele>0</ele>
        <time>2013-05-03T20:24:11Z</time>
      </trkpt>
      <trkpt lat="59.4420973395" lon="17.825461177">
        <ele>0</ele>
        <time>2013-05-03T20:24:12Z</time>
      </trkpt>
      <trkpt lat="59.4426204539" lon="17.8252487797">
        <ele>0</ele>
        <time>2013-05-03T20:24:18Z</time>
      </trkpt>
      <trkpt lat="59.4431708095" lon="17.8251480292">
        <ele>0</ele>
        <time>2013-05-03T20:24:24Z</time>
      </trkpt>
      <trkpt lat="59.4437784134" lon="17.8251264039">
        <ele>0</ele>
        <time>2013-05-03T20:24:31Z</time>
      </trkpt>
      <trkpt lat="59.4443921361" lon="17.8251775335">
        <ele>0</ele>
        <time>2013-05-03T20:24:38Z</time>
      </trkpt>
      <trkpt lat="59.4447773683" lon="17.8252623583">
        <ele>0</ele>
        <time>2013-05-03T20:24:42Z</time>
      </trkpt>
      <trkpt lat="59.4448788731" lon="17.8252885099">
        <ele>0</ele>
        <time>2013-05-03T20:24:43Z</time>
      </trkpt>
      <trkpt lat="59.444974762" lon="17.8253114763">
        <ele>0</ele>
        <time>2013-05-03T20:24:44Z</time>
      </trkpt>
      <trkpt lat="59.4450697289" lon="17.8253367058">
        <ele>0</ele>
        <time>2013-05-03T20:24:45Z</time>
      </trkpt>
      <trkpt lat="59.4451617622" lon="17.8253611809">
        <ele>0</ele>
        <time>2013-05-03T20:24:46Z</time>
      </trkpt>
      <trkpt lat="59.4457503392" lon="17.8255046791">
        <ele>0</ele>
        <time>2013-05-03T20:24:52Z</time>
      </trkpt>
      <trkpt lat="59.4462780636" lon="17.8255551381">
        <ele>0</ele>
        <time>2013-05-03T20:24:58Z</time>
      </trkpt>
      <trkpt lat="59.4463657383" lon="17.8255506119">
        <ele>0</ele>
        <time>2013-05-03T20:24:59Z</time>
      </trkpt>
      <trkpt lat="59.4464514013" lon="17.8255470077">
        <ele>0</ele>
        <time>2013-05-03T20:25:00Z</time>
      </trkpt>
      <trkpt lat="59.4465385731" lon="17.8255330937">
        <ele>0</ele>
        <time>2013-05-03T20:25:01Z</time>
      </trkpt>
      <trkpt lat="59.4466222244" lon="17.8255126419">
        <ele>0</ele>
        <time>2013-05-03T20:25:02Z</time>
      </trkpt>
      <trkpt lat="59.4469635354" lon="17.8254355284">
        <ele>0</ele>
        <time>2013-05-03T20:25:06Z</time>
      </trkpt>
      <trkpt lat="59.447521267" lon="17.8251993264">
        <ele>0</ele>
        <time>2013-05-03T20:25:13Z</time>
      </trkpt>
      <trkpt lat="59.4480314733" lon="17.8248013538">
        <ele>0</ele>
        <time>2013-05-03T20:25:20Z</time>
      </trkpt>
      <trkpt lat="59.4481868737" lon="17.8246789781">
        <ele>0</ele>
        <time>2013-05-03T20:25:22Z</time>
      </trkpt>
      <trkpt lat="59.4482608859" lon="17.8246198019">
        <ele>0</ele>
        <time>2013-05-03T20:25:23Z</time>
      </trkpt>
      <trkpt lat="59.4483307909" lon="17.8245687561">
        <ele>0</ele>
        <time>2013-05-03T20:25:24Z</time>
      </trkpt>
      <trkpt lat="59.4483938228" lon="17.8245229071">
        <ele>0</ele>
        <time>2013-05-03T20:25:25Z</time>
      </trkpt>
      <trkpt lat="59.4484551783" lon="17.8244840989">
        <ele>0</ele>
        <time>2013-05-03T20:25:26Z</time>
      </trkpt>
      <trkpt lat="59.4485158633" lon="17.824460462">
        <ele>0</ele>
        <time>2013-05-03T20:25:27Z</time>
      </trkpt>
      <trkpt lat="59.4486798971" lon="17.8243499047">
        <ele>0</ele>
        <time>2013-05-03T20:25:30Z</time>
      </trkpt>
      <trkpt lat="59.4487840841" lon="17.8240104378">
        <ele>0</ele>
        <time>2013-05-03T20:25:33Z</time>
      </trkpt>
      <trkpt lat="59.4487486287" lon="17.8235152351">
        <ele>0</ele>
        <time>2013-05-03T20:25:36Z</time>
      </trkpt>
      <trkpt lat="59.4487375645" lon="17.823366624">
        <ele>0</ele>
        <time>2013-05-03T20:25:37Z</time>
      </trkpt>
      <trkpt lat="59.4487210522" lon="17.823211475">
        <ele>0</ele>
        <time>2013-05-03T20:25:38Z</time>
      </trkpt>
      <trkpt lat="59.4487057133" lon="17.8230549012">
        <ele>0</ele>
        <time>2013-05-03T20:25:39Z</time>
      </trkpt>
      <trkpt lat="59.4487006004" lon="17.8228917056">
        <ele>0</ele>
        <time>2013-05-03T20:25:40Z</time>
      </trkpt>
      <trkpt lat="59.448693811" lon="17.8227242352">
        <ele>0</ele>
        <time>2013-05-03T20:25:41Z</time>
      </trkpt>
      <trkpt lat="59.4486871055" lon="17.8224000233">
        <ele>0</ele>
        <time>2013-05-03T20:25:43Z</time>
      </trkpt>
      <trkpt lat="59.4486863511" lon="17.8212950374">
        <ele>0</ele>
        <time>2013-05-03T20:25:50Z</time>
      </trkpt>
      <trkpt lat="59.4486886981" lon="17.8211415648">
        <ele>0</ele>
        <time>2013-05-03T20:25:51Z</time>
      </trkpt>
      <trkpt lat="59.4487345471" lon="17.8200426977">
        <ele>0</ele>
        <time>2013-05-03T20:25:58Z</time>
      </trkpt>
      <trkpt lat="59.4487442701" lon="17.8198834416">
        <ele>0</ele>
        <time>2013-05-03T20:25:59Z</time>
      </trkpt>
      <trkpt lat="59.4488275023" lon="17.8189704013">
        <ele>0</ele>
        <time>2013-05-03T20:26:05Z</time>
      </trkpt>
      <trkpt lat="59.4489345392" lon="17.8181695107">
        <ele>0</ele>
        <time>2013-05-03T20:26:10Z</time>
      </trkpt>
      <trkpt lat="59.4489611936" lon="17.8180101708">
        <ele>0</ele>
        <time>2013-05-03T20:26:11Z</time>
      </trkpt>
      <trkpt lat="59.4489854173" lon="17.8178489869">
        <ele>0</ele>
        <time>2013-05-03T20:26:12Z</time>
      </trkpt>
      <trkpt lat="59.4490106468" lon="17.8176831929">
        <ele>0</ele>
        <time>2013-05-03T20:26:13Z</time>
      </trkpt>
      <trkpt lat="59.4490383909" lon="17.8175160578">
        <ele>0</ele>
        <time>2013-05-03T20:26:14Z</time>
      </trkpt>
      <trkpt lat="59.4491377165" lon="17.8170077794">
        <ele>0</ele>
        <time>2013-05-03T20:26:17Z</time>
      </trkpt>
      <trkpt lat="59.4491783687" lon="17.8168427398">
        <ele>0</ele>
        <time>2013-05-03T20:26:18Z</time>
      </trkpt>
      <trkpt lat="59.4492204458" lon="17.8166753532">
        <ele>0</ele>
        <time>2013-05-03T20:26:19Z</time>
      </trkpt>
      <trkpt lat="59.449258332" lon="17.8165003392">
        <ele>0</ele>
        <time>2013-05-03T20:26:20Z</time>
      </trkpt>
      <trkpt lat="59.4492973078" lon="17.8163260795">
        <ele>0</ele>
        <time>2013-05-03T20:26:21Z</time>
      </trkpt>
      <trkpt lat="59.4494503613" lon="17.8158155379">
        <ele>0</ele>
        <time>2013-05-03T20:26:24Z</time>
      </trkpt>
      <trkpt lat="59.449496378" lon="17.8156438766">
        <ele>0</ele>
        <time>2013-05-03T20:26:25Z</time>
      </trkpt>
      <trkpt lat="59.4495407182" lon="17.8154747299">
        <ele>0</ele>
        <time>2013-05-03T20:26:26Z</time>
      </trkpt>
      <trkpt lat="59.4495925183" lon="17.8153053317">
        <ele>0</ele>
        <time>2013-05-03T20:26:27Z</time>
      </trkpt>
      <trkpt lat="59.4496444861" lon="17.81513015">
        <ele>0</ele>
        <time>2013-05-03T20:26:28Z</time>
      </trkpt>
      <trkpt lat="59.4496964539" lon="17.8149584887">
        <ele>0</ele>
        <time>2013-05-03T20:26:29Z</time>
      </trkpt>
      <trkpt lat="59.4498100287" lon="17.8146140764">
        <ele>0</ele>
        <time>2013-05-03T20:26:31Z</time>
      </trkpt>
      <trkpt lat="59.450126613" lon="17.8136921512">
        <ele>0</ele>
        <time>2013-05-03T20:26:37Z</time>
      </trkpt>
      <trkpt lat="59.4503935765" lon="17.8129412168">
        <ele>0</ele>
        <time>2013-05-03T20:26:42Z</time>
      </trkpt>
      <trkpt lat="59.4504524175" lon="17.8128004009">
        <ele>0</ele>
        <time>2013-05-03T20:26:43Z</time>
      </trkpt>
      <trkpt lat="59.4505092467" lon="17.8126559807">
        <ele>0</ele>
        <time>2013-05-03T20:26:44Z</time>
      </trkpt>
      <trkpt lat="59.4505694288" lon="17.8125115606">
        <ele>0</ele>
        <time>2013-05-03T20:26:45Z</time>
      </trkpt>
      <trkpt lat="59.4506271801" lon="17.8123686492">
        <ele>0</ele>
        <time>2013-05-03T20:26:46Z</time>
      </trkpt>
      <trkpt lat="59.450977795" lon="17.8114971831">
        <ele>0</ele>
        <time>2013-05-03T20:26:52Z</time>
      </trkpt>
      <trkpt lat="59.4512861651" lon="17.810797462">
        <ele>0</ele>
        <time>2013-05-03T20:26:57Z</time>
      </trkpt>
      <trkpt lat="59.4515082854" lon="17.8102793768">
        <ele>0</ele>
        <time>2013-05-03T20:27:01Z</time>
      </trkpt>
      <trkpt lat="59.4515705629" lon="17.8101523072">
        <ele>0</ele>
        <time>2013-05-03T20:27:02Z</time>
      </trkpt>
      <trkpt lat="59.4516268055" lon="17.8100318593">
        <ele>0</ele>
        <time>2013-05-03T20:27:03Z</time>
      </trkpt>
      <trkpt lat="59.4516822098" lon="17.8099178655">
        <ele>0</ele>
        <time>2013-05-03T20:27:04Z</time>
      </trkpt>
      <trkpt lat="59.4517380333" lon="17.8097999321">
        <ele>0</ele>
        <time>2013-05-03T20:27:05Z</time>
      </trkpt>
      <trkpt lat="59.4517911745" lon="17.8096790651">
        <ele>0</ele>
        <time>2013-05-03T20:27:06Z</time>
      </trkpt>
      <trkpt lat="59.4518457407" lon="17.809564736">
        <ele>0</ele>
        <time>2013-05-03T20:27:07Z</time>
      </trkpt>
      <trkpt lat="59.4519068448" lon="17.8094457969">
        <ele>0</ele>
        <time>2013-05-03T20:27:08Z</time>
      </trkpt>
      <trkpt lat="59.4519721398" lon="17.8093178052">
        <ele>0</ele>
        <time>2013-05-03T20:27:09Z</time>
      </trkpt>
      <trkpt lat="59.4520454814" lon="17.8091831081">
        <ele>0</ele>
        <time>2013-05-03T20:27:10Z</time>
      </trkpt>
      <trkpt lat="59.452354522" lon="17.8085345167">
        <ele>0</ele>
        <time>2013-05-03T20:27:15Z</time>
      </trkpt>
      <trkpt lat="59.4524199009" lon="17.8084351912">
        <ele>0</ele>
        <time>2013-05-03T20:27:16Z</time>
      </trkpt>
      <trkpt lat="59.4525899696" lon="17.8081278269">
        <ele>0</ele>
        <time>2013-05-03T20:27:19Z</time>
      </trkpt>
      <trkpt lat="59.452817622" lon="17.8077004338">
        <ele>0</ele>
        <time>2013-05-03T20:27:23Z</time>
      </trkpt>
      <trkpt lat="59.4531060432" lon="17.8071896408">
        <ele>0</ele>
        <time>2013-05-03T20:27:28Z</time>
      </trkpt>
      <trkpt lat="59.4532256529" lon="17.806989062">
        <ele>0</ele>
        <time>2013-05-03T20:27:30Z</time>
      </trkpt>
      <trkpt lat="59.4533356234" lon="17.8068115333">
        <ele>0</ele>
        <time>2013-05-03T20:27:32Z</time>
      </trkpt>
      <trkpt lat="59.4536040119" lon="17.8063172527">
        <ele>0</ele>
        <time>2013-05-03T20:27:37Z</time>
      </trkpt>
      <trkpt lat="59.4540351768" lon="17.8055260013">
        <ele>0</ele>
        <time>2013-05-03T20:27:45Z</time>
      </trkpt>
      <trkpt lat="59.4544399388" lon="17.8048629092">
        <ele>0</ele>
        <time>2013-05-03T20:27:52Z</time>
      </trkpt>
      <trkpt lat="59.4546285315" lon="17.8045834567">
        <ele>0</ele>
        <time>2013-05-03T20:27:55Z</time>
      </trkpt>
      <trkpt lat="59.4547651565" lon="17.8044476699">
        <ele>0</ele>
        <time>2013-05-03T20:27:57Z</time>
      </trkpt>
      <trkpt lat="59.4548389172" lon="17.804399474">
        <ele>0</ele>
        <time>2013-05-03T20:27:58Z</time>
      </trkpt>
      <trkpt lat="59.4551424258" lon="17.8043273058">
        <ele>0</ele>
        <time>2013-05-03T20:28:02Z</time>
      </trkpt>
      <trkpt lat="59.4552038651" lon="17.8043392919">
        <ele>0</ele>
        <time>2013-05-03T20:28:03Z</time>
      </trkpt>
      <trkpt lat="59.4553912844" lon="17.8044045869">
        <ele>0</ele>
        <time>2013-05-03T20:28:06Z</time>
      </trkpt>
      <trkpt lat="59.4555181864" lon="17.8044910881">
        <ele>0</ele>
        <time>2013-05-03T20:28:08Z</time>
      </trkpt>
      <trkpt lat="59.4555815535" lon="17.8045442294">
        <ele>0</ele>
        <time>2013-05-03T20:28:09Z</time>
      </trkpt>
      <trkpt lat="59.4556491116" lon="17.8046208399">
        <ele>0</ele>
        <time>2013-05-03T20:28:10Z</time>
      </trkpt>
      <trkpt lat="59.4557095451" lon="17.8046762443">
        <ele>0</ele>
        <time>2013-05-03T20:28:11Z</time>
      </trkpt>
      <trkpt lat="59.4557665421" lon="17.8047272062">
        <ele>0</ele>
        <time>2013-05-03T20:28:12Z</time>
      </trkpt>
      <trkpt lat="59.4558267241" lon="17.8047873045">
        <ele>0</ele>
        <time>2013-05-03T20:28:13Z</time>
      </trkpt>
      <trkpt lat="59.4558910133" lon="17.8048342431">
        <ele>0</ele>
        <time>2013-05-03T20:28:14Z</time>
      </trkpt>
      <trkpt lat="59.4559572303" lon="17.8049004601">
        <ele>0</ele>
        <time>2013-05-03T20:28:15Z</time>
      </trkpt>
      <trkpt lat="59.4560213518" lon="17.804949159">
        <ele>0</ele>
        <time>2013-05-03T20:28:16Z</time>
      </trkpt>
      <trkpt lat="59.4560883232" lon="17.8049907332">
        <ele>0</ele>
        <time>2013-05-03T20:28:17Z</time>
      </trkpt>
      <trkpt lat="59.4561630059" lon="17.8050477301">
        <ele>0</ele>
        <time>2013-05-03T20:28:18Z</time>
      </trkpt>
      <trkpt lat="59.4566972682" lon="17.805420557">
        <ele>0</ele>
        <time>2013-05-03T20:28:26Z</time>
      </trkpt>
      <trkpt lat="59.456759881" lon="17.8054674957">
        <ele>0</ele>
        <time>2013-05-03T20:28:27Z</time>
      </trkpt>
      <trkpt lat="59.4570008607" lon="17.8056053779">
        <ele>0</ele>
        <time>2013-05-03T20:28:31Z</time>
      </trkpt>
      <trkpt lat="59.4570629705" lon="17.8055855966">
        <ele>0</ele>
        <time>2013-05-03T20:28:32Z</time>
      </trkpt>
      <trkpt lat="59.4571612064" lon="17.8054569345">
        <ele>0</ele>
        <time>2013-05-03T20:28:34Z</time>
      </trkpt>
      <trkpt lat="59.4573011841" lon="17.8052022923">
        <ele>0</ele>
        <time>2013-05-03T20:28:37Z</time>
      </trkpt>
      <trkpt lat="59.4573738552" lon="17.80502183">
        <ele>0</ele>
        <time>2013-05-03T20:28:39Z</time>
      </trkpt>
      <trkpt lat="59.4574220511" lon="17.8049393521">
        <ele>0</ele>
        <time>2013-05-03T20:28:40Z</time>
      </trkpt>
      <trkpt lat="59.4575253161" lon="17.8047920822">
        <ele>0</ele>
        <time>2013-05-03T20:28:42Z</time>
      </trkpt>
      <trkpt lat="59.4575808043" lon="17.8047224286">
        <ele>0</ele>
        <time>2013-05-03T20:28:43Z</time>
      </trkpt>
      <trkpt lat="59.4576391423" lon="17.8046568821">
        <ele>0</ele>
        <time>2013-05-03T20:28:44Z</time>
      </trkpt>
      <trkpt lat="59.4576999111" lon="17.8045880667">
        <ele>0</ele>
        <time>2013-05-03T20:28:45Z</time>
      </trkpt>
      <trkpt lat="59.4578313393" lon="17.8044796887">
        <ele>0</ele>
        <time>2013-05-03T20:28:47Z</time>
      </trkpt>
      <trkpt lat="59.4579754242" lon="17.8043982167">
        <ele>0</ele>
        <time>2013-05-03T20:28:49Z</time>
      </trkpt>
      <trkpt lat="59.4581241191" lon="17.8043451592">
        <ele>0</ele>
        <time>2013-05-03T20:28:51Z</time>
      </trkpt>
      <trkpt lat="59.4581986342" lon="17.8043396272">
        <ele>0</ele>
        <time>2013-05-03T20:28:52Z</time>
      </trkpt>
      <trkpt lat="59.4582714729" lon="17.8043352686">
        <ele>0</ele>
        <time>2013-05-03T20:28:53Z</time>
      </trkpt>
      <trkpt lat="59.4583423838" lon="17.8043414712">
        <ele>0</ele>
        <time>2013-05-03T20:28:54Z</time>
      </trkpt>
      <trkpt lat="59.4584133784" lon="17.8043570615">
        <ele>0</ele>
        <time>2013-05-03T20:28:55Z</time>
      </trkpt>
      <trkpt lat="59.4586059107" lon="17.8044185847">
        <ele>0</ele>
        <time>2013-05-03T20:28:58Z</time>
      </trkpt>
      <trkpt lat="59.4586659251" lon="17.8044177465">
        <ele>0</ele>
        <time>2013-05-03T20:28:59Z</time>
      </trkpt>
      <trkpt lat="59.4587783264" lon="17.8044057604">
        <ele>0</ele>
        <time>2013-05-03T20:29:01Z</time>
      </trkpt>
      <trkpt lat="59.4588313" lon="17.8044065986">
        <ele>0</ele>
        <time>2013-05-03T20:29:02Z</time>
      </trkpt>
      <trkpt lat="59.4588797474" lon="17.8043722328">
        <ele>0</ele>
        <time>2013-05-03T20:29:03Z</time>
      </trkpt>
      <trkpt lat="59.4589642369" lon="17.804307776">
        <ele>0</ele>
        <time>2013-05-03T20:29:05Z</time>
      </trkpt>
    </trkseg>
  </trk>
</gpx>